<?xml version="1.0" encoding="UTF-8" ?>
<gpx version="1.1" xmlns:xsi="http://www.w3.org/2001/XMLSchema-instance" 
    xmlns="http://www.topografix.com/GPX/1/1" 
    xsi:schemaLocation="http://www.topografix.com/GPX/1/1 http://www.topografix.com/GPX/1/1/gpx.xsd"
    xmlns:tpx="http://www.garmin.com/xmlschemas/TrackPointExtension/v1"
    creator="Openrunner - https://www.openrunner.com" >	
	<trk>
		<name>prom 2 Montreuil belley du 15/07/2022</name>
		<trkseg>
					<trkpt lat="47.134880" lon="-0.153880">
						<ele>33</ele>
						<time>2022-07-15T04:18:32Z</time>
					</trkpt>
					<trkpt lat="47.134900" lon="-0.153880">
						<ele>33</ele>
						<time>2022-07-15T04:18:35Z</time>
					</trkpt>
					<trkpt lat="47.134930" lon="-0.153900">
						<ele>34</ele>
						<time>2022-07-15T04:18:38Z</time>
					</trkpt>
					<trkpt lat="47.134960" lon="-0.153920">
						<ele>33</ele>
						<time>2022-07-15T04:18:41Z</time>
					</trkpt>
					<trkpt lat="47.134990" lon="-0.153940">
						<ele>33</ele>
						<time>2022-07-15T04:18:44Z</time>
					</trkpt>
					<trkpt lat="47.135010" lon="-0.153970">
						<ele>32</ele>
						<time>2022-07-15T04:18:47Z</time>
					</trkpt>
					<trkpt lat="47.135030" lon="-0.154010">
						<ele>32</ele>
						<time>2022-07-15T04:18:50Z</time>
					</trkpt>
					<trkpt lat="47.135060" lon="-0.154040">
						<ele>33</ele>
						<time>2022-07-15T04:18:53Z</time>
					</trkpt>
					<trkpt lat="47.135080" lon="-0.154070">
						<ele>34</ele>
						<time>2022-07-15T04:18:55Z</time>
					</trkpt>
					<trkpt lat="47.135110" lon="-0.154090">
						<ele>34</ele>
						<time>2022-07-15T04:18:57Z</time>
					</trkpt>
					<trkpt lat="47.135140" lon="-0.154100">
						<ele>34</ele>
						<time>2022-07-15T04:19:00Z</time>
					</trkpt>
					<trkpt lat="47.135170" lon="-0.154110">
						<ele>34</ele>
						<time>2022-07-15T04:19:03Z</time>
					</trkpt>
					<trkpt lat="47.135200" lon="-0.154130">
						<ele>34</ele>
						<time>2022-07-15T04:19:07Z</time>
					</trkpt>
					<trkpt lat="47.135230" lon="-0.154160">
						<ele>35</ele>
						<time>2022-07-15T04:19:10Z</time>
					</trkpt>
					<trkpt lat="47.135260" lon="-0.154200">
						<ele>35</ele>
						<time>2022-07-15T04:19:20Z</time>
					</trkpt>
					<trkpt lat="47.135290" lon="-0.154230">
						<ele>36</ele>
						<time>2022-07-15T04:19:24Z</time>
					</trkpt>
					<trkpt lat="47.135320" lon="-0.154260">
						<ele>37</ele>
						<time>2022-07-15T04:19:27Z</time>
					</trkpt>
					<trkpt lat="47.135350" lon="-0.154280">
						<ele>37</ele>
						<time>2022-07-15T04:19:33Z</time>
					</trkpt>
					<trkpt lat="47.135380" lon="-0.154290">
						<ele>38</ele>
						<time>2022-07-15T04:19:35Z</time>
					</trkpt>
					<trkpt lat="47.135410" lon="-0.154320">
						<ele>38</ele>
						<time>2022-07-15T04:19:38Z</time>
					</trkpt>
					<trkpt lat="47.135430" lon="-0.154350">
						<ele>38</ele>
						<time>2022-07-15T04:19:40Z</time>
					</trkpt>
					<trkpt lat="47.135460" lon="-0.154380">
						<ele>39</ele>
						<time>2022-07-15T04:19:42Z</time>
					</trkpt>
					<trkpt lat="47.135480" lon="-0.154410">
						<ele>40</ele>
						<time>2022-07-15T04:19:44Z</time>
					</trkpt>
					<trkpt lat="47.135510" lon="-0.154440">
						<ele>41</ele>
						<time>2022-07-15T04:19:46Z</time>
					</trkpt>
					<trkpt lat="47.135540" lon="-0.154470">
						<ele>41</ele>
						<time>2022-07-15T04:19:48Z</time>
					</trkpt>
					<trkpt lat="47.135560" lon="-0.154490">
						<ele>42</ele>
						<time>2022-07-15T04:19:50Z</time>
					</trkpt>
					<trkpt lat="47.135590" lon="-0.154520">
						<ele>42</ele>
						<time>2022-07-15T04:19:53Z</time>
					</trkpt>
					<trkpt lat="47.135610" lon="-0.154550">
						<ele>43</ele>
						<time>2022-07-15T04:19:55Z</time>
					</trkpt>
					<trkpt lat="47.135630" lon="-0.154580">
						<ele>43</ele>
						<time>2022-07-15T04:19:57Z</time>
					</trkpt>
					<trkpt lat="47.135660" lon="-0.154620">
						<ele>42</ele>
						<time>2022-07-15T04:20:00Z</time>
					</trkpt>
					<trkpt lat="47.135680" lon="-0.154660">
						<ele>41</ele>
						<time>2022-07-15T04:20:03Z</time>
					</trkpt>
					<trkpt lat="47.135710" lon="-0.154690">
						<ele>42</ele>
						<time>2022-07-15T04:20:06Z</time>
					</trkpt>
					<trkpt lat="47.135740" lon="-0.154720">
						<ele>42</ele>
						<time>2022-07-15T04:20:08Z</time>
					</trkpt>
					<trkpt lat="47.135770" lon="-0.154750">
						<ele>41</ele>
						<time>2022-07-15T04:20:11Z</time>
					</trkpt>
					<trkpt lat="47.135800" lon="-0.154770">
						<ele>40</ele>
						<time>2022-07-15T04:20:14Z</time>
					</trkpt>
					<trkpt lat="47.135820" lon="-0.154800">
						<ele>40</ele>
						<time>2022-07-15T04:20:17Z</time>
					</trkpt>
					<trkpt lat="47.135850" lon="-0.154830">
						<ele>39</ele>
						<time>2022-07-15T04:20:20Z</time>
					</trkpt>
					<trkpt lat="47.135880" lon="-0.154860">
						<ele>39</ele>
						<time>2022-07-15T04:20:22Z</time>
					</trkpt>
					<trkpt lat="47.135910" lon="-0.154900">
						<ele>39</ele>
						<time>2022-07-15T04:20:24Z</time>
					</trkpt>
					<trkpt lat="47.135930" lon="-0.154930">
						<ele>39</ele>
						<time>2022-07-15T04:20:26Z</time>
					</trkpt>
					<trkpt lat="47.135970" lon="-0.154970">
						<ele>39</ele>
						<time>2022-07-15T04:20:29Z</time>
					</trkpt>
					<trkpt lat="47.135990" lon="-0.155000">
						<ele>38</ele>
						<time>2022-07-15T04:20:31Z</time>
					</trkpt>
					<trkpt lat="47.136020" lon="-0.155040">
						<ele>38</ele>
						<time>2022-07-15T04:20:33Z</time>
					</trkpt>
					<trkpt lat="47.136050" lon="-0.155070">
						<ele>38</ele>
						<time>2022-07-15T04:20:36Z</time>
					</trkpt>
					<trkpt lat="47.136080" lon="-0.155100">
						<ele>38</ele>
						<time>2022-07-15T04:20:39Z</time>
					</trkpt>
					<trkpt lat="47.136110" lon="-0.155120">
						<ele>38</ele>
						<time>2022-07-15T04:20:42Z</time>
					</trkpt>
					<trkpt lat="47.136140" lon="-0.155140">
						<ele>38</ele>
						<time>2022-07-15T04:20:45Z</time>
					</trkpt>
					<trkpt lat="47.136160" lon="-0.155170">
						<ele>37</ele>
						<time>2022-07-15T04:20:48Z</time>
					</trkpt>
					<trkpt lat="47.136190" lon="-0.155200">
						<ele>37</ele>
						<time>2022-07-15T04:20:50Z</time>
					</trkpt>
					<trkpt lat="47.136210" lon="-0.155230">
						<ele>36</ele>
						<time>2022-07-15T04:20:52Z</time>
					</trkpt>
					<trkpt lat="47.136240" lon="-0.155260">
						<ele>36</ele>
						<time>2022-07-15T04:20:54Z</time>
					</trkpt>
					<trkpt lat="47.136260" lon="-0.155300">
						<ele>36</ele>
						<time>2022-07-15T04:20:57Z</time>
					</trkpt>
					<trkpt lat="47.136290" lon="-0.155330">
						<ele>35</ele>
						<time>2022-07-15T04:21:00Z</time>
					</trkpt>
					<trkpt lat="47.136320" lon="-0.155350">
						<ele>35</ele>
						<time>2022-07-15T04:21:02Z</time>
					</trkpt>
					<trkpt lat="47.136350" lon="-0.155390">
						<ele>35</ele>
						<time>2022-07-15T04:21:05Z</time>
					</trkpt>
					<trkpt lat="47.136370" lon="-0.155420">
						<ele>35</ele>
						<time>2022-07-15T04:21:10Z</time>
					</trkpt>
					<trkpt lat="47.136390" lon="-0.155450">
						<ele>36</ele>
						<time>2022-07-15T04:21:16Z</time>
					</trkpt>
					<trkpt lat="47.136420" lon="-0.155480">
						<ele>36</ele>
						<time>2022-07-15T04:21:20Z</time>
					</trkpt>
					<trkpt lat="47.136440" lon="-0.155500">
						<ele>36</ele>
						<time>2022-07-15T04:21:23Z</time>
					</trkpt>
					<trkpt lat="47.136460" lon="-0.155530">
						<ele>36</ele>
						<time>2022-07-15T04:21:26Z</time>
					</trkpt>
					<trkpt lat="47.136490" lon="-0.155570">
						<ele>37</ele>
						<time>2022-07-15T04:21:29Z</time>
					</trkpt>
					<trkpt lat="47.136510" lon="-0.155600">
						<ele>36</ele>
						<time>2022-07-15T04:21:31Z</time>
					</trkpt>
					<trkpt lat="47.136540" lon="-0.155620">
						<ele>36</ele>
						<time>2022-07-15T04:21:33Z</time>
					</trkpt>
					<trkpt lat="47.136560" lon="-0.155650">
						<ele>37</ele>
						<time>2022-07-15T04:21:35Z</time>
					</trkpt>
					<trkpt lat="47.136580" lon="-0.155680">
						<ele>37</ele>
						<time>2022-07-15T04:21:37Z</time>
					</trkpt>
					<trkpt lat="47.136610" lon="-0.155720">
						<ele>38</ele>
						<time>2022-07-15T04:21:40Z</time>
					</trkpt>
					<trkpt lat="47.136630" lon="-0.155760">
						<ele>39</ele>
						<time>2022-07-15T04:21:43Z</time>
					</trkpt>
					<trkpt lat="47.136660" lon="-0.155790">
						<ele>39</ele>
						<time>2022-07-15T04:21:45Z</time>
					</trkpt>
					<trkpt lat="47.136680" lon="-0.155820">
						<ele>40</ele>
						<time>2022-07-15T04:21:47Z</time>
					</trkpt>
					<trkpt lat="47.136700" lon="-0.155850">
						<ele>40</ele>
						<time>2022-07-15T04:21:49Z</time>
					</trkpt>
					<trkpt lat="47.136730" lon="-0.155880">
						<ele>40</ele>
						<time>2022-07-15T04:21:52Z</time>
					</trkpt>
					<trkpt lat="47.136760" lon="-0.155910">
						<ele>40</ele>
						<time>2022-07-15T04:21:55Z</time>
					</trkpt>
					<trkpt lat="47.136790" lon="-0.155940">
						<ele>40</ele>
						<time>2022-07-15T04:21:58Z</time>
					</trkpt>
					<trkpt lat="47.136820" lon="-0.155970">
						<ele>39</ele>
						<time>2022-07-15T04:22:00Z</time>
					</trkpt>
					<trkpt lat="47.136860" lon="-0.155990">
						<ele>39</ele>
						<time>2022-07-15T04:22:03Z</time>
					</trkpt>
					<trkpt lat="47.136890" lon="-0.156020">
						<ele>39</ele>
						<time>2022-07-15T04:22:06Z</time>
					</trkpt>
					<trkpt lat="47.136920" lon="-0.156060">
						<ele>39</ele>
						<time>2022-07-15T04:22:09Z</time>
					</trkpt>
					<trkpt lat="47.136950" lon="-0.156090">
						<ele>39</ele>
						<time>2022-07-15T04:22:12Z</time>
					</trkpt>
					<trkpt lat="47.136970" lon="-0.156120">
						<ele>39</ele>
						<time>2022-07-15T04:22:15Z</time>
					</trkpt>
					<trkpt lat="47.137000" lon="-0.156150">
						<ele>38</ele>
						<time>2022-07-15T04:22:18Z</time>
					</trkpt>
					<trkpt lat="47.137030" lon="-0.156190">
						<ele>37</ele>
						<time>2022-07-15T04:22:21Z</time>
					</trkpt>
					<trkpt lat="47.137060" lon="-0.156220">
						<ele>37</ele>
						<time>2022-07-15T04:22:23Z</time>
					</trkpt>
					<trkpt lat="47.137090" lon="-0.156250">
						<ele>36</ele>
						<time>2022-07-15T04:22:25Z</time>
					</trkpt>
					<trkpt lat="47.137120" lon="-0.156280">
						<ele>36</ele>
						<time>2022-07-15T04:22:27Z</time>
					</trkpt>
					<trkpt lat="47.137150" lon="-0.156310">
						<ele>36</ele>
						<time>2022-07-15T04:22:29Z</time>
					</trkpt>
					<trkpt lat="47.137170" lon="-0.156340">
						<ele>36</ele>
						<time>2022-07-15T04:22:31Z</time>
					</trkpt>
					<trkpt lat="47.137200" lon="-0.156370">
						<ele>35</ele>
						<time>2022-07-15T04:22:33Z</time>
					</trkpt>
					<trkpt lat="47.137230" lon="-0.156410">
						<ele>36</ele>
						<time>2022-07-15T04:22:35Z</time>
					</trkpt>
					<trkpt lat="47.137260" lon="-0.156440">
						<ele>36</ele>
						<time>2022-07-15T04:22:37Z</time>
					</trkpt>
					<trkpt lat="47.137290" lon="-0.156470">
						<ele>36</ele>
						<time>2022-07-15T04:22:38Z</time>
					</trkpt>
					<trkpt lat="47.137320" lon="-0.156510">
						<ele>36</ele>
						<time>2022-07-15T04:22:40Z</time>
					</trkpt>
					<trkpt lat="47.137350" lon="-0.156540">
						<ele>36</ele>
						<time>2022-07-15T04:22:41Z</time>
					</trkpt>
					<trkpt lat="47.137380" lon="-0.156580">
						<ele>36</ele>
						<time>2022-07-15T04:22:43Z</time>
					</trkpt>
					<trkpt lat="47.137400" lon="-0.156610">
						<ele>36</ele>
						<time>2022-07-15T04:22:45Z</time>
					</trkpt>
					<trkpt lat="47.137430" lon="-0.156640">
						<ele>37</ele>
						<time>2022-07-15T04:22:48Z</time>
					</trkpt>
					<trkpt lat="47.137460" lon="-0.156670">
						<ele>38</ele>
						<time>2022-07-15T04:22:50Z</time>
					</trkpt>
					<trkpt lat="47.137500" lon="-0.156700">
						<ele>38</ele>
						<time>2022-07-15T04:22:52Z</time>
					</trkpt>
					<trkpt lat="47.137530" lon="-0.156730">
						<ele>38</ele>
						<time>2022-07-15T04:22:54Z</time>
					</trkpt>
					<trkpt lat="47.137560" lon="-0.156760">
						<ele>39</ele>
						<time>2022-07-15T04:22:56Z</time>
					</trkpt>
					<trkpt lat="47.137580" lon="-0.156790">
						<ele>39</ele>
						<time>2022-07-15T04:22:58Z</time>
					</trkpt>
					<trkpt lat="47.137610" lon="-0.156810">
						<ele>39</ele>
						<time>2022-07-15T04:23:00Z</time>
					</trkpt>
					<trkpt lat="47.137630" lon="-0.156840">
						<ele>40</ele>
						<time>2022-07-15T04:23:02Z</time>
					</trkpt>
					<trkpt lat="47.137660" lon="-0.156870">
						<ele>40</ele>
						<time>2022-07-15T04:23:04Z</time>
					</trkpt>
					<trkpt lat="47.137680" lon="-0.156900">
						<ele>39</ele>
						<time>2022-07-15T04:23:06Z</time>
					</trkpt>
					<trkpt lat="47.137710" lon="-0.156920">
						<ele>39</ele>
						<time>2022-07-15T04:23:08Z</time>
					</trkpt>
					<trkpt lat="47.137730" lon="-0.156940">
						<ele>38</ele>
						<time>2022-07-15T04:23:10Z</time>
					</trkpt>
					<trkpt lat="47.137760" lon="-0.156970">
						<ele>38</ele>
						<time>2022-07-15T04:23:12Z</time>
					</trkpt>
					<trkpt lat="47.137780" lon="-0.157010">
						<ele>37</ele>
						<time>2022-07-15T04:23:15Z</time>
					</trkpt>
					<trkpt lat="47.137800" lon="-0.157040">
						<ele>36</ele>
						<time>2022-07-15T04:23:18Z</time>
					</trkpt>
					<trkpt lat="47.137830" lon="-0.157070">
						<ele>36</ele>
						<time>2022-07-15T04:23:21Z</time>
					</trkpt>
					<trkpt lat="47.137860" lon="-0.157100">
						<ele>37</ele>
						<time>2022-07-15T04:23:23Z</time>
					</trkpt>
					<trkpt lat="47.137880" lon="-0.157130">
						<ele>37</ele>
						<time>2022-07-15T04:23:25Z</time>
					</trkpt>
					<trkpt lat="47.137900" lon="-0.157160">
						<ele>38</ele>
						<time>2022-07-15T04:23:27Z</time>
					</trkpt>
					<trkpt lat="47.137930" lon="-0.157190">
						<ele>38</ele>
						<time>2022-07-15T04:23:29Z</time>
					</trkpt>
					<trkpt lat="47.137950" lon="-0.157220">
						<ele>40</ele>
						<time>2022-07-15T04:23:31Z</time>
					</trkpt>
					<trkpt lat="47.137980" lon="-0.157240">
						<ele>42</ele>
						<time>2022-07-15T04:23:33Z</time>
					</trkpt>
					<trkpt lat="47.138000" lon="-0.157270">
						<ele>42</ele>
						<time>2022-07-15T04:23:35Z</time>
					</trkpt>
					<trkpt lat="47.138030" lon="-0.157300">
						<ele>42</ele>
						<time>2022-07-15T04:23:37Z</time>
					</trkpt>
					<trkpt lat="47.138050" lon="-0.157330">
						<ele>43</ele>
						<time>2022-07-15T04:23:39Z</time>
					</trkpt>
					<trkpt lat="47.138070" lon="-0.157350">
						<ele>43</ele>
						<time>2022-07-15T04:23:41Z</time>
					</trkpt>
					<trkpt lat="47.138100" lon="-0.157390">
						<ele>43</ele>
						<time>2022-07-15T04:23:43Z</time>
					</trkpt>
					<trkpt lat="47.138130" lon="-0.157420">
						<ele>43</ele>
						<time>2022-07-15T04:23:45Z</time>
					</trkpt>
					<trkpt lat="47.138160" lon="-0.157440">
						<ele>43</ele>
						<time>2022-07-15T04:23:48Z</time>
					</trkpt>
					<trkpt lat="47.138180" lon="-0.157470">
						<ele>43</ele>
						<time>2022-07-15T04:23:50Z</time>
					</trkpt>
					<trkpt lat="47.138210" lon="-0.157510">
						<ele>43</ele>
						<time>2022-07-15T04:23:53Z</time>
					</trkpt>
					<trkpt lat="47.138240" lon="-0.157510">
						<ele>35</ele>
						<time>2022-07-15T04:23:55Z</time>
					</trkpt>
					<trkpt lat="47.138230" lon="-0.157520">
						<ele>44</ele>
						<time>2022-07-15T04:23:56Z</time>
					</trkpt>
					<trkpt lat="47.138270" lon="-0.157590">
						<ele>56</ele>
						<time>2022-07-15T04:23:58Z</time>
					</trkpt>
					<trkpt lat="47.138260" lon="-0.157580">
						<ele>50</ele>
						<time>2022-07-15T04:23:59Z</time>
					</trkpt>
					<trkpt lat="47.138270" lon="-0.157610">
						<ele>44</ele>
						<time>2022-07-15T04:24:02Z</time>
					</trkpt>
					<trkpt lat="47.138300" lon="-0.157650">
						<ele>41</ele>
						<time>2022-07-15T04:24:04Z</time>
					</trkpt>
					<trkpt lat="47.138330" lon="-0.157680">
						<ele>42</ele>
						<time>2022-07-15T04:24:06Z</time>
					</trkpt>
					<trkpt lat="47.138360" lon="-0.157700">
						<ele>42</ele>
						<time>2022-07-15T04:24:08Z</time>
					</trkpt>
					<trkpt lat="47.138380" lon="-0.157740">
						<ele>41</ele>
						<time>2022-07-15T04:24:10Z</time>
					</trkpt>
					<trkpt lat="47.138410" lon="-0.157770">
						<ele>42</ele>
						<time>2022-07-15T04:24:12Z</time>
					</trkpt>
					<trkpt lat="47.138420" lon="-0.157820">
						<ele>42</ele>
						<time>2022-07-15T04:24:15Z</time>
					</trkpt>
					<trkpt lat="47.138420" lon="-0.157860">
						<ele>41</ele>
						<time>2022-07-15T04:24:18Z</time>
					</trkpt>
					<trkpt lat="47.138440" lon="-0.157850">
						<ele>42</ele>
						<time>2022-07-15T04:24:23Z</time>
					</trkpt>
					<trkpt lat="47.138460" lon="-0.157830">
						<ele>43</ele>
						<time>2022-07-15T04:24:25Z</time>
					</trkpt>
					<trkpt lat="47.138480" lon="-0.157830">
						<ele>43</ele>
						<time>2022-07-15T04:24:28Z</time>
					</trkpt>
					<trkpt lat="47.138500" lon="-0.157840">
						<ele>43</ele>
						<time>2022-07-15T04:24:30Z</time>
					</trkpt>
					<trkpt lat="47.138530" lon="-0.157870">
						<ele>43</ele>
						<time>2022-07-15T04:24:33Z</time>
					</trkpt>
					<trkpt lat="47.138550" lon="-0.157910">
						<ele>43</ele>
						<time>2022-07-15T04:24:36Z</time>
					</trkpt>
					<trkpt lat="47.138580" lon="-0.157940">
						<ele>44</ele>
						<time>2022-07-15T04:24:39Z</time>
					</trkpt>
					<trkpt lat="47.138610" lon="-0.157980">
						<ele>45</ele>
						<time>2022-07-15T04:24:42Z</time>
					</trkpt>
					<trkpt lat="47.138630" lon="-0.158010">
						<ele>45</ele>
						<time>2022-07-15T04:24:44Z</time>
					</trkpt>
					<trkpt lat="47.138650" lon="-0.158040">
						<ele>45</ele>
						<time>2022-07-15T04:24:46Z</time>
					</trkpt>
					<trkpt lat="47.138680" lon="-0.158060">
						<ele>45</ele>
						<time>2022-07-15T04:24:48Z</time>
					</trkpt>
					<trkpt lat="47.138690" lon="-0.158100">
						<ele>45</ele>
						<time>2022-07-15T04:24:50Z</time>
					</trkpt>
					<trkpt lat="47.138710" lon="-0.158130">
						<ele>45</ele>
						<time>2022-07-15T04:24:52Z</time>
					</trkpt>
					<trkpt lat="47.138740" lon="-0.158160">
						<ele>45</ele>
						<time>2022-07-15T04:24:54Z</time>
					</trkpt>
					<trkpt lat="47.138760" lon="-0.158190">
						<ele>44</ele>
						<time>2022-07-15T04:24:56Z</time>
					</trkpt>
					<trkpt lat="47.138790" lon="-0.158220">
						<ele>44</ele>
						<time>2022-07-15T04:24:59Z</time>
					</trkpt>
					<trkpt lat="47.138810" lon="-0.158250">
						<ele>44</ele>
						<time>2022-07-15T04:25:01Z</time>
					</trkpt>
					<trkpt lat="47.138830" lon="-0.158270">
						<ele>43</ele>
						<time>2022-07-15T04:25:03Z</time>
					</trkpt>
					<trkpt lat="47.138860" lon="-0.158300">
						<ele>43</ele>
						<time>2022-07-15T04:25:05Z</time>
					</trkpt>
					<trkpt lat="47.138890" lon="-0.158330">
						<ele>43</ele>
						<time>2022-07-15T04:25:07Z</time>
					</trkpt>
					<trkpt lat="47.138930" lon="-0.158370">
						<ele>43</ele>
						<time>2022-07-15T04:25:09Z</time>
					</trkpt>
					<trkpt lat="47.138960" lon="-0.158420">
						<ele>43</ele>
						<time>2022-07-15T04:25:11Z</time>
					</trkpt>
					<trkpt lat="47.139000" lon="-0.158460">
						<ele>43</ele>
						<time>2022-07-15T04:25:13Z</time>
					</trkpt>
					<trkpt lat="47.139030" lon="-0.158500">
						<ele>43</ele>
						<time>2022-07-15T04:25:15Z</time>
					</trkpt>
					<trkpt lat="47.139060" lon="-0.158540">
						<ele>44</ele>
						<time>2022-07-15T04:25:16Z</time>
					</trkpt>
					<trkpt lat="47.139090" lon="-0.158570">
						<ele>44</ele>
						<time>2022-07-15T04:25:17Z</time>
					</trkpt>
					<trkpt lat="47.139120" lon="-0.158610">
						<ele>44</ele>
						<time>2022-07-15T04:25:19Z</time>
					</trkpt>
					<trkpt lat="47.139150" lon="-0.158660">
						<ele>44</ele>
						<time>2022-07-15T04:25:21Z</time>
					</trkpt>
					<trkpt lat="47.139170" lon="-0.158720">
						<ele>45</ele>
						<time>2022-07-15T04:25:23Z</time>
					</trkpt>
					<trkpt lat="47.139190" lon="-0.158780">
						<ele>46</ele>
						<time>2022-07-15T04:25:25Z</time>
					</trkpt>
					<trkpt lat="47.139200" lon="-0.158850">
						<ele>47</ele>
						<time>2022-07-15T04:25:27Z</time>
					</trkpt>
					<trkpt lat="47.139200" lon="-0.158910">
						<ele>48</ele>
						<time>2022-07-15T04:25:29Z</time>
					</trkpt>
					<trkpt lat="47.139200" lon="-0.158990">
						<ele>49</ele>
						<time>2022-07-15T04:25:31Z</time>
					</trkpt>
					<trkpt lat="47.139200" lon="-0.159040">
						<ele>49</ele>
						<time>2022-07-15T04:25:32Z</time>
					</trkpt>
					<trkpt lat="47.139210" lon="-0.159100">
						<ele>49</ele>
						<time>2022-07-15T04:25:34Z</time>
					</trkpt>
					<trkpt lat="47.139220" lon="-0.159160">
						<ele>49</ele>
						<time>2022-07-15T04:25:36Z</time>
					</trkpt>
					<trkpt lat="47.139240" lon="-0.159220">
						<ele>48</ele>
						<time>2022-07-15T04:25:38Z</time>
					</trkpt>
					<trkpt lat="47.139250" lon="-0.159280">
						<ele>48</ele>
						<time>2022-07-15T04:25:40Z</time>
					</trkpt>
					<trkpt lat="47.139270" lon="-0.159330">
						<ele>48</ele>
						<time>2022-07-15T04:25:42Z</time>
					</trkpt>
					<trkpt lat="47.139300" lon="-0.159380">
						<ele>49</ele>
						<time>2022-07-15T04:25:44Z</time>
					</trkpt>
					<trkpt lat="47.139330" lon="-0.159430">
						<ele>49</ele>
						<time>2022-07-15T04:25:46Z</time>
					</trkpt>
					<trkpt lat="47.139370" lon="-0.159470">
						<ele>49</ele>
						<time>2022-07-15T04:25:48Z</time>
					</trkpt>
					<trkpt lat="47.139400" lon="-0.159500">
						<ele>50</ele>
						<time>2022-07-15T04:25:50Z</time>
					</trkpt>
					<trkpt lat="47.139440" lon="-0.159520">
						<ele>50</ele>
						<time>2022-07-15T04:25:52Z</time>
					</trkpt>
					<trkpt lat="47.139480" lon="-0.159540">
						<ele>50</ele>
						<time>2022-07-15T04:25:54Z</time>
					</trkpt>
					<trkpt lat="47.139530" lon="-0.159550">
						<ele>50</ele>
						<time>2022-07-15T04:25:56Z</time>
					</trkpt>
					<trkpt lat="47.139570" lon="-0.159560">
						<ele>50</ele>
						<time>2022-07-15T04:25:58Z</time>
					</trkpt>
					<trkpt lat="47.139610" lon="-0.159560">
						<ele>51</ele>
						<time>2022-07-15T04:26:00Z</time>
					</trkpt>
					<trkpt lat="47.139650" lon="-0.159560">
						<ele>51</ele>
						<time>2022-07-15T04:26:02Z</time>
					</trkpt>
					<trkpt lat="47.139700" lon="-0.159550">
						<ele>52</ele>
						<time>2022-07-15T04:26:04Z</time>
					</trkpt>
					<trkpt lat="47.139740" lon="-0.159560">
						<ele>52</ele>
						<time>2022-07-15T04:26:06Z</time>
					</trkpt>
					<trkpt lat="47.139780" lon="-0.159560">
						<ele>51</ele>
						<time>2022-07-15T04:26:08Z</time>
					</trkpt>
					<trkpt lat="47.139820" lon="-0.159560">
						<ele>52</ele>
						<time>2022-07-15T04:26:11Z</time>
					</trkpt>
					<trkpt lat="47.139850" lon="-0.159570">
						<ele>53</ele>
						<time>2022-07-15T04:26:13Z</time>
					</trkpt>
					<trkpt lat="47.139890" lon="-0.159580">
						<ele>54</ele>
						<time>2022-07-15T04:26:15Z</time>
					</trkpt>
					<trkpt lat="47.139920" lon="-0.159600">
						<ele>54</ele>
						<time>2022-07-15T04:26:17Z</time>
					</trkpt>
					<trkpt lat="47.139950" lon="-0.159610">
						<ele>55</ele>
						<time>2022-07-15T04:26:20Z</time>
					</trkpt>
					<trkpt lat="47.139980" lon="-0.159630">
						<ele>56</ele>
						<time>2022-07-15T04:26:22Z</time>
					</trkpt>
					<trkpt lat="47.140010" lon="-0.159650">
						<ele>57</ele>
						<time>2022-07-15T04:26:24Z</time>
					</trkpt>
					<trkpt lat="47.140040" lon="-0.159680">
						<ele>58</ele>
						<time>2022-07-15T04:26:26Z</time>
					</trkpt>
					<trkpt lat="47.140070" lon="-0.159700">
						<ele>58</ele>
						<time>2022-07-15T04:26:28Z</time>
					</trkpt>
					<trkpt lat="47.140090" lon="-0.159720">
						<ele>59</ele>
						<time>2022-07-15T04:26:30Z</time>
					</trkpt>
					<trkpt lat="47.140120" lon="-0.159750">
						<ele>59</ele>
						<time>2022-07-15T04:26:33Z</time>
					</trkpt>
					<trkpt lat="47.140150" lon="-0.159770">
						<ele>59</ele>
						<time>2022-07-15T04:26:35Z</time>
					</trkpt>
					<trkpt lat="47.140180" lon="-0.159790">
						<ele>59</ele>
						<time>2022-07-15T04:26:37Z</time>
					</trkpt>
					<trkpt lat="47.140210" lon="-0.159810">
						<ele>58</ele>
						<time>2022-07-15T04:26:39Z</time>
					</trkpt>
					<trkpt lat="47.140230" lon="-0.159840">
						<ele>58</ele>
						<time>2022-07-15T04:26:41Z</time>
					</trkpt>
					<trkpt lat="47.140250" lon="-0.159870">
						<ele>58</ele>
						<time>2022-07-15T04:26:43Z</time>
					</trkpt>
					<trkpt lat="47.140280" lon="-0.159900">
						<ele>58</ele>
						<time>2022-07-15T04:26:45Z</time>
					</trkpt>
					<trkpt lat="47.140300" lon="-0.159920">
						<ele>58</ele>
						<time>2022-07-15T04:26:49Z</time>
					</trkpt>
					<trkpt lat="47.140330" lon="-0.159950">
						<ele>59</ele>
						<time>2022-07-15T04:26:51Z</time>
					</trkpt>
					<trkpt lat="47.140350" lon="-0.159980">
						<ele>59</ele>
						<time>2022-07-15T04:26:53Z</time>
					</trkpt>
					<trkpt lat="47.140370" lon="-0.160010">
						<ele>59</ele>
						<time>2022-07-15T04:26:55Z</time>
					</trkpt>
					<trkpt lat="47.140400" lon="-0.160040">
						<ele>58</ele>
						<time>2022-07-15T04:26:57Z</time>
					</trkpt>
					<trkpt lat="47.140430" lon="-0.160050">
						<ele>58</ele>
						<time>2022-07-15T04:26:59Z</time>
					</trkpt>
					<trkpt lat="47.140460" lon="-0.160070">
						<ele>58</ele>
						<time>2022-07-15T04:27:01Z</time>
					</trkpt>
					<trkpt lat="47.140480" lon="-0.160100">
						<ele>57</ele>
						<time>2022-07-15T04:27:03Z</time>
					</trkpt>
					<trkpt lat="47.140510" lon="-0.160130">
						<ele>58</ele>
						<time>2022-07-15T04:27:06Z</time>
					</trkpt>
					<trkpt lat="47.140540" lon="-0.160160">
						<ele>58</ele>
						<time>2022-07-15T04:27:09Z</time>
					</trkpt>
					<trkpt lat="47.140570" lon="-0.160180">
						<ele>58</ele>
						<time>2022-07-15T04:27:12Z</time>
					</trkpt>
					<trkpt lat="47.140600" lon="-0.160180">
						<ele>58</ele>
						<time>2022-07-15T04:27:14Z</time>
					</trkpt>
					<trkpt lat="47.140610" lon="-0.160160">
						<ele>58</ele>
						<time>2022-07-15T04:27:16Z</time>
					</trkpt>
					<trkpt lat="47.140620" lon="-0.160120">
						<ele>58</ele>
						<time>2022-07-15T04:27:18Z</time>
					</trkpt>
					<trkpt lat="47.140600" lon="-0.160070">
						<ele>58</ele>
						<time>2022-07-15T04:27:20Z</time>
					</trkpt>
					<trkpt lat="47.140590" lon="-0.160030">
						<ele>58</ele>
						<time>2022-07-15T04:27:22Z</time>
					</trkpt>
					<trkpt lat="47.140600" lon="-0.160000">
						<ele>57</ele>
						<time>2022-07-15T04:27:26Z</time>
					</trkpt>
					<trkpt lat="47.140620" lon="-0.159990">
						<ele>57</ele>
						<time>2022-07-15T04:27:28Z</time>
					</trkpt>
					<trkpt lat="47.140650" lon="-0.160000">
						<ele>57</ele>
						<time>2022-07-15T04:27:30Z</time>
					</trkpt>
					<trkpt lat="47.140670" lon="-0.160020">
						<ele>58</ele>
						<time>2022-07-15T04:27:32Z</time>
					</trkpt>
					<trkpt lat="47.140690" lon="-0.160050">
						<ele>57</ele>
						<time>2022-07-15T04:27:34Z</time>
					</trkpt>
					<trkpt lat="47.140710" lon="-0.160080">
						<ele>57</ele>
						<time>2022-07-15T04:27:36Z</time>
					</trkpt>
					<trkpt lat="47.140740" lon="-0.160110">
						<ele>58</ele>
						<time>2022-07-15T04:27:39Z</time>
					</trkpt>
					<trkpt lat="47.140770" lon="-0.160140">
						<ele>58</ele>
						<time>2022-07-15T04:27:41Z</time>
					</trkpt>
					<trkpt lat="47.140800" lon="-0.160160">
						<ele>58</ele>
						<time>2022-07-15T04:27:43Z</time>
					</trkpt>
					<trkpt lat="47.140830" lon="-0.160200">
						<ele>58</ele>
						<time>2022-07-15T04:27:45Z</time>
					</trkpt>
					<trkpt lat="47.140860" lon="-0.160230">
						<ele>58</ele>
						<time>2022-07-15T04:27:47Z</time>
					</trkpt>
					<trkpt lat="47.140890" lon="-0.160260">
						<ele>57</ele>
						<time>2022-07-15T04:27:49Z</time>
					</trkpt>
					<trkpt lat="47.140910" lon="-0.160290">
						<ele>57</ele>
						<time>2022-07-15T04:27:51Z</time>
					</trkpt>
					<trkpt lat="47.140940" lon="-0.160320">
						<ele>57</ele>
						<time>2022-07-15T04:27:53Z</time>
					</trkpt>
					<trkpt lat="47.140960" lon="-0.160350">
						<ele>57</ele>
						<time>2022-07-15T04:27:55Z</time>
					</trkpt>
					<trkpt lat="47.140990" lon="-0.160380">
						<ele>57</ele>
						<time>2022-07-15T04:27:57Z</time>
					</trkpt>
					<trkpt lat="47.141010" lon="-0.160410">
						<ele>57</ele>
						<time>2022-07-15T04:27:59Z</time>
					</trkpt>
					<trkpt lat="47.141040" lon="-0.160440">
						<ele>56</ele>
						<time>2022-07-15T04:28:01Z</time>
					</trkpt>
					<trkpt lat="47.141060" lon="-0.160470">
						<ele>56</ele>
						<time>2022-07-15T04:28:03Z</time>
					</trkpt>
					<trkpt lat="47.141090" lon="-0.160500">
						<ele>56</ele>
						<time>2022-07-15T04:28:06Z</time>
					</trkpt>
					<trkpt lat="47.141120" lon="-0.160530">
						<ele>56</ele>
						<time>2022-07-15T04:28:09Z</time>
					</trkpt>
					<trkpt lat="47.141150" lon="-0.160560">
						<ele>56</ele>
						<time>2022-07-15T04:28:12Z</time>
					</trkpt>
					<trkpt lat="47.141180" lon="-0.160590">
						<ele>54</ele>
						<time>2022-07-15T04:28:36Z</time>
					</trkpt>
					<trkpt lat="47.141210" lon="-0.160620">
						<ele>54</ele>
						<time>2022-07-15T04:28:38Z</time>
					</trkpt>
					<trkpt lat="47.141230" lon="-0.160660">
						<ele>54</ele>
						<time>2022-07-15T04:28:40Z</time>
					</trkpt>
					<trkpt lat="47.141260" lon="-0.160680">
						<ele>55</ele>
						<time>2022-07-15T04:28:42Z</time>
					</trkpt>
					<trkpt lat="47.141290" lon="-0.160710">
						<ele>55</ele>
						<time>2022-07-15T04:28:45Z</time>
					</trkpt>
					<trkpt lat="47.141320" lon="-0.160740">
						<ele>56</ele>
						<time>2022-07-15T04:28:47Z</time>
					</trkpt>
					<trkpt lat="47.141340" lon="-0.160770">
						<ele>56</ele>
						<time>2022-07-15T04:28:49Z</time>
					</trkpt>
					<trkpt lat="47.141370" lon="-0.160800">
						<ele>56</ele>
						<time>2022-07-15T04:28:52Z</time>
					</trkpt>
					<trkpt lat="47.141390" lon="-0.160840">
						<ele>56</ele>
						<time>2022-07-15T04:28:54Z</time>
					</trkpt>
					<trkpt lat="47.141420" lon="-0.160870">
						<ele>56</ele>
						<time>2022-07-15T04:28:57Z</time>
					</trkpt>
					<trkpt lat="47.141450" lon="-0.160880">
						<ele>56</ele>
						<time>2022-07-15T04:29:00Z</time>
					</trkpt>
					<trkpt lat="47.141480" lon="-0.160860">
						<ele>56</ele>
						<time>2022-07-15T04:29:02Z</time>
					</trkpt>
					<trkpt lat="47.141500" lon="-0.160840">
						<ele>57</ele>
						<time>2022-07-15T04:29:04Z</time>
					</trkpt>
					<trkpt lat="47.141530" lon="-0.160800">
						<ele>58</ele>
						<time>2022-07-15T04:29:07Z</time>
					</trkpt>
					<trkpt lat="47.141550" lon="-0.160760">
						<ele>58</ele>
						<time>2022-07-15T04:29:09Z</time>
					</trkpt>
					<trkpt lat="47.141570" lon="-0.160730">
						<ele>59</ele>
						<time>2022-07-15T04:29:11Z</time>
					</trkpt>
					<trkpt lat="47.141590" lon="-0.160690">
						<ele>59</ele>
						<time>2022-07-15T04:29:14Z</time>
					</trkpt>
					<trkpt lat="47.141610" lon="-0.160660">
						<ele>59</ele>
						<time>2022-07-15T04:29:16Z</time>
					</trkpt>
					<trkpt lat="47.141640" lon="-0.160620">
						<ele>59</ele>
						<time>2022-07-15T04:29:19Z</time>
					</trkpt>
					<trkpt lat="47.141660" lon="-0.160590">
						<ele>60</ele>
						<time>2022-07-15T04:29:21Z</time>
					</trkpt>
					<trkpt lat="47.141690" lon="-0.160560">
						<ele>60</ele>
						<time>2022-07-15T04:29:23Z</time>
					</trkpt>
					<trkpt lat="47.141710" lon="-0.160530">
						<ele>60</ele>
						<time>2022-07-15T04:29:25Z</time>
					</trkpt>
					<trkpt lat="47.141730" lon="-0.160500">
						<ele>59</ele>
						<time>2022-07-15T04:29:27Z</time>
					</trkpt>
					<trkpt lat="47.141750" lon="-0.160460">
						<ele>59</ele>
						<time>2022-07-15T04:29:29Z</time>
					</trkpt>
					<trkpt lat="47.141770" lon="-0.160430">
						<ele>59</ele>
						<time>2022-07-15T04:29:31Z</time>
					</trkpt>
					<trkpt lat="47.141780" lon="-0.160390">
						<ele>58</ele>
						<time>2022-07-15T04:29:33Z</time>
					</trkpt>
					<trkpt lat="47.141800" lon="-0.160350">
						<ele>59</ele>
						<time>2022-07-15T04:29:35Z</time>
					</trkpt>
					<trkpt lat="47.141820" lon="-0.160320">
						<ele>59</ele>
						<time>2022-07-15T04:29:37Z</time>
					</trkpt>
					<trkpt lat="47.141840" lon="-0.160290">
						<ele>59</ele>
						<time>2022-07-15T04:29:39Z</time>
					</trkpt>
					<trkpt lat="47.141870" lon="-0.160250">
						<ele>60</ele>
						<time>2022-07-15T04:29:41Z</time>
					</trkpt>
					<trkpt lat="47.141880" lon="-0.160220">
						<ele>60</ele>
						<time>2022-07-15T04:29:43Z</time>
					</trkpt>
					<trkpt lat="47.141900" lon="-0.160190">
						<ele>60</ele>
						<time>2022-07-15T04:29:45Z</time>
					</trkpt>
					<trkpt lat="47.141920" lon="-0.160150">
						<ele>61</ele>
						<time>2022-07-15T04:29:48Z</time>
					</trkpt>
					<trkpt lat="47.141950" lon="-0.160120">
						<ele>61</ele>
						<time>2022-07-15T04:29:51Z</time>
					</trkpt>
					<trkpt lat="47.141980" lon="-0.160120">
						<ele>62</ele>
						<time>2022-07-15T04:29:53Z</time>
					</trkpt>
					<trkpt lat="47.142010" lon="-0.160120">
						<ele>61</ele>
						<time>2022-07-15T04:29:55Z</time>
					</trkpt>
					<trkpt lat="47.142040" lon="-0.160140">
						<ele>61</ele>
						<time>2022-07-15T04:29:57Z</time>
					</trkpt>
					<trkpt lat="47.142070" lon="-0.160160">
						<ele>61</ele>
						<time>2022-07-15T04:29:59Z</time>
					</trkpt>
					<trkpt lat="47.142090" lon="-0.160200">
						<ele>61</ele>
						<time>2022-07-15T04:30:02Z</time>
					</trkpt>
					<trkpt lat="47.142120" lon="-0.160230">
						<ele>61</ele>
						<time>2022-07-15T04:30:04Z</time>
					</trkpt>
					<trkpt lat="47.142140" lon="-0.160260">
						<ele>61</ele>
						<time>2022-07-15T04:30:06Z</time>
					</trkpt>
					<trkpt lat="47.142160" lon="-0.160300">
						<ele>61</ele>
						<time>2022-07-15T04:30:09Z</time>
					</trkpt>
					<trkpt lat="47.142160" lon="-0.160340">
						<ele>61</ele>
						<time>2022-07-15T04:30:12Z</time>
					</trkpt>
					<trkpt lat="47.142170" lon="-0.160340">
						<ele>60</ele>
						<time>2022-07-15T04:30:17Z</time>
					</trkpt>
					<trkpt lat="47.142160" lon="-0.160350">
						<ele>59</ele>
						<time>2022-07-15T04:30:21Z</time>
					</trkpt>
					<trkpt lat="47.142130" lon="-0.160380">
						<ele>59</ele>
						<time>2022-07-15T04:30:24Z</time>
					</trkpt>
					<trkpt lat="47.142110" lon="-0.160420">
						<ele>59</ele>
						<time>2022-07-15T04:30:26Z</time>
					</trkpt>
					<trkpt lat="47.142090" lon="-0.160450">
						<ele>59</ele>
						<time>2022-07-15T04:30:28Z</time>
					</trkpt>
					<trkpt lat="47.142070" lon="-0.160480">
						<ele>59</ele>
						<time>2022-07-15T04:30:30Z</time>
					</trkpt>
					<trkpt lat="47.142040" lon="-0.160510">
						<ele>59</ele>
						<time>2022-07-15T04:30:32Z</time>
					</trkpt>
					<trkpt lat="47.142030" lon="-0.160550">
						<ele>59</ele>
						<time>2022-07-15T04:30:34Z</time>
					</trkpt>
					<trkpt lat="47.142000" lon="-0.160580">
						<ele>59</ele>
						<time>2022-07-15T04:30:36Z</time>
					</trkpt>
					<trkpt lat="47.141980" lon="-0.160610">
						<ele>59</ele>
						<time>2022-07-15T04:30:38Z</time>
					</trkpt>
					<trkpt lat="47.141960" lon="-0.160640">
						<ele>59</ele>
						<time>2022-07-15T04:30:40Z</time>
					</trkpt>
					<trkpt lat="47.141940" lon="-0.160680">
						<ele>59</ele>
						<time>2022-07-15T04:30:42Z</time>
					</trkpt>
					<trkpt lat="47.141920" lon="-0.160710">
						<ele>59</ele>
						<time>2022-07-15T04:30:44Z</time>
					</trkpt>
					<trkpt lat="47.141910" lon="-0.160740">
						<ele>58</ele>
						<time>2022-07-15T04:30:46Z</time>
					</trkpt>
					<trkpt lat="47.141900" lon="-0.160780">
						<ele>58</ele>
						<time>2022-07-15T04:30:48Z</time>
					</trkpt>
					<trkpt lat="47.141890" lon="-0.160820">
						<ele>58</ele>
						<time>2022-07-15T04:30:51Z</time>
					</trkpt>
					<trkpt lat="47.141870" lon="-0.160870">
						<ele>58</ele>
						<time>2022-07-15T04:30:54Z</time>
					</trkpt>
					<trkpt lat="47.141850" lon="-0.160920">
						<ele>59</ele>
						<time>2022-07-15T04:30:57Z</time>
					</trkpt>
					<trkpt lat="47.141830" lon="-0.160950">
						<ele>59</ele>
						<time>2022-07-15T04:30:59Z</time>
					</trkpt>
					<trkpt lat="47.141810" lon="-0.160980">
						<ele>59</ele>
						<time>2022-07-15T04:31:01Z</time>
					</trkpt>
					<trkpt lat="47.141790" lon="-0.161020">
						<ele>60</ele>
						<time>2022-07-15T04:31:03Z</time>
					</trkpt>
					<trkpt lat="47.141770" lon="-0.161060">
						<ele>60</ele>
						<time>2022-07-15T04:31:05Z</time>
					</trkpt>
					<trkpt lat="47.141750" lon="-0.161100">
						<ele>61</ele>
						<time>2022-07-15T04:31:08Z</time>
					</trkpt>
					<trkpt lat="47.141730" lon="-0.161140">
						<ele>62</ele>
						<time>2022-07-15T04:31:11Z</time>
					</trkpt>
					<trkpt lat="47.141740" lon="-0.161180">
						<ele>62</ele>
						<time>2022-07-15T04:31:13Z</time>
					</trkpt>
					<trkpt lat="47.141750" lon="-0.161220">
						<ele>62</ele>
						<time>2022-07-15T04:31:16Z</time>
					</trkpt>
					<trkpt lat="47.141770" lon="-0.161260">
						<ele>61</ele>
						<time>2022-07-15T04:31:19Z</time>
					</trkpt>
					<trkpt lat="47.141790" lon="-0.161290">
						<ele>61</ele>
						<time>2022-07-15T04:31:21Z</time>
					</trkpt>
					<trkpt lat="47.141820" lon="-0.161320">
						<ele>60</ele>
						<time>2022-07-15T04:31:23Z</time>
					</trkpt>
					<trkpt lat="47.141840" lon="-0.161350">
						<ele>60</ele>
						<time>2022-07-15T04:31:25Z</time>
					</trkpt>
					<trkpt lat="47.141870" lon="-0.161380">
						<ele>60</ele>
						<time>2022-07-15T04:31:27Z</time>
					</trkpt>
					<trkpt lat="47.141890" lon="-0.161410">
						<ele>60</ele>
						<time>2022-07-15T04:31:29Z</time>
					</trkpt>
					<trkpt lat="47.141930" lon="-0.161440">
						<ele>59</ele>
						<time>2022-07-15T04:31:32Z</time>
					</trkpt>
					<trkpt lat="47.141950" lon="-0.161460">
						<ele>59</ele>
						<time>2022-07-15T04:31:34Z</time>
					</trkpt>
					<trkpt lat="47.141970" lon="-0.161490">
						<ele>59</ele>
						<time>2022-07-15T04:31:36Z</time>
					</trkpt>
					<trkpt lat="47.142000" lon="-0.161520">
						<ele>58</ele>
						<time>2022-07-15T04:31:38Z</time>
					</trkpt>
					<trkpt lat="47.142030" lon="-0.161550">
						<ele>58</ele>
						<time>2022-07-15T04:31:40Z</time>
					</trkpt>
					<trkpt lat="47.142060" lon="-0.161570">
						<ele>57</ele>
						<time>2022-07-15T04:31:42Z</time>
					</trkpt>
					<trkpt lat="47.142080" lon="-0.161590">
						<ele>57</ele>
						<time>2022-07-15T04:31:44Z</time>
					</trkpt>
					<trkpt lat="47.142120" lon="-0.161620">
						<ele>57</ele>
						<time>2022-07-15T04:31:47Z</time>
					</trkpt>
					<trkpt lat="47.142150" lon="-0.161640">
						<ele>57</ele>
						<time>2022-07-15T04:31:49Z</time>
					</trkpt>
					<trkpt lat="47.142180" lon="-0.161660">
						<ele>57</ele>
						<time>2022-07-15T04:31:51Z</time>
					</trkpt>
					<trkpt lat="47.142210" lon="-0.161660">
						<ele>57</ele>
						<time>2022-07-15T04:31:54Z</time>
					</trkpt>
					<trkpt lat="47.142250" lon="-0.161640">
						<ele>57</ele>
						<time>2022-07-15T04:31:56Z</time>
					</trkpt>
					<trkpt lat="47.142280" lon="-0.161610">
						<ele>57</ele>
						<time>2022-07-15T04:31:57Z</time>
					</trkpt>
					<trkpt lat="47.142320" lon="-0.161580">
						<ele>57</ele>
						<time>2022-07-15T04:31:59Z</time>
					</trkpt>
					<trkpt lat="47.142350" lon="-0.161550">
						<ele>57</ele>
						<time>2022-07-15T04:32:01Z</time>
					</trkpt>
					<trkpt lat="47.142380" lon="-0.161510">
						<ele>57</ele>
						<time>2022-07-15T04:32:03Z</time>
					</trkpt>
					<trkpt lat="47.142410" lon="-0.161460">
						<ele>58</ele>
						<time>2022-07-15T04:32:05Z</time>
					</trkpt>
					<trkpt lat="47.142440" lon="-0.161420">
						<ele>58</ele>
						<time>2022-07-15T04:32:07Z</time>
					</trkpt>
					<trkpt lat="47.142470" lon="-0.161370">
						<ele>59</ele>
						<time>2022-07-15T04:32:09Z</time>
					</trkpt>
					<trkpt lat="47.142490" lon="-0.161330">
						<ele>59</ele>
						<time>2022-07-15T04:32:11Z</time>
					</trkpt>
					<trkpt lat="47.142510" lon="-0.161280">
						<ele>59</ele>
						<time>2022-07-15T04:32:13Z</time>
					</trkpt>
					<trkpt lat="47.142530" lon="-0.161240">
						<ele>60</ele>
						<time>2022-07-15T04:32:15Z</time>
					</trkpt>
					<trkpt lat="47.142560" lon="-0.161190">
						<ele>60</ele>
						<time>2022-07-15T04:32:17Z</time>
					</trkpt>
					<trkpt lat="47.142570" lon="-0.161150">
						<ele>59</ele>
						<time>2022-07-15T04:32:19Z</time>
					</trkpt>
					<trkpt lat="47.142590" lon="-0.161110">
						<ele>59</ele>
						<time>2022-07-15T04:32:21Z</time>
					</trkpt>
					<trkpt lat="47.142610" lon="-0.161080">
						<ele>59</ele>
						<time>2022-07-15T04:32:23Z</time>
					</trkpt>
					<trkpt lat="47.142630" lon="-0.161040">
						<ele>59</ele>
						<time>2022-07-15T04:32:25Z</time>
					</trkpt>
					<trkpt lat="47.142650" lon="-0.161010">
						<ele>59</ele>
						<time>2022-07-15T04:32:27Z</time>
					</trkpt>
					<trkpt lat="47.142670" lon="-0.160990">
						<ele>59</ele>
						<time>2022-07-15T04:32:29Z</time>
					</trkpt>
					<trkpt lat="47.142690" lon="-0.160950">
						<ele>59</ele>
						<time>2022-07-15T04:32:31Z</time>
					</trkpt>
					<trkpt lat="47.142710" lon="-0.160910">
						<ele>59</ele>
						<time>2022-07-15T04:32:33Z</time>
					</trkpt>
					<trkpt lat="47.142720" lon="-0.160880">
						<ele>59</ele>
						<time>2022-07-15T04:32:35Z</time>
					</trkpt>
					<trkpt lat="47.142740" lon="-0.160840">
						<ele>59</ele>
						<time>2022-07-15T04:32:37Z</time>
					</trkpt>
					<trkpt lat="47.142750" lon="-0.160800">
						<ele>59</ele>
						<time>2022-07-15T04:32:39Z</time>
					</trkpt>
					<trkpt lat="47.142770" lon="-0.160760">
						<ele>59</ele>
						<time>2022-07-15T04:32:42Z</time>
					</trkpt>
					<trkpt lat="47.142800" lon="-0.160730">
						<ele>59</ele>
						<time>2022-07-15T04:32:44Z</time>
					</trkpt>
					<trkpt lat="47.142820" lon="-0.160690">
						<ele>59</ele>
						<time>2022-07-15T04:32:46Z</time>
					</trkpt>
					<trkpt lat="47.142840" lon="-0.160660">
						<ele>59</ele>
						<time>2022-07-15T04:32:48Z</time>
					</trkpt>
					<trkpt lat="47.142860" lon="-0.160630">
						<ele>59</ele>
						<time>2022-07-15T04:32:50Z</time>
					</trkpt>
					<trkpt lat="47.142880" lon="-0.160600">
						<ele>59</ele>
						<time>2022-07-15T04:32:52Z</time>
					</trkpt>
					<trkpt lat="47.142910" lon="-0.160560">
						<ele>60</ele>
						<time>2022-07-15T04:32:54Z</time>
					</trkpt>
					<trkpt lat="47.142930" lon="-0.160510">
						<ele>60</ele>
						<time>2022-07-15T04:32:56Z</time>
					</trkpt>
					<trkpt lat="47.142960" lon="-0.160460">
						<ele>61</ele>
						<time>2022-07-15T04:32:58Z</time>
					</trkpt>
					<trkpt lat="47.142990" lon="-0.160410">
						<ele>61</ele>
						<time>2022-07-15T04:33:00Z</time>
					</trkpt>
					<trkpt lat="47.143020" lon="-0.160360">
						<ele>60</ele>
						<time>2022-07-15T04:33:02Z</time>
					</trkpt>
					<trkpt lat="47.143050" lon="-0.160310">
						<ele>61</ele>
						<time>2022-07-15T04:33:04Z</time>
					</trkpt>
					<trkpt lat="47.143080" lon="-0.160250">
						<ele>61</ele>
						<time>2022-07-15T04:33:06Z</time>
					</trkpt>
					<trkpt lat="47.143110" lon="-0.160200">
						<ele>60</ele>
						<time>2022-07-15T04:33:08Z</time>
					</trkpt>
					<trkpt lat="47.143140" lon="-0.160160">
						<ele>60</ele>
						<time>2022-07-15T04:33:09Z</time>
					</trkpt>
					<trkpt lat="47.143160" lon="-0.160100">
						<ele>58</ele>
						<time>2022-07-15T04:33:11Z</time>
					</trkpt>
					<trkpt lat="47.143190" lon="-0.160040">
						<ele>58</ele>
						<time>2022-07-15T04:33:13Z</time>
					</trkpt>
					<trkpt lat="47.143220" lon="-0.160000">
						<ele>58</ele>
						<time>2022-07-15T04:33:15Z</time>
					</trkpt>
					<trkpt lat="47.143250" lon="-0.159960">
						<ele>58</ele>
						<time>2022-07-15T04:33:17Z</time>
					</trkpt>
					<trkpt lat="47.143280" lon="-0.159910">
						<ele>59</ele>
						<time>2022-07-15T04:33:19Z</time>
					</trkpt>
					<trkpt lat="47.143320" lon="-0.159860">
						<ele>60</ele>
						<time>2022-07-15T04:33:21Z</time>
					</trkpt>
					<trkpt lat="47.143340" lon="-0.159810">
						<ele>59</ele>
						<time>2022-07-15T04:33:23Z</time>
					</trkpt>
					<trkpt lat="47.143370" lon="-0.159770">
						<ele>60</ele>
						<time>2022-07-15T04:33:25Z</time>
					</trkpt>
					<trkpt lat="47.143390" lon="-0.159710">
						<ele>60</ele>
						<time>2022-07-15T04:33:27Z</time>
					</trkpt>
					<trkpt lat="47.143420" lon="-0.159650">
						<ele>59</ele>
						<time>2022-07-15T04:33:29Z</time>
					</trkpt>
					<trkpt lat="47.143450" lon="-0.159600">
						<ele>59</ele>
						<time>2022-07-15T04:33:31Z</time>
					</trkpt>
					<trkpt lat="47.143470" lon="-0.159550">
						<ele>59</ele>
						<time>2022-07-15T04:33:33Z</time>
					</trkpt>
					<trkpt lat="47.143490" lon="-0.159500">
						<ele>59</ele>
						<time>2022-07-15T04:33:34Z</time>
					</trkpt>
					<trkpt lat="47.143530" lon="-0.159470">
						<ele>60</ele>
						<time>2022-07-15T04:33:36Z</time>
					</trkpt>
					<trkpt lat="47.143560" lon="-0.159420">
						<ele>61</ele>
						<time>2022-07-15T04:33:38Z</time>
					</trkpt>
					<trkpt lat="47.143590" lon="-0.159380">
						<ele>62</ele>
						<time>2022-07-15T04:33:40Z</time>
					</trkpt>
					<trkpt lat="47.143610" lon="-0.159340">
						<ele>62</ele>
						<time>2022-07-15T04:33:43Z</time>
					</trkpt>
					<trkpt lat="47.143640" lon="-0.159300">
						<ele>63</ele>
						<time>2022-07-15T04:33:45Z</time>
					</trkpt>
					<trkpt lat="47.143660" lon="-0.159270">
						<ele>63</ele>
						<time>2022-07-15T04:33:47Z</time>
					</trkpt>
					<trkpt lat="47.143680" lon="-0.159230">
						<ele>63</ele>
						<time>2022-07-15T04:33:49Z</time>
					</trkpt>
					<trkpt lat="47.143700" lon="-0.159200">
						<ele>64</ele>
						<time>2022-07-15T04:33:51Z</time>
					</trkpt>
					<trkpt lat="47.143720" lon="-0.159160">
						<ele>64</ele>
						<time>2022-07-15T04:33:53Z</time>
					</trkpt>
					<trkpt lat="47.143740" lon="-0.159130">
						<ele>63</ele>
						<time>2022-07-15T04:33:55Z</time>
					</trkpt>
					<trkpt lat="47.143760" lon="-0.159100">
						<ele>62</ele>
						<time>2022-07-15T04:33:57Z</time>
					</trkpt>
					<trkpt lat="47.143780" lon="-0.159080">
						<ele>61</ele>
						<time>2022-07-15T04:34:00Z</time>
					</trkpt>
					<trkpt lat="47.143810" lon="-0.159050">
						<ele>60</ele>
						<time>2022-07-15T04:34:06Z</time>
					</trkpt>
					<trkpt lat="47.143820" lon="-0.159010">
						<ele>59</ele>
						<time>2022-07-15T04:34:09Z</time>
					</trkpt>
					<trkpt lat="47.143830" lon="-0.158960">
						<ele>58</ele>
						<time>2022-07-15T04:34:11Z</time>
					</trkpt>
					<trkpt lat="47.143850" lon="-0.158920">
						<ele>58</ele>
						<time>2022-07-15T04:34:13Z</time>
					</trkpt>
					<trkpt lat="47.143860" lon="-0.158880">
						<ele>58</ele>
						<time>2022-07-15T04:34:15Z</time>
					</trkpt>
					<trkpt lat="47.143880" lon="-0.158840">
						<ele>58</ele>
						<time>2022-07-15T04:34:17Z</time>
					</trkpt>
					<trkpt lat="47.143900" lon="-0.158800">
						<ele>57</ele>
						<time>2022-07-15T04:34:21Z</time>
					</trkpt>
					<trkpt lat="47.143910" lon="-0.158750">
						<ele>57</ele>
						<time>2022-07-15T04:34:24Z</time>
					</trkpt>
					<trkpt lat="47.143940" lon="-0.158700">
						<ele>57</ele>
						<time>2022-07-15T04:34:27Z</time>
					</trkpt>
					<trkpt lat="47.143960" lon="-0.158670">
						<ele>57</ele>
						<time>2022-07-15T04:34:29Z</time>
					</trkpt>
					<trkpt lat="47.143990" lon="-0.158640">
						<ele>57</ele>
						<time>2022-07-15T04:34:32Z</time>
					</trkpt>
					<trkpt lat="47.144020" lon="-0.158610">
						<ele>57</ele>
						<time>2022-07-15T04:34:34Z</time>
					</trkpt>
					<trkpt lat="47.144060" lon="-0.158580">
						<ele>58</ele>
						<time>2022-07-15T04:34:36Z</time>
					</trkpt>
					<trkpt lat="47.144090" lon="-0.158550">
						<ele>58</ele>
						<time>2022-07-15T04:34:38Z</time>
					</trkpt>
					<trkpt lat="47.144120" lon="-0.158530">
						<ele>58</ele>
						<time>2022-07-15T04:34:40Z</time>
					</trkpt>
					<trkpt lat="47.144150" lon="-0.158510">
						<ele>59</ele>
						<time>2022-07-15T04:34:42Z</time>
					</trkpt>
					<trkpt lat="47.144170" lon="-0.158480">
						<ele>59</ele>
						<time>2022-07-15T04:34:44Z</time>
					</trkpt>
					<trkpt lat="47.144200" lon="-0.158440">
						<ele>58</ele>
						<time>2022-07-15T04:34:46Z</time>
					</trkpt>
					<trkpt lat="47.144220" lon="-0.158400">
						<ele>58</ele>
						<time>2022-07-15T04:34:48Z</time>
					</trkpt>
					<trkpt lat="47.144240" lon="-0.158380">
						<ele>58</ele>
						<time>2022-07-15T04:34:50Z</time>
					</trkpt>
					<trkpt lat="47.144270" lon="-0.158340">
						<ele>58</ele>
						<time>2022-07-15T04:34:52Z</time>
					</trkpt>
					<trkpt lat="47.144300" lon="-0.158300">
						<ele>58</ele>
						<time>2022-07-15T04:34:54Z</time>
					</trkpt>
					<trkpt lat="47.144340" lon="-0.158250">
						<ele>58</ele>
						<time>2022-07-15T04:34:56Z</time>
					</trkpt>
					<trkpt lat="47.144370" lon="-0.158200">
						<ele>58</ele>
						<time>2022-07-15T04:34:58Z</time>
					</trkpt>
					<trkpt lat="47.144400" lon="-0.158150">
						<ele>59</ele>
						<time>2022-07-15T04:35:00Z</time>
					</trkpt>
					<trkpt lat="47.144420" lon="-0.158110">
						<ele>60</ele>
						<time>2022-07-15T04:35:02Z</time>
					</trkpt>
					<trkpt lat="47.144450" lon="-0.158060">
						<ele>60</ele>
						<time>2022-07-15T04:35:04Z</time>
					</trkpt>
					<trkpt lat="47.144470" lon="-0.158030">
						<ele>60</ele>
						<time>2022-07-15T04:35:06Z</time>
					</trkpt>
					<trkpt lat="47.144490" lon="-0.157980">
						<ele>60</ele>
						<time>2022-07-15T04:35:08Z</time>
					</trkpt>
					<trkpt lat="47.144510" lon="-0.157940">
						<ele>60</ele>
						<time>2022-07-15T04:35:09Z</time>
					</trkpt>
					<trkpt lat="47.144550" lon="-0.157900">
						<ele>60</ele>
						<time>2022-07-15T04:35:11Z</time>
					</trkpt>
					<trkpt lat="47.144570" lon="-0.157860">
						<ele>60</ele>
						<time>2022-07-15T04:35:13Z</time>
					</trkpt>
					<trkpt lat="47.144600" lon="-0.157820">
						<ele>60</ele>
						<time>2022-07-15T04:35:15Z</time>
					</trkpt>
					<trkpt lat="47.144630" lon="-0.157770">
						<ele>60</ele>
						<time>2022-07-15T04:35:17Z</time>
					</trkpt>
					<trkpt lat="47.144660" lon="-0.157720">
						<ele>60</ele>
						<time>2022-07-15T04:35:19Z</time>
					</trkpt>
					<trkpt lat="47.144680" lon="-0.157680">
						<ele>60</ele>
						<time>2022-07-15T04:35:21Z</time>
					</trkpt>
					<trkpt lat="47.144720" lon="-0.157640">
						<ele>60</ele>
						<time>2022-07-15T04:35:23Z</time>
					</trkpt>
					<trkpt lat="47.144750" lon="-0.157590">
						<ele>60</ele>
						<time>2022-07-15T04:35:25Z</time>
					</trkpt>
					<trkpt lat="47.144780" lon="-0.157540">
						<ele>60</ele>
						<time>2022-07-15T04:35:27Z</time>
					</trkpt>
					<trkpt lat="47.144810" lon="-0.157500">
						<ele>60</ele>
						<time>2022-07-15T04:35:29Z</time>
					</trkpt>
					<trkpt lat="47.144840" lon="-0.157460">
						<ele>61</ele>
						<time>2022-07-15T04:35:31Z</time>
					</trkpt>
					<trkpt lat="47.144870" lon="-0.157410">
						<ele>61</ele>
						<time>2022-07-15T04:35:33Z</time>
					</trkpt>
					<trkpt lat="47.144910" lon="-0.157370">
						<ele>61</ele>
						<time>2022-07-15T04:35:35Z</time>
					</trkpt>
					<trkpt lat="47.144950" lon="-0.157320">
						<ele>61</ele>
						<time>2022-07-15T04:35:37Z</time>
					</trkpt>
					<trkpt lat="47.144980" lon="-0.157280">
						<ele>62</ele>
						<time>2022-07-15T04:35:39Z</time>
					</trkpt>
					<trkpt lat="47.145010" lon="-0.157240">
						<ele>62</ele>
						<time>2022-07-15T04:35:41Z</time>
					</trkpt>
					<trkpt lat="47.145040" lon="-0.157190">
						<ele>62</ele>
						<time>2022-07-15T04:35:43Z</time>
					</trkpt>
					<trkpt lat="47.145070" lon="-0.157140">
						<ele>62</ele>
						<time>2022-07-15T04:35:45Z</time>
					</trkpt>
					<trkpt lat="47.145100" lon="-0.157080">
						<ele>62</ele>
						<time>2022-07-15T04:35:47Z</time>
					</trkpt>
					<trkpt lat="47.145130" lon="-0.157040">
						<ele>63</ele>
						<time>2022-07-15T04:35:49Z</time>
					</trkpt>
					<trkpt lat="47.145150" lon="-0.156990">
						<ele>63</ele>
						<time>2022-07-15T04:35:51Z</time>
					</trkpt>
					<trkpt lat="47.145180" lon="-0.156940">
						<ele>63</ele>
						<time>2022-07-15T04:35:53Z</time>
					</trkpt>
					<trkpt lat="47.145220" lon="-0.156900">
						<ele>64</ele>
						<time>2022-07-15T04:35:55Z</time>
					</trkpt>
					<trkpt lat="47.145250" lon="-0.156850">
						<ele>64</ele>
						<time>2022-07-15T04:35:57Z</time>
					</trkpt>
					<trkpt lat="47.145280" lon="-0.156790">
						<ele>64</ele>
						<time>2022-07-15T04:35:59Z</time>
					</trkpt>
					<trkpt lat="47.145310" lon="-0.156750">
						<ele>64</ele>
						<time>2022-07-15T04:36:00Z</time>
					</trkpt>
					<trkpt lat="47.145340" lon="-0.156700">
						<ele>64</ele>
						<time>2022-07-15T04:36:02Z</time>
					</trkpt>
					<trkpt lat="47.145360" lon="-0.156660">
						<ele>64</ele>
						<time>2022-07-15T04:36:04Z</time>
					</trkpt>
					<trkpt lat="47.145390" lon="-0.156620">
						<ele>64</ele>
						<time>2022-07-15T04:36:06Z</time>
					</trkpt>
					<trkpt lat="47.145420" lon="-0.156580">
						<ele>63</ele>
						<time>2022-07-15T04:36:08Z</time>
					</trkpt>
					<trkpt lat="47.145450" lon="-0.156530">
						<ele>63</ele>
						<time>2022-07-15T04:36:10Z</time>
					</trkpt>
					<trkpt lat="47.145480" lon="-0.156490">
						<ele>63</ele>
						<time>2022-07-15T04:36:12Z</time>
					</trkpt>
					<trkpt lat="47.145510" lon="-0.156440">
						<ele>62</ele>
						<time>2022-07-15T04:36:14Z</time>
					</trkpt>
					<trkpt lat="47.145550" lon="-0.156390">
						<ele>62</ele>
						<time>2022-07-15T04:36:16Z</time>
					</trkpt>
					<trkpt lat="47.145580" lon="-0.156340">
						<ele>61</ele>
						<time>2022-07-15T04:36:18Z</time>
					</trkpt>
					<trkpt lat="47.145610" lon="-0.156290">
						<ele>61</ele>
						<time>2022-07-15T04:36:20Z</time>
					</trkpt>
					<trkpt lat="47.145630" lon="-0.156250">
						<ele>61</ele>
						<time>2022-07-15T04:36:22Z</time>
					</trkpt>
					<trkpt lat="47.145650" lon="-0.156210">
						<ele>62</ele>
						<time>2022-07-15T04:36:24Z</time>
					</trkpt>
					<trkpt lat="47.145670" lon="-0.156170">
						<ele>62</ele>
						<time>2022-07-15T04:36:27Z</time>
					</trkpt>
					<trkpt lat="47.145700" lon="-0.156130">
						<ele>62</ele>
						<time>2022-07-15T04:36:29Z</time>
					</trkpt>
					<trkpt lat="47.145730" lon="-0.156100">
						<ele>62</ele>
						<time>2022-07-15T04:36:31Z</time>
					</trkpt>
					<trkpt lat="47.145760" lon="-0.156060">
						<ele>62</ele>
						<time>2022-07-15T04:36:33Z</time>
					</trkpt>
					<trkpt lat="47.145780" lon="-0.156020">
						<ele>61</ele>
						<time>2022-07-15T04:36:35Z</time>
					</trkpt>
					<trkpt lat="47.145810" lon="-0.155970">
						<ele>59</ele>
						<time>2022-07-15T04:36:37Z</time>
					</trkpt>
					<trkpt lat="47.145820" lon="-0.155930">
						<ele>59</ele>
						<time>2022-07-15T04:36:39Z</time>
					</trkpt>
					<trkpt lat="47.145840" lon="-0.155900">
						<ele>58</ele>
						<time>2022-07-15T04:36:41Z</time>
					</trkpt>
					<trkpt lat="47.145860" lon="-0.155870">
						<ele>58</ele>
						<time>2022-07-15T04:36:44Z</time>
					</trkpt>
					<trkpt lat="47.145880" lon="-0.155830">
						<ele>57</ele>
						<time>2022-07-15T04:36:46Z</time>
					</trkpt>
					<trkpt lat="47.145910" lon="-0.155810">
						<ele>57</ele>
						<time>2022-07-15T04:36:48Z</time>
					</trkpt>
					<trkpt lat="47.145930" lon="-0.155770">
						<ele>55</ele>
						<time>2022-07-15T04:36:51Z</time>
					</trkpt>
					<trkpt lat="47.145950" lon="-0.155740">
						<ele>55</ele>
						<time>2022-07-15T04:36:56Z</time>
					</trkpt>
					<trkpt lat="47.145960" lon="-0.155710">
						<ele>55</ele>
						<time>2022-07-15T04:36:58Z</time>
					</trkpt>
					<trkpt lat="47.145980" lon="-0.155670">
						<ele>54</ele>
						<time>2022-07-15T04:37:00Z</time>
					</trkpt>
					<trkpt lat="47.146000" lon="-0.155640">
						<ele>54</ele>
						<time>2022-07-15T04:37:02Z</time>
					</trkpt>
					<trkpt lat="47.146020" lon="-0.155610">
						<ele>54</ele>
						<time>2022-07-15T04:37:04Z</time>
					</trkpt>
					<trkpt lat="47.146040" lon="-0.155580">
						<ele>54</ele>
						<time>2022-07-15T04:37:06Z</time>
					</trkpt>
					<trkpt lat="47.146070" lon="-0.155550">
						<ele>54</ele>
						<time>2022-07-15T04:37:08Z</time>
					</trkpt>
					<trkpt lat="47.146090" lon="-0.155520">
						<ele>55</ele>
						<time>2022-07-15T04:37:10Z</time>
					</trkpt>
					<trkpt lat="47.146120" lon="-0.155490">
						<ele>55</ele>
						<time>2022-07-15T04:37:12Z</time>
					</trkpt>
					<trkpt lat="47.146150" lon="-0.155470">
						<ele>55</ele>
						<time>2022-07-15T04:37:14Z</time>
					</trkpt>
					<trkpt lat="47.146180" lon="-0.155440">
						<ele>55</ele>
						<time>2022-07-15T04:37:16Z</time>
					</trkpt>
					<trkpt lat="47.146210" lon="-0.155410">
						<ele>55</ele>
						<time>2022-07-15T04:37:18Z</time>
					</trkpt>
					<trkpt lat="47.146250" lon="-0.155370">
						<ele>55</ele>
						<time>2022-07-15T04:37:20Z</time>
					</trkpt>
					<trkpt lat="47.146280" lon="-0.155320">
						<ele>55</ele>
						<time>2022-07-15T04:37:22Z</time>
					</trkpt>
					<trkpt lat="47.146320" lon="-0.155280">
						<ele>55</ele>
						<time>2022-07-15T04:37:24Z</time>
					</trkpt>
					<trkpt lat="47.146350" lon="-0.155230">
						<ele>55</ele>
						<time>2022-07-15T04:37:26Z</time>
					</trkpt>
					<trkpt lat="47.146380" lon="-0.155180">
						<ele>54</ele>
						<time>2022-07-15T04:37:28Z</time>
					</trkpt>
					<trkpt lat="47.146420" lon="-0.155140">
						<ele>54</ele>
						<time>2022-07-15T04:37:30Z</time>
					</trkpt>
					<trkpt lat="47.146450" lon="-0.155090">
						<ele>54</ele>
						<time>2022-07-15T04:37:32Z</time>
					</trkpt>
					<trkpt lat="47.146490" lon="-0.155040">
						<ele>54</ele>
						<time>2022-07-15T04:37:34Z</time>
					</trkpt>
					<trkpt lat="47.146530" lon="-0.154990">
						<ele>55</ele>
						<time>2022-07-15T04:37:36Z</time>
					</trkpt>
					<trkpt lat="47.146560" lon="-0.154950">
						<ele>55</ele>
						<time>2022-07-15T04:37:37Z</time>
					</trkpt>
					<trkpt lat="47.146590" lon="-0.154910">
						<ele>55</ele>
						<time>2022-07-15T04:37:39Z</time>
					</trkpt>
					<trkpt lat="47.146620" lon="-0.154860">
						<ele>55</ele>
						<time>2022-07-15T04:37:41Z</time>
					</trkpt>
					<trkpt lat="47.146660" lon="-0.154820">
						<ele>55</ele>
						<time>2022-07-15T04:37:43Z</time>
					</trkpt>
					<trkpt lat="47.146700" lon="-0.154770">
						<ele>55</ele>
						<time>2022-07-15T04:37:45Z</time>
					</trkpt>
					<trkpt lat="47.146740" lon="-0.154720">
						<ele>54</ele>
						<time>2022-07-15T04:37:47Z</time>
					</trkpt>
					<trkpt lat="47.146780" lon="-0.154670">
						<ele>54</ele>
						<time>2022-07-15T04:37:49Z</time>
					</trkpt>
					<trkpt lat="47.146820" lon="-0.154620">
						<ele>54</ele>
						<time>2022-07-15T04:37:51Z</time>
					</trkpt>
					<trkpt lat="47.146850" lon="-0.154570">
						<ele>54</ele>
						<time>2022-07-15T04:37:53Z</time>
					</trkpt>
					<trkpt lat="47.146870" lon="-0.154540">
						<ele>53</ele>
						<time>2022-07-15T04:37:54Z</time>
					</trkpt>
					<trkpt lat="47.146900" lon="-0.154490">
						<ele>53</ele>
						<time>2022-07-15T04:37:56Z</time>
					</trkpt>
					<trkpt lat="47.146940" lon="-0.154430">
						<ele>53</ele>
						<time>2022-07-15T04:37:58Z</time>
					</trkpt>
					<trkpt lat="47.146960" lon="-0.154390">
						<ele>52</ele>
						<time>2022-07-15T04:37:59Z</time>
					</trkpt>
					<trkpt lat="47.146980" lon="-0.154360">
						<ele>52</ele>
						<time>2022-07-15T04:38:00Z</time>
					</trkpt>
					<trkpt lat="47.147010" lon="-0.154320">
						<ele>53</ele>
						<time>2022-07-15T04:38:02Z</time>
					</trkpt>
					<trkpt lat="47.147040" lon="-0.154270">
						<ele>53</ele>
						<time>2022-07-15T04:38:04Z</time>
					</trkpt>
					<trkpt lat="47.147060" lon="-0.154220">
						<ele>53</ele>
						<time>2022-07-15T04:38:06Z</time>
					</trkpt>
					<trkpt lat="47.147090" lon="-0.154160">
						<ele>53</ele>
						<time>2022-07-15T04:38:08Z</time>
					</trkpt>
					<trkpt lat="47.147110" lon="-0.154120">
						<ele>53</ele>
						<time>2022-07-15T04:38:10Z</time>
					</trkpt>
					<trkpt lat="47.147140" lon="-0.154070">
						<ele>53</ele>
						<time>2022-07-15T04:38:12Z</time>
					</trkpt>
					<trkpt lat="47.147150" lon="-0.154030">
						<ele>53</ele>
						<time>2022-07-15T04:38:14Z</time>
					</trkpt>
					<trkpt lat="47.147160" lon="-0.153990">
						<ele>53</ele>
						<time>2022-07-15T04:38:16Z</time>
					</trkpt>
					<trkpt lat="47.147170" lon="-0.153940">
						<ele>52</ele>
						<time>2022-07-15T04:38:18Z</time>
					</trkpt>
					<trkpt lat="47.147190" lon="-0.153910">
						<ele>52</ele>
						<time>2022-07-15T04:38:20Z</time>
					</trkpt>
					<trkpt lat="47.147210" lon="-0.153870">
						<ele>52</ele>
						<time>2022-07-15T04:38:23Z</time>
					</trkpt>
					<trkpt lat="47.147230" lon="-0.153830">
						<ele>52</ele>
						<time>2022-07-15T04:38:25Z</time>
					</trkpt>
					<trkpt lat="47.147260" lon="-0.153800">
						<ele>51</ele>
						<time>2022-07-15T04:38:28Z</time>
					</trkpt>
					<trkpt lat="47.147290" lon="-0.153790">
						<ele>51</ele>
						<time>2022-07-15T04:38:30Z</time>
					</trkpt>
					<trkpt lat="47.147320" lon="-0.153790">
						<ele>51</ele>
						<time>2022-07-15T04:38:32Z</time>
					</trkpt>
					<trkpt lat="47.147360" lon="-0.153790">
						<ele>51</ele>
						<time>2022-07-15T04:38:34Z</time>
					</trkpt>
					<trkpt lat="47.147390" lon="-0.153780">
						<ele>50</ele>
						<time>2022-07-15T04:38:37Z</time>
					</trkpt>
					<trkpt lat="47.147430" lon="-0.153770">
						<ele>49</ele>
						<time>2022-07-15T04:38:39Z</time>
					</trkpt>
					<trkpt lat="47.147460" lon="-0.153760">
						<ele>49</ele>
						<time>2022-07-15T04:38:41Z</time>
					</trkpt>
					<trkpt lat="47.147500" lon="-0.153750">
						<ele>49</ele>
						<time>2022-07-15T04:38:43Z</time>
					</trkpt>
					<trkpt lat="47.147520" lon="-0.153730">
						<ele>49</ele>
						<time>2022-07-15T04:38:45Z</time>
					</trkpt>
					<trkpt lat="47.147550" lon="-0.153700">
						<ele>50</ele>
						<time>2022-07-15T04:38:47Z</time>
					</trkpt>
					<trkpt lat="47.147580" lon="-0.153680">
						<ele>50</ele>
						<time>2022-07-15T04:38:49Z</time>
					</trkpt>
					<trkpt lat="47.147610" lon="-0.153660">
						<ele>51</ele>
						<time>2022-07-15T04:38:51Z</time>
					</trkpt>
					<trkpt lat="47.147630" lon="-0.153630">
						<ele>51</ele>
						<time>2022-07-15T04:38:53Z</time>
					</trkpt>
					<trkpt lat="47.147660" lon="-0.153600">
						<ele>52</ele>
						<time>2022-07-15T04:38:55Z</time>
					</trkpt>
					<trkpt lat="47.147680" lon="-0.153570">
						<ele>52</ele>
						<time>2022-07-15T04:38:57Z</time>
					</trkpt>
					<trkpt lat="47.147710" lon="-0.153550">
						<ele>52</ele>
						<time>2022-07-15T04:38:59Z</time>
					</trkpt>
					<trkpt lat="47.147730" lon="-0.153530">
						<ele>53</ele>
						<time>2022-07-15T04:39:01Z</time>
					</trkpt>
					<trkpt lat="47.147760" lon="-0.153500">
						<ele>53</ele>
						<time>2022-07-15T04:39:03Z</time>
					</trkpt>
					<trkpt lat="47.147790" lon="-0.153480">
						<ele>53</ele>
						<time>2022-07-15T04:39:05Z</time>
					</trkpt>
					<trkpt lat="47.147820" lon="-0.153450">
						<ele>52</ele>
						<time>2022-07-15T04:39:07Z</time>
					</trkpt>
					<trkpt lat="47.147840" lon="-0.153430">
						<ele>53</ele>
						<time>2022-07-15T04:39:09Z</time>
					</trkpt>
					<trkpt lat="47.147880" lon="-0.153410">
						<ele>53</ele>
						<time>2022-07-15T04:39:11Z</time>
					</trkpt>
					<trkpt lat="47.147910" lon="-0.153400">
						<ele>53</ele>
						<time>2022-07-15T04:39:13Z</time>
					</trkpt>
					<trkpt lat="47.147940" lon="-0.153410">
						<ele>53</ele>
						<time>2022-07-15T04:39:15Z</time>
					</trkpt>
					<trkpt lat="47.147970" lon="-0.153430">
						<ele>53</ele>
						<time>2022-07-15T04:39:17Z</time>
					</trkpt>
					<trkpt lat="47.148000" lon="-0.153460">
						<ele>53</ele>
						<time>2022-07-15T04:39:19Z</time>
					</trkpt>
					<trkpt lat="47.148030" lon="-0.153490">
						<ele>52</ele>
						<time>2022-07-15T04:39:21Z</time>
					</trkpt>
					<trkpt lat="47.148050" lon="-0.153530">
						<ele>52</ele>
						<time>2022-07-15T04:39:23Z</time>
					</trkpt>
					<trkpt lat="47.148070" lon="-0.153560">
						<ele>51</ele>
						<time>2022-07-15T04:39:25Z</time>
					</trkpt>
					<trkpt lat="47.148090" lon="-0.153600">
						<ele>50</ele>
						<time>2022-07-15T04:39:27Z</time>
					</trkpt>
					<trkpt lat="47.148110" lon="-0.153640">
						<ele>50</ele>
						<time>2022-07-15T04:39:29Z</time>
					</trkpt>
					<trkpt lat="47.148130" lon="-0.153670">
						<ele>49</ele>
						<time>2022-07-15T04:39:31Z</time>
					</trkpt>
					<trkpt lat="47.148160" lon="-0.153710">
						<ele>50</ele>
						<time>2022-07-15T04:39:33Z</time>
					</trkpt>
					<trkpt lat="47.148190" lon="-0.153750">
						<ele>50</ele>
						<time>2022-07-15T04:39:35Z</time>
					</trkpt>
					<trkpt lat="47.148220" lon="-0.153790">
						<ele>50</ele>
						<time>2022-07-15T04:39:37Z</time>
					</trkpt>
					<trkpt lat="47.148250" lon="-0.153830">
						<ele>50</ele>
						<time>2022-07-15T04:39:39Z</time>
					</trkpt>
					<trkpt lat="47.148280" lon="-0.153860">
						<ele>51</ele>
						<time>2022-07-15T04:39:41Z</time>
					</trkpt>
					<trkpt lat="47.148320" lon="-0.153900">
						<ele>51</ele>
						<time>2022-07-15T04:39:43Z</time>
					</trkpt>
					<trkpt lat="47.148350" lon="-0.153940">
						<ele>52</ele>
						<time>2022-07-15T04:39:45Z</time>
					</trkpt>
					<trkpt lat="47.148380" lon="-0.153980">
						<ele>52</ele>
						<time>2022-07-15T04:39:47Z</time>
					</trkpt>
					<trkpt lat="47.148410" lon="-0.154020">
						<ele>53</ele>
						<time>2022-07-15T04:39:49Z</time>
					</trkpt>
					<trkpt lat="47.148440" lon="-0.154070">
						<ele>53</ele>
						<time>2022-07-15T04:39:51Z</time>
					</trkpt>
					<trkpt lat="47.148480" lon="-0.154110">
						<ele>53</ele>
						<time>2022-07-15T04:39:53Z</time>
					</trkpt>
					<trkpt lat="47.148510" lon="-0.154150">
						<ele>53</ele>
						<time>2022-07-15T04:39:54Z</time>
					</trkpt>
					<trkpt lat="47.148530" lon="-0.154180">
						<ele>53</ele>
						<time>2022-07-15T04:39:55Z</time>
					</trkpt>
					<trkpt lat="47.148570" lon="-0.154220">
						<ele>53</ele>
						<time>2022-07-15T04:39:57Z</time>
					</trkpt>
					<trkpt lat="47.148600" lon="-0.154260">
						<ele>53</ele>
						<time>2022-07-15T04:39:59Z</time>
					</trkpt>
					<trkpt lat="47.148630" lon="-0.154310">
						<ele>53</ele>
						<time>2022-07-15T04:40:01Z</time>
					</trkpt>
					<trkpt lat="47.148660" lon="-0.154360">
						<ele>53</ele>
						<time>2022-07-15T04:40:03Z</time>
					</trkpt>
					<trkpt lat="47.148700" lon="-0.154410">
						<ele>53</ele>
						<time>2022-07-15T04:40:05Z</time>
					</trkpt>
					<trkpt lat="47.148730" lon="-0.154460">
						<ele>54</ele>
						<time>2022-07-15T04:40:07Z</time>
					</trkpt>
					<trkpt lat="47.148760" lon="-0.154500">
						<ele>54</ele>
						<time>2022-07-15T04:40:09Z</time>
					</trkpt>
					<trkpt lat="47.148780" lon="-0.154540">
						<ele>54</ele>
						<time>2022-07-15T04:40:11Z</time>
					</trkpt>
					<trkpt lat="47.148810" lon="-0.154590">
						<ele>54</ele>
						<time>2022-07-15T04:40:13Z</time>
					</trkpt>
					<trkpt lat="47.148840" lon="-0.154630">
						<ele>54</ele>
						<time>2022-07-15T04:40:15Z</time>
					</trkpt>
					<trkpt lat="47.148870" lon="-0.154670">
						<ele>54</ele>
						<time>2022-07-15T04:40:17Z</time>
					</trkpt>
					<trkpt lat="47.148900" lon="-0.154710">
						<ele>55</ele>
						<time>2022-07-15T04:40:19Z</time>
					</trkpt>
					<trkpt lat="47.148930" lon="-0.154750">
						<ele>55</ele>
						<time>2022-07-15T04:40:21Z</time>
					</trkpt>
					<trkpt lat="47.148960" lon="-0.154800">
						<ele>55</ele>
						<time>2022-07-15T04:40:23Z</time>
					</trkpt>
					<trkpt lat="47.148990" lon="-0.154850">
						<ele>55</ele>
						<time>2022-07-15T04:40:25Z</time>
					</trkpt>
					<trkpt lat="47.149020" lon="-0.154890">
						<ele>55</ele>
						<time>2022-07-15T04:40:27Z</time>
					</trkpt>
					<trkpt lat="47.149050" lon="-0.154940">
						<ele>55</ele>
						<time>2022-07-15T04:40:29Z</time>
					</trkpt>
					<trkpt lat="47.149080" lon="-0.154990">
						<ele>56</ele>
						<time>2022-07-15T04:40:31Z</time>
					</trkpt>
					<trkpt lat="47.149120" lon="-0.155040">
						<ele>56</ele>
						<time>2022-07-15T04:40:33Z</time>
					</trkpt>
					<trkpt lat="47.149150" lon="-0.155090">
						<ele>56</ele>
						<time>2022-07-15T04:40:35Z</time>
					</trkpt>
					<trkpt lat="47.149190" lon="-0.155130">
						<ele>56</ele>
						<time>2022-07-15T04:40:37Z</time>
					</trkpt>
					<trkpt lat="47.149220" lon="-0.155180">
						<ele>56</ele>
						<time>2022-07-15T04:40:39Z</time>
					</trkpt>
					<trkpt lat="47.149250" lon="-0.155220">
						<ele>57</ele>
						<time>2022-07-15T04:40:41Z</time>
					</trkpt>
					<trkpt lat="47.149280" lon="-0.155260">
						<ele>56</ele>
						<time>2022-07-15T04:40:43Z</time>
					</trkpt>
					<trkpt lat="47.149310" lon="-0.155300">
						<ele>56</ele>
						<time>2022-07-15T04:40:45Z</time>
					</trkpt>
					<trkpt lat="47.149340" lon="-0.155340">
						<ele>55</ele>
						<time>2022-07-15T04:40:47Z</time>
					</trkpt>
					<trkpt lat="47.149360" lon="-0.155390">
						<ele>55</ele>
						<time>2022-07-15T04:40:50Z</time>
					</trkpt>
					<trkpt lat="47.149380" lon="-0.155420">
						<ele>55</ele>
						<time>2022-07-15T04:40:52Z</time>
					</trkpt>
					<trkpt lat="47.149400" lon="-0.155450">
						<ele>55</ele>
						<time>2022-07-15T04:40:54Z</time>
					</trkpt>
					<trkpt lat="47.149430" lon="-0.155490">
						<ele>55</ele>
						<time>2022-07-15T04:40:56Z</time>
					</trkpt>
					<trkpt lat="47.149450" lon="-0.155520">
						<ele>56</ele>
						<time>2022-07-15T04:40:58Z</time>
					</trkpt>
					<trkpt lat="47.149470" lon="-0.155550">
						<ele>56</ele>
						<time>2022-07-15T04:41:00Z</time>
					</trkpt>
					<trkpt lat="47.149500" lon="-0.155580">
						<ele>56</ele>
						<time>2022-07-15T04:41:02Z</time>
					</trkpt>
					<trkpt lat="47.149530" lon="-0.155620">
						<ele>57</ele>
						<time>2022-07-15T04:41:04Z</time>
					</trkpt>
					<trkpt lat="47.149550" lon="-0.155640">
						<ele>57</ele>
						<time>2022-07-15T04:41:06Z</time>
					</trkpt>
					<trkpt lat="47.149570" lon="-0.155670">
						<ele>57</ele>
						<time>2022-07-15T04:41:08Z</time>
					</trkpt>
					<trkpt lat="47.149590" lon="-0.155700">
						<ele>57</ele>
						<time>2022-07-15T04:41:10Z</time>
					</trkpt>
					<trkpt lat="47.149610" lon="-0.155740">
						<ele>57</ele>
						<time>2022-07-15T04:41:12Z</time>
					</trkpt>
					<trkpt lat="47.149630" lon="-0.155760">
						<ele>58</ele>
						<time>2022-07-15T04:41:14Z</time>
					</trkpt>
					<trkpt lat="47.149660" lon="-0.155790">
						<ele>58</ele>
						<time>2022-07-15T04:41:16Z</time>
					</trkpt>
					<trkpt lat="47.149690" lon="-0.155810">
						<ele>58</ele>
						<time>2022-07-15T04:41:18Z</time>
					</trkpt>
					<trkpt lat="47.149710" lon="-0.155840">
						<ele>58</ele>
						<time>2022-07-15T04:41:20Z</time>
					</trkpt>
					<trkpt lat="47.149730" lon="-0.155870">
						<ele>58</ele>
						<time>2022-07-15T04:41:22Z</time>
					</trkpt>
					<trkpt lat="47.149760" lon="-0.155900">
						<ele>58</ele>
						<time>2022-07-15T04:41:24Z</time>
					</trkpt>
					<trkpt lat="47.149780" lon="-0.155940">
						<ele>57</ele>
						<time>2022-07-15T04:41:26Z</time>
					</trkpt>
					<trkpt lat="47.149810" lon="-0.155970">
						<ele>57</ele>
						<time>2022-07-15T04:41:28Z</time>
					</trkpt>
					<trkpt lat="47.149830" lon="-0.156010">
						<ele>57</ele>
						<time>2022-07-15T04:41:30Z</time>
					</trkpt>
					<trkpt lat="47.149850" lon="-0.156040">
						<ele>57</ele>
						<time>2022-07-15T04:41:32Z</time>
					</trkpt>
					<trkpt lat="47.149880" lon="-0.156070">
						<ele>58</ele>
						<time>2022-07-15T04:41:34Z</time>
					</trkpt>
					<trkpt lat="47.149900" lon="-0.156110">
						<ele>58</ele>
						<time>2022-07-15T04:41:36Z</time>
					</trkpt>
					<trkpt lat="47.149920" lon="-0.156140">
						<ele>58</ele>
						<time>2022-07-15T04:41:38Z</time>
					</trkpt>
					<trkpt lat="47.149940" lon="-0.156180">
						<ele>59</ele>
						<time>2022-07-15T04:41:40Z</time>
					</trkpt>
					<trkpt lat="47.149960" lon="-0.156210">
						<ele>58</ele>
						<time>2022-07-15T04:41:42Z</time>
					</trkpt>
					<trkpt lat="47.149990" lon="-0.156240">
						<ele>58</ele>
						<time>2022-07-15T04:41:44Z</time>
					</trkpt>
					<trkpt lat="47.150010" lon="-0.156260">
						<ele>58</ele>
						<time>2022-07-15T04:41:46Z</time>
					</trkpt>
					<trkpt lat="47.150030" lon="-0.156290">
						<ele>58</ele>
						<time>2022-07-15T04:41:48Z</time>
					</trkpt>
					<trkpt lat="47.150060" lon="-0.156320">
						<ele>58</ele>
						<time>2022-07-15T04:41:50Z</time>
					</trkpt>
					<trkpt lat="47.150080" lon="-0.156350">
						<ele>59</ele>
						<time>2022-07-15T04:41:52Z</time>
					</trkpt>
					<trkpt lat="47.150100" lon="-0.156380">
						<ele>59</ele>
						<time>2022-07-15T04:41:54Z</time>
					</trkpt>
					<trkpt lat="47.150130" lon="-0.156420">
						<ele>59</ele>
						<time>2022-07-15T04:41:56Z</time>
					</trkpt>
					<trkpt lat="47.150150" lon="-0.156450">
						<ele>59</ele>
						<time>2022-07-15T04:41:58Z</time>
					</trkpt>
					<trkpt lat="47.150180" lon="-0.156480">
						<ele>59</ele>
						<time>2022-07-15T04:42:00Z</time>
					</trkpt>
					<trkpt lat="47.150200" lon="-0.156520">
						<ele>60</ele>
						<time>2022-07-15T04:42:02Z</time>
					</trkpt>
					<trkpt lat="47.150220" lon="-0.156550">
						<ele>60</ele>
						<time>2022-07-15T04:42:04Z</time>
					</trkpt>
					<trkpt lat="47.150250" lon="-0.156580">
						<ele>60</ele>
						<time>2022-07-15T04:42:06Z</time>
					</trkpt>
					<trkpt lat="47.150270" lon="-0.156620">
						<ele>60</ele>
						<time>2022-07-15T04:42:08Z</time>
					</trkpt>
					<trkpt lat="47.150300" lon="-0.156650">
						<ele>60</ele>
						<time>2022-07-15T04:42:10Z</time>
					</trkpt>
					<trkpt lat="47.150320" lon="-0.156680">
						<ele>59</ele>
						<time>2022-07-15T04:42:12Z</time>
					</trkpt>
					<trkpt lat="47.150350" lon="-0.156710">
						<ele>59</ele>
						<time>2022-07-15T04:42:14Z</time>
					</trkpt>
					<trkpt lat="47.150370" lon="-0.156750">
						<ele>60</ele>
						<time>2022-07-15T04:42:16Z</time>
					</trkpt>
					<trkpt lat="47.150400" lon="-0.156780">
						<ele>60</ele>
						<time>2022-07-15T04:42:18Z</time>
					</trkpt>
					<trkpt lat="47.150420" lon="-0.156810">
						<ele>60</ele>
						<time>2022-07-15T04:42:20Z</time>
					</trkpt>
					<trkpt lat="47.150450" lon="-0.156840">
						<ele>60</ele>
						<time>2022-07-15T04:42:22Z</time>
					</trkpt>
					<trkpt lat="47.150470" lon="-0.156870">
						<ele>61</ele>
						<time>2022-07-15T04:42:24Z</time>
					</trkpt>
					<trkpt lat="47.150490" lon="-0.156900">
						<ele>61</ele>
						<time>2022-07-15T04:42:26Z</time>
					</trkpt>
					<trkpt lat="47.150510" lon="-0.156930">
						<ele>61</ele>
						<time>2022-07-15T04:42:28Z</time>
					</trkpt>
					<trkpt lat="47.150530" lon="-0.156970">
						<ele>61</ele>
						<time>2022-07-15T04:42:30Z</time>
					</trkpt>
					<trkpt lat="47.150550" lon="-0.157000">
						<ele>61</ele>
						<time>2022-07-15T04:42:32Z</time>
					</trkpt>
					<trkpt lat="47.150580" lon="-0.157040">
						<ele>61</ele>
						<time>2022-07-15T04:42:35Z</time>
					</trkpt>
					<trkpt lat="47.150600" lon="-0.157070">
						<ele>61</ele>
						<time>2022-07-15T04:42:37Z</time>
					</trkpt>
					<trkpt lat="47.150620" lon="-0.157100">
						<ele>61</ele>
						<time>2022-07-15T04:42:39Z</time>
					</trkpt>
					<trkpt lat="47.150640" lon="-0.157130">
						<ele>61</ele>
						<time>2022-07-15T04:42:41Z</time>
					</trkpt>
					<trkpt lat="47.150670" lon="-0.157160">
						<ele>61</ele>
						<time>2022-07-15T04:42:43Z</time>
					</trkpt>
					<trkpt lat="47.150690" lon="-0.157200">
						<ele>61</ele>
						<time>2022-07-15T04:42:45Z</time>
					</trkpt>
					<trkpt lat="47.150720" lon="-0.157220">
						<ele>60</ele>
						<time>2022-07-15T04:42:47Z</time>
					</trkpt>
					<trkpt lat="47.150740" lon="-0.157250">
						<ele>59</ele>
						<time>2022-07-15T04:42:49Z</time>
					</trkpt>
					<trkpt lat="47.150760" lon="-0.157280">
						<ele>58</ele>
						<time>2022-07-15T04:42:51Z</time>
					</trkpt>
					<trkpt lat="47.150790" lon="-0.157310">
						<ele>58</ele>
						<time>2022-07-15T04:42:53Z</time>
					</trkpt>
					<trkpt lat="47.150810" lon="-0.157320">
						<ele>58</ele>
						<time>2022-07-15T04:42:55Z</time>
					</trkpt>
					<trkpt lat="47.150850" lon="-0.157320">
						<ele>58</ele>
						<time>2022-07-15T04:42:57Z</time>
					</trkpt>
					<trkpt lat="47.150880" lon="-0.157310">
						<ele>59</ele>
						<time>2022-07-15T04:42:59Z</time>
					</trkpt>
					<trkpt lat="47.150900" lon="-0.157280">
						<ele>59</ele>
						<time>2022-07-15T04:43:01Z</time>
					</trkpt>
					<trkpt lat="47.150920" lon="-0.157250">
						<ele>59</ele>
						<time>2022-07-15T04:43:03Z</time>
					</trkpt>
					<trkpt lat="47.150950" lon="-0.157220">
						<ele>59</ele>
						<time>2022-07-15T04:43:05Z</time>
					</trkpt>
					<trkpt lat="47.150970" lon="-0.157190">
						<ele>60</ele>
						<time>2022-07-15T04:43:07Z</time>
					</trkpt>
					<trkpt lat="47.150990" lon="-0.157150">
						<ele>60</ele>
						<time>2022-07-15T04:43:09Z</time>
					</trkpt>
					<trkpt lat="47.151020" lon="-0.157120">
						<ele>60</ele>
						<time>2022-07-15T04:43:11Z</time>
					</trkpt>
					<trkpt lat="47.151040" lon="-0.157100">
						<ele>59</ele>
						<time>2022-07-15T04:43:13Z</time>
					</trkpt>
					<trkpt lat="47.151080" lon="-0.157070">
						<ele>59</ele>
						<time>2022-07-15T04:43:15Z</time>
					</trkpt>
					<trkpt lat="47.151100" lon="-0.157040">
						<ele>58</ele>
						<time>2022-07-15T04:43:17Z</time>
					</trkpt>
					<trkpt lat="47.151120" lon="-0.157000">
						<ele>57</ele>
						<time>2022-07-15T04:43:19Z</time>
					</trkpt>
					<trkpt lat="47.151140" lon="-0.156970">
						<ele>57</ele>
						<time>2022-07-15T04:43:21Z</time>
					</trkpt>
					<trkpt lat="47.151170" lon="-0.156940">
						<ele>56</ele>
						<time>2022-07-15T04:43:23Z</time>
					</trkpt>
					<trkpt lat="47.151190" lon="-0.156910">
						<ele>56</ele>
						<time>2022-07-15T04:43:25Z</time>
					</trkpt>
					<trkpt lat="47.151210" lon="-0.156880">
						<ele>57</ele>
						<time>2022-07-15T04:43:27Z</time>
					</trkpt>
					<trkpt lat="47.151230" lon="-0.156850">
						<ele>56</ele>
						<time>2022-07-15T04:43:29Z</time>
					</trkpt>
					<trkpt lat="47.151260" lon="-0.156820">
						<ele>56</ele>
						<time>2022-07-15T04:43:31Z</time>
					</trkpt>
					<trkpt lat="47.151280" lon="-0.156790">
						<ele>56</ele>
						<time>2022-07-15T04:43:33Z</time>
					</trkpt>
					<trkpt lat="47.151310" lon="-0.156760">
						<ele>57</ele>
						<time>2022-07-15T04:43:35Z</time>
					</trkpt>
					<trkpt lat="47.151330" lon="-0.156730">
						<ele>57</ele>
						<time>2022-07-15T04:43:37Z</time>
					</trkpt>
					<trkpt lat="47.151360" lon="-0.156700">
						<ele>58</ele>
						<time>2022-07-15T04:43:39Z</time>
					</trkpt>
					<trkpt lat="47.151380" lon="-0.156670">
						<ele>58</ele>
						<time>2022-07-15T04:43:41Z</time>
					</trkpt>
					<trkpt lat="47.151410" lon="-0.156640">
						<ele>59</ele>
						<time>2022-07-15T04:43:43Z</time>
					</trkpt>
					<trkpt lat="47.151440" lon="-0.156610">
						<ele>60</ele>
						<time>2022-07-15T04:43:45Z</time>
					</trkpt>
					<trkpt lat="47.151460" lon="-0.156570">
						<ele>59</ele>
						<time>2022-07-15T04:43:47Z</time>
					</trkpt>
					<trkpt lat="47.151480" lon="-0.156530">
						<ele>59</ele>
						<time>2022-07-15T04:43:49Z</time>
					</trkpt>
					<trkpt lat="47.151500" lon="-0.156500">
						<ele>59</ele>
						<time>2022-07-15T04:43:51Z</time>
					</trkpt>
					<trkpt lat="47.151520" lon="-0.156470">
						<ele>59</ele>
						<time>2022-07-15T04:43:53Z</time>
					</trkpt>
					<trkpt lat="47.151540" lon="-0.156430">
						<ele>58</ele>
						<time>2022-07-15T04:43:55Z</time>
					</trkpt>
					<trkpt lat="47.151570" lon="-0.156410">
						<ele>58</ele>
						<time>2022-07-15T04:43:57Z</time>
					</trkpt>
					<trkpt lat="47.151590" lon="-0.156380">
						<ele>58</ele>
						<time>2022-07-15T04:43:59Z</time>
					</trkpt>
					<trkpt lat="47.151620" lon="-0.156370">
						<ele>58</ele>
						<time>2022-07-15T04:44:01Z</time>
					</trkpt>
					<trkpt lat="47.151650" lon="-0.156380">
						<ele>57</ele>
						<time>2022-07-15T04:44:03Z</time>
					</trkpt>
					<trkpt lat="47.151680" lon="-0.156390">
						<ele>57</ele>
						<time>2022-07-15T04:44:05Z</time>
					</trkpt>
					<trkpt lat="47.151720" lon="-0.156420">
						<ele>56</ele>
						<time>2022-07-15T04:44:08Z</time>
					</trkpt>
					<trkpt lat="47.151740" lon="-0.156450">
						<ele>55</ele>
						<time>2022-07-15T04:44:10Z</time>
					</trkpt>
					<trkpt lat="47.151760" lon="-0.156490">
						<ele>55</ele>
						<time>2022-07-15T04:44:12Z</time>
					</trkpt>
					<trkpt lat="47.151780" lon="-0.156520">
						<ele>55</ele>
						<time>2022-07-15T04:44:14Z</time>
					</trkpt>
					<trkpt lat="47.151810" lon="-0.156560">
						<ele>54</ele>
						<time>2022-07-15T04:44:16Z</time>
					</trkpt>
					<trkpt lat="47.151830" lon="-0.156590">
						<ele>54</ele>
						<time>2022-07-15T04:44:18Z</time>
					</trkpt>
					<trkpt lat="47.151850" lon="-0.156630">
						<ele>54</ele>
						<time>2022-07-15T04:44:21Z</time>
					</trkpt>
					<trkpt lat="47.151870" lon="-0.156670">
						<ele>54</ele>
						<time>2022-07-15T04:44:23Z</time>
					</trkpt>
					<trkpt lat="47.151890" lon="-0.156710">
						<ele>54</ele>
						<time>2022-07-15T04:44:25Z</time>
					</trkpt>
					<trkpt lat="47.151920" lon="-0.156740">
						<ele>54</ele>
						<time>2022-07-15T04:44:27Z</time>
					</trkpt>
					<trkpt lat="47.151940" lon="-0.156780">
						<ele>53</ele>
						<time>2022-07-15T04:44:29Z</time>
					</trkpt>
					<trkpt lat="47.151960" lon="-0.156830">
						<ele>54</ele>
						<time>2022-07-15T04:44:32Z</time>
					</trkpt>
					<trkpt lat="47.151980" lon="-0.156870">
						<ele>54</ele>
						<time>2022-07-15T04:44:34Z</time>
					</trkpt>
					<trkpt lat="47.152000" lon="-0.156910">
						<ele>54</ele>
						<time>2022-07-15T04:44:36Z</time>
					</trkpt>
					<trkpt lat="47.152020" lon="-0.156940">
						<ele>55</ele>
						<time>2022-07-15T04:44:38Z</time>
					</trkpt>
					<trkpt lat="47.152040" lon="-0.156970">
						<ele>56</ele>
						<time>2022-07-15T04:44:40Z</time>
					</trkpt>
					<trkpt lat="47.152060" lon="-0.157010">
						<ele>57</ele>
						<time>2022-07-15T04:44:42Z</time>
					</trkpt>
					<trkpt lat="47.152080" lon="-0.157040">
						<ele>58</ele>
						<time>2022-07-15T04:44:44Z</time>
					</trkpt>
					<trkpt lat="47.152100" lon="-0.157080">
						<ele>59</ele>
						<time>2022-07-15T04:44:46Z</time>
					</trkpt>
					<trkpt lat="47.152120" lon="-0.157120">
						<ele>59</ele>
						<time>2022-07-15T04:44:50Z</time>
					</trkpt>
					<trkpt lat="47.152140" lon="-0.157160">
						<ele>58</ele>
						<time>2022-07-15T04:44:52Z</time>
					</trkpt>
					<trkpt lat="47.152160" lon="-0.157200">
						<ele>58</ele>
						<time>2022-07-15T04:44:54Z</time>
					</trkpt>
					<trkpt lat="47.152190" lon="-0.157230">
						<ele>59</ele>
						<time>2022-07-15T04:44:56Z</time>
					</trkpt>
					<trkpt lat="47.152210" lon="-0.157270">
						<ele>59</ele>
						<time>2022-07-15T04:44:58Z</time>
					</trkpt>
					<trkpt lat="47.152230" lon="-0.157310">
						<ele>59</ele>
						<time>2022-07-15T04:45:00Z</time>
					</trkpt>
					<trkpt lat="47.152260" lon="-0.157350">
						<ele>59</ele>
						<time>2022-07-15T04:45:02Z</time>
					</trkpt>
					<trkpt lat="47.152280" lon="-0.157380">
						<ele>58</ele>
						<time>2022-07-15T04:45:04Z</time>
					</trkpt>
					<trkpt lat="47.152300" lon="-0.157410">
						<ele>59</ele>
						<time>2022-07-15T04:45:06Z</time>
					</trkpt>
					<trkpt lat="47.152320" lon="-0.157450">
						<ele>59</ele>
						<time>2022-07-15T04:45:08Z</time>
					</trkpt>
					<trkpt lat="47.152340" lon="-0.157480">
						<ele>59</ele>
						<time>2022-07-15T04:45:10Z</time>
					</trkpt>
					<trkpt lat="47.152360" lon="-0.157520">
						<ele>58</ele>
						<time>2022-07-15T04:45:12Z</time>
					</trkpt>
					<trkpt lat="47.152380" lon="-0.157550">
						<ele>58</ele>
						<time>2022-07-15T04:45:14Z</time>
					</trkpt>
					<trkpt lat="47.152400" lon="-0.157590">
						<ele>58</ele>
						<time>2022-07-15T04:45:17Z</time>
					</trkpt>
					<trkpt lat="47.152430" lon="-0.157620">
						<ele>58</ele>
						<time>2022-07-15T04:45:19Z</time>
					</trkpt>
					<trkpt lat="47.152450" lon="-0.157650">
						<ele>58</ele>
						<time>2022-07-15T04:45:21Z</time>
					</trkpt>
					<trkpt lat="47.152470" lon="-0.157690">
						<ele>57</ele>
						<time>2022-07-15T04:45:23Z</time>
					</trkpt>
					<trkpt lat="47.152490" lon="-0.157730">
						<ele>56</ele>
						<time>2022-07-15T04:45:26Z</time>
					</trkpt>
					<trkpt lat="47.152510" lon="-0.157760">
						<ele>56</ele>
						<time>2022-07-15T04:45:28Z</time>
					</trkpt>
					<trkpt lat="47.152530" lon="-0.157800">
						<ele>56</ele>
						<time>2022-07-15T04:45:30Z</time>
					</trkpt>
					<trkpt lat="47.152560" lon="-0.157830">
						<ele>57</ele>
						<time>2022-07-15T04:45:32Z</time>
					</trkpt>
					<trkpt lat="47.152580" lon="-0.157870">
						<ele>57</ele>
						<time>2022-07-15T04:45:34Z</time>
					</trkpt>
					<trkpt lat="47.152600" lon="-0.157900">
						<ele>57</ele>
						<time>2022-07-15T04:45:36Z</time>
					</trkpt>
					<trkpt lat="47.152630" lon="-0.157940">
						<ele>58</ele>
						<time>2022-07-15T04:45:38Z</time>
					</trkpt>
					<trkpt lat="47.152650" lon="-0.157980">
						<ele>58</ele>
						<time>2022-07-15T04:45:40Z</time>
					</trkpt>
					<trkpt lat="47.152670" lon="-0.158020">
						<ele>58</ele>
						<time>2022-07-15T04:45:42Z</time>
					</trkpt>
					<trkpt lat="47.152690" lon="-0.158060">
						<ele>59</ele>
						<time>2022-07-15T04:45:44Z</time>
					</trkpt>
					<trkpt lat="47.152710" lon="-0.158100">
						<ele>60</ele>
						<time>2022-07-15T04:45:46Z</time>
					</trkpt>
					<trkpt lat="47.152740" lon="-0.158130">
						<ele>60</ele>
						<time>2022-07-15T04:45:48Z</time>
					</trkpt>
					<trkpt lat="47.152760" lon="-0.158170">
						<ele>59</ele>
						<time>2022-07-15T04:45:50Z</time>
					</trkpt>
					<trkpt lat="47.152780" lon="-0.158200">
						<ele>59</ele>
						<time>2022-07-15T04:45:52Z</time>
					</trkpt>
					<trkpt lat="47.152810" lon="-0.158230">
						<ele>59</ele>
						<time>2022-07-15T04:45:54Z</time>
					</trkpt>
					<trkpt lat="47.152830" lon="-0.158270">
						<ele>60</ele>
						<time>2022-07-15T04:45:56Z</time>
					</trkpt>
					<trkpt lat="47.152860" lon="-0.158300">
						<ele>60</ele>
						<time>2022-07-15T04:45:58Z</time>
					</trkpt>
					<trkpt lat="47.152880" lon="-0.158330">
						<ele>60</ele>
						<time>2022-07-15T04:46:00Z</time>
					</trkpt>
					<trkpt lat="47.152900" lon="-0.158370">
						<ele>60</ele>
						<time>2022-07-15T04:46:02Z</time>
					</trkpt>
					<trkpt lat="47.152920" lon="-0.158400">
						<ele>60</ele>
						<time>2022-07-15T04:46:04Z</time>
					</trkpt>
					<trkpt lat="47.152940" lon="-0.158430">
						<ele>59</ele>
						<time>2022-07-15T04:46:06Z</time>
					</trkpt>
					<trkpt lat="47.152960" lon="-0.158470">
						<ele>59</ele>
						<time>2022-07-15T04:46:08Z</time>
					</trkpt>
					<trkpt lat="47.152980" lon="-0.158510">
						<ele>59</ele>
						<time>2022-07-15T04:46:10Z</time>
					</trkpt>
					<trkpt lat="47.153000" lon="-0.158550">
						<ele>59</ele>
						<time>2022-07-15T04:46:12Z</time>
					</trkpt>
					<trkpt lat="47.153020" lon="-0.158580">
						<ele>59</ele>
						<time>2022-07-15T04:46:14Z</time>
					</trkpt>
					<trkpt lat="47.153040" lon="-0.158620">
						<ele>58</ele>
						<time>2022-07-15T04:46:16Z</time>
					</trkpt>
					<trkpt lat="47.153060" lon="-0.158650">
						<ele>58</ele>
						<time>2022-07-15T04:46:18Z</time>
					</trkpt>
					<trkpt lat="47.153080" lon="-0.158690">
						<ele>58</ele>
						<time>2022-07-15T04:46:20Z</time>
					</trkpt>
					<trkpt lat="47.153110" lon="-0.158730">
						<ele>57</ele>
						<time>2022-07-15T04:46:22Z</time>
					</trkpt>
					<trkpt lat="47.153130" lon="-0.158760">
						<ele>57</ele>
						<time>2022-07-15T04:46:24Z</time>
					</trkpt>
					<trkpt lat="47.153160" lon="-0.158800">
						<ele>57</ele>
						<time>2022-07-15T04:46:26Z</time>
					</trkpt>
					<trkpt lat="47.153180" lon="-0.158830">
						<ele>58</ele>
						<time>2022-07-15T04:46:28Z</time>
					</trkpt>
					<trkpt lat="47.153210" lon="-0.158860">
						<ele>58</ele>
						<time>2022-07-15T04:46:30Z</time>
					</trkpt>
					<trkpt lat="47.153230" lon="-0.158900">
						<ele>58</ele>
						<time>2022-07-15T04:46:32Z</time>
					</trkpt>
					<trkpt lat="47.153250" lon="-0.158940">
						<ele>58</ele>
						<time>2022-07-15T04:46:34Z</time>
					</trkpt>
					<trkpt lat="47.153270" lon="-0.158980">
						<ele>58</ele>
						<time>2022-07-15T04:46:36Z</time>
					</trkpt>
					<trkpt lat="47.153290" lon="-0.159010">
						<ele>58</ele>
						<time>2022-07-15T04:46:38Z</time>
					</trkpt>
					<trkpt lat="47.153310" lon="-0.159050">
						<ele>58</ele>
						<time>2022-07-15T04:46:40Z</time>
					</trkpt>
					<trkpt lat="47.153330" lon="-0.159090">
						<ele>57</ele>
						<time>2022-07-15T04:46:43Z</time>
					</trkpt>
					<trkpt lat="47.153350" lon="-0.159130">
						<ele>58</ele>
						<time>2022-07-15T04:46:46Z</time>
					</trkpt>
					<trkpt lat="47.153370" lon="-0.159170">
						<ele>57</ele>
						<time>2022-07-15T04:46:48Z</time>
					</trkpt>
					<trkpt lat="47.153400" lon="-0.159200">
						<ele>58</ele>
						<time>2022-07-15T04:46:50Z</time>
					</trkpt>
					<trkpt lat="47.153420" lon="-0.159240">
						<ele>58</ele>
						<time>2022-07-15T04:46:52Z</time>
					</trkpt>
					<trkpt lat="47.153450" lon="-0.159280">
						<ele>58</ele>
						<time>2022-07-15T04:46:54Z</time>
					</trkpt>
					<trkpt lat="47.153490" lon="-0.159320">
						<ele>58</ele>
						<time>2022-07-15T04:46:56Z</time>
					</trkpt>
					<trkpt lat="47.153520" lon="-0.159360">
						<ele>58</ele>
						<time>2022-07-15T04:46:58Z</time>
					</trkpt>
					<trkpt lat="47.153550" lon="-0.159400">
						<ele>59</ele>
						<time>2022-07-15T04:47:00Z</time>
					</trkpt>
					<trkpt lat="47.153570" lon="-0.159450">
						<ele>58</ele>
						<time>2022-07-15T04:47:02Z</time>
					</trkpt>
					<trkpt lat="47.153600" lon="-0.159500">
						<ele>57</ele>
						<time>2022-07-15T04:47:04Z</time>
					</trkpt>
					<trkpt lat="47.153630" lon="-0.159560">
						<ele>57</ele>
						<time>2022-07-15T04:47:06Z</time>
					</trkpt>
					<trkpt lat="47.153660" lon="-0.159610">
						<ele>57</ele>
						<time>2022-07-15T04:47:08Z</time>
					</trkpt>
					<trkpt lat="47.153700" lon="-0.159650">
						<ele>57</ele>
						<time>2022-07-15T04:47:10Z</time>
					</trkpt>
					<trkpt lat="47.153730" lon="-0.159700">
						<ele>56</ele>
						<time>2022-07-15T04:47:12Z</time>
					</trkpt>
					<trkpt lat="47.153750" lon="-0.159750">
						<ele>56</ele>
						<time>2022-07-15T04:47:14Z</time>
					</trkpt>
					<trkpt lat="47.153780" lon="-0.159800">
						<ele>55</ele>
						<time>2022-07-15T04:47:16Z</time>
					</trkpt>
					<trkpt lat="47.153810" lon="-0.159850">
						<ele>55</ele>
						<time>2022-07-15T04:47:18Z</time>
					</trkpt>
					<trkpt lat="47.153830" lon="-0.159890">
						<ele>54</ele>
						<time>2022-07-15T04:47:20Z</time>
					</trkpt>
					<trkpt lat="47.153860" lon="-0.159930">
						<ele>54</ele>
						<time>2022-07-15T04:47:22Z</time>
					</trkpt>
					<trkpt lat="47.153880" lon="-0.159970">
						<ele>54</ele>
						<time>2022-07-15T04:47:24Z</time>
					</trkpt>
					<trkpt lat="47.153900" lon="-0.160010">
						<ele>53</ele>
						<time>2022-07-15T04:47:27Z</time>
					</trkpt>
					<trkpt lat="47.153920" lon="-0.160050">
						<ele>54</ele>
						<time>2022-07-15T04:47:40Z</time>
					</trkpt>
					<trkpt lat="47.153950" lon="-0.160090">
						<ele>55</ele>
						<time>2022-07-15T04:47:42Z</time>
					</trkpt>
					<trkpt lat="47.153970" lon="-0.160120">
						<ele>54</ele>
						<time>2022-07-15T04:47:44Z</time>
					</trkpt>
					<trkpt lat="47.153990" lon="-0.160160">
						<ele>54</ele>
						<time>2022-07-15T04:47:46Z</time>
					</trkpt>
					<trkpt lat="47.154010" lon="-0.160190">
						<ele>53</ele>
						<time>2022-07-15T04:47:48Z</time>
					</trkpt>
					<trkpt lat="47.154030" lon="-0.160230">
						<ele>53</ele>
						<time>2022-07-15T04:47:50Z</time>
					</trkpt>
					<trkpt lat="47.154060" lon="-0.160280">
						<ele>53</ele>
						<time>2022-07-15T04:47:52Z</time>
					</trkpt>
					<trkpt lat="47.154090" lon="-0.160320">
						<ele>53</ele>
						<time>2022-07-15T04:47:54Z</time>
					</trkpt>
					<trkpt lat="47.154120" lon="-0.160360">
						<ele>53</ele>
						<time>2022-07-15T04:47:56Z</time>
					</trkpt>
					<trkpt lat="47.154150" lon="-0.160400">
						<ele>53</ele>
						<time>2022-07-15T04:47:58Z</time>
					</trkpt>
					<trkpt lat="47.154170" lon="-0.160450">
						<ele>53</ele>
						<time>2022-07-15T04:48:00Z</time>
					</trkpt>
					<trkpt lat="47.154200" lon="-0.160500">
						<ele>53</ele>
						<time>2022-07-15T04:48:02Z</time>
					</trkpt>
					<trkpt lat="47.154230" lon="-0.160550">
						<ele>52</ele>
						<time>2022-07-15T04:48:04Z</time>
					</trkpt>
					<trkpt lat="47.154260" lon="-0.160600">
						<ele>52</ele>
						<time>2022-07-15T04:48:06Z</time>
					</trkpt>
					<trkpt lat="47.154300" lon="-0.160650">
						<ele>52</ele>
						<time>2022-07-15T04:48:08Z</time>
					</trkpt>
					<trkpt lat="47.154320" lon="-0.160680">
						<ele>51</ele>
						<time>2022-07-15T04:48:09Z</time>
					</trkpt>
					<trkpt lat="47.154350" lon="-0.160730">
						<ele>51</ele>
						<time>2022-07-15T04:48:11Z</time>
					</trkpt>
					<trkpt lat="47.154370" lon="-0.160790">
						<ele>50</ele>
						<time>2022-07-15T04:48:13Z</time>
					</trkpt>
					<trkpt lat="47.154400" lon="-0.160840">
						<ele>50</ele>
						<time>2022-07-15T04:48:15Z</time>
					</trkpt>
					<trkpt lat="47.154430" lon="-0.160880">
						<ele>50</ele>
						<time>2022-07-15T04:48:17Z</time>
					</trkpt>
					<trkpt lat="47.154470" lon="-0.160920">
						<ele>50</ele>
						<time>2022-07-15T04:48:19Z</time>
					</trkpt>
					<trkpt lat="47.154500" lon="-0.160970">
						<ele>50</ele>
						<time>2022-07-15T04:48:21Z</time>
					</trkpt>
					<trkpt lat="47.154530" lon="-0.161020">
						<ele>50</ele>
						<time>2022-07-15T04:48:23Z</time>
					</trkpt>
					<trkpt lat="47.154570" lon="-0.161070">
						<ele>50</ele>
						<time>2022-07-15T04:48:25Z</time>
					</trkpt>
					<trkpt lat="47.154600" lon="-0.161120">
						<ele>50</ele>
						<time>2022-07-15T04:48:27Z</time>
					</trkpt>
					<trkpt lat="47.154630" lon="-0.161160">
						<ele>49</ele>
						<time>2022-07-15T04:48:29Z</time>
					</trkpt>
					<trkpt lat="47.154650" lon="-0.161210">
						<ele>49</ele>
						<time>2022-07-15T04:48:31Z</time>
					</trkpt>
					<trkpt lat="47.154680" lon="-0.161260">
						<ele>49</ele>
						<time>2022-07-15T04:48:33Z</time>
					</trkpt>
					<trkpt lat="47.154710" lon="-0.161310">
						<ele>48</ele>
						<time>2022-07-15T04:48:35Z</time>
					</trkpt>
					<trkpt lat="47.154750" lon="-0.161360">
						<ele>48</ele>
						<time>2022-07-15T04:48:37Z</time>
					</trkpt>
					<trkpt lat="47.154780" lon="-0.161410">
						<ele>48</ele>
						<time>2022-07-15T04:48:39Z</time>
					</trkpt>
					<trkpt lat="47.154810" lon="-0.161470">
						<ele>47</ele>
						<time>2022-07-15T04:48:41Z</time>
					</trkpt>
					<trkpt lat="47.154840" lon="-0.161520">
						<ele>47</ele>
						<time>2022-07-15T04:48:43Z</time>
					</trkpt>
					<trkpt lat="47.154870" lon="-0.161560">
						<ele>46</ele>
						<time>2022-07-15T04:48:45Z</time>
					</trkpt>
					<trkpt lat="47.154890" lon="-0.161610">
						<ele>46</ele>
						<time>2022-07-15T04:48:47Z</time>
					</trkpt>
					<trkpt lat="47.154920" lon="-0.161660">
						<ele>46</ele>
						<time>2022-07-15T04:48:49Z</time>
					</trkpt>
					<trkpt lat="47.154950" lon="-0.161710">
						<ele>46</ele>
						<time>2022-07-15T04:48:51Z</time>
					</trkpt>
					<trkpt lat="47.154980" lon="-0.161750">
						<ele>46</ele>
						<time>2022-07-15T04:48:53Z</time>
					</trkpt>
					<trkpt lat="47.155010" lon="-0.161800">
						<ele>45</ele>
						<time>2022-07-15T04:48:55Z</time>
					</trkpt>
					<trkpt lat="47.155040" lon="-0.161850">
						<ele>45</ele>
						<time>2022-07-15T04:48:57Z</time>
					</trkpt>
					<trkpt lat="47.155070" lon="-0.161900">
						<ele>45</ele>
						<time>2022-07-15T04:48:59Z</time>
					</trkpt>
					<trkpt lat="47.155090" lon="-0.161930">
						<ele>45</ele>
						<time>2022-07-15T04:49:00Z</time>
					</trkpt>
					<trkpt lat="47.155110" lon="-0.161980">
						<ele>44</ele>
						<time>2022-07-15T04:49:02Z</time>
					</trkpt>
					<trkpt lat="47.155140" lon="-0.162030">
						<ele>44</ele>
						<time>2022-07-15T04:49:04Z</time>
					</trkpt>
					<trkpt lat="47.155170" lon="-0.162080">
						<ele>44</ele>
						<time>2022-07-15T04:49:06Z</time>
					</trkpt>
					<trkpt lat="47.155190" lon="-0.162120">
						<ele>45</ele>
						<time>2022-07-15T04:49:08Z</time>
					</trkpt>
					<trkpt lat="47.155220" lon="-0.162160">
						<ele>45</ele>
						<time>2022-07-15T04:49:10Z</time>
					</trkpt>
					<trkpt lat="47.155230" lon="-0.162210">
						<ele>45</ele>
						<time>2022-07-15T04:49:12Z</time>
					</trkpt>
					<trkpt lat="47.155250" lon="-0.162250">
						<ele>44</ele>
						<time>2022-07-15T04:49:14Z</time>
					</trkpt>
					<trkpt lat="47.155270" lon="-0.162280">
						<ele>43</ele>
						<time>2022-07-15T04:49:16Z</time>
					</trkpt>
					<trkpt lat="47.155290" lon="-0.162320">
						<ele>42</ele>
						<time>2022-07-15T04:49:18Z</time>
					</trkpt>
					<trkpt lat="47.155310" lon="-0.162350">
						<ele>41</ele>
						<time>2022-07-15T04:49:20Z</time>
					</trkpt>
					<trkpt lat="47.155340" lon="-0.162390">
						<ele>41</ele>
						<time>2022-07-15T04:49:23Z</time>
					</trkpt>
					<trkpt lat="47.155350" lon="-0.162430">
						<ele>42</ele>
						<time>2022-07-15T04:49:25Z</time>
					</trkpt>
					<trkpt lat="47.155360" lon="-0.162470">
						<ele>41</ele>
						<time>2022-07-15T04:49:27Z</time>
					</trkpt>
					<trkpt lat="47.155360" lon="-0.162510">
						<ele>41</ele>
						<time>2022-07-15T04:49:29Z</time>
					</trkpt>
					<trkpt lat="47.155350" lon="-0.162560">
						<ele>41</ele>
						<time>2022-07-15T04:49:32Z</time>
					</trkpt>
					<trkpt lat="47.155340" lon="-0.162610">
						<ele>41</ele>
						<time>2022-07-15T04:49:34Z</time>
					</trkpt>
					<trkpt lat="47.155320" lon="-0.162650">
						<ele>41</ele>
						<time>2022-07-15T04:49:36Z</time>
					</trkpt>
					<trkpt lat="47.155310" lon="-0.162690">
						<ele>41</ele>
						<time>2022-07-15T04:49:38Z</time>
					</trkpt>
					<trkpt lat="47.155300" lon="-0.162750">
						<ele>41</ele>
						<time>2022-07-15T04:49:42Z</time>
					</trkpt>
					<trkpt lat="47.155290" lon="-0.162790">
						<ele>41</ele>
						<time>2022-07-15T04:49:44Z</time>
					</trkpt>
					<trkpt lat="47.155280" lon="-0.162840">
						<ele>41</ele>
						<time>2022-07-15T04:49:46Z</time>
					</trkpt>
					<trkpt lat="47.155270" lon="-0.162880">
						<ele>41</ele>
						<time>2022-07-15T04:49:48Z</time>
					</trkpt>
					<trkpt lat="47.155260" lon="-0.162930">
						<ele>41</ele>
						<time>2022-07-15T04:49:50Z</time>
					</trkpt>
					<trkpt lat="47.155250" lon="-0.162970">
						<ele>40</ele>
						<time>2022-07-15T04:49:52Z</time>
					</trkpt>
					<trkpt lat="47.155250" lon="-0.163020">
						<ele>40</ele>
						<time>2022-07-15T04:49:55Z</time>
					</trkpt>
					<trkpt lat="47.155240" lon="-0.163070">
						<ele>40</ele>
						<time>2022-07-15T04:49:57Z</time>
					</trkpt>
					<trkpt lat="47.155240" lon="-0.163110">
						<ele>40</ele>
						<time>2022-07-15T04:49:59Z</time>
					</trkpt>
					<trkpt lat="47.155230" lon="-0.163150">
						<ele>39</ele>
						<time>2022-07-15T04:50:01Z</time>
					</trkpt>
					<trkpt lat="47.155230" lon="-0.163200">
						<ele>39</ele>
						<time>2022-07-15T04:50:04Z</time>
					</trkpt>
					<trkpt lat="47.155220" lon="-0.163240">
						<ele>39</ele>
						<time>2022-07-15T04:50:06Z</time>
					</trkpt>
					<trkpt lat="47.155210" lon="-0.163290">
						<ele>39</ele>
						<time>2022-07-15T04:50:08Z</time>
					</trkpt>
					<trkpt lat="47.155200" lon="-0.163330">
						<ele>39</ele>
						<time>2022-07-15T04:50:10Z</time>
					</trkpt>
					<trkpt lat="47.155190" lon="-0.163370">
						<ele>40</ele>
						<time>2022-07-15T04:50:12Z</time>
					</trkpt>
					<trkpt lat="47.155190" lon="-0.163410">
						<ele>41</ele>
						<time>2022-07-15T04:50:14Z</time>
					</trkpt>
					<trkpt lat="47.155180" lon="-0.163460">
						<ele>42</ele>
						<time>2022-07-15T04:50:16Z</time>
					</trkpt>
					<trkpt lat="47.155170" lon="-0.163510">
						<ele>43</ele>
						<time>2022-07-15T04:50:19Z</time>
					</trkpt>
					<trkpt lat="47.155160" lon="-0.163560">
						<ele>43</ele>
						<time>2022-07-15T04:50:21Z</time>
					</trkpt>
					<trkpt lat="47.155150" lon="-0.163600">
						<ele>44</ele>
						<time>2022-07-15T04:50:23Z</time>
					</trkpt>
					<trkpt lat="47.155140" lon="-0.163650">
						<ele>44</ele>
						<time>2022-07-15T04:50:26Z</time>
					</trkpt>
					<trkpt lat="47.155130" lon="-0.163690">
						<ele>45</ele>
						<time>2022-07-15T04:50:28Z</time>
					</trkpt>
					<trkpt lat="47.155110" lon="-0.163740">
						<ele>45</ele>
						<time>2022-07-15T04:50:30Z</time>
					</trkpt>
					<trkpt lat="47.155100" lon="-0.163780">
						<ele>45</ele>
						<time>2022-07-15T04:50:32Z</time>
					</trkpt>
					<trkpt lat="47.155090" lon="-0.163830">
						<ele>45</ele>
						<time>2022-07-15T04:50:34Z</time>
					</trkpt>
					<trkpt lat="47.155080" lon="-0.163870">
						<ele>45</ele>
						<time>2022-07-15T04:50:36Z</time>
					</trkpt>
					<trkpt lat="47.155080" lon="-0.163910">
						<ele>45</ele>
						<time>2022-07-15T04:50:38Z</time>
					</trkpt>
					<trkpt lat="47.155090" lon="-0.163960">
						<ele>46</ele>
						<time>2022-07-15T04:50:40Z</time>
					</trkpt>
					<trkpt lat="47.155100" lon="-0.164000">
						<ele>46</ele>
						<time>2022-07-15T04:50:42Z</time>
					</trkpt>
					<trkpt lat="47.155120" lon="-0.164050">
						<ele>45</ele>
						<time>2022-07-15T04:50:44Z</time>
					</trkpt>
					<trkpt lat="47.155140" lon="-0.164100">
						<ele>45</ele>
						<time>2022-07-15T04:50:46Z</time>
					</trkpt>
					<trkpt lat="47.155160" lon="-0.164130">
						<ele>46</ele>
						<time>2022-07-15T04:50:49Z</time>
					</trkpt>
					<trkpt lat="47.155190" lon="-0.164160">
						<ele>46</ele>
						<time>2022-07-15T04:50:52Z</time>
					</trkpt>
					<trkpt lat="47.155210" lon="-0.164190">
						<ele>47</ele>
						<time>2022-07-15T04:50:54Z</time>
					</trkpt>
					<trkpt lat="47.155210" lon="-0.164210">
						<ele>48</ele>
						<time>2022-07-15T04:51:26Z</time>
					</trkpt>
					<trkpt lat="47.155190" lon="-0.164220">
						<ele>48</ele>
						<time>2022-07-15T04:51:33Z</time>
					</trkpt>
					<trkpt lat="47.155160" lon="-0.164230">
						<ele>47</ele>
						<time>2022-07-15T04:51:36Z</time>
					</trkpt>
					<trkpt lat="47.155130" lon="-0.164240">
						<ele>47</ele>
						<time>2022-07-15T04:51:38Z</time>
					</trkpt>
					<trkpt lat="47.155100" lon="-0.164260">
						<ele>47</ele>
						<time>2022-07-15T04:51:41Z</time>
					</trkpt>
					<trkpt lat="47.155080" lon="-0.164290">
						<ele>48</ele>
						<time>2022-07-15T04:51:43Z</time>
					</trkpt>
					<trkpt lat="47.155070" lon="-0.164340">
						<ele>48</ele>
						<time>2022-07-15T04:51:45Z</time>
					</trkpt>
					<trkpt lat="47.155060" lon="-0.164380">
						<ele>48</ele>
						<time>2022-07-15T04:51:47Z</time>
					</trkpt>
					<trkpt lat="47.155050" lon="-0.164430">
						<ele>47</ele>
						<time>2022-07-15T04:51:49Z</time>
					</trkpt>
					<trkpt lat="47.155040" lon="-0.164480">
						<ele>47</ele>
						<time>2022-07-15T04:51:51Z</time>
					</trkpt>
					<trkpt lat="47.155040" lon="-0.164520">
						<ele>47</ele>
						<time>2022-07-15T04:51:53Z</time>
					</trkpt>
					<trkpt lat="47.155030" lon="-0.164580">
						<ele>47</ele>
						<time>2022-07-15T04:51:56Z</time>
					</trkpt>
					<trkpt lat="47.155020" lon="-0.164630">
						<ele>46</ele>
						<time>2022-07-15T04:51:58Z</time>
					</trkpt>
					<trkpt lat="47.155020" lon="-0.164680">
						<ele>46</ele>
						<time>2022-07-15T04:52:00Z</time>
					</trkpt>
					<trkpt lat="47.155020" lon="-0.164730">
						<ele>47</ele>
						<time>2022-07-15T04:52:02Z</time>
					</trkpt>
					<trkpt lat="47.155020" lon="-0.164780">
						<ele>47</ele>
						<time>2022-07-15T04:52:04Z</time>
					</trkpt>
					<trkpt lat="47.155010" lon="-0.164820">
						<ele>46</ele>
						<time>2022-07-15T04:52:06Z</time>
					</trkpt>
					<trkpt lat="47.155010" lon="-0.164870">
						<ele>45</ele>
						<time>2022-07-15T04:52:09Z</time>
					</trkpt>
					<trkpt lat="47.155000" lon="-0.164920">
						<ele>44</ele>
						<time>2022-07-15T04:52:11Z</time>
					</trkpt>
					<trkpt lat="47.155000" lon="-0.164970">
						<ele>44</ele>
						<time>2022-07-15T04:52:20Z</time>
					</trkpt>
					<trkpt lat="47.154990" lon="-0.165010">
						<ele>45</ele>
						<time>2022-07-15T04:52:22Z</time>
					</trkpt>
					<trkpt lat="47.154980" lon="-0.165060">
						<ele>45</ele>
						<time>2022-07-15T04:52:24Z</time>
					</trkpt>
					<trkpt lat="47.154970" lon="-0.165110">
						<ele>45</ele>
						<time>2022-07-15T04:52:26Z</time>
					</trkpt>
					<trkpt lat="47.154960" lon="-0.165160">
						<ele>45</ele>
						<time>2022-07-15T04:52:29Z</time>
					</trkpt>
					<trkpt lat="47.154950" lon="-0.165210">
						<ele>45</ele>
						<time>2022-07-15T04:52:31Z</time>
					</trkpt>
					<trkpt lat="47.154950" lon="-0.165260">
						<ele>45</ele>
						<time>2022-07-15T04:52:33Z</time>
					</trkpt>
					<trkpt lat="47.154950" lon="-0.165310">
						<ele>45</ele>
						<time>2022-07-15T04:52:36Z</time>
					</trkpt>
					<trkpt lat="47.154950" lon="-0.165360">
						<ele>46</ele>
						<time>2022-07-15T04:52:38Z</time>
					</trkpt>
					<trkpt lat="47.154950" lon="-0.165410">
						<ele>46</ele>
						<time>2022-07-15T04:52:41Z</time>
					</trkpt>
					<trkpt lat="47.154940" lon="-0.165460">
						<ele>47</ele>
						<time>2022-07-15T04:52:43Z</time>
					</trkpt>
					<trkpt lat="47.154930" lon="-0.165500">
						<ele>47</ele>
						<time>2022-07-15T04:52:45Z</time>
					</trkpt>
					<trkpt lat="47.154930" lon="-0.165550">
						<ele>48</ele>
						<time>2022-07-15T04:52:47Z</time>
					</trkpt>
					<trkpt lat="47.154920" lon="-0.165600">
						<ele>48</ele>
						<time>2022-07-15T04:52:50Z</time>
					</trkpt>
					<trkpt lat="47.154910" lon="-0.165640">
						<ele>49</ele>
						<time>2022-07-15T04:52:59Z</time>
					</trkpt>
					<trkpt lat="47.154910" lon="-0.165680">
						<ele>50</ele>
						<time>2022-07-15T04:53:01Z</time>
					</trkpt>
					<trkpt lat="47.154910" lon="-0.165720">
						<ele>49</ele>
						<time>2022-07-15T04:53:03Z</time>
					</trkpt>
					<trkpt lat="47.154910" lon="-0.165760">
						<ele>49</ele>
						<time>2022-07-15T04:53:05Z</time>
					</trkpt>
					<trkpt lat="47.154900" lon="-0.165750">
						<ele>49</ele>
						<time>2022-07-15T04:53:18Z</time>
					</trkpt>
					<trkpt lat="47.154910" lon="-0.165710">
						<ele>48</ele>
						<time>2022-07-15T04:53:20Z</time>
					</trkpt>
					<trkpt lat="47.154910" lon="-0.165730">
						<ele>49</ele>
						<time>2022-07-15T04:53:33Z</time>
					</trkpt>
					<trkpt lat="47.154910" lon="-0.165770">
						<ele>49</ele>
						<time>2022-07-15T04:53:35Z</time>
					</trkpt>
					<trkpt lat="47.154910" lon="-0.165810">
						<ele>48</ele>
						<time>2022-07-15T04:53:37Z</time>
					</trkpt>
					<trkpt lat="47.154910" lon="-0.165850">
						<ele>48</ele>
						<time>2022-07-15T04:53:39Z</time>
					</trkpt>
					<trkpt lat="47.154900" lon="-0.165890">
						<ele>47</ele>
						<time>2022-07-15T04:53:41Z</time>
					</trkpt>
					<trkpt lat="47.154890" lon="-0.165940">
						<ele>47</ele>
						<time>2022-07-15T04:53:44Z</time>
					</trkpt>
					<trkpt lat="47.154890" lon="-0.165990">
						<ele>46</ele>
						<time>2022-07-15T04:53:46Z</time>
					</trkpt>
					<trkpt lat="47.154880" lon="-0.166030">
						<ele>46</ele>
						<time>2022-07-15T04:53:48Z</time>
					</trkpt>
					<trkpt lat="47.154880" lon="-0.166080">
						<ele>47</ele>
						<time>2022-07-15T04:53:50Z</time>
					</trkpt>
					<trkpt lat="47.154880" lon="-0.166130">
						<ele>46</ele>
						<time>2022-07-15T04:53:52Z</time>
					</trkpt>
					<trkpt lat="47.154870" lon="-0.166180">
						<ele>45</ele>
						<time>2022-07-15T04:53:54Z</time>
					</trkpt>
					<trkpt lat="47.154870" lon="-0.166220">
						<ele>45</ele>
						<time>2022-07-15T04:53:56Z</time>
					</trkpt>
					<trkpt lat="47.154870" lon="-0.166280">
						<ele>45</ele>
						<time>2022-07-15T04:53:59Z</time>
					</trkpt>
					<trkpt lat="47.154890" lon="-0.166320">
						<ele>45</ele>
						<time>2022-07-15T04:54:02Z</time>
					</trkpt>
					<trkpt lat="47.154920" lon="-0.166350">
						<ele>46</ele>
						<time>2022-07-15T04:54:05Z</time>
					</trkpt>
					<trkpt lat="47.154950" lon="-0.166370">
						<ele>46</ele>
						<time>2022-07-15T04:54:08Z</time>
					</trkpt>
					<trkpt lat="47.154990" lon="-0.166390">
						<ele>47</ele>
						<time>2022-07-15T04:54:11Z</time>
					</trkpt>
					<trkpt lat="47.155030" lon="-0.166410">
						<ele>47</ele>
						<time>2022-07-15T04:54:14Z</time>
					</trkpt>
					<trkpt lat="47.155060" lon="-0.166430">
						<ele>47</ele>
						<time>2022-07-15T04:54:24Z</time>
					</trkpt>
					<trkpt lat="47.155090" lon="-0.166450">
						<ele>47</ele>
						<time>2022-07-15T04:54:26Z</time>
					</trkpt>
					<trkpt lat="47.155120" lon="-0.166470">
						<ele>46</ele>
						<time>2022-07-15T04:54:28Z</time>
					</trkpt>
					<trkpt lat="47.155150" lon="-0.166480">
						<ele>46</ele>
						<time>2022-07-15T04:54:30Z</time>
					</trkpt>
					<trkpt lat="47.155170" lon="-0.166490">
						<ele>46</ele>
						<time>2022-07-15T04:54:32Z</time>
					</trkpt>
					<trkpt lat="47.155200" lon="-0.166500">
						<ele>46</ele>
						<time>2022-07-15T04:54:34Z</time>
					</trkpt>
					<trkpt lat="47.155230" lon="-0.166510">
						<ele>46</ele>
						<time>2022-07-15T04:54:36Z</time>
					</trkpt>
					<trkpt lat="47.155260" lon="-0.166520">
						<ele>46</ele>
						<time>2022-07-15T04:54:38Z</time>
					</trkpt>
					<trkpt lat="47.155290" lon="-0.166530">
						<ele>46</ele>
						<time>2022-07-15T04:54:40Z</time>
					</trkpt>
					<trkpt lat="47.155310" lon="-0.166550">
						<ele>46</ele>
						<time>2022-07-15T04:54:42Z</time>
					</trkpt>
					<trkpt lat="47.155340" lon="-0.166560">
						<ele>46</ele>
						<time>2022-07-15T04:54:44Z</time>
					</trkpt>
					<trkpt lat="47.155370" lon="-0.166570">
						<ele>47</ele>
						<time>2022-07-15T04:54:46Z</time>
					</trkpt>
					<trkpt lat="47.155400" lon="-0.166590">
						<ele>47</ele>
						<time>2022-07-15T04:54:48Z</time>
					</trkpt>
					<trkpt lat="47.155430" lon="-0.166600">
						<ele>48</ele>
						<time>2022-07-15T04:54:50Z</time>
					</trkpt>
					<trkpt lat="47.155460" lon="-0.166610">
						<ele>48</ele>
						<time>2022-07-15T04:54:52Z</time>
					</trkpt>
					<trkpt lat="47.155490" lon="-0.166610">
						<ele>48</ele>
						<time>2022-07-15T04:54:54Z</time>
					</trkpt>
					<trkpt lat="47.155520" lon="-0.166610">
						<ele>48</ele>
						<time>2022-07-15T04:54:56Z</time>
					</trkpt>
					<trkpt lat="47.155560" lon="-0.166620">
						<ele>48</ele>
						<time>2022-07-15T04:54:58Z</time>
					</trkpt>
					<trkpt lat="47.155590" lon="-0.166630">
						<ele>47</ele>
						<time>2022-07-15T04:55:00Z</time>
					</trkpt>
					<trkpt lat="47.155620" lon="-0.166650">
						<ele>48</ele>
						<time>2022-07-15T04:55:03Z</time>
					</trkpt>
					<trkpt lat="47.155640" lon="-0.166680">
						<ele>48</ele>
						<time>2022-07-15T04:55:05Z</time>
					</trkpt>
					<trkpt lat="47.155670" lon="-0.166710">
						<ele>48</ele>
						<time>2022-07-15T04:55:07Z</time>
					</trkpt>
					<trkpt lat="47.155690" lon="-0.166730">
						<ele>49</ele>
						<time>2022-07-15T04:55:09Z</time>
					</trkpt>
					<trkpt lat="47.155720" lon="-0.166760">
						<ele>50</ele>
						<time>2022-07-15T04:55:11Z</time>
					</trkpt>
					<trkpt lat="47.155750" lon="-0.166790">
						<ele>50</ele>
						<time>2022-07-15T04:55:13Z</time>
					</trkpt>
					<trkpt lat="47.155770" lon="-0.166830">
						<ele>50</ele>
						<time>2022-07-15T04:55:15Z</time>
					</trkpt>
					<trkpt lat="47.155800" lon="-0.166870">
						<ele>50</ele>
						<time>2022-07-15T04:55:17Z</time>
					</trkpt>
					<trkpt lat="47.155830" lon="-0.166900">
						<ele>49</ele>
						<time>2022-07-15T04:55:19Z</time>
					</trkpt>
					<trkpt lat="47.155860" lon="-0.166930">
						<ele>49</ele>
						<time>2022-07-15T04:55:21Z</time>
					</trkpt>
					<trkpt lat="47.155890" lon="-0.166970">
						<ele>47</ele>
						<time>2022-07-15T04:55:24Z</time>
					</trkpt>
					<trkpt lat="47.155910" lon="-0.167010">
						<ele>46</ele>
						<time>2022-07-15T04:55:26Z</time>
					</trkpt>
					<trkpt lat="47.155940" lon="-0.167040">
						<ele>45</ele>
						<time>2022-07-15T04:55:29Z</time>
					</trkpt>
					<trkpt lat="47.155960" lon="-0.167070">
						<ele>45</ele>
						<time>2022-07-15T04:55:31Z</time>
					</trkpt>
					<trkpt lat="47.155990" lon="-0.167100">
						<ele>43</ele>
						<time>2022-07-15T04:55:33Z</time>
					</trkpt>
					<trkpt lat="47.156010" lon="-0.167130">
						<ele>44</ele>
						<time>2022-07-15T04:55:39Z</time>
					</trkpt>
					<trkpt lat="47.156040" lon="-0.167160">
						<ele>44</ele>
						<time>2022-07-15T04:55:42Z</time>
					</trkpt>
					<trkpt lat="47.156060" lon="-0.167190">
						<ele>44</ele>
						<time>2022-07-15T04:55:45Z</time>
					</trkpt>
					<trkpt lat="47.156090" lon="-0.167220">
						<ele>44</ele>
						<time>2022-07-15T04:55:48Z</time>
					</trkpt>
					<trkpt lat="47.156120" lon="-0.167240">
						<ele>45</ele>
						<time>2022-07-15T04:55:50Z</time>
					</trkpt>
					<trkpt lat="47.156140" lon="-0.167270">
						<ele>45</ele>
						<time>2022-07-15T04:55:52Z</time>
					</trkpt>
					<trkpt lat="47.156160" lon="-0.167300">
						<ele>45</ele>
						<time>2022-07-15T04:55:54Z</time>
					</trkpt>
					<trkpt lat="47.156180" lon="-0.167320">
						<ele>45</ele>
						<time>2022-07-15T04:55:56Z</time>
					</trkpt>
					<trkpt lat="47.156210" lon="-0.167350">
						<ele>45</ele>
						<time>2022-07-15T04:55:58Z</time>
					</trkpt>
					<trkpt lat="47.156230" lon="-0.167380">
						<ele>44</ele>
						<time>2022-07-15T04:56:00Z</time>
					</trkpt>
					<trkpt lat="47.156260" lon="-0.167410">
						<ele>44</ele>
						<time>2022-07-15T04:56:02Z</time>
					</trkpt>
					<trkpt lat="47.156290" lon="-0.167430">
						<ele>44</ele>
						<time>2022-07-15T04:56:04Z</time>
					</trkpt>
					<trkpt lat="47.156320" lon="-0.167460">
						<ele>45</ele>
						<time>2022-07-15T04:56:07Z</time>
					</trkpt>
					<trkpt lat="47.156350" lon="-0.167480">
						<ele>44</ele>
						<time>2022-07-15T04:56:10Z</time>
					</trkpt>
					<trkpt lat="47.156380" lon="-0.167500">
						<ele>44</ele>
						<time>2022-07-15T04:56:12Z</time>
					</trkpt>
					<trkpt lat="47.156410" lon="-0.167530">
						<ele>44</ele>
						<time>2022-07-15T04:56:15Z</time>
					</trkpt>
					<trkpt lat="47.156430" lon="-0.167560">
						<ele>44</ele>
						<time>2022-07-15T04:56:17Z</time>
					</trkpt>
					<trkpt lat="47.156460" lon="-0.167580">
						<ele>45</ele>
						<time>2022-07-15T04:56:19Z</time>
					</trkpt>
					<trkpt lat="47.156480" lon="-0.167610">
						<ele>45</ele>
						<time>2022-07-15T04:56:21Z</time>
					</trkpt>
					<trkpt lat="47.156510" lon="-0.167640">
						<ele>44</ele>
						<time>2022-07-15T04:56:23Z</time>
					</trkpt>
					<trkpt lat="47.156530" lon="-0.167660">
						<ele>45</ele>
						<time>2022-07-15T04:56:25Z</time>
					</trkpt>
					<trkpt lat="47.156560" lon="-0.167690">
						<ele>45</ele>
						<time>2022-07-15T04:56:27Z</time>
					</trkpt>
					<trkpt lat="47.156590" lon="-0.167720">
						<ele>44</ele>
						<time>2022-07-15T04:56:30Z</time>
					</trkpt>
					<trkpt lat="47.156620" lon="-0.167750">
						<ele>44</ele>
						<time>2022-07-15T04:56:33Z</time>
					</trkpt>
					<trkpt lat="47.156660" lon="-0.167780">
						<ele>44</ele>
						<time>2022-07-15T04:56:36Z</time>
					</trkpt>
					<trkpt lat="47.156690" lon="-0.167810">
						<ele>44</ele>
						<time>2022-07-15T04:56:39Z</time>
					</trkpt>
					<trkpt lat="47.156710" lon="-0.167840">
						<ele>44</ele>
						<time>2022-07-15T04:56:41Z</time>
					</trkpt>
					<trkpt lat="47.156740" lon="-0.167880">
						<ele>44</ele>
						<time>2022-07-15T04:56:44Z</time>
					</trkpt>
					<trkpt lat="47.156780" lon="-0.167910">
						<ele>44</ele>
						<time>2022-07-15T04:56:46Z</time>
					</trkpt>
					<trkpt lat="47.156810" lon="-0.167940">
						<ele>45</ele>
						<time>2022-07-15T04:56:48Z</time>
					</trkpt>
					<trkpt lat="47.156840" lon="-0.167960">
						<ele>46</ele>
						<time>2022-07-15T04:56:50Z</time>
					</trkpt>
					<trkpt lat="47.156870" lon="-0.167970">
						<ele>46</ele>
						<time>2022-07-15T04:56:52Z</time>
					</trkpt>
					<trkpt lat="47.156900" lon="-0.167990">
						<ele>46</ele>
						<time>2022-07-15T04:56:54Z</time>
					</trkpt>
					<trkpt lat="47.156930" lon="-0.168020">
						<ele>47</ele>
						<time>2022-07-15T04:56:56Z</time>
					</trkpt>
					<trkpt lat="47.156960" lon="-0.168040">
						<ele>47</ele>
						<time>2022-07-15T04:56:58Z</time>
					</trkpt>
					<trkpt lat="47.156990" lon="-0.168070">
						<ele>47</ele>
						<time>2022-07-15T04:57:00Z</time>
					</trkpt>
					<trkpt lat="47.157020" lon="-0.168090">
						<ele>47</ele>
						<time>2022-07-15T04:57:02Z</time>
					</trkpt>
					<trkpt lat="47.157050" lon="-0.168110">
						<ele>47</ele>
						<time>2022-07-15T04:57:04Z</time>
					</trkpt>
					<trkpt lat="47.157070" lon="-0.168120">
						<ele>47</ele>
						<time>2022-07-15T04:57:06Z</time>
					</trkpt>
					<trkpt lat="47.157100" lon="-0.168130">
						<ele>46</ele>
						<time>2022-07-15T04:57:08Z</time>
					</trkpt>
					<trkpt lat="47.157140" lon="-0.168150">
						<ele>46</ele>
						<time>2022-07-15T04:57:10Z</time>
					</trkpt>
					<trkpt lat="47.157170" lon="-0.168170">
						<ele>46</ele>
						<time>2022-07-15T04:57:12Z</time>
					</trkpt>
					<trkpt lat="47.157210" lon="-0.168180">
						<ele>47</ele>
						<time>2022-07-15T04:57:14Z</time>
					</trkpt>
					<trkpt lat="47.157250" lon="-0.168200">
						<ele>47</ele>
						<time>2022-07-15T04:57:16Z</time>
					</trkpt>
					<trkpt lat="47.157290" lon="-0.168220">
						<ele>47</ele>
						<time>2022-07-15T04:57:18Z</time>
					</trkpt>
					<trkpt lat="47.157330" lon="-0.168230">
						<ele>47</ele>
						<time>2022-07-15T04:57:20Z</time>
					</trkpt>
					<trkpt lat="47.157360" lon="-0.168240">
						<ele>47</ele>
						<time>2022-07-15T04:57:22Z</time>
					</trkpt>
					<trkpt lat="47.157390" lon="-0.168250">
						<ele>46</ele>
						<time>2022-07-15T04:57:24Z</time>
					</trkpt>
					<trkpt lat="47.157430" lon="-0.168250">
						<ele>47</ele>
						<time>2022-07-15T04:57:26Z</time>
					</trkpt>
					<trkpt lat="47.157480" lon="-0.168260">
						<ele>47</ele>
						<time>2022-07-15T04:57:28Z</time>
					</trkpt>
					<trkpt lat="47.157520" lon="-0.168260">
						<ele>47</ele>
						<time>2022-07-15T04:57:30Z</time>
					</trkpt>
					<trkpt lat="47.157560" lon="-0.168260">
						<ele>46</ele>
						<time>2022-07-15T04:57:32Z</time>
					</trkpt>
					<trkpt lat="47.157600" lon="-0.168250">
						<ele>46</ele>
						<time>2022-07-15T04:57:34Z</time>
					</trkpt>
					<trkpt lat="47.157630" lon="-0.168230">
						<ele>46</ele>
						<time>2022-07-15T04:57:36Z</time>
					</trkpt>
					<trkpt lat="47.157670" lon="-0.168220">
						<ele>48</ele>
						<time>2022-07-15T04:57:38Z</time>
					</trkpt>
					<trkpt lat="47.157720" lon="-0.168200">
						<ele>48</ele>
						<time>2022-07-15T04:57:40Z</time>
					</trkpt>
					<trkpt lat="47.157760" lon="-0.168190">
						<ele>48</ele>
						<time>2022-07-15T04:57:42Z</time>
					</trkpt>
					<trkpt lat="47.157800" lon="-0.168180">
						<ele>48</ele>
						<time>2022-07-15T04:57:44Z</time>
					</trkpt>
					<trkpt lat="47.157850" lon="-0.168170">
						<ele>48</ele>
						<time>2022-07-15T04:57:46Z</time>
					</trkpt>
					<trkpt lat="47.157890" lon="-0.168160">
						<ele>48</ele>
						<time>2022-07-15T04:57:48Z</time>
					</trkpt>
					<trkpt lat="47.157930" lon="-0.168150">
						<ele>47</ele>
						<time>2022-07-15T04:57:50Z</time>
					</trkpt>
					<trkpt lat="47.157970" lon="-0.168150">
						<ele>47</ele>
						<time>2022-07-15T04:57:52Z</time>
					</trkpt>
					<trkpt lat="47.158010" lon="-0.168150">
						<ele>46</ele>
						<time>2022-07-15T04:57:56Z</time>
					</trkpt>
					<trkpt lat="47.158060" lon="-0.168160">
						<ele>47</ele>
						<time>2022-07-15T04:57:58Z</time>
					</trkpt>
					<trkpt lat="47.158110" lon="-0.168170">
						<ele>47</ele>
						<time>2022-07-15T04:58:00Z</time>
					</trkpt>
					<trkpt lat="47.158160" lon="-0.168180">
						<ele>47</ele>
						<time>2022-07-15T04:58:02Z</time>
					</trkpt>
					<trkpt lat="47.158200" lon="-0.168190">
						<ele>47</ele>
						<time>2022-07-15T04:58:04Z</time>
					</trkpt>
					<trkpt lat="47.158250" lon="-0.168210">
						<ele>47</ele>
						<time>2022-07-15T04:58:06Z</time>
					</trkpt>
					<trkpt lat="47.158290" lon="-0.168240">
						<ele>48</ele>
						<time>2022-07-15T04:58:08Z</time>
					</trkpt>
					<trkpt lat="47.158330" lon="-0.168260">
						<ele>48</ele>
						<time>2022-07-15T04:58:09Z</time>
					</trkpt>
					<trkpt lat="47.158360" lon="-0.168270">
						<ele>48</ele>
						<time>2022-07-15T04:58:10Z</time>
					</trkpt>
					<trkpt lat="47.158400" lon="-0.168290">
						<ele>47</ele>
						<time>2022-07-15T04:58:12Z</time>
					</trkpt>
					<trkpt lat="47.158430" lon="-0.168320">
						<ele>48</ele>
						<time>2022-07-15T04:58:14Z</time>
					</trkpt>
					<trkpt lat="47.158470" lon="-0.168350">
						<ele>48</ele>
						<time>2022-07-15T04:58:16Z</time>
					</trkpt>
					<trkpt lat="47.158510" lon="-0.168390">
						<ele>48</ele>
						<time>2022-07-15T04:58:18Z</time>
					</trkpt>
					<trkpt lat="47.158550" lon="-0.168440">
						<ele>49</ele>
						<time>2022-07-15T04:58:20Z</time>
					</trkpt>
					<trkpt lat="47.158580" lon="-0.168460">
						<ele>49</ele>
						<time>2022-07-15T04:58:21Z</time>
					</trkpt>
					<trkpt lat="47.158610" lon="-0.168490">
						<ele>49</ele>
						<time>2022-07-15T04:58:22Z</time>
					</trkpt>
					<trkpt lat="47.158630" lon="-0.168520">
						<ele>49</ele>
						<time>2022-07-15T04:58:23Z</time>
					</trkpt>
					<trkpt lat="47.158670" lon="-0.168550">
						<ele>50</ele>
						<time>2022-07-15T04:58:25Z</time>
					</trkpt>
					<trkpt lat="47.158700" lon="-0.168590">
						<ele>49</ele>
						<time>2022-07-15T04:58:27Z</time>
					</trkpt>
					<trkpt lat="47.158730" lon="-0.168640">
						<ele>49</ele>
						<time>2022-07-15T04:58:29Z</time>
					</trkpt>
					<trkpt lat="47.158770" lon="-0.168680">
						<ele>49</ele>
						<time>2022-07-15T04:58:31Z</time>
					</trkpt>
					<trkpt lat="47.158810" lon="-0.168710">
						<ele>50</ele>
						<time>2022-07-15T04:58:33Z</time>
					</trkpt>
					<trkpt lat="47.158840" lon="-0.168740">
						<ele>50</ele>
						<time>2022-07-15T04:58:35Z</time>
					</trkpt>
					<trkpt lat="47.158870" lon="-0.168770">
						<ele>50</ele>
						<time>2022-07-15T04:58:38Z</time>
					</trkpt>
					<trkpt lat="47.158900" lon="-0.168800">
						<ele>50</ele>
						<time>2022-07-15T04:58:40Z</time>
					</trkpt>
					<trkpt lat="47.158930" lon="-0.168840">
						<ele>50</ele>
						<time>2022-07-15T04:58:42Z</time>
					</trkpt>
					<trkpt lat="47.158960" lon="-0.168890">
						<ele>49</ele>
						<time>2022-07-15T04:58:44Z</time>
					</trkpt>
					<trkpt lat="47.158980" lon="-0.168930">
						<ele>49</ele>
						<time>2022-07-15T04:58:46Z</time>
					</trkpt>
					<trkpt lat="47.159000" lon="-0.168960">
						<ele>49</ele>
						<time>2022-07-15T04:58:48Z</time>
					</trkpt>
					<trkpt lat="47.159030" lon="-0.169000">
						<ele>50</ele>
						<time>2022-07-15T04:58:50Z</time>
					</trkpt>
					<trkpt lat="47.159050" lon="-0.169030">
						<ele>50</ele>
						<time>2022-07-15T04:58:53Z</time>
					</trkpt>
					<trkpt lat="47.159070" lon="-0.169070">
						<ele>51</ele>
						<time>2022-07-15T04:58:58Z</time>
					</trkpt>
					<trkpt lat="47.159100" lon="-0.169090">
						<ele>51</ele>
						<time>2022-07-15T04:59:01Z</time>
					</trkpt>
					<trkpt lat="47.159130" lon="-0.169110">
						<ele>51</ele>
						<time>2022-07-15T04:59:03Z</time>
					</trkpt>
					<trkpt lat="47.159150" lon="-0.169130">
						<ele>51</ele>
						<time>2022-07-15T04:59:05Z</time>
					</trkpt>
					<trkpt lat="47.159180" lon="-0.169150">
						<ele>50</ele>
						<time>2022-07-15T04:59:08Z</time>
					</trkpt>
					<trkpt lat="47.159210" lon="-0.169180">
						<ele>49</ele>
						<time>2022-07-15T04:59:10Z</time>
					</trkpt>
					<trkpt lat="47.159240" lon="-0.169210">
						<ele>49</ele>
						<time>2022-07-15T04:59:12Z</time>
					</trkpt>
					<trkpt lat="47.159270" lon="-0.169230">
						<ele>50</ele>
						<time>2022-07-15T04:59:14Z</time>
					</trkpt>
					<trkpt lat="47.159290" lon="-0.169250">
						<ele>50</ele>
						<time>2022-07-15T04:59:16Z</time>
					</trkpt>
					<trkpt lat="47.159320" lon="-0.169270">
						<ele>50</ele>
						<time>2022-07-15T04:59:18Z</time>
					</trkpt>
					<trkpt lat="47.159350" lon="-0.169290">
						<ele>50</ele>
						<time>2022-07-15T04:59:21Z</time>
					</trkpt>
					<trkpt lat="47.159380" lon="-0.169310">
						<ele>51</ele>
						<time>2022-07-15T04:59:23Z</time>
					</trkpt>
					<trkpt lat="47.159420" lon="-0.169340">
						<ele>52</ele>
						<time>2022-07-15T04:59:25Z</time>
					</trkpt>
					<trkpt lat="47.159450" lon="-0.169380">
						<ele>51</ele>
						<time>2022-07-15T04:59:27Z</time>
					</trkpt>
					<trkpt lat="47.159490" lon="-0.169410">
						<ele>50</ele>
						<time>2022-07-15T04:59:29Z</time>
					</trkpt>
					<trkpt lat="47.159540" lon="-0.169440">
						<ele>50</ele>
						<time>2022-07-15T04:59:31Z</time>
					</trkpt>
					<trkpt lat="47.159580" lon="-0.169470">
						<ele>50</ele>
						<time>2022-07-15T04:59:33Z</time>
					</trkpt>
					<trkpt lat="47.159620" lon="-0.169490">
						<ele>50</ele>
						<time>2022-07-15T04:59:35Z</time>
					</trkpt>
					<trkpt lat="47.159670" lon="-0.169520">
						<ele>51</ele>
						<time>2022-07-15T04:59:37Z</time>
					</trkpt>
					<trkpt lat="47.159710" lon="-0.169560">
						<ele>50</ele>
						<time>2022-07-15T04:59:39Z</time>
					</trkpt>
					<trkpt lat="47.159750" lon="-0.169600">
						<ele>50</ele>
						<time>2022-07-15T04:59:41Z</time>
					</trkpt>
					<trkpt lat="47.159800" lon="-0.169620">
						<ele>50</ele>
						<time>2022-07-15T04:59:43Z</time>
					</trkpt>
					<trkpt lat="47.159840" lon="-0.169650">
						<ele>49</ele>
						<time>2022-07-15T04:59:45Z</time>
					</trkpt>
					<trkpt lat="47.159880" lon="-0.169680">
						<ele>49</ele>
						<time>2022-07-15T04:59:47Z</time>
					</trkpt>
					<trkpt lat="47.159920" lon="-0.169720">
						<ele>49</ele>
						<time>2022-07-15T04:59:49Z</time>
					</trkpt>
					<trkpt lat="47.159970" lon="-0.169760">
						<ele>49</ele>
						<time>2022-07-15T04:59:51Z</time>
					</trkpt>
					<trkpt lat="47.160010" lon="-0.169800">
						<ele>48</ele>
						<time>2022-07-15T04:59:53Z</time>
					</trkpt>
					<trkpt lat="47.160040" lon="-0.169830">
						<ele>49</ele>
						<time>2022-07-15T04:59:55Z</time>
					</trkpt>
					<trkpt lat="47.160080" lon="-0.169870">
						<ele>49</ele>
						<time>2022-07-15T04:59:57Z</time>
					</trkpt>
					<trkpt lat="47.160120" lon="-0.169920">
						<ele>49</ele>
						<time>2022-07-15T04:59:59Z</time>
					</trkpt>
					<trkpt lat="47.160150" lon="-0.169970">
						<ele>49</ele>
						<time>2022-07-15T05:00:01Z</time>
					</trkpt>
					<trkpt lat="47.160180" lon="-0.170020">
						<ele>49</ele>
						<time>2022-07-15T05:00:03Z</time>
					</trkpt>
					<trkpt lat="47.160210" lon="-0.170060">
						<ele>49</ele>
						<time>2022-07-15T05:00:05Z</time>
					</trkpt>
					<trkpt lat="47.160230" lon="-0.170100">
						<ele>49</ele>
						<time>2022-07-15T05:00:07Z</time>
					</trkpt>
					<trkpt lat="47.160250" lon="-0.170140">
						<ele>49</ele>
						<time>2022-07-15T05:00:09Z</time>
					</trkpt>
					<trkpt lat="47.160280" lon="-0.170190">
						<ele>49</ele>
						<time>2022-07-15T05:00:11Z</time>
					</trkpt>
					<trkpt lat="47.160310" lon="-0.170240">
						<ele>50</ele>
						<time>2022-07-15T05:00:13Z</time>
					</trkpt>
					<trkpt lat="47.160330" lon="-0.170280">
						<ele>50</ele>
						<time>2022-07-15T05:00:15Z</time>
					</trkpt>
					<trkpt lat="47.160360" lon="-0.170330">
						<ele>50</ele>
						<time>2022-07-15T05:00:17Z</time>
					</trkpt>
					<trkpt lat="47.160400" lon="-0.170370">
						<ele>50</ele>
						<time>2022-07-15T05:00:19Z</time>
					</trkpt>
					<trkpt lat="47.160440" lon="-0.170400">
						<ele>50</ele>
						<time>2022-07-15T05:00:21Z</time>
					</trkpt>
					<trkpt lat="47.160480" lon="-0.170430">
						<ele>50</ele>
						<time>2022-07-15T05:00:23Z</time>
					</trkpt>
					<trkpt lat="47.160520" lon="-0.170450">
						<ele>50</ele>
						<time>2022-07-15T05:00:25Z</time>
					</trkpt>
					<trkpt lat="47.160560" lon="-0.170460">
						<ele>51</ele>
						<time>2022-07-15T05:00:27Z</time>
					</trkpt>
					<trkpt lat="47.160600" lon="-0.170470">
						<ele>52</ele>
						<time>2022-07-15T05:00:29Z</time>
					</trkpt>
					<trkpt lat="47.160630" lon="-0.170500">
						<ele>52</ele>
						<time>2022-07-15T05:00:31Z</time>
					</trkpt>
					<trkpt lat="47.160670" lon="-0.170520">
						<ele>51</ele>
						<time>2022-07-15T05:00:33Z</time>
					</trkpt>
					<trkpt lat="47.160700" lon="-0.170560">
						<ele>51</ele>
						<time>2022-07-15T05:00:35Z</time>
					</trkpt>
					<trkpt lat="47.160740" lon="-0.170600">
						<ele>51</ele>
						<time>2022-07-15T05:00:37Z</time>
					</trkpt>
					<trkpt lat="47.160780" lon="-0.170630">
						<ele>50</ele>
						<time>2022-07-15T05:00:39Z</time>
					</trkpt>
					<trkpt lat="47.160820" lon="-0.170670">
						<ele>50</ele>
						<time>2022-07-15T05:00:41Z</time>
					</trkpt>
					<trkpt lat="47.160870" lon="-0.170710">
						<ele>51</ele>
						<time>2022-07-15T05:00:43Z</time>
					</trkpt>
					<trkpt lat="47.160910" lon="-0.170750">
						<ele>52</ele>
						<time>2022-07-15T05:00:45Z</time>
					</trkpt>
					<trkpt lat="47.160950" lon="-0.170780">
						<ele>52</ele>
						<time>2022-07-15T05:00:47Z</time>
					</trkpt>
					<trkpt lat="47.160990" lon="-0.170800">
						<ele>51</ele>
						<time>2022-07-15T05:00:49Z</time>
					</trkpt>
					<trkpt lat="47.161030" lon="-0.170830">
						<ele>51</ele>
						<time>2022-07-15T05:00:51Z</time>
					</trkpt>
					<trkpt lat="47.161070" lon="-0.170860">
						<ele>51</ele>
						<time>2022-07-15T05:00:53Z</time>
					</trkpt>
					<trkpt lat="47.161110" lon="-0.170890">
						<ele>50</ele>
						<time>2022-07-15T05:00:55Z</time>
					</trkpt>
					<trkpt lat="47.161150" lon="-0.170920">
						<ele>51</ele>
						<time>2022-07-15T05:00:57Z</time>
					</trkpt>
					<trkpt lat="47.161190" lon="-0.170950">
						<ele>51</ele>
						<time>2022-07-15T05:00:59Z</time>
					</trkpt>
					<trkpt lat="47.161220" lon="-0.170970">
						<ele>51</ele>
						<time>2022-07-15T05:01:01Z</time>
					</trkpt>
					<trkpt lat="47.161250" lon="-0.171000">
						<ele>52</ele>
						<time>2022-07-15T05:01:04Z</time>
					</trkpt>
					<trkpt lat="47.161290" lon="-0.171030">
						<ele>52</ele>
						<time>2022-07-15T05:01:07Z</time>
					</trkpt>
					<trkpt lat="47.161320" lon="-0.171070">
						<ele>52</ele>
						<time>2022-07-15T05:01:09Z</time>
					</trkpt>
					<trkpt lat="47.161340" lon="-0.171090">
						<ele>52</ele>
						<time>2022-07-15T05:01:11Z</time>
					</trkpt>
					<trkpt lat="47.161380" lon="-0.171110">
						<ele>51</ele>
						<time>2022-07-15T05:01:13Z</time>
					</trkpt>
					<trkpt lat="47.161410" lon="-0.171120">
						<ele>52</ele>
						<time>2022-07-15T05:01:15Z</time>
					</trkpt>
					<trkpt lat="47.161440" lon="-0.171130">
						<ele>53</ele>
						<time>2022-07-15T05:01:17Z</time>
					</trkpt>
					<trkpt lat="47.161480" lon="-0.171140">
						<ele>53</ele>
						<time>2022-07-15T05:01:19Z</time>
					</trkpt>
					<trkpt lat="47.161510" lon="-0.171140">
						<ele>53</ele>
						<time>2022-07-15T05:01:21Z</time>
					</trkpt>
					<trkpt lat="47.161550" lon="-0.171140">
						<ele>53</ele>
						<time>2022-07-15T05:01:23Z</time>
					</trkpt>
					<trkpt lat="47.161580" lon="-0.171150">
						<ele>53</ele>
						<time>2022-07-15T05:01:25Z</time>
					</trkpt>
					<trkpt lat="47.161610" lon="-0.171160">
						<ele>53</ele>
						<time>2022-07-15T05:01:28Z</time>
					</trkpt>
					<trkpt lat="47.161640" lon="-0.171170">
						<ele>53</ele>
						<time>2022-07-15T05:01:30Z</time>
					</trkpt>
					<trkpt lat="47.161680" lon="-0.171170">
						<ele>54</ele>
						<time>2022-07-15T05:01:33Z</time>
					</trkpt>
					<trkpt lat="47.161710" lon="-0.171180">
						<ele>54</ele>
						<time>2022-07-15T05:01:35Z</time>
					</trkpt>
					<trkpt lat="47.161740" lon="-0.171200">
						<ele>55</ele>
						<time>2022-07-15T05:01:37Z</time>
					</trkpt>
					<trkpt lat="47.161780" lon="-0.171210">
						<ele>55</ele>
						<time>2022-07-15T05:01:39Z</time>
					</trkpt>
					<trkpt lat="47.161820" lon="-0.171230">
						<ele>55</ele>
						<time>2022-07-15T05:01:42Z</time>
					</trkpt>
					<trkpt lat="47.161850" lon="-0.171240">
						<ele>55</ele>
						<time>2022-07-15T05:01:44Z</time>
					</trkpt>
					<trkpt lat="47.161890" lon="-0.171250">
						<ele>55</ele>
						<time>2022-07-15T05:01:46Z</time>
					</trkpt>
					<trkpt lat="47.161920" lon="-0.171260">
						<ele>55</ele>
						<time>2022-07-15T05:01:48Z</time>
					</trkpt>
					<trkpt lat="47.161960" lon="-0.171280">
						<ele>53</ele>
						<time>2022-07-15T05:01:56Z</time>
					</trkpt>
					<trkpt lat="47.161990" lon="-0.171290">
						<ele>53</ele>
						<time>2022-07-15T05:01:58Z</time>
					</trkpt>
					<trkpt lat="47.162020" lon="-0.171310">
						<ele>52</ele>
						<time>2022-07-15T05:02:00Z</time>
					</trkpt>
					<trkpt lat="47.162050" lon="-0.171320">
						<ele>52</ele>
						<time>2022-07-15T05:02:02Z</time>
					</trkpt>
					<trkpt lat="47.162080" lon="-0.171340">
						<ele>52</ele>
						<time>2022-07-15T05:02:04Z</time>
					</trkpt>
					<trkpt lat="47.162110" lon="-0.171350">
						<ele>52</ele>
						<time>2022-07-15T05:02:06Z</time>
					</trkpt>
					<trkpt lat="47.162140" lon="-0.171370">
						<ele>51</ele>
						<time>2022-07-15T05:02:08Z</time>
					</trkpt>
					<trkpt lat="47.162180" lon="-0.171390">
						<ele>51</ele>
						<time>2022-07-15T05:02:10Z</time>
					</trkpt>
					<trkpt lat="47.162210" lon="-0.171400">
						<ele>52</ele>
						<time>2022-07-15T05:02:13Z</time>
					</trkpt>
					<trkpt lat="47.162260" lon="-0.171410">
						<ele>53</ele>
						<time>2022-07-15T05:02:15Z</time>
					</trkpt>
					<trkpt lat="47.162300" lon="-0.171420">
						<ele>54</ele>
						<time>2022-07-15T05:02:17Z</time>
					</trkpt>
					<trkpt lat="47.162340" lon="-0.171420">
						<ele>54</ele>
						<time>2022-07-15T05:02:19Z</time>
					</trkpt>
					<trkpt lat="47.162380" lon="-0.171440">
						<ele>55</ele>
						<time>2022-07-15T05:02:21Z</time>
					</trkpt>
					<trkpt lat="47.162420" lon="-0.171450">
						<ele>55</ele>
						<time>2022-07-15T05:02:23Z</time>
					</trkpt>
					<trkpt lat="47.162470" lon="-0.171470">
						<ele>55</ele>
						<time>2022-07-15T05:02:25Z</time>
					</trkpt>
					<trkpt lat="47.162510" lon="-0.171480">
						<ele>55</ele>
						<time>2022-07-15T05:02:27Z</time>
					</trkpt>
					<trkpt lat="47.162550" lon="-0.171510">
						<ele>55</ele>
						<time>2022-07-15T05:02:29Z</time>
					</trkpt>
					<trkpt lat="47.162600" lon="-0.171540">
						<ele>55</ele>
						<time>2022-07-15T05:02:31Z</time>
					</trkpt>
					<trkpt lat="47.162640" lon="-0.171570">
						<ele>56</ele>
						<time>2022-07-15T05:02:33Z</time>
					</trkpt>
					<trkpt lat="47.162680" lon="-0.171590">
						<ele>56</ele>
						<time>2022-07-15T05:02:35Z</time>
					</trkpt>
					<trkpt lat="47.162730" lon="-0.171610">
						<ele>56</ele>
						<time>2022-07-15T05:02:37Z</time>
					</trkpt>
					<trkpt lat="47.162770" lon="-0.171620">
						<ele>57</ele>
						<time>2022-07-15T05:02:39Z</time>
					</trkpt>
					<trkpt lat="47.162810" lon="-0.171620">
						<ele>57</ele>
						<time>2022-07-15T05:02:40Z</time>
					</trkpt>
					<trkpt lat="47.162850" lon="-0.171630">
						<ele>57</ele>
						<time>2022-07-15T05:02:42Z</time>
					</trkpt>
					<trkpt lat="47.162890" lon="-0.171650">
						<ele>56</ele>
						<time>2022-07-15T05:02:44Z</time>
					</trkpt>
					<trkpt lat="47.162940" lon="-0.171660">
						<ele>56</ele>
						<time>2022-07-15T05:02:46Z</time>
					</trkpt>
					<trkpt lat="47.162970" lon="-0.171680">
						<ele>56</ele>
						<time>2022-07-15T05:02:48Z</time>
					</trkpt>
					<trkpt lat="47.163020" lon="-0.171710">
						<ele>55</ele>
						<time>2022-07-15T05:02:50Z</time>
					</trkpt>
					<trkpt lat="47.163050" lon="-0.171730">
						<ele>55</ele>
						<time>2022-07-15T05:02:51Z</time>
					</trkpt>
					<trkpt lat="47.163090" lon="-0.171760">
						<ele>55</ele>
						<time>2022-07-15T05:02:53Z</time>
					</trkpt>
					<trkpt lat="47.163130" lon="-0.171780">
						<ele>55</ele>
						<time>2022-07-15T05:02:55Z</time>
					</trkpt>
					<trkpt lat="47.163170" lon="-0.171810">
						<ele>56</ele>
						<time>2022-07-15T05:02:57Z</time>
					</trkpt>
					<trkpt lat="47.163210" lon="-0.171830">
						<ele>55</ele>
						<time>2022-07-15T05:02:59Z</time>
					</trkpt>
					<trkpt lat="47.163240" lon="-0.171870">
						<ele>55</ele>
						<time>2022-07-15T05:03:01Z</time>
					</trkpt>
					<trkpt lat="47.163280" lon="-0.171910">
						<ele>55</ele>
						<time>2022-07-15T05:03:03Z</time>
					</trkpt>
					<trkpt lat="47.163310" lon="-0.171950">
						<ele>55</ele>
						<time>2022-07-15T05:03:05Z</time>
					</trkpt>
					<trkpt lat="47.163350" lon="-0.171970">
						<ele>55</ele>
						<time>2022-07-15T05:03:07Z</time>
					</trkpt>
					<trkpt lat="47.163380" lon="-0.171990">
						<ele>54</ele>
						<time>2022-07-15T05:03:08Z</time>
					</trkpt>
					<trkpt lat="47.163410" lon="-0.172020">
						<ele>54</ele>
						<time>2022-07-15T05:03:09Z</time>
					</trkpt>
					<trkpt lat="47.163450" lon="-0.172050">
						<ele>54</ele>
						<time>2022-07-15T05:03:11Z</time>
					</trkpt>
					<trkpt lat="47.163490" lon="-0.172090">
						<ele>54</ele>
						<time>2022-07-15T05:03:13Z</time>
					</trkpt>
					<trkpt lat="47.163520" lon="-0.172130">
						<ele>55</ele>
						<time>2022-07-15T05:03:15Z</time>
					</trkpt>
					<trkpt lat="47.163560" lon="-0.172170">
						<ele>56</ele>
						<time>2022-07-15T05:03:17Z</time>
					</trkpt>
					<trkpt lat="47.163590" lon="-0.172200">
						<ele>57</ele>
						<time>2022-07-15T05:03:18Z</time>
					</trkpt>
					<trkpt lat="47.163620" lon="-0.172230">
						<ele>57</ele>
						<time>2022-07-15T05:03:19Z</time>
					</trkpt>
					<trkpt lat="47.163650" lon="-0.172260">
						<ele>57</ele>
						<time>2022-07-15T05:03:21Z</time>
					</trkpt>
					<trkpt lat="47.163680" lon="-0.172280">
						<ele>57</ele>
						<time>2022-07-15T05:03:23Z</time>
					</trkpt>
					<trkpt lat="47.163710" lon="-0.172310">
						<ele>57</ele>
						<time>2022-07-15T05:03:25Z</time>
					</trkpt>
					<trkpt lat="47.163740" lon="-0.172340">
						<ele>56</ele>
						<time>2022-07-15T05:03:27Z</time>
					</trkpt>
					<trkpt lat="47.163780" lon="-0.172370">
						<ele>55</ele>
						<time>2022-07-15T05:03:29Z</time>
					</trkpt>
					<trkpt lat="47.163820" lon="-0.172400">
						<ele>55</ele>
						<time>2022-07-15T05:03:31Z</time>
					</trkpt>
					<trkpt lat="47.163860" lon="-0.172430">
						<ele>55</ele>
						<time>2022-07-15T05:03:33Z</time>
					</trkpt>
					<trkpt lat="47.163900" lon="-0.172470">
						<ele>56</ele>
						<time>2022-07-15T05:03:35Z</time>
					</trkpt>
					<trkpt lat="47.163930" lon="-0.172510">
						<ele>56</ele>
						<time>2022-07-15T05:03:37Z</time>
					</trkpt>
					<trkpt lat="47.163970" lon="-0.172540">
						<ele>56</ele>
						<time>2022-07-15T05:03:39Z</time>
					</trkpt>
					<trkpt lat="47.164010" lon="-0.172570">
						<ele>57</ele>
						<time>2022-07-15T05:03:41Z</time>
					</trkpt>
					<trkpt lat="47.164040" lon="-0.172610">
						<ele>58</ele>
						<time>2022-07-15T05:03:43Z</time>
					</trkpt>
					<trkpt lat="47.164080" lon="-0.172630">
						<ele>58</ele>
						<time>2022-07-15T05:03:45Z</time>
					</trkpt>
					<trkpt lat="47.164110" lon="-0.172660">
						<ele>57</ele>
						<time>2022-07-15T05:03:47Z</time>
					</trkpt>
					<trkpt lat="47.164150" lon="-0.172690">
						<ele>57</ele>
						<time>2022-07-15T05:03:49Z</time>
					</trkpt>
					<trkpt lat="47.164190" lon="-0.172710">
						<ele>56</ele>
						<time>2022-07-15T05:03:51Z</time>
					</trkpt>
					<trkpt lat="47.164220" lon="-0.172730">
						<ele>56</ele>
						<time>2022-07-15T05:03:52Z</time>
					</trkpt>
					<trkpt lat="47.164260" lon="-0.172750">
						<ele>55</ele>
						<time>2022-07-15T05:03:54Z</time>
					</trkpt>
					<trkpt lat="47.164290" lon="-0.172760">
						<ele>54</ele>
						<time>2022-07-15T05:03:56Z</time>
					</trkpt>
					<trkpt lat="47.164330" lon="-0.172780">
						<ele>55</ele>
						<time>2022-07-15T05:03:58Z</time>
					</trkpt>
					<trkpt lat="47.164370" lon="-0.172780">
						<ele>55</ele>
						<time>2022-07-15T05:04:00Z</time>
					</trkpt>
					<trkpt lat="47.164410" lon="-0.172790">
						<ele>55</ele>
						<time>2022-07-15T05:04:02Z</time>
					</trkpt>
					<trkpt lat="47.164460" lon="-0.172800">
						<ele>55</ele>
						<time>2022-07-15T05:04:04Z</time>
					</trkpt>
					<trkpt lat="47.164500" lon="-0.172810">
						<ele>56</ele>
						<time>2022-07-15T05:04:06Z</time>
					</trkpt>
					<trkpt lat="47.164540" lon="-0.172830">
						<ele>56</ele>
						<time>2022-07-15T05:04:08Z</time>
					</trkpt>
					<trkpt lat="47.164580" lon="-0.172850">
						<ele>56</ele>
						<time>2022-07-15T05:04:10Z</time>
					</trkpt>
					<trkpt lat="47.164620" lon="-0.172880">
						<ele>56</ele>
						<time>2022-07-15T05:04:12Z</time>
					</trkpt>
					<trkpt lat="47.164650" lon="-0.172900">
						<ele>55</ele>
						<time>2022-07-15T05:04:14Z</time>
					</trkpt>
					<trkpt lat="47.164680" lon="-0.172900">
						<ele>55</ele>
						<time>2022-07-15T05:04:16Z</time>
					</trkpt>
					<trkpt lat="47.164720" lon="-0.172900">
						<ele>56</ele>
						<time>2022-07-15T05:04:18Z</time>
					</trkpt>
					<trkpt lat="47.164770" lon="-0.172900">
						<ele>55</ele>
						<time>2022-07-15T05:04:20Z</time>
					</trkpt>
					<trkpt lat="47.164800" lon="-0.172910">
						<ele>56</ele>
						<time>2022-07-15T05:04:22Z</time>
					</trkpt>
					<trkpt lat="47.164850" lon="-0.172910">
						<ele>56</ele>
						<time>2022-07-15T05:04:24Z</time>
					</trkpt>
					<trkpt lat="47.164890" lon="-0.172920">
						<ele>56</ele>
						<time>2022-07-15T05:04:26Z</time>
					</trkpt>
					<trkpt lat="47.164930" lon="-0.172930">
						<ele>56</ele>
						<time>2022-07-15T05:04:28Z</time>
					</trkpt>
					<trkpt lat="47.164960" lon="-0.172940">
						<ele>55</ele>
						<time>2022-07-15T05:04:30Z</time>
					</trkpt>
					<trkpt lat="47.165000" lon="-0.172960">
						<ele>55</ele>
						<time>2022-07-15T05:04:32Z</time>
					</trkpt>
					<trkpt lat="47.165040" lon="-0.172970">
						<ele>55</ele>
						<time>2022-07-15T05:04:34Z</time>
					</trkpt>
					<trkpt lat="47.165080" lon="-0.172990">
						<ele>55</ele>
						<time>2022-07-15T05:04:36Z</time>
					</trkpt>
					<trkpt lat="47.165110" lon="-0.173000">
						<ele>54</ele>
						<time>2022-07-15T05:04:38Z</time>
					</trkpt>
					<trkpt lat="47.165140" lon="-0.173010">
						<ele>53</ele>
						<time>2022-07-15T05:04:40Z</time>
					</trkpt>
					<trkpt lat="47.165180" lon="-0.173020">
						<ele>53</ele>
						<time>2022-07-15T05:04:42Z</time>
					</trkpt>
					<trkpt lat="47.165210" lon="-0.173030">
						<ele>53</ele>
						<time>2022-07-15T05:04:44Z</time>
					</trkpt>
					<trkpt lat="47.165250" lon="-0.173040">
						<ele>53</ele>
						<time>2022-07-15T05:04:46Z</time>
					</trkpt>
					<trkpt lat="47.165290" lon="-0.173050">
						<ele>54</ele>
						<time>2022-07-15T05:04:48Z</time>
					</trkpt>
					<trkpt lat="47.165320" lon="-0.173060">
						<ele>54</ele>
						<time>2022-07-15T05:04:50Z</time>
					</trkpt>
					<trkpt lat="47.165350" lon="-0.173060">
						<ele>54</ele>
						<time>2022-07-15T05:04:52Z</time>
					</trkpt>
					<trkpt lat="47.165380" lon="-0.173070">
						<ele>53</ele>
						<time>2022-07-15T05:04:54Z</time>
					</trkpt>
					<trkpt lat="47.165410" lon="-0.173080">
						<ele>53</ele>
						<time>2022-07-15T05:04:56Z</time>
					</trkpt>
					<trkpt lat="47.165450" lon="-0.173090">
						<ele>53</ele>
						<time>2022-07-15T05:04:59Z</time>
					</trkpt>
					<trkpt lat="47.165480" lon="-0.173100">
						<ele>52</ele>
						<time>2022-07-15T05:05:01Z</time>
					</trkpt>
					<trkpt lat="47.165510" lon="-0.173110">
						<ele>52</ele>
						<time>2022-07-15T05:05:03Z</time>
					</trkpt>
					<trkpt lat="47.165550" lon="-0.173100">
						<ele>52</ele>
						<time>2022-07-15T05:05:06Z</time>
					</trkpt>
					<trkpt lat="47.165590" lon="-0.173100">
						<ele>52</ele>
						<time>2022-07-15T05:05:09Z</time>
					</trkpt>
					<trkpt lat="47.165630" lon="-0.173100">
						<ele>53</ele>
						<time>2022-07-15T05:05:12Z</time>
					</trkpt>
					<trkpt lat="47.165660" lon="-0.173100">
						<ele>53</ele>
						<time>2022-07-15T05:05:14Z</time>
					</trkpt>
					<trkpt lat="47.165690" lon="-0.173100">
						<ele>54</ele>
						<time>2022-07-15T05:05:17Z</time>
					</trkpt>
					<trkpt lat="47.165730" lon="-0.173100">
						<ele>53</ele>
						<time>2022-07-15T05:05:20Z</time>
					</trkpt>
					<trkpt lat="47.165760" lon="-0.173100">
						<ele>54</ele>
						<time>2022-07-15T05:05:22Z</time>
					</trkpt>
					<trkpt lat="47.165790" lon="-0.173100">
						<ele>54</ele>
						<time>2022-07-15T05:05:24Z</time>
					</trkpt>
					<trkpt lat="47.165810" lon="-0.173110">
						<ele>54</ele>
						<time>2022-07-15T05:05:26Z</time>
					</trkpt>
					<trkpt lat="47.165850" lon="-0.173120">
						<ele>54</ele>
						<time>2022-07-15T05:05:29Z</time>
					</trkpt>
					<trkpt lat="47.165890" lon="-0.173120">
						<ele>53</ele>
						<time>2022-07-15T05:05:32Z</time>
					</trkpt>
					<trkpt lat="47.165920" lon="-0.173140">
						<ele>53</ele>
						<time>2022-07-15T05:05:35Z</time>
					</trkpt>
					<trkpt lat="47.165950" lon="-0.173160">
						<ele>53</ele>
						<time>2022-07-15T05:05:37Z</time>
					</trkpt>
					<trkpt lat="47.165980" lon="-0.173170">
						<ele>53</ele>
						<time>2022-07-15T05:05:39Z</time>
					</trkpt>
					<trkpt lat="47.166020" lon="-0.173180">
						<ele>52</ele>
						<time>2022-07-15T05:05:41Z</time>
					</trkpt>
					<trkpt lat="47.166050" lon="-0.173190">
						<ele>52</ele>
						<time>2022-07-15T05:05:43Z</time>
					</trkpt>
					<trkpt lat="47.166080" lon="-0.173200">
						<ele>52</ele>
						<time>2022-07-15T05:05:45Z</time>
					</trkpt>
					<trkpt lat="47.166120" lon="-0.173200">
						<ele>51</ele>
						<time>2022-07-15T05:05:47Z</time>
					</trkpt>
					<trkpt lat="47.166160" lon="-0.173190">
						<ele>51</ele>
						<time>2022-07-15T05:05:49Z</time>
					</trkpt>
					<trkpt lat="47.166200" lon="-0.173180">
						<ele>51</ele>
						<time>2022-07-15T05:05:51Z</time>
					</trkpt>
					<trkpt lat="47.166230" lon="-0.173180">
						<ele>51</ele>
						<time>2022-07-15T05:05:53Z</time>
					</trkpt>
					<trkpt lat="47.166260" lon="-0.173190">
						<ele>52</ele>
						<time>2022-07-15T05:05:55Z</time>
					</trkpt>
					<trkpt lat="47.166290" lon="-0.173190">
						<ele>52</ele>
						<time>2022-07-15T05:05:57Z</time>
					</trkpt>
					<trkpt lat="47.166330" lon="-0.173190">
						<ele>52</ele>
						<time>2022-07-15T05:05:59Z</time>
					</trkpt>
					<trkpt lat="47.166370" lon="-0.173180">
						<ele>52</ele>
						<time>2022-07-15T05:06:01Z</time>
					</trkpt>
					<trkpt lat="47.166400" lon="-0.173180">
						<ele>53</ele>
						<time>2022-07-15T05:06:03Z</time>
					</trkpt>
					<trkpt lat="47.166430" lon="-0.173180">
						<ele>53</ele>
						<time>2022-07-15T05:06:05Z</time>
					</trkpt>
					<trkpt lat="47.166470" lon="-0.173180">
						<ele>53</ele>
						<time>2022-07-15T05:06:07Z</time>
					</trkpt>
					<trkpt lat="47.166500" lon="-0.173180">
						<ele>53</ele>
						<time>2022-07-15T05:06:09Z</time>
					</trkpt>
					<trkpt lat="47.166530" lon="-0.173180">
						<ele>54</ele>
						<time>2022-07-15T05:06:11Z</time>
					</trkpt>
					<trkpt lat="47.166560" lon="-0.173170">
						<ele>54</ele>
						<time>2022-07-15T05:06:13Z</time>
					</trkpt>
					<trkpt lat="47.166590" lon="-0.173170">
						<ele>54</ele>
						<time>2022-07-15T05:06:15Z</time>
					</trkpt>
					<trkpt lat="47.166620" lon="-0.173170">
						<ele>55</ele>
						<time>2022-07-15T05:06:17Z</time>
					</trkpt>
					<trkpt lat="47.166660" lon="-0.173170">
						<ele>55</ele>
						<time>2022-07-15T05:06:19Z</time>
					</trkpt>
					<trkpt lat="47.166700" lon="-0.173170">
						<ele>55</ele>
						<time>2022-07-15T05:06:21Z</time>
					</trkpt>
					<trkpt lat="47.166750" lon="-0.173190">
						<ele>56</ele>
						<time>2022-07-15T05:06:23Z</time>
					</trkpt>
					<trkpt lat="47.166790" lon="-0.173190">
						<ele>57</ele>
						<time>2022-07-15T05:06:25Z</time>
					</trkpt>
					<trkpt lat="47.166820" lon="-0.173200">
						<ele>57</ele>
						<time>2022-07-15T05:06:27Z</time>
					</trkpt>
					<trkpt lat="47.166850" lon="-0.173200">
						<ele>57</ele>
						<time>2022-07-15T05:06:29Z</time>
					</trkpt>
					<trkpt lat="47.166880" lon="-0.173200">
						<ele>58</ele>
						<time>2022-07-15T05:06:31Z</time>
					</trkpt>
					<trkpt lat="47.166920" lon="-0.173200">
						<ele>58</ele>
						<time>2022-07-15T05:06:34Z</time>
					</trkpt>
					<trkpt lat="47.166960" lon="-0.173200">
						<ele>58</ele>
						<time>2022-07-15T05:06:36Z</time>
					</trkpt>
					<trkpt lat="47.166990" lon="-0.173210">
						<ele>58</ele>
						<time>2022-07-15T05:06:38Z</time>
					</trkpt>
					<trkpt lat="47.167020" lon="-0.173200">
						<ele>57</ele>
						<time>2022-07-15T05:06:40Z</time>
					</trkpt>
					<trkpt lat="47.167050" lon="-0.173210">
						<ele>58</ele>
						<time>2022-07-15T05:06:42Z</time>
					</trkpt>
					<trkpt lat="47.167070" lon="-0.173210">
						<ele>58</ele>
						<time>2022-07-15T05:06:45Z</time>
					</trkpt>
					<trkpt lat="47.167100" lon="-0.173220">
						<ele>59</ele>
						<time>2022-07-15T05:06:47Z</time>
					</trkpt>
					<trkpt lat="47.167130" lon="-0.173230">
						<ele>59</ele>
						<time>2022-07-15T05:06:49Z</time>
					</trkpt>
					<trkpt lat="47.167160" lon="-0.173230">
						<ele>59</ele>
						<time>2022-07-15T05:06:51Z</time>
					</trkpt>
					<trkpt lat="47.167200" lon="-0.173240">
						<ele>59</ele>
						<time>2022-07-15T05:06:53Z</time>
					</trkpt>
					<trkpt lat="47.167230" lon="-0.173250">
						<ele>59</ele>
						<time>2022-07-15T05:06:55Z</time>
					</trkpt>
					<trkpt lat="47.167260" lon="-0.173260">
						<ele>60</ele>
						<time>2022-07-15T05:06:57Z</time>
					</trkpt>
					<trkpt lat="47.167290" lon="-0.173270">
						<ele>60</ele>
						<time>2022-07-15T05:06:59Z</time>
					</trkpt>
					<trkpt lat="47.167320" lon="-0.173280">
						<ele>60</ele>
						<time>2022-07-15T05:07:01Z</time>
					</trkpt>
					<trkpt lat="47.167350" lon="-0.173290">
						<ele>61</ele>
						<time>2022-07-15T05:07:03Z</time>
					</trkpt>
					<trkpt lat="47.167380" lon="-0.173300">
						<ele>61</ele>
						<time>2022-07-15T05:07:06Z</time>
					</trkpt>
					<trkpt lat="47.167410" lon="-0.173300">
						<ele>62</ele>
						<time>2022-07-15T05:07:08Z</time>
					</trkpt>
					<trkpt lat="47.167440" lon="-0.173320">
						<ele>62</ele>
						<time>2022-07-15T05:07:10Z</time>
					</trkpt>
					<trkpt lat="47.167480" lon="-0.173330">
						<ele>62</ele>
						<time>2022-07-15T05:07:12Z</time>
					</trkpt>
					<trkpt lat="47.167510" lon="-0.173340">
						<ele>62</ele>
						<time>2022-07-15T05:07:14Z</time>
					</trkpt>
					<trkpt lat="47.167540" lon="-0.173340">
						<ele>63</ele>
						<time>2022-07-15T05:07:16Z</time>
					</trkpt>
					<trkpt lat="47.167580" lon="-0.173340">
						<ele>64</ele>
						<time>2022-07-15T05:07:18Z</time>
					</trkpt>
					<trkpt lat="47.167620" lon="-0.173340">
						<ele>64</ele>
						<time>2022-07-15T05:07:20Z</time>
					</trkpt>
					<trkpt lat="47.167660" lon="-0.173330">
						<ele>65</ele>
						<time>2022-07-15T05:07:22Z</time>
					</trkpt>
					<trkpt lat="47.167690" lon="-0.173330">
						<ele>65</ele>
						<time>2022-07-15T05:07:24Z</time>
					</trkpt>
					<trkpt lat="47.167720" lon="-0.173330">
						<ele>66</ele>
						<time>2022-07-15T05:07:26Z</time>
					</trkpt>
					<trkpt lat="47.167760" lon="-0.173330">
						<ele>66</ele>
						<time>2022-07-15T05:07:28Z</time>
					</trkpt>
					<trkpt lat="47.167790" lon="-0.173350">
						<ele>66</ele>
						<time>2022-07-15T05:07:31Z</time>
					</trkpt>
					<trkpt lat="47.167830" lon="-0.173360">
						<ele>65</ele>
						<time>2022-07-15T05:07:33Z</time>
					</trkpt>
					<trkpt lat="47.167860" lon="-0.173360">
						<ele>65</ele>
						<time>2022-07-15T05:07:35Z</time>
					</trkpt>
					<trkpt lat="47.167890" lon="-0.173370">
						<ele>65</ele>
						<time>2022-07-15T05:07:37Z</time>
					</trkpt>
					<trkpt lat="47.167920" lon="-0.173380">
						<ele>66</ele>
						<time>2022-07-15T05:07:39Z</time>
					</trkpt>
					<trkpt lat="47.167950" lon="-0.173380">
						<ele>65</ele>
						<time>2022-07-15T05:07:41Z</time>
					</trkpt>
					<trkpt lat="47.167990" lon="-0.173380">
						<ele>65</ele>
						<time>2022-07-15T05:07:43Z</time>
					</trkpt>
					<trkpt lat="47.168020" lon="-0.173380">
						<ele>65</ele>
						<time>2022-07-15T05:07:45Z</time>
					</trkpt>
					<trkpt lat="47.168050" lon="-0.173370">
						<ele>65</ele>
						<time>2022-07-15T05:07:47Z</time>
					</trkpt>
					<trkpt lat="47.168080" lon="-0.173370">
						<ele>66</ele>
						<time>2022-07-15T05:07:49Z</time>
					</trkpt>
					<trkpt lat="47.168120" lon="-0.173380">
						<ele>66</ele>
						<time>2022-07-15T05:07:51Z</time>
					</trkpt>
					<trkpt lat="47.168150" lon="-0.173390">
						<ele>66</ele>
						<time>2022-07-15T05:07:53Z</time>
					</trkpt>
					<trkpt lat="47.168180" lon="-0.173390">
						<ele>66</ele>
						<time>2022-07-15T05:07:55Z</time>
					</trkpt>
					<trkpt lat="47.168210" lon="-0.173390">
						<ele>66</ele>
						<time>2022-07-15T05:07:57Z</time>
					</trkpt>
					<trkpt lat="47.168240" lon="-0.173400">
						<ele>66</ele>
						<time>2022-07-15T05:07:59Z</time>
					</trkpt>
					<trkpt lat="47.168270" lon="-0.173410">
						<ele>66</ele>
						<time>2022-07-15T05:08:02Z</time>
					</trkpt>
					<trkpt lat="47.168310" lon="-0.173420">
						<ele>66</ele>
						<time>2022-07-15T05:08:04Z</time>
					</trkpt>
					<trkpt lat="47.168340" lon="-0.173430">
						<ele>66</ele>
						<time>2022-07-15T05:08:06Z</time>
					</trkpt>
					<trkpt lat="47.168380" lon="-0.173440">
						<ele>66</ele>
						<time>2022-07-15T05:08:08Z</time>
					</trkpt>
					<trkpt lat="47.168420" lon="-0.173450">
						<ele>66</ele>
						<time>2022-07-15T05:08:10Z</time>
					</trkpt>
					<trkpt lat="47.168460" lon="-0.173460">
						<ele>66</ele>
						<time>2022-07-15T05:08:12Z</time>
					</trkpt>
					<trkpt lat="47.168500" lon="-0.173470">
						<ele>66</ele>
						<time>2022-07-15T05:08:14Z</time>
					</trkpt>
					<trkpt lat="47.168540" lon="-0.173470">
						<ele>66</ele>
						<time>2022-07-15T05:08:16Z</time>
					</trkpt>
					<trkpt lat="47.168570" lon="-0.173470">
						<ele>65</ele>
						<time>2022-07-15T05:08:18Z</time>
					</trkpt>
					<trkpt lat="47.168610" lon="-0.173470">
						<ele>65</ele>
						<time>2022-07-15T05:08:20Z</time>
					</trkpt>
					<trkpt lat="47.168630" lon="-0.173470">
						<ele>64</ele>
						<time>2022-07-15T05:08:22Z</time>
					</trkpt>
					<trkpt lat="47.168660" lon="-0.173470">
						<ele>63</ele>
						<time>2022-07-15T05:08:24Z</time>
					</trkpt>
					<trkpt lat="47.168690" lon="-0.173480">
						<ele>62</ele>
						<time>2022-07-15T05:08:26Z</time>
					</trkpt>
					<trkpt lat="47.168720" lon="-0.173480">
						<ele>61</ele>
						<time>2022-07-15T05:08:28Z</time>
					</trkpt>
					<trkpt lat="47.168750" lon="-0.173480">
						<ele>61</ele>
						<time>2022-07-15T05:08:30Z</time>
					</trkpt>
					<trkpt lat="47.168790" lon="-0.173480">
						<ele>61</ele>
						<time>2022-07-15T05:08:33Z</time>
					</trkpt>
					<trkpt lat="47.168810" lon="-0.173460">
						<ele>60</ele>
						<time>2022-07-15T05:08:36Z</time>
					</trkpt>
					<trkpt lat="47.168810" lon="-0.173430">
						<ele>58</ele>
						<time>2022-07-15T05:08:50Z</time>
					</trkpt>
					<trkpt lat="47.168800" lon="-0.173390">
						<ele>56</ele>
						<time>2022-07-15T05:08:53Z</time>
					</trkpt>
					<trkpt lat="47.168800" lon="-0.173340">
						<ele>56</ele>
						<time>2022-07-15T05:09:00Z</time>
					</trkpt>
					<trkpt lat="47.168790" lon="-0.173360">
						<ele>54</ele>
						<time>2022-07-15T05:09:16Z</time>
					</trkpt>
					<trkpt lat="47.168790" lon="-0.173390">
						<ele>53</ele>
						<time>2022-07-15T05:09:19Z</time>
					</trkpt>
					<trkpt lat="47.168790" lon="-0.173440">
						<ele>52</ele>
						<time>2022-07-15T05:09:23Z</time>
					</trkpt>
					<trkpt lat="47.168800" lon="-0.173480">
						<ele>51</ele>
						<time>2022-07-15T05:09:26Z</time>
					</trkpt>
					<trkpt lat="47.168790" lon="-0.173530">
						<ele>50</ele>
						<time>2022-07-15T05:09:29Z</time>
					</trkpt>
					<trkpt lat="47.168790" lon="-0.173580">
						<ele>49</ele>
						<time>2022-07-15T05:09:31Z</time>
					</trkpt>
					<trkpt lat="47.168790" lon="-0.173630">
						<ele>49</ele>
						<time>2022-07-15T05:09:34Z</time>
					</trkpt>
					<trkpt lat="47.168790" lon="-0.173670">
						<ele>49</ele>
						<time>2022-07-15T05:09:37Z</time>
					</trkpt>
					<trkpt lat="47.168790" lon="-0.173720">
						<ele>49</ele>
						<time>2022-07-15T05:09:40Z</time>
					</trkpt>
					<trkpt lat="47.168780" lon="-0.173770">
						<ele>49</ele>
						<time>2022-07-15T05:09:43Z</time>
					</trkpt>
					<trkpt lat="47.168790" lon="-0.173820">
						<ele>50</ele>
						<time>2022-07-15T05:09:45Z</time>
					</trkpt>
					<trkpt lat="47.168780" lon="-0.173860">
						<ele>49</ele>
						<time>2022-07-15T05:09:47Z</time>
					</trkpt>
					<trkpt lat="47.168780" lon="-0.173900">
						<ele>49</ele>
						<time>2022-07-15T05:09:49Z</time>
					</trkpt>
					<trkpt lat="47.168760" lon="-0.173950">
						<ele>48</ele>
						<time>2022-07-15T05:09:52Z</time>
					</trkpt>
					<trkpt lat="47.168740" lon="-0.173990">
						<ele>48</ele>
						<time>2022-07-15T05:09:55Z</time>
					</trkpt>
					<trkpt lat="47.168720" lon="-0.174020">
						<ele>48</ele>
						<time>2022-07-15T05:09:57Z</time>
					</trkpt>
					<trkpt lat="47.168690" lon="-0.174040">
						<ele>48</ele>
						<time>2022-07-15T05:09:59Z</time>
					</trkpt>
					<trkpt lat="47.168660" lon="-0.174060">
						<ele>47</ele>
						<time>2022-07-15T05:10:01Z</time>
					</trkpt>
					<trkpt lat="47.168640" lon="-0.174090">
						<ele>47</ele>
						<time>2022-07-15T05:10:04Z</time>
					</trkpt>
					<trkpt lat="47.168610" lon="-0.174110">
						<ele>48</ele>
						<time>2022-07-15T05:10:07Z</time>
					</trkpt>
					<trkpt lat="47.168590" lon="-0.174140">
						<ele>48</ele>
						<time>2022-07-15T05:10:10Z</time>
					</trkpt>
					<trkpt lat="47.168560" lon="-0.174170">
						<ele>49</ele>
						<time>2022-07-15T05:10:12Z</time>
					</trkpt>
					<trkpt lat="47.168540" lon="-0.174200">
						<ele>49</ele>
						<time>2022-07-15T05:10:15Z</time>
					</trkpt>
					<trkpt lat="47.168510" lon="-0.174220">
						<ele>50</ele>
						<time>2022-07-15T05:10:17Z</time>
					</trkpt>
					<trkpt lat="47.168490" lon="-0.174250">
						<ele>51</ele>
						<time>2022-07-15T05:10:19Z</time>
					</trkpt>
					<trkpt lat="47.168480" lon="-0.174290">
						<ele>51</ele>
						<time>2022-07-15T05:10:22Z</time>
					</trkpt>
					<trkpt lat="47.168470" lon="-0.174330">
						<ele>51</ele>
						<time>2022-07-15T05:10:24Z</time>
					</trkpt>
					<trkpt lat="47.168470" lon="-0.174370">
						<ele>49</ele>
						<time>2022-07-15T05:10:26Z</time>
					</trkpt>
					<trkpt lat="47.168470" lon="-0.174420">
						<ele>48</ele>
						<time>2022-07-15T05:10:29Z</time>
					</trkpt>
					<trkpt lat="47.168470" lon="-0.174470">
						<ele>48</ele>
						<time>2022-07-15T05:10:31Z</time>
					</trkpt>
					<trkpt lat="47.168470" lon="-0.174540">
						<ele>48</ele>
						<time>2022-07-15T05:10:33Z</time>
					</trkpt>
					<trkpt lat="47.168470" lon="-0.174590">
						<ele>48</ele>
						<time>2022-07-15T05:10:35Z</time>
					</trkpt>
					<trkpt lat="47.168480" lon="-0.174650">
						<ele>47</ele>
						<time>2022-07-15T05:10:37Z</time>
					</trkpt>
					<trkpt lat="47.168490" lon="-0.174700">
						<ele>47</ele>
						<time>2022-07-15T05:10:39Z</time>
					</trkpt>
					<trkpt lat="47.168500" lon="-0.174760">
						<ele>47</ele>
						<time>2022-07-15T05:10:41Z</time>
					</trkpt>
					<trkpt lat="47.168510" lon="-0.174810">
						<ele>47</ele>
						<time>2022-07-15T05:10:43Z</time>
					</trkpt>
					<trkpt lat="47.168520" lon="-0.174860">
						<ele>47</ele>
						<time>2022-07-15T05:10:45Z</time>
					</trkpt>
					<trkpt lat="47.168530" lon="-0.174920">
						<ele>47</ele>
						<time>2022-07-15T05:10:47Z</time>
					</trkpt>
					<trkpt lat="47.168530" lon="-0.174970">
						<ele>47</ele>
						<time>2022-07-15T05:10:49Z</time>
					</trkpt>
					<trkpt lat="47.168530" lon="-0.175010">
						<ele>47</ele>
						<time>2022-07-15T05:10:51Z</time>
					</trkpt>
					<trkpt lat="47.168530" lon="-0.175060">
						<ele>48</ele>
						<time>2022-07-15T05:10:54Z</time>
					</trkpt>
					<trkpt lat="47.168530" lon="-0.175110">
						<ele>48</ele>
						<time>2022-07-15T05:10:56Z</time>
					</trkpt>
					<trkpt lat="47.168520" lon="-0.175160">
						<ele>47</ele>
						<time>2022-07-15T05:10:59Z</time>
					</trkpt>
					<trkpt lat="47.168500" lon="-0.175200">
						<ele>47</ele>
						<time>2022-07-15T05:11:01Z</time>
					</trkpt>
					<trkpt lat="47.168480" lon="-0.175240">
						<ele>48</ele>
						<time>2022-07-15T05:11:03Z</time>
					</trkpt>
					<trkpt lat="47.168450" lon="-0.175260">
						<ele>48</ele>
						<time>2022-07-15T05:11:05Z</time>
					</trkpt>
					<trkpt lat="47.168420" lon="-0.175290">
						<ele>48</ele>
						<time>2022-07-15T05:11:07Z</time>
					</trkpt>
					<trkpt lat="47.168390" lon="-0.175300">
						<ele>48</ele>
						<time>2022-07-15T05:11:09Z</time>
					</trkpt>
					<trkpt lat="47.168350" lon="-0.175340">
						<ele>48</ele>
						<time>2022-07-15T05:11:12Z</time>
					</trkpt>
					<trkpt lat="47.168310" lon="-0.175350">
						<ele>48</ele>
						<time>2022-07-15T05:11:15Z</time>
					</trkpt>
					<trkpt lat="47.168270" lon="-0.175370">
						<ele>48</ele>
						<time>2022-07-15T05:11:17Z</time>
					</trkpt>
					<trkpt lat="47.168230" lon="-0.175380">
						<ele>48</ele>
						<time>2022-07-15T05:11:19Z</time>
					</trkpt>
					<trkpt lat="47.168190" lon="-0.175390">
						<ele>48</ele>
						<time>2022-07-15T05:11:21Z</time>
					</trkpt>
					<trkpt lat="47.168150" lon="-0.175400">
						<ele>48</ele>
						<time>2022-07-15T05:11:23Z</time>
					</trkpt>
					<trkpt lat="47.168100" lon="-0.175420">
						<ele>47</ele>
						<time>2022-07-15T05:11:25Z</time>
					</trkpt>
					<trkpt lat="47.168050" lon="-0.175430">
						<ele>47</ele>
						<time>2022-07-15T05:11:27Z</time>
					</trkpt>
					<trkpt lat="47.168010" lon="-0.175440">
						<ele>47</ele>
						<time>2022-07-15T05:11:29Z</time>
					</trkpt>
					<trkpt lat="47.167960" lon="-0.175450">
						<ele>47</ele>
						<time>2022-07-15T05:11:31Z</time>
					</trkpt>
					<trkpt lat="47.167920" lon="-0.175470">
						<ele>47</ele>
						<time>2022-07-15T05:11:33Z</time>
					</trkpt>
					<trkpt lat="47.167890" lon="-0.175480">
						<ele>47</ele>
						<time>2022-07-15T05:11:35Z</time>
					</trkpt>
					<trkpt lat="47.167850" lon="-0.175500">
						<ele>47</ele>
						<time>2022-07-15T05:11:37Z</time>
					</trkpt>
					<trkpt lat="47.167800" lon="-0.175520">
						<ele>47</ele>
						<time>2022-07-15T05:11:39Z</time>
					</trkpt>
					<trkpt lat="47.167750" lon="-0.175530">
						<ele>47</ele>
						<time>2022-07-15T05:11:41Z</time>
					</trkpt>
					<trkpt lat="47.167710" lon="-0.175540">
						<ele>47</ele>
						<time>2022-07-15T05:11:43Z</time>
					</trkpt>
					<trkpt lat="47.167660" lon="-0.175550">
						<ele>48</ele>
						<time>2022-07-15T05:11:45Z</time>
					</trkpt>
					<trkpt lat="47.167620" lon="-0.175560">
						<ele>48</ele>
						<time>2022-07-15T05:11:47Z</time>
					</trkpt>
					<trkpt lat="47.167590" lon="-0.175570">
						<ele>48</ele>
						<time>2022-07-15T05:11:49Z</time>
					</trkpt>
					<trkpt lat="47.167550" lon="-0.175580">
						<ele>48</ele>
						<time>2022-07-15T05:11:51Z</time>
					</trkpt>
					<trkpt lat="47.167510" lon="-0.175590">
						<ele>49</ele>
						<time>2022-07-15T05:11:53Z</time>
					</trkpt>
					<trkpt lat="47.167470" lon="-0.175600">
						<ele>50</ele>
						<time>2022-07-15T05:11:55Z</time>
					</trkpt>
					<trkpt lat="47.167430" lon="-0.175610">
						<ele>50</ele>
						<time>2022-07-15T05:11:57Z</time>
					</trkpt>
					<trkpt lat="47.167400" lon="-0.175640">
						<ele>51</ele>
						<time>2022-07-15T05:11:59Z</time>
					</trkpt>
					<trkpt lat="47.167380" lon="-0.175690">
						<ele>50</ele>
						<time>2022-07-15T05:12:01Z</time>
					</trkpt>
					<trkpt lat="47.167370" lon="-0.175730">
						<ele>50</ele>
						<time>2022-07-15T05:12:03Z</time>
					</trkpt>
					<trkpt lat="47.167370" lon="-0.175780">
						<ele>50</ele>
						<time>2022-07-15T05:12:05Z</time>
					</trkpt>
					<trkpt lat="47.167370" lon="-0.175820">
						<ele>50</ele>
						<time>2022-07-15T05:12:07Z</time>
					</trkpt>
					<trkpt lat="47.167370" lon="-0.175860">
						<ele>49</ele>
						<time>2022-07-15T05:12:09Z</time>
					</trkpt>
					<trkpt lat="47.167370" lon="-0.175910">
						<ele>48</ele>
						<time>2022-07-15T05:12:11Z</time>
					</trkpt>
					<trkpt lat="47.167380" lon="-0.175950">
						<ele>48</ele>
						<time>2022-07-15T05:12:13Z</time>
					</trkpt>
					<trkpt lat="47.167390" lon="-0.175990">
						<ele>47</ele>
						<time>2022-07-15T05:12:15Z</time>
					</trkpt>
					<trkpt lat="47.167400" lon="-0.176040">
						<ele>46</ele>
						<time>2022-07-15T05:12:17Z</time>
					</trkpt>
					<trkpt lat="47.167400" lon="-0.176100">
						<ele>46</ele>
						<time>2022-07-15T05:12:19Z</time>
					</trkpt>
					<trkpt lat="47.167410" lon="-0.176160">
						<ele>45</ele>
						<time>2022-07-15T05:12:21Z</time>
					</trkpt>
					<trkpt lat="47.167420" lon="-0.176220">
						<ele>45</ele>
						<time>2022-07-15T05:12:23Z</time>
					</trkpt>
					<trkpt lat="47.167420" lon="-0.176270">
						<ele>44</ele>
						<time>2022-07-15T05:12:25Z</time>
					</trkpt>
					<trkpt lat="47.167430" lon="-0.176320">
						<ele>43</ele>
						<time>2022-07-15T05:12:27Z</time>
					</trkpt>
					<trkpt lat="47.167420" lon="-0.176370">
						<ele>43</ele>
						<time>2022-07-15T05:12:29Z</time>
					</trkpt>
					<trkpt lat="47.167430" lon="-0.176420">
						<ele>43</ele>
						<time>2022-07-15T05:12:31Z</time>
					</trkpt>
					<trkpt lat="47.167430" lon="-0.176460">
						<ele>43</ele>
						<time>2022-07-15T05:12:33Z</time>
					</trkpt>
					<trkpt lat="47.167440" lon="-0.176510">
						<ele>43</ele>
						<time>2022-07-15T05:12:35Z</time>
					</trkpt>
					<trkpt lat="47.167440" lon="-0.176560">
						<ele>42</ele>
						<time>2022-07-15T05:12:37Z</time>
					</trkpt>
					<trkpt lat="47.167440" lon="-0.176600">
						<ele>42</ele>
						<time>2022-07-15T05:12:39Z</time>
					</trkpt>
					<trkpt lat="47.167450" lon="-0.176650">
						<ele>42</ele>
						<time>2022-07-15T05:12:41Z</time>
					</trkpt>
					<trkpt lat="47.167450" lon="-0.176700">
						<ele>41</ele>
						<time>2022-07-15T05:12:43Z</time>
					</trkpt>
					<trkpt lat="47.167450" lon="-0.176750">
						<ele>40</ele>
						<time>2022-07-15T05:12:45Z</time>
					</trkpt>
					<trkpt lat="47.167440" lon="-0.176810">
						<ele>39</ele>
						<time>2022-07-15T05:12:47Z</time>
					</trkpt>
					<trkpt lat="47.167440" lon="-0.176860">
						<ele>39</ele>
						<time>2022-07-15T05:12:49Z</time>
					</trkpt>
					<trkpt lat="47.167430" lon="-0.176900">
						<ele>39</ele>
						<time>2022-07-15T05:12:51Z</time>
					</trkpt>
					<trkpt lat="47.167430" lon="-0.176960">
						<ele>39</ele>
						<time>2022-07-15T05:12:54Z</time>
					</trkpt>
					<trkpt lat="47.167440" lon="-0.177000">
						<ele>39</ele>
						<time>2022-07-15T05:12:56Z</time>
					</trkpt>
					<trkpt lat="47.167440" lon="-0.177050">
						<ele>39</ele>
						<time>2022-07-15T05:12:58Z</time>
					</trkpt>
					<trkpt lat="47.167440" lon="-0.177090">
						<ele>39</ele>
						<time>2022-07-15T05:13:00Z</time>
					</trkpt>
					<trkpt lat="47.167440" lon="-0.177140">
						<ele>40</ele>
						<time>2022-07-15T05:13:02Z</time>
					</trkpt>
					<trkpt lat="47.167440" lon="-0.177190">
						<ele>40</ele>
						<time>2022-07-15T05:13:06Z</time>
					</trkpt>
					<trkpt lat="47.167440" lon="-0.177240">
						<ele>41</ele>
						<time>2022-07-15T05:13:08Z</time>
					</trkpt>
					<trkpt lat="47.167450" lon="-0.177290">
						<ele>42</ele>
						<time>2022-07-15T05:13:10Z</time>
					</trkpt>
					<trkpt lat="47.167450" lon="-0.177350">
						<ele>42</ele>
						<time>2022-07-15T05:13:12Z</time>
					</trkpt>
					<trkpt lat="47.167460" lon="-0.177400">
						<ele>43</ele>
						<time>2022-07-15T05:13:14Z</time>
					</trkpt>
					<trkpt lat="47.167470" lon="-0.177460">
						<ele>43</ele>
						<time>2022-07-15T05:13:16Z</time>
					</trkpt>
					<trkpt lat="47.167470" lon="-0.177510">
						<ele>44</ele>
						<time>2022-07-15T05:13:18Z</time>
					</trkpt>
					<trkpt lat="47.167480" lon="-0.177560">
						<ele>45</ele>
						<time>2022-07-15T05:13:20Z</time>
					</trkpt>
					<trkpt lat="47.167490" lon="-0.177620">
						<ele>45</ele>
						<time>2022-07-15T05:13:22Z</time>
					</trkpt>
					<trkpt lat="47.167490" lon="-0.177670">
						<ele>46</ele>
						<time>2022-07-15T05:13:24Z</time>
					</trkpt>
					<trkpt lat="47.167500" lon="-0.177710">
						<ele>47</ele>
						<time>2022-07-15T05:13:26Z</time>
					</trkpt>
					<trkpt lat="47.167500" lon="-0.177750">
						<ele>47</ele>
						<time>2022-07-15T05:13:28Z</time>
					</trkpt>
					<trkpt lat="47.167510" lon="-0.177790">
						<ele>48</ele>
						<time>2022-07-15T05:13:30Z</time>
					</trkpt>
					<trkpt lat="47.167520" lon="-0.177840">
						<ele>48</ele>
						<time>2022-07-15T05:13:32Z</time>
					</trkpt>
					<trkpt lat="47.167530" lon="-0.177890">
						<ele>48</ele>
						<time>2022-07-15T05:13:34Z</time>
					</trkpt>
					<trkpt lat="47.167530" lon="-0.177940">
						<ele>48</ele>
						<time>2022-07-15T05:13:36Z</time>
					</trkpt>
					<trkpt lat="47.167540" lon="-0.177990">
						<ele>48</ele>
						<time>2022-07-15T05:13:38Z</time>
					</trkpt>
					<trkpt lat="47.167550" lon="-0.178040">
						<ele>49</ele>
						<time>2022-07-15T05:13:40Z</time>
					</trkpt>
					<trkpt lat="47.167550" lon="-0.178080">
						<ele>49</ele>
						<time>2022-07-15T05:13:42Z</time>
					</trkpt>
					<trkpt lat="47.167560" lon="-0.178130">
						<ele>50</ele>
						<time>2022-07-15T05:13:44Z</time>
					</trkpt>
					<trkpt lat="47.167570" lon="-0.178180">
						<ele>50</ele>
						<time>2022-07-15T05:13:46Z</time>
					</trkpt>
					<trkpt lat="47.167580" lon="-0.178220">
						<ele>50</ele>
						<time>2022-07-15T05:13:48Z</time>
					</trkpt>
					<trkpt lat="47.167600" lon="-0.178270">
						<ele>51</ele>
						<time>2022-07-15T05:13:50Z</time>
					</trkpt>
					<trkpt lat="47.167610" lon="-0.178320">
						<ele>51</ele>
						<time>2022-07-15T05:13:52Z</time>
					</trkpt>
					<trkpt lat="47.167620" lon="-0.178370">
						<ele>52</ele>
						<time>2022-07-15T05:13:54Z</time>
					</trkpt>
					<trkpt lat="47.167640" lon="-0.178420">
						<ele>52</ele>
						<time>2022-07-15T05:13:56Z</time>
					</trkpt>
					<trkpt lat="47.167650" lon="-0.178460">
						<ele>52</ele>
						<time>2022-07-15T05:13:58Z</time>
					</trkpt>
					<trkpt lat="47.167660" lon="-0.178500">
						<ele>52</ele>
						<time>2022-07-15T05:14:00Z</time>
					</trkpt>
					<trkpt lat="47.167670" lon="-0.178550">
						<ele>52</ele>
						<time>2022-07-15T05:14:02Z</time>
					</trkpt>
					<trkpt lat="47.167680" lon="-0.178590">
						<ele>52</ele>
						<time>2022-07-15T05:14:04Z</time>
					</trkpt>
					<trkpt lat="47.167680" lon="-0.178640">
						<ele>52</ele>
						<time>2022-07-15T05:14:07Z</time>
					</trkpt>
					<trkpt lat="47.167670" lon="-0.178690">
						<ele>53</ele>
						<time>2022-07-15T05:14:09Z</time>
					</trkpt>
					<trkpt lat="47.167670" lon="-0.178730">
						<ele>53</ele>
						<time>2022-07-15T05:14:11Z</time>
					</trkpt>
					<trkpt lat="47.167680" lon="-0.178780">
						<ele>53</ele>
						<time>2022-07-15T05:14:13Z</time>
					</trkpt>
					<trkpt lat="47.167690" lon="-0.178830">
						<ele>53</ele>
						<time>2022-07-15T05:14:15Z</time>
					</trkpt>
					<trkpt lat="47.167700" lon="-0.178880">
						<ele>53</ele>
						<time>2022-07-15T05:14:17Z</time>
					</trkpt>
					<trkpt lat="47.167710" lon="-0.178920">
						<ele>53</ele>
						<time>2022-07-15T05:14:19Z</time>
					</trkpt>
					<trkpt lat="47.167720" lon="-0.178970">
						<ele>54</ele>
						<time>2022-07-15T05:14:22Z</time>
					</trkpt>
					<trkpt lat="47.167730" lon="-0.179020">
						<ele>52</ele>
						<time>2022-07-15T05:14:25Z</time>
					</trkpt>
					<trkpt lat="47.167730" lon="-0.179070">
						<ele>52</ele>
						<time>2022-07-15T05:14:27Z</time>
					</trkpt>
					<trkpt lat="47.167730" lon="-0.179110">
						<ele>52</ele>
						<time>2022-07-15T05:14:29Z</time>
					</trkpt>
					<trkpt lat="47.167730" lon="-0.179160">
						<ele>51</ele>
						<time>2022-07-15T05:14:31Z</time>
					</trkpt>
					<trkpt lat="47.167740" lon="-0.179210">
						<ele>51</ele>
						<time>2022-07-15T05:14:33Z</time>
					</trkpt>
					<trkpt lat="47.167750" lon="-0.179250">
						<ele>52</ele>
						<time>2022-07-15T05:14:35Z</time>
					</trkpt>
					<trkpt lat="47.167750" lon="-0.179310">
						<ele>52</ele>
						<time>2022-07-15T05:14:37Z</time>
					</trkpt>
					<trkpt lat="47.167760" lon="-0.179360">
						<ele>51</ele>
						<time>2022-07-15T05:14:39Z</time>
					</trkpt>
					<trkpt lat="47.167760" lon="-0.179410">
						<ele>51</ele>
						<time>2022-07-15T05:14:41Z</time>
					</trkpt>
					<trkpt lat="47.167770" lon="-0.179460">
						<ele>52</ele>
						<time>2022-07-15T05:14:43Z</time>
					</trkpt>
					<trkpt lat="47.167770" lon="-0.179510">
						<ele>52</ele>
						<time>2022-07-15T05:14:45Z</time>
					</trkpt>
					<trkpt lat="47.167770" lon="-0.179550">
						<ele>52</ele>
						<time>2022-07-15T05:14:47Z</time>
					</trkpt>
					<trkpt lat="47.167770" lon="-0.179600">
						<ele>52</ele>
						<time>2022-07-15T05:14:49Z</time>
					</trkpt>
					<trkpt lat="47.167760" lon="-0.179640">
						<ele>52</ele>
						<time>2022-07-15T05:14:51Z</time>
					</trkpt>
					<trkpt lat="47.167760" lon="-0.179680">
						<ele>52</ele>
						<time>2022-07-15T05:14:53Z</time>
					</trkpt>
					<trkpt lat="47.167760" lon="-0.179730">
						<ele>52</ele>
						<time>2022-07-15T05:14:55Z</time>
					</trkpt>
					<trkpt lat="47.167760" lon="-0.179780">
						<ele>52</ele>
						<time>2022-07-15T05:14:57Z</time>
					</trkpt>
					<trkpt lat="47.167760" lon="-0.179830">
						<ele>53</ele>
						<time>2022-07-15T05:14:59Z</time>
					</trkpt>
					<trkpt lat="47.167770" lon="-0.179880">
						<ele>53</ele>
						<time>2022-07-15T05:15:01Z</time>
					</trkpt>
					<trkpt lat="47.167780" lon="-0.179920">
						<ele>53</ele>
						<time>2022-07-15T05:15:03Z</time>
					</trkpt>
					<trkpt lat="47.167790" lon="-0.179970">
						<ele>53</ele>
						<time>2022-07-15T05:15:05Z</time>
					</trkpt>
					<trkpt lat="47.167810" lon="-0.180020">
						<ele>53</ele>
						<time>2022-07-15T05:15:07Z</time>
					</trkpt>
					<trkpt lat="47.167820" lon="-0.180060">
						<ele>54</ele>
						<time>2022-07-15T05:15:09Z</time>
					</trkpt>
					<trkpt lat="47.167840" lon="-0.180110">
						<ele>54</ele>
						<time>2022-07-15T05:15:11Z</time>
					</trkpt>
					<trkpt lat="47.167850" lon="-0.180160">
						<ele>54</ele>
						<time>2022-07-15T05:15:13Z</time>
					</trkpt>
					<trkpt lat="47.167860" lon="-0.180200">
						<ele>54</ele>
						<time>2022-07-15T05:15:15Z</time>
					</trkpt>
					<trkpt lat="47.167880" lon="-0.180250">
						<ele>54</ele>
						<time>2022-07-15T05:15:17Z</time>
					</trkpt>
					<trkpt lat="47.167900" lon="-0.180290">
						<ele>54</ele>
						<time>2022-07-15T05:15:19Z</time>
					</trkpt>
					<trkpt lat="47.167910" lon="-0.180340">
						<ele>54</ele>
						<time>2022-07-15T05:15:21Z</time>
					</trkpt>
					<trkpt lat="47.167930" lon="-0.180380">
						<ele>54</ele>
						<time>2022-07-15T05:15:23Z</time>
					</trkpt>
					<trkpt lat="47.167950" lon="-0.180420">
						<ele>54</ele>
						<time>2022-07-15T05:15:25Z</time>
					</trkpt>
					<trkpt lat="47.167970" lon="-0.180470">
						<ele>54</ele>
						<time>2022-07-15T05:15:27Z</time>
					</trkpt>
					<trkpt lat="47.167990" lon="-0.180510">
						<ele>55</ele>
						<time>2022-07-15T05:15:29Z</time>
					</trkpt>
					<trkpt lat="47.168010" lon="-0.180560">
						<ele>55</ele>
						<time>2022-07-15T05:15:31Z</time>
					</trkpt>
					<trkpt lat="47.168020" lon="-0.180600">
						<ele>55</ele>
						<time>2022-07-15T05:15:33Z</time>
					</trkpt>
					<trkpt lat="47.168030" lon="-0.180640">
						<ele>54</ele>
						<time>2022-07-15T05:15:35Z</time>
					</trkpt>
					<trkpt lat="47.168040" lon="-0.180690">
						<ele>53</ele>
						<time>2022-07-15T05:15:38Z</time>
					</trkpt>
					<trkpt lat="47.168060" lon="-0.180740">
						<ele>53</ele>
						<time>2022-07-15T05:15:41Z</time>
					</trkpt>
					<trkpt lat="47.168080" lon="-0.180780">
						<ele>53</ele>
						<time>2022-07-15T05:15:44Z</time>
					</trkpt>
					<trkpt lat="47.168090" lon="-0.180820">
						<ele>53</ele>
						<time>2022-07-15T05:15:46Z</time>
					</trkpt>
					<trkpt lat="47.168100" lon="-0.180860">
						<ele>53</ele>
						<time>2022-07-15T05:15:48Z</time>
					</trkpt>
					<trkpt lat="47.168120" lon="-0.180900">
						<ele>53</ele>
						<time>2022-07-15T05:15:50Z</time>
					</trkpt>
					<trkpt lat="47.168130" lon="-0.180940">
						<ele>53</ele>
						<time>2022-07-15T05:15:52Z</time>
					</trkpt>
					<trkpt lat="47.168130" lon="-0.180990">
						<ele>52</ele>
						<time>2022-07-15T05:15:54Z</time>
					</trkpt>
					<trkpt lat="47.168140" lon="-0.181040">
						<ele>52</ele>
						<time>2022-07-15T05:15:56Z</time>
					</trkpt>
					<trkpt lat="47.168160" lon="-0.181080">
						<ele>52</ele>
						<time>2022-07-15T05:15:58Z</time>
					</trkpt>
					<trkpt lat="47.168170" lon="-0.181130">
						<ele>52</ele>
						<time>2022-07-15T05:16:00Z</time>
					</trkpt>
					<trkpt lat="47.168190" lon="-0.181170">
						<ele>53</ele>
						<time>2022-07-15T05:16:02Z</time>
					</trkpt>
					<trkpt lat="47.168200" lon="-0.181210">
						<ele>52</ele>
						<time>2022-07-15T05:16:04Z</time>
					</trkpt>
					<trkpt lat="47.168220" lon="-0.181250">
						<ele>52</ele>
						<time>2022-07-15T05:16:06Z</time>
					</trkpt>
					<trkpt lat="47.168230" lon="-0.181290">
						<ele>52</ele>
						<time>2022-07-15T05:16:08Z</time>
					</trkpt>
					<trkpt lat="47.168250" lon="-0.181330">
						<ele>53</ele>
						<time>2022-07-15T05:16:10Z</time>
					</trkpt>
					<trkpt lat="47.168260" lon="-0.181380">
						<ele>53</ele>
						<time>2022-07-15T05:16:12Z</time>
					</trkpt>
					<trkpt lat="47.168280" lon="-0.181420">
						<ele>53</ele>
						<time>2022-07-15T05:16:14Z</time>
					</trkpt>
					<trkpt lat="47.168300" lon="-0.181470">
						<ele>52</ele>
						<time>2022-07-15T05:16:16Z</time>
					</trkpt>
					<trkpt lat="47.168320" lon="-0.181510">
						<ele>52</ele>
						<time>2022-07-15T05:16:19Z</time>
					</trkpt>
					<trkpt lat="47.168330" lon="-0.181550">
						<ele>53</ele>
						<time>2022-07-15T05:16:21Z</time>
					</trkpt>
					<trkpt lat="47.168350" lon="-0.181590">
						<ele>53</ele>
						<time>2022-07-15T05:16:24Z</time>
					</trkpt>
					<trkpt lat="47.168370" lon="-0.181630">
						<ele>53</ele>
						<time>2022-07-15T05:16:26Z</time>
					</trkpt>
					<trkpt lat="47.168390" lon="-0.181680">
						<ele>54</ele>
						<time>2022-07-15T05:16:28Z</time>
					</trkpt>
					<trkpt lat="47.168420" lon="-0.181720">
						<ele>54</ele>
						<time>2022-07-15T05:16:30Z</time>
					</trkpt>
					<trkpt lat="47.168440" lon="-0.181770">
						<ele>54</ele>
						<time>2022-07-15T05:16:32Z</time>
					</trkpt>
					<trkpt lat="47.168460" lon="-0.181820">
						<ele>54</ele>
						<time>2022-07-15T05:16:34Z</time>
					</trkpt>
					<trkpt lat="47.168470" lon="-0.181860">
						<ele>54</ele>
						<time>2022-07-15T05:16:36Z</time>
					</trkpt>
					<trkpt lat="47.168490" lon="-0.181890">
						<ele>54</ele>
						<time>2022-07-15T05:16:38Z</time>
					</trkpt>
					<trkpt lat="47.168510" lon="-0.181930">
						<ele>54</ele>
						<time>2022-07-15T05:16:41Z</time>
					</trkpt>
					<trkpt lat="47.168520" lon="-0.181970">
						<ele>54</ele>
						<time>2022-07-15T05:16:43Z</time>
					</trkpt>
					<trkpt lat="47.168540" lon="-0.182020">
						<ele>55</ele>
						<time>2022-07-15T05:16:46Z</time>
					</trkpt>
					<trkpt lat="47.168550" lon="-0.182070">
						<ele>55</ele>
						<time>2022-07-15T05:16:48Z</time>
					</trkpt>
					<trkpt lat="47.168560" lon="-0.182120">
						<ele>55</ele>
						<time>2022-07-15T05:16:50Z</time>
					</trkpt>
					<trkpt lat="47.168570" lon="-0.182170">
						<ele>55</ele>
						<time>2022-07-15T05:16:52Z</time>
					</trkpt>
					<trkpt lat="47.168590" lon="-0.182220">
						<ele>54</ele>
						<time>2022-07-15T05:16:54Z</time>
					</trkpt>
					<trkpt lat="47.168600" lon="-0.182270">
						<ele>54</ele>
						<time>2022-07-15T05:16:56Z</time>
					</trkpt>
					<trkpt lat="47.168620" lon="-0.182320">
						<ele>53</ele>
						<time>2022-07-15T05:16:58Z</time>
					</trkpt>
					<trkpt lat="47.168630" lon="-0.182370">
						<ele>53</ele>
						<time>2022-07-15T05:17:00Z</time>
					</trkpt>
					<trkpt lat="47.168650" lon="-0.182410">
						<ele>53</ele>
						<time>2022-07-15T05:17:02Z</time>
					</trkpt>
					<trkpt lat="47.168660" lon="-0.182460">
						<ele>53</ele>
						<time>2022-07-15T05:17:04Z</time>
					</trkpt>
					<trkpt lat="47.168680" lon="-0.182510">
						<ele>53</ele>
						<time>2022-07-15T05:17:06Z</time>
					</trkpt>
					<trkpt lat="47.168690" lon="-0.182560">
						<ele>53</ele>
						<time>2022-07-15T05:17:08Z</time>
					</trkpt>
					<trkpt lat="47.168710" lon="-0.182610">
						<ele>53</ele>
						<time>2022-07-15T05:17:10Z</time>
					</trkpt>
					<trkpt lat="47.168720" lon="-0.182660">
						<ele>53</ele>
						<time>2022-07-15T05:17:12Z</time>
					</trkpt>
					<trkpt lat="47.168730" lon="-0.182720">
						<ele>53</ele>
						<time>2022-07-15T05:17:14Z</time>
					</trkpt>
					<trkpt lat="47.168740" lon="-0.182770">
						<ele>52</ele>
						<time>2022-07-15T05:17:16Z</time>
					</trkpt>
					<trkpt lat="47.168750" lon="-0.182820">
						<ele>53</ele>
						<time>2022-07-15T05:17:18Z</time>
					</trkpt>
					<trkpt lat="47.168750" lon="-0.182870">
						<ele>53</ele>
						<time>2022-07-15T05:17:20Z</time>
					</trkpt>
					<trkpt lat="47.168760" lon="-0.182920">
						<ele>53</ele>
						<time>2022-07-15T05:17:22Z</time>
					</trkpt>
					<trkpt lat="47.168770" lon="-0.182970">
						<ele>53</ele>
						<time>2022-07-15T05:17:24Z</time>
					</trkpt>
					<trkpt lat="47.168770" lon="-0.183030">
						<ele>53</ele>
						<time>2022-07-15T05:17:26Z</time>
					</trkpt>
					<trkpt lat="47.168780" lon="-0.183090">
						<ele>53</ele>
						<time>2022-07-15T05:17:28Z</time>
					</trkpt>
					<trkpt lat="47.168790" lon="-0.183160">
						<ele>53</ele>
						<time>2022-07-15T05:17:30Z</time>
					</trkpt>
					<trkpt lat="47.168790" lon="-0.183230">
						<ele>53</ele>
						<time>2022-07-15T05:17:32Z</time>
					</trkpt>
					<trkpt lat="47.168800" lon="-0.183290">
						<ele>54</ele>
						<time>2022-07-15T05:17:34Z</time>
					</trkpt>
					<trkpt lat="47.168800" lon="-0.183360">
						<ele>54</ele>
						<time>2022-07-15T05:17:36Z</time>
					</trkpt>
					<trkpt lat="47.168800" lon="-0.183430">
						<ele>54</ele>
						<time>2022-07-15T05:17:38Z</time>
					</trkpt>
					<trkpt lat="47.168810" lon="-0.183490">
						<ele>55</ele>
						<time>2022-07-15T05:17:40Z</time>
					</trkpt>
					<trkpt lat="47.168810" lon="-0.183540">
						<ele>55</ele>
						<time>2022-07-15T05:17:42Z</time>
					</trkpt>
					<trkpt lat="47.168820" lon="-0.183600">
						<ele>55</ele>
						<time>2022-07-15T05:17:44Z</time>
					</trkpt>
					<trkpt lat="47.168820" lon="-0.183670">
						<ele>55</ele>
						<time>2022-07-15T05:17:46Z</time>
					</trkpt>
					<trkpt lat="47.168820" lon="-0.183740">
						<ele>55</ele>
						<time>2022-07-15T05:17:48Z</time>
					</trkpt>
					<trkpt lat="47.168820" lon="-0.183800">
						<ele>55</ele>
						<time>2022-07-15T05:17:50Z</time>
					</trkpt>
					<trkpt lat="47.168830" lon="-0.183870">
						<ele>56</ele>
						<time>2022-07-15T05:17:52Z</time>
					</trkpt>
					<trkpt lat="47.168830" lon="-0.183940">
						<ele>56</ele>
						<time>2022-07-15T05:17:54Z</time>
					</trkpt>
					<trkpt lat="47.168840" lon="-0.184000">
						<ele>57</ele>
						<time>2022-07-15T05:17:56Z</time>
					</trkpt>
					<trkpt lat="47.168850" lon="-0.184060">
						<ele>57</ele>
						<time>2022-07-15T05:17:58Z</time>
					</trkpt>
					<trkpt lat="47.168860" lon="-0.184120">
						<ele>58</ele>
						<time>2022-07-15T05:18:00Z</time>
					</trkpt>
					<trkpt lat="47.168860" lon="-0.184170">
						<ele>58</ele>
						<time>2022-07-15T05:18:02Z</time>
					</trkpt>
					<trkpt lat="47.168880" lon="-0.184230">
						<ele>58</ele>
						<time>2022-07-15T05:18:04Z</time>
					</trkpt>
					<trkpt lat="47.168890" lon="-0.184280">
						<ele>58</ele>
						<time>2022-07-15T05:18:06Z</time>
					</trkpt>
					<trkpt lat="47.168900" lon="-0.184340">
						<ele>58</ele>
						<time>2022-07-15T05:18:08Z</time>
					</trkpt>
					<trkpt lat="47.168910" lon="-0.184400">
						<ele>58</ele>
						<time>2022-07-15T05:18:10Z</time>
					</trkpt>
					<trkpt lat="47.168920" lon="-0.184460">
						<ele>59</ele>
						<time>2022-07-15T05:18:12Z</time>
					</trkpt>
					<trkpt lat="47.168930" lon="-0.184530">
						<ele>59</ele>
						<time>2022-07-15T05:18:14Z</time>
					</trkpt>
					<trkpt lat="47.168930" lon="-0.184600">
						<ele>59</ele>
						<time>2022-07-15T05:18:16Z</time>
					</trkpt>
					<trkpt lat="47.168940" lon="-0.184660">
						<ele>59</ele>
						<time>2022-07-15T05:18:18Z</time>
					</trkpt>
					<trkpt lat="47.168940" lon="-0.184720">
						<ele>59</ele>
						<time>2022-07-15T05:18:20Z</time>
					</trkpt>
					<trkpt lat="47.168940" lon="-0.184770">
						<ele>59</ele>
						<time>2022-07-15T05:18:22Z</time>
					</trkpt>
					<trkpt lat="47.168940" lon="-0.184820">
						<ele>59</ele>
						<time>2022-07-15T05:18:24Z</time>
					</trkpt>
					<trkpt lat="47.168940" lon="-0.184870">
						<ele>60</ele>
						<time>2022-07-15T05:18:26Z</time>
					</trkpt>
					<trkpt lat="47.168940" lon="-0.184920">
						<ele>60</ele>
						<time>2022-07-15T05:18:28Z</time>
					</trkpt>
					<trkpt lat="47.168940" lon="-0.184980">
						<ele>60</ele>
						<time>2022-07-15T05:18:30Z</time>
					</trkpt>
					<trkpt lat="47.168940" lon="-0.185040">
						<ele>60</ele>
						<time>2022-07-15T05:18:32Z</time>
					</trkpt>
					<trkpt lat="47.168930" lon="-0.185110">
						<ele>60</ele>
						<time>2022-07-15T05:18:34Z</time>
					</trkpt>
					<trkpt lat="47.168930" lon="-0.185170">
						<ele>61</ele>
						<time>2022-07-15T05:18:36Z</time>
					</trkpt>
					<trkpt lat="47.168930" lon="-0.185230">
						<ele>61</ele>
						<time>2022-07-15T05:18:38Z</time>
					</trkpt>
					<trkpt lat="47.168930" lon="-0.185290">
						<ele>60</ele>
						<time>2022-07-15T05:18:40Z</time>
					</trkpt>
					<trkpt lat="47.168930" lon="-0.185350">
						<ele>60</ele>
						<time>2022-07-15T05:18:42Z</time>
					</trkpt>
					<trkpt lat="47.168920" lon="-0.185410">
						<ele>60</ele>
						<time>2022-07-15T05:18:44Z</time>
					</trkpt>
					<trkpt lat="47.168920" lon="-0.185460">
						<ele>60</ele>
						<time>2022-07-15T05:18:46Z</time>
					</trkpt>
					<trkpt lat="47.168930" lon="-0.185520">
						<ele>60</ele>
						<time>2022-07-15T05:18:48Z</time>
					</trkpt>
					<trkpt lat="47.168930" lon="-0.185580">
						<ele>60</ele>
						<time>2022-07-15T05:18:50Z</time>
					</trkpt>
					<trkpt lat="47.168930" lon="-0.185650">
						<ele>60</ele>
						<time>2022-07-15T05:18:52Z</time>
					</trkpt>
					<trkpt lat="47.168940" lon="-0.185710">
						<ele>61</ele>
						<time>2022-07-15T05:18:54Z</time>
					</trkpt>
					<trkpt lat="47.168950" lon="-0.185770">
						<ele>62</ele>
						<time>2022-07-15T05:18:56Z</time>
					</trkpt>
					<trkpt lat="47.168960" lon="-0.185830">
						<ele>62</ele>
						<time>2022-07-15T05:18:58Z</time>
					</trkpt>
					<trkpt lat="47.168970" lon="-0.185880">
						<ele>62</ele>
						<time>2022-07-15T05:19:00Z</time>
					</trkpt>
					<trkpt lat="47.168980" lon="-0.185940">
						<ele>63</ele>
						<time>2022-07-15T05:19:02Z</time>
					</trkpt>
					<trkpt lat="47.168990" lon="-0.185990">
						<ele>64</ele>
						<time>2022-07-15T05:19:04Z</time>
					</trkpt>
					<trkpt lat="47.169000" lon="-0.186030">
						<ele>64</ele>
						<time>2022-07-15T05:19:06Z</time>
					</trkpt>
					<trkpt lat="47.169010" lon="-0.186080">
						<ele>63</ele>
						<time>2022-07-15T05:19:08Z</time>
					</trkpt>
					<trkpt lat="47.169020" lon="-0.186140">
						<ele>63</ele>
						<time>2022-07-15T05:19:10Z</time>
					</trkpt>
					<trkpt lat="47.169030" lon="-0.186190">
						<ele>64</ele>
						<time>2022-07-15T05:19:12Z</time>
					</trkpt>
					<trkpt lat="47.169050" lon="-0.186230">
						<ele>64</ele>
						<time>2022-07-15T05:19:15Z</time>
					</trkpt>
					<trkpt lat="47.169070" lon="-0.186280">
						<ele>65</ele>
						<time>2022-07-15T05:19:18Z</time>
					</trkpt>
					<trkpt lat="47.169080" lon="-0.186330">
						<ele>65</ele>
						<time>2022-07-15T05:19:20Z</time>
					</trkpt>
					<trkpt lat="47.169100" lon="-0.186370">
						<ele>65</ele>
						<time>2022-07-15T05:19:22Z</time>
					</trkpt>
					<trkpt lat="47.169110" lon="-0.186420">
						<ele>65</ele>
						<time>2022-07-15T05:19:24Z</time>
					</trkpt>
					<trkpt lat="47.169130" lon="-0.186480">
						<ele>65</ele>
						<time>2022-07-15T05:19:26Z</time>
					</trkpt>
					<trkpt lat="47.169140" lon="-0.186540">
						<ele>65</ele>
						<time>2022-07-15T05:19:28Z</time>
					</trkpt>
					<trkpt lat="47.169150" lon="-0.186590">
						<ele>65</ele>
						<time>2022-07-15T05:19:30Z</time>
					</trkpt>
					<trkpt lat="47.169170" lon="-0.186650">
						<ele>65</ele>
						<time>2022-07-15T05:19:32Z</time>
					</trkpt>
					<trkpt lat="47.169180" lon="-0.186690">
						<ele>65</ele>
						<time>2022-07-15T05:19:34Z</time>
					</trkpt>
					<trkpt lat="47.169200" lon="-0.186740">
						<ele>65</ele>
						<time>2022-07-15T05:19:36Z</time>
					</trkpt>
					<trkpt lat="47.169210" lon="-0.186790">
						<ele>65</ele>
						<time>2022-07-15T05:19:38Z</time>
					</trkpt>
					<trkpt lat="47.169220" lon="-0.186840">
						<ele>65</ele>
						<time>2022-07-15T05:19:40Z</time>
					</trkpt>
					<trkpt lat="47.169230" lon="-0.186880">
						<ele>65</ele>
						<time>2022-07-15T05:19:42Z</time>
					</trkpt>
					<trkpt lat="47.169250" lon="-0.186920">
						<ele>64</ele>
						<time>2022-07-15T05:19:44Z</time>
					</trkpt>
					<trkpt lat="47.169260" lon="-0.186960">
						<ele>63</ele>
						<time>2022-07-15T05:19:46Z</time>
					</trkpt>
					<trkpt lat="47.169270" lon="-0.187000">
						<ele>63</ele>
						<time>2022-07-15T05:19:48Z</time>
					</trkpt>
					<trkpt lat="47.169280" lon="-0.187050">
						<ele>64</ele>
						<time>2022-07-15T05:19:50Z</time>
					</trkpt>
					<trkpt lat="47.169300" lon="-0.187100">
						<ele>65</ele>
						<time>2022-07-15T05:19:52Z</time>
					</trkpt>
					<trkpt lat="47.169310" lon="-0.187140">
						<ele>65</ele>
						<time>2022-07-15T05:19:54Z</time>
					</trkpt>
					<trkpt lat="47.169320" lon="-0.187190">
						<ele>66</ele>
						<time>2022-07-15T05:19:56Z</time>
					</trkpt>
					<trkpt lat="47.169340" lon="-0.187240">
						<ele>66</ele>
						<time>2022-07-15T05:19:58Z</time>
					</trkpt>
					<trkpt lat="47.169350" lon="-0.187290">
						<ele>65</ele>
						<time>2022-07-15T05:20:00Z</time>
					</trkpt>
					<trkpt lat="47.169370" lon="-0.187330">
						<ele>65</ele>
						<time>2022-07-15T05:20:02Z</time>
					</trkpt>
					<trkpt lat="47.169380" lon="-0.187370">
						<ele>65</ele>
						<time>2022-07-15T05:20:05Z</time>
					</trkpt>
					<trkpt lat="47.169390" lon="-0.187420">
						<ele>65</ele>
						<time>2022-07-15T05:20:07Z</time>
					</trkpt>
					<trkpt lat="47.169410" lon="-0.187470">
						<ele>65</ele>
						<time>2022-07-15T05:20:09Z</time>
					</trkpt>
					<trkpt lat="47.169420" lon="-0.187530">
						<ele>65</ele>
						<time>2022-07-15T05:20:12Z</time>
					</trkpt>
					<trkpt lat="47.169420" lon="-0.187570">
						<ele>65</ele>
						<time>2022-07-15T05:20:14Z</time>
					</trkpt>
					<trkpt lat="47.169420" lon="-0.187620">
						<ele>65</ele>
						<time>2022-07-15T05:20:16Z</time>
					</trkpt>
					<trkpt lat="47.169420" lon="-0.187660">
						<ele>65</ele>
						<time>2022-07-15T05:20:18Z</time>
					</trkpt>
					<trkpt lat="47.169420" lon="-0.187710">
						<ele>66</ele>
						<time>2022-07-15T05:20:21Z</time>
					</trkpt>
					<trkpt lat="47.169420" lon="-0.187760">
						<ele>66</ele>
						<time>2022-07-15T05:20:23Z</time>
					</trkpt>
					<trkpt lat="47.169410" lon="-0.187810">
						<ele>67</ele>
						<time>2022-07-15T05:20:25Z</time>
					</trkpt>
					<trkpt lat="47.169410" lon="-0.187850">
						<ele>68</ele>
						<time>2022-07-15T05:20:28Z</time>
					</trkpt>
					<trkpt lat="47.169410" lon="-0.187890">
						<ele>68</ele>
						<time>2022-07-15T05:20:30Z</time>
					</trkpt>
					<trkpt lat="47.169400" lon="-0.187940">
						<ele>68</ele>
						<time>2022-07-15T05:20:32Z</time>
					</trkpt>
					<trkpt lat="47.169400" lon="-0.187980">
						<ele>68</ele>
						<time>2022-07-15T05:20:34Z</time>
					</trkpt>
					<trkpt lat="47.169390" lon="-0.188030">
						<ele>68</ele>
						<time>2022-07-15T05:20:36Z</time>
					</trkpt>
					<trkpt lat="47.169390" lon="-0.188080">
						<ele>68</ele>
						<time>2022-07-15T05:20:38Z</time>
					</trkpt>
					<trkpt lat="47.169390" lon="-0.188140">
						<ele>69</ele>
						<time>2022-07-15T05:20:40Z</time>
					</trkpt>
					<trkpt lat="47.169390" lon="-0.188190">
						<ele>68</ele>
						<time>2022-07-15T05:20:42Z</time>
					</trkpt>
					<trkpt lat="47.169390" lon="-0.188250">
						<ele>68</ele>
						<time>2022-07-15T05:20:44Z</time>
					</trkpt>
					<trkpt lat="47.169390" lon="-0.188290">
						<ele>68</ele>
						<time>2022-07-15T05:20:46Z</time>
					</trkpt>
					<trkpt lat="47.169390" lon="-0.188340">
						<ele>67</ele>
						<time>2022-07-15T05:20:48Z</time>
					</trkpt>
					<trkpt lat="47.169400" lon="-0.188380">
						<ele>67</ele>
						<time>2022-07-15T05:20:50Z</time>
					</trkpt>
					<trkpt lat="47.169400" lon="-0.188430">
						<ele>67</ele>
						<time>2022-07-15T05:20:52Z</time>
					</trkpt>
					<trkpt lat="47.169400" lon="-0.188480">
						<ele>67</ele>
						<time>2022-07-15T05:20:54Z</time>
					</trkpt>
					<trkpt lat="47.169410" lon="-0.188530">
						<ele>67</ele>
						<time>2022-07-15T05:20:57Z</time>
					</trkpt>
					<trkpt lat="47.169420" lon="-0.188580">
						<ele>67</ele>
						<time>2022-07-15T05:20:59Z</time>
					</trkpt>
					<trkpt lat="47.169420" lon="-0.188640">
						<ele>67</ele>
						<time>2022-07-15T05:21:01Z</time>
					</trkpt>
					<trkpt lat="47.169420" lon="-0.188690">
						<ele>66</ele>
						<time>2022-07-15T05:21:03Z</time>
					</trkpt>
					<trkpt lat="47.169410" lon="-0.188740">
						<ele>66</ele>
						<time>2022-07-15T05:21:05Z</time>
					</trkpt>
					<trkpt lat="47.169400" lon="-0.188780">
						<ele>66</ele>
						<time>2022-07-15T05:21:07Z</time>
					</trkpt>
					<trkpt lat="47.169400" lon="-0.188820">
						<ele>67</ele>
						<time>2022-07-15T05:21:09Z</time>
					</trkpt>
					<trkpt lat="47.169400" lon="-0.188870">
						<ele>68</ele>
						<time>2022-07-15T05:21:11Z</time>
					</trkpt>
					<trkpt lat="47.169390" lon="-0.188920">
						<ele>68</ele>
						<time>2022-07-15T05:21:13Z</time>
					</trkpt>
					<trkpt lat="47.169390" lon="-0.188960">
						<ele>69</ele>
						<time>2022-07-15T05:21:15Z</time>
					</trkpt>
					<trkpt lat="47.169390" lon="-0.189010">
						<ele>69</ele>
						<time>2022-07-15T05:21:18Z</time>
					</trkpt>
					<trkpt lat="47.169390" lon="-0.189070">
						<ele>69</ele>
						<time>2022-07-15T05:21:20Z</time>
					</trkpt>
					<trkpt lat="47.169390" lon="-0.189110">
						<ele>70</ele>
						<time>2022-07-15T05:21:22Z</time>
					</trkpt>
					<trkpt lat="47.169400" lon="-0.189160">
						<ele>70</ele>
						<time>2022-07-15T05:21:24Z</time>
					</trkpt>
					<trkpt lat="47.169400" lon="-0.189210">
						<ele>69</ele>
						<time>2022-07-15T05:21:27Z</time>
					</trkpt>
					<trkpt lat="47.169410" lon="-0.189250">
						<ele>68</ele>
						<time>2022-07-15T05:21:30Z</time>
					</trkpt>
					<trkpt lat="47.169440" lon="-0.189280">
						<ele>67</ele>
						<time>2022-07-15T05:21:32Z</time>
					</trkpt>
					<trkpt lat="47.169460" lon="-0.189310">
						<ele>67</ele>
						<time>2022-07-15T05:21:37Z</time>
					</trkpt>
					<trkpt lat="47.169440" lon="-0.189340">
						<ele>67</ele>
						<time>2022-07-15T05:21:53Z</time>
					</trkpt>
					<trkpt lat="47.169410" lon="-0.189360">
						<ele>67</ele>
						<time>2022-07-15T05:22:20Z</time>
					</trkpt>
					<trkpt lat="47.169380" lon="-0.189350">
						<ele>67</ele>
						<time>2022-07-15T05:22:24Z</time>
					</trkpt>
					<trkpt lat="47.169350" lon="-0.189350">
						<ele>66</ele>
						<time>2022-07-15T05:22:27Z</time>
					</trkpt>
					<trkpt lat="47.169320" lon="-0.189360">
						<ele>65</ele>
						<time>2022-07-15T05:22:36Z</time>
					</trkpt>
					<trkpt lat="47.169290" lon="-0.189380">
						<ele>59</ele>
						<time>2022-07-15T05:23:07Z</time>
					</trkpt>
					<trkpt lat="47.169260" lon="-0.189400">
						<ele>55</ele>
						<time>2022-07-15T05:23:15Z</time>
					</trkpt>
					<trkpt lat="47.169230" lon="-0.189380">
						<ele>53</ele>
						<time>2022-07-15T05:23:19Z</time>
					</trkpt>
					<trkpt lat="47.169200" lon="-0.189370">
						<ele>52</ele>
						<time>2022-07-15T05:23:21Z</time>
					</trkpt>
					<trkpt lat="47.169170" lon="-0.189370">
						<ele>52</ele>
						<time>2022-07-15T05:23:24Z</time>
					</trkpt>
					<trkpt lat="47.169140" lon="-0.189360">
						<ele>52</ele>
						<time>2022-07-15T05:23:26Z</time>
					</trkpt>
					<trkpt lat="47.169100" lon="-0.189360">
						<ele>52</ele>
						<time>2022-07-15T05:23:29Z</time>
					</trkpt>
					<trkpt lat="47.169070" lon="-0.189360">
						<ele>51</ele>
						<time>2022-07-15T05:23:31Z</time>
					</trkpt>
					<trkpt lat="47.169040" lon="-0.189350">
						<ele>51</ele>
						<time>2022-07-15T05:23:33Z</time>
					</trkpt>
					<trkpt lat="47.169010" lon="-0.189340">
						<ele>52</ele>
						<time>2022-07-15T05:23:36Z</time>
					</trkpt>
					<trkpt lat="47.168980" lon="-0.189340">
						<ele>53</ele>
						<time>2022-07-15T05:23:39Z</time>
					</trkpt>
					<trkpt lat="47.168940" lon="-0.189330">
						<ele>54</ele>
						<time>2022-07-15T05:23:42Z</time>
					</trkpt>
					<trkpt lat="47.168910" lon="-0.189340">
						<ele>56</ele>
						<time>2022-07-15T05:23:45Z</time>
					</trkpt>
					<trkpt lat="47.168880" lon="-0.189350">
						<ele>58</ele>
						<time>2022-07-15T05:23:48Z</time>
					</trkpt>
					<trkpt lat="47.168850" lon="-0.189340">
						<ele>59</ele>
						<time>2022-07-15T05:23:50Z</time>
					</trkpt>
					<trkpt lat="47.168810" lon="-0.189340">
						<ele>61</ele>
						<time>2022-07-15T05:23:53Z</time>
					</trkpt>
					<trkpt lat="47.168780" lon="-0.189330">
						<ele>61</ele>
						<time>2022-07-15T05:23:55Z</time>
					</trkpt>
					<trkpt lat="47.168740" lon="-0.189320">
						<ele>62</ele>
						<time>2022-07-15T05:23:58Z</time>
					</trkpt>
					<trkpt lat="47.168710" lon="-0.189310">
						<ele>62</ele>
						<time>2022-07-15T05:24:00Z</time>
					</trkpt>
					<trkpt lat="47.168680" lon="-0.189300">
						<ele>62</ele>
						<time>2022-07-15T05:24:02Z</time>
					</trkpt>
					<trkpt lat="47.168640" lon="-0.189300">
						<ele>61</ele>
						<time>2022-07-15T05:24:04Z</time>
					</trkpt>
					<trkpt lat="47.168610" lon="-0.189300">
						<ele>61</ele>
						<time>2022-07-15T05:24:06Z</time>
					</trkpt>
					<trkpt lat="47.168580" lon="-0.189290">
						<ele>61</ele>
						<time>2022-07-15T05:24:08Z</time>
					</trkpt>
					<trkpt lat="47.168550" lon="-0.189290">
						<ele>61</ele>
						<time>2022-07-15T05:24:10Z</time>
					</trkpt>
					<trkpt lat="47.168520" lon="-0.189280">
						<ele>61</ele>
						<time>2022-07-15T05:24:12Z</time>
					</trkpt>
					<trkpt lat="47.168490" lon="-0.189270">
						<ele>62</ele>
						<time>2022-07-15T05:24:14Z</time>
					</trkpt>
					<trkpt lat="47.168460" lon="-0.189250">
						<ele>61</ele>
						<time>2022-07-15T05:24:16Z</time>
					</trkpt>
					<trkpt lat="47.168430" lon="-0.189250">
						<ele>61</ele>
						<time>2022-07-15T05:24:19Z</time>
					</trkpt>
					<trkpt lat="47.168400" lon="-0.189260">
						<ele>60</ele>
						<time>2022-07-15T05:24:22Z</time>
					</trkpt>
					<trkpt lat="47.168370" lon="-0.189270">
						<ele>60</ele>
						<time>2022-07-15T05:24:25Z</time>
					</trkpt>
					<trkpt lat="47.168340" lon="-0.189280">
						<ele>61</ele>
						<time>2022-07-15T05:24:28Z</time>
					</trkpt>
					<trkpt lat="47.168300" lon="-0.189290">
						<ele>62</ele>
						<time>2022-07-15T05:24:31Z</time>
					</trkpt>
					<trkpt lat="47.168260" lon="-0.189290">
						<ele>63</ele>
						<time>2022-07-15T05:24:33Z</time>
					</trkpt>
					<trkpt lat="47.168230" lon="-0.189290">
						<ele>63</ele>
						<time>2022-07-15T05:24:35Z</time>
					</trkpt>
					<trkpt lat="47.168190" lon="-0.189290">
						<ele>63</ele>
						<time>2022-07-15T05:24:37Z</time>
					</trkpt>
					<trkpt lat="47.168150" lon="-0.189280">
						<ele>64</ele>
						<time>2022-07-15T05:24:39Z</time>
					</trkpt>
					<trkpt lat="47.168120" lon="-0.189280">
						<ele>64</ele>
						<time>2022-07-15T05:24:41Z</time>
					</trkpt>
					<trkpt lat="47.168080" lon="-0.189270">
						<ele>64</ele>
						<time>2022-07-15T05:24:43Z</time>
					</trkpt>
					<trkpt lat="47.168030" lon="-0.189260">
						<ele>64</ele>
						<time>2022-07-15T05:24:45Z</time>
					</trkpt>
					<trkpt lat="47.167980" lon="-0.189240">
						<ele>64</ele>
						<time>2022-07-15T05:24:47Z</time>
					</trkpt>
					<trkpt lat="47.167940" lon="-0.189230">
						<ele>63</ele>
						<time>2022-07-15T05:24:49Z</time>
					</trkpt>
					<trkpt lat="47.167890" lon="-0.189220">
						<ele>63</ele>
						<time>2022-07-15T05:24:51Z</time>
					</trkpt>
					<trkpt lat="47.167850" lon="-0.189200">
						<ele>63</ele>
						<time>2022-07-15T05:24:53Z</time>
					</trkpt>
					<trkpt lat="47.167800" lon="-0.189190">
						<ele>63</ele>
						<time>2022-07-15T05:24:55Z</time>
					</trkpt>
					<trkpt lat="47.167750" lon="-0.189170">
						<ele>63</ele>
						<time>2022-07-15T05:24:57Z</time>
					</trkpt>
					<trkpt lat="47.167700" lon="-0.189160">
						<ele>63</ele>
						<time>2022-07-15T05:24:59Z</time>
					</trkpt>
					<trkpt lat="47.167660" lon="-0.189160">
						<ele>64</ele>
						<time>2022-07-15T05:25:01Z</time>
					</trkpt>
					<trkpt lat="47.167620" lon="-0.189160">
						<ele>65</ele>
						<time>2022-07-15T05:25:03Z</time>
					</trkpt>
					<trkpt lat="47.167580" lon="-0.189160">
						<ele>65</ele>
						<time>2022-07-15T05:25:05Z</time>
					</trkpt>
					<trkpt lat="47.167530" lon="-0.189160">
						<ele>65</ele>
						<time>2022-07-15T05:25:07Z</time>
					</trkpt>
					<trkpt lat="47.167500" lon="-0.189150">
						<ele>65</ele>
						<time>2022-07-15T05:25:08Z</time>
					</trkpt>
					<trkpt lat="47.167470" lon="-0.189140">
						<ele>64</ele>
						<time>2022-07-15T05:25:09Z</time>
					</trkpt>
					<trkpt lat="47.167420" lon="-0.189130">
						<ele>64</ele>
						<time>2022-07-15T05:25:11Z</time>
					</trkpt>
					<trkpt lat="47.167370" lon="-0.189120">
						<ele>64</ele>
						<time>2022-07-15T05:25:13Z</time>
					</trkpt>
					<trkpt lat="47.167330" lon="-0.189100">
						<ele>64</ele>
						<time>2022-07-15T05:25:15Z</time>
					</trkpt>
					<trkpt lat="47.167280" lon="-0.189090">
						<ele>64</ele>
						<time>2022-07-15T05:25:17Z</time>
					</trkpt>
					<trkpt lat="47.167240" lon="-0.189080">
						<ele>64</ele>
						<time>2022-07-15T05:25:19Z</time>
					</trkpt>
					<trkpt lat="47.167190" lon="-0.189070">
						<ele>65</ele>
						<time>2022-07-15T05:25:21Z</time>
					</trkpt>
					<trkpt lat="47.167150" lon="-0.189050">
						<ele>65</ele>
						<time>2022-07-15T05:25:23Z</time>
					</trkpt>
					<trkpt lat="47.167100" lon="-0.189040">
						<ele>65</ele>
						<time>2022-07-15T05:25:25Z</time>
					</trkpt>
					<trkpt lat="47.167050" lon="-0.189020">
						<ele>64</ele>
						<time>2022-07-15T05:25:27Z</time>
					</trkpt>
					<trkpt lat="47.167010" lon="-0.189010">
						<ele>64</ele>
						<time>2022-07-15T05:25:28Z</time>
					</trkpt>
					<trkpt lat="47.166980" lon="-0.188990">
						<ele>64</ele>
						<time>2022-07-15T05:25:29Z</time>
					</trkpt>
					<trkpt lat="47.166940" lon="-0.188980">
						<ele>64</ele>
						<time>2022-07-15T05:25:31Z</time>
					</trkpt>
					<trkpt lat="47.166900" lon="-0.188970">
						<ele>64</ele>
						<time>2022-07-15T05:25:33Z</time>
					</trkpt>
					<trkpt lat="47.166860" lon="-0.188960">
						<ele>64</ele>
						<time>2022-07-15T05:25:34Z</time>
					</trkpt>
					<trkpt lat="47.166830" lon="-0.188960">
						<ele>64</ele>
						<time>2022-07-15T05:25:35Z</time>
					</trkpt>
					<trkpt lat="47.166800" lon="-0.188950">
						<ele>64</ele>
						<time>2022-07-15T05:25:36Z</time>
					</trkpt>
					<trkpt lat="47.166770" lon="-0.188950">
						<ele>64</ele>
						<time>2022-07-15T05:25:37Z</time>
					</trkpt>
					<trkpt lat="47.166730" lon="-0.188940">
						<ele>65</ele>
						<time>2022-07-15T05:25:39Z</time>
					</trkpt>
					<trkpt lat="47.166680" lon="-0.188930">
						<ele>65</ele>
						<time>2022-07-15T05:25:41Z</time>
					</trkpt>
					<trkpt lat="47.166640" lon="-0.188920">
						<ele>65</ele>
						<time>2022-07-15T05:25:43Z</time>
					</trkpt>
					<trkpt lat="47.166590" lon="-0.188900">
						<ele>65</ele>
						<time>2022-07-15T05:25:45Z</time>
					</trkpt>
					<trkpt lat="47.166540" lon="-0.188890">
						<ele>65</ele>
						<time>2022-07-15T05:25:47Z</time>
					</trkpt>
					<trkpt lat="47.166490" lon="-0.188880">
						<ele>66</ele>
						<time>2022-07-15T05:25:49Z</time>
					</trkpt>
					<trkpt lat="47.166440" lon="-0.188870">
						<ele>66</ele>
						<time>2022-07-15T05:25:51Z</time>
					</trkpt>
					<trkpt lat="47.166400" lon="-0.188850">
						<ele>66</ele>
						<time>2022-07-15T05:25:52Z</time>
					</trkpt>
					<trkpt lat="47.166360" lon="-0.188840">
						<ele>65</ele>
						<time>2022-07-15T05:25:54Z</time>
					</trkpt>
					<trkpt lat="47.166330" lon="-0.188820">
						<ele>65</ele>
						<time>2022-07-15T05:25:55Z</time>
					</trkpt>
					<trkpt lat="47.166290" lon="-0.188800">
						<ele>65</ele>
						<time>2022-07-15T05:25:57Z</time>
					</trkpt>
					<trkpt lat="47.166240" lon="-0.188780">
						<ele>65</ele>
						<time>2022-07-15T05:25:59Z</time>
					</trkpt>
					<trkpt lat="47.166200" lon="-0.188760">
						<ele>64</ele>
						<time>2022-07-15T05:26:01Z</time>
					</trkpt>
					<trkpt lat="47.166150" lon="-0.188750">
						<ele>64</ele>
						<time>2022-07-15T05:26:03Z</time>
					</trkpt>
					<trkpt lat="47.166110" lon="-0.188740">
						<ele>64</ele>
						<time>2022-07-15T05:26:05Z</time>
					</trkpt>
					<trkpt lat="47.166060" lon="-0.188730">
						<ele>64</ele>
						<time>2022-07-15T05:26:07Z</time>
					</trkpt>
					<trkpt lat="47.166010" lon="-0.188710">
						<ele>64</ele>
						<time>2022-07-15T05:26:09Z</time>
					</trkpt>
					<trkpt lat="47.165970" lon="-0.188690">
						<ele>64</ele>
						<time>2022-07-15T05:26:11Z</time>
					</trkpt>
					<trkpt lat="47.165920" lon="-0.188690">
						<ele>65</ele>
						<time>2022-07-15T05:26:13Z</time>
					</trkpt>
					<trkpt lat="47.165870" lon="-0.188680">
						<ele>65</ele>
						<time>2022-07-15T05:26:15Z</time>
					</trkpt>
					<trkpt lat="47.165830" lon="-0.188670">
						<ele>65</ele>
						<time>2022-07-15T05:26:17Z</time>
					</trkpt>
					<trkpt lat="47.165780" lon="-0.188650">
						<ele>65</ele>
						<time>2022-07-15T05:26:19Z</time>
					</trkpt>
					<trkpt lat="47.165740" lon="-0.188640">
						<ele>65</ele>
						<time>2022-07-15T05:26:21Z</time>
					</trkpt>
					<trkpt lat="47.165700" lon="-0.188620">
						<ele>65</ele>
						<time>2022-07-15T05:26:23Z</time>
					</trkpt>
					<trkpt lat="47.165670" lon="-0.188610">
						<ele>65</ele>
						<time>2022-07-15T05:26:24Z</time>
					</trkpt>
					<trkpt lat="47.165630" lon="-0.188590">
						<ele>64</ele>
						<time>2022-07-15T05:26:26Z</time>
					</trkpt>
					<trkpt lat="47.165590" lon="-0.188580">
						<ele>64</ele>
						<time>2022-07-15T05:26:28Z</time>
					</trkpt>
					<trkpt lat="47.165560" lon="-0.188570">
						<ele>64</ele>
						<time>2022-07-15T05:26:30Z</time>
					</trkpt>
					<trkpt lat="47.165520" lon="-0.188570">
						<ele>65</ele>
						<time>2022-07-15T05:26:33Z</time>
					</trkpt>
					<trkpt lat="47.165480" lon="-0.188570">
						<ele>66</ele>
						<time>2022-07-15T05:26:35Z</time>
					</trkpt>
					<trkpt lat="47.165450" lon="-0.188560">
						<ele>66</ele>
						<time>2022-07-15T05:26:37Z</time>
					</trkpt>
					<trkpt lat="47.165420" lon="-0.188550">
						<ele>66</ele>
						<time>2022-07-15T05:26:39Z</time>
					</trkpt>
					<trkpt lat="47.165390" lon="-0.188540">
						<ele>66</ele>
						<time>2022-07-15T05:26:41Z</time>
					</trkpt>
					<trkpt lat="47.165360" lon="-0.188520">
						<ele>65</ele>
						<time>2022-07-15T05:26:43Z</time>
					</trkpt>
					<trkpt lat="47.165320" lon="-0.188500">
						<ele>65</ele>
						<time>2022-07-15T05:26:45Z</time>
					</trkpt>
					<trkpt lat="47.165280" lon="-0.188490">
						<ele>64</ele>
						<time>2022-07-15T05:26:47Z</time>
					</trkpt>
					<trkpt lat="47.165240" lon="-0.188480">
						<ele>63</ele>
						<time>2022-07-15T05:26:49Z</time>
					</trkpt>
					<trkpt lat="47.165190" lon="-0.188470">
						<ele>63</ele>
						<time>2022-07-15T05:26:51Z</time>
					</trkpt>
					<trkpt lat="47.165150" lon="-0.188450">
						<ele>62</ele>
						<time>2022-07-15T05:26:53Z</time>
					</trkpt>
					<trkpt lat="47.165110" lon="-0.188430">
						<ele>61</ele>
						<time>2022-07-15T05:26:55Z</time>
					</trkpt>
					<trkpt lat="47.165060" lon="-0.188420">
						<ele>62</ele>
						<time>2022-07-15T05:26:57Z</time>
					</trkpt>
					<trkpt lat="47.165020" lon="-0.188410">
						<ele>61</ele>
						<time>2022-07-15T05:26:59Z</time>
					</trkpt>
					<trkpt lat="47.164990" lon="-0.188400">
						<ele>61</ele>
						<time>2022-07-15T05:27:01Z</time>
					</trkpt>
					<trkpt lat="47.164960" lon="-0.188390">
						<ele>60</ele>
						<time>2022-07-15T05:27:03Z</time>
					</trkpt>
					<trkpt lat="47.164920" lon="-0.188370">
						<ele>59</ele>
						<time>2022-07-15T05:27:05Z</time>
					</trkpt>
					<trkpt lat="47.164890" lon="-0.188360">
						<ele>58</ele>
						<time>2022-07-15T05:27:07Z</time>
					</trkpt>
					<trkpt lat="47.164860" lon="-0.188350">
						<ele>58</ele>
						<time>2022-07-15T05:27:09Z</time>
					</trkpt>
					<trkpt lat="47.164820" lon="-0.188340">
						<ele>57</ele>
						<time>2022-07-15T05:27:12Z</time>
					</trkpt>
					<trkpt lat="47.164790" lon="-0.188340">
						<ele>56</ele>
						<time>2022-07-15T05:27:14Z</time>
					</trkpt>
					<trkpt lat="47.164750" lon="-0.188330">
						<ele>55</ele>
						<time>2022-07-15T05:27:17Z</time>
					</trkpt>
					<trkpt lat="47.164720" lon="-0.188330">
						<ele>56</ele>
						<time>2022-07-15T05:27:20Z</time>
					</trkpt>
					<trkpt lat="47.164680" lon="-0.188340">
						<ele>57</ele>
						<time>2022-07-15T05:27:23Z</time>
					</trkpt>
					<trkpt lat="47.164650" lon="-0.188340">
						<ele>58</ele>
						<time>2022-07-15T05:27:26Z</time>
					</trkpt>
					<trkpt lat="47.164610" lon="-0.188340">
						<ele>59</ele>
						<time>2022-07-15T05:27:28Z</time>
					</trkpt>
					<trkpt lat="47.164580" lon="-0.188330">
						<ele>60</ele>
						<time>2022-07-15T05:27:30Z</time>
					</trkpt>
					<trkpt lat="47.164560" lon="-0.188320">
						<ele>61</ele>
						<time>2022-07-15T05:27:32Z</time>
					</trkpt>
					<trkpt lat="47.164520" lon="-0.188310">
						<ele>62</ele>
						<time>2022-07-15T05:27:35Z</time>
					</trkpt>
					<trkpt lat="47.164480" lon="-0.188310">
						<ele>63</ele>
						<time>2022-07-15T05:27:37Z</time>
					</trkpt>
					<trkpt lat="47.164440" lon="-0.188310">
						<ele>63</ele>
						<time>2022-07-15T05:27:39Z</time>
					</trkpt>
					<trkpt lat="47.164400" lon="-0.188310">
						<ele>63</ele>
						<time>2022-07-15T05:27:41Z</time>
					</trkpt>
					<trkpt lat="47.164360" lon="-0.188310">
						<ele>64</ele>
						<time>2022-07-15T05:27:43Z</time>
					</trkpt>
					<trkpt lat="47.164320" lon="-0.188320">
						<ele>65</ele>
						<time>2022-07-15T05:27:45Z</time>
					</trkpt>
					<trkpt lat="47.164290" lon="-0.188320">
						<ele>66</ele>
						<time>2022-07-15T05:27:47Z</time>
					</trkpt>
					<trkpt lat="47.164260" lon="-0.188310">
						<ele>66</ele>
						<time>2022-07-15T05:27:49Z</time>
					</trkpt>
					<trkpt lat="47.164220" lon="-0.188320">
						<ele>67</ele>
						<time>2022-07-15T05:27:52Z</time>
					</trkpt>
					<trkpt lat="47.164190" lon="-0.188330">
						<ele>68</ele>
						<time>2022-07-15T05:27:57Z</time>
					</trkpt>
					<trkpt lat="47.164150" lon="-0.188340">
						<ele>68</ele>
						<time>2022-07-15T05:28:00Z</time>
					</trkpt>
					<trkpt lat="47.164120" lon="-0.188340">
						<ele>69</ele>
						<time>2022-07-15T05:28:02Z</time>
					</trkpt>
					<trkpt lat="47.164090" lon="-0.188340">
						<ele>68</ele>
						<time>2022-07-15T05:28:04Z</time>
					</trkpt>
					<trkpt lat="47.164060" lon="-0.188350">
						<ele>68</ele>
						<time>2022-07-15T05:28:06Z</time>
					</trkpt>
					<trkpt lat="47.164030" lon="-0.188350">
						<ele>69</ele>
						<time>2022-07-15T05:28:08Z</time>
					</trkpt>
					<trkpt lat="47.164000" lon="-0.188370">
						<ele>68</ele>
						<time>2022-07-15T05:28:10Z</time>
					</trkpt>
					<trkpt lat="47.163960" lon="-0.188380">
						<ele>68</ele>
						<time>2022-07-15T05:28:13Z</time>
					</trkpt>
					<trkpt lat="47.163930" lon="-0.188380">
						<ele>67</ele>
						<time>2022-07-15T05:28:15Z</time>
					</trkpt>
					<trkpt lat="47.163890" lon="-0.188380">
						<ele>68</ele>
						<time>2022-07-15T05:28:17Z</time>
					</trkpt>
					<trkpt lat="47.163860" lon="-0.188390">
						<ele>68</ele>
						<time>2022-07-15T05:28:19Z</time>
					</trkpt>
					<trkpt lat="47.163830" lon="-0.188380">
						<ele>68</ele>
						<time>2022-07-15T05:28:21Z</time>
					</trkpt>
					<trkpt lat="47.163790" lon="-0.188390">
						<ele>68</ele>
						<time>2022-07-15T05:28:23Z</time>
					</trkpt>
					<trkpt lat="47.163760" lon="-0.188390">
						<ele>68</ele>
						<time>2022-07-15T05:28:25Z</time>
					</trkpt>
					<trkpt lat="47.163720" lon="-0.188400">
						<ele>67</ele>
						<time>2022-07-15T05:28:27Z</time>
					</trkpt>
					<trkpt lat="47.163690" lon="-0.188410">
						<ele>67</ele>
						<time>2022-07-15T05:28:29Z</time>
					</trkpt>
					<trkpt lat="47.163660" lon="-0.188410">
						<ele>67</ele>
						<time>2022-07-15T05:28:32Z</time>
					</trkpt>
					<trkpt lat="47.163630" lon="-0.188420">
						<ele>67</ele>
						<time>2022-07-15T05:28:34Z</time>
					</trkpt>
					<trkpt lat="47.163600" lon="-0.188420">
						<ele>67</ele>
						<time>2022-07-15T05:28:36Z</time>
					</trkpt>
					<trkpt lat="47.163560" lon="-0.188420">
						<ele>66</ele>
						<time>2022-07-15T05:28:38Z</time>
					</trkpt>
					<trkpt lat="47.163530" lon="-0.188420">
						<ele>66</ele>
						<time>2022-07-15T05:28:40Z</time>
					</trkpt>
					<trkpt lat="47.163490" lon="-0.188420">
						<ele>66</ele>
						<time>2022-07-15T05:28:42Z</time>
					</trkpt>
					<trkpt lat="47.163450" lon="-0.188410">
						<ele>65</ele>
						<time>2022-07-15T05:28:44Z</time>
					</trkpt>
					<trkpt lat="47.163410" lon="-0.188410">
						<ele>65</ele>
						<time>2022-07-15T05:28:46Z</time>
					</trkpt>
					<trkpt lat="47.163370" lon="-0.188420">
						<ele>65</ele>
						<time>2022-07-15T05:28:48Z</time>
					</trkpt>
					<trkpt lat="47.163330" lon="-0.188420">
						<ele>65</ele>
						<time>2022-07-15T05:28:50Z</time>
					</trkpt>
					<trkpt lat="47.163290" lon="-0.188420">
						<ele>65</ele>
						<time>2022-07-15T05:28:52Z</time>
					</trkpt>
					<trkpt lat="47.163260" lon="-0.188420">
						<ele>65</ele>
						<time>2022-07-15T05:28:54Z</time>
					</trkpt>
					<trkpt lat="47.163230" lon="-0.188420">
						<ele>65</ele>
						<time>2022-07-15T05:28:56Z</time>
					</trkpt>
					<trkpt lat="47.163200" lon="-0.188420">
						<ele>65</ele>
						<time>2022-07-15T05:28:58Z</time>
					</trkpt>
					<trkpt lat="47.163170" lon="-0.188420">
						<ele>64</ele>
						<time>2022-07-15T05:29:01Z</time>
					</trkpt>
					<trkpt lat="47.163130" lon="-0.188430">
						<ele>63</ele>
						<time>2022-07-15T05:29:03Z</time>
					</trkpt>
					<trkpt lat="47.163090" lon="-0.188410">
						<ele>62</ele>
						<time>2022-07-15T05:29:05Z</time>
					</trkpt>
					<trkpt lat="47.163060" lon="-0.188400">
						<ele>62</ele>
						<time>2022-07-15T05:29:07Z</time>
					</trkpt>
					<trkpt lat="47.163020" lon="-0.188400">
						<ele>62</ele>
						<time>2022-07-15T05:29:09Z</time>
					</trkpt>
					<trkpt lat="47.162980" lon="-0.188400">
						<ele>62</ele>
						<time>2022-07-15T05:29:11Z</time>
					</trkpt>
					<trkpt lat="47.162940" lon="-0.188400">
						<ele>62</ele>
						<time>2022-07-15T05:29:13Z</time>
					</trkpt>
					<trkpt lat="47.162910" lon="-0.188410">
						<ele>61</ele>
						<time>2022-07-15T05:29:15Z</time>
					</trkpt>
					<trkpt lat="47.162870" lon="-0.188420">
						<ele>61</ele>
						<time>2022-07-15T05:29:17Z</time>
					</trkpt>
					<trkpt lat="47.162840" lon="-0.188420">
						<ele>61</ele>
						<time>2022-07-15T05:29:19Z</time>
					</trkpt>
					<trkpt lat="47.162810" lon="-0.188420">
						<ele>60</ele>
						<time>2022-07-15T05:29:21Z</time>
					</trkpt>
					<trkpt lat="47.162770" lon="-0.188430">
						<ele>58</ele>
						<time>2022-07-15T05:29:23Z</time>
					</trkpt>
					<trkpt lat="47.162730" lon="-0.188430">
						<ele>58</ele>
						<time>2022-07-15T05:29:25Z</time>
					</trkpt>
					<trkpt lat="47.162700" lon="-0.188440">
						<ele>58</ele>
						<time>2022-07-15T05:29:27Z</time>
					</trkpt>
					<trkpt lat="47.162670" lon="-0.188450">
						<ele>59</ele>
						<time>2022-07-15T05:29:29Z</time>
					</trkpt>
					<trkpt lat="47.162640" lon="-0.188450">
						<ele>59</ele>
						<time>2022-07-15T05:29:31Z</time>
					</trkpt>
					<trkpt lat="47.162610" lon="-0.188460">
						<ele>59</ele>
						<time>2022-07-15T05:29:33Z</time>
					</trkpt>
					<trkpt lat="47.162590" lon="-0.188460">
						<ele>60</ele>
						<time>2022-07-15T05:29:35Z</time>
					</trkpt>
					<trkpt lat="47.162550" lon="-0.188460">
						<ele>60</ele>
						<time>2022-07-15T05:29:38Z</time>
					</trkpt>
					<trkpt lat="47.162520" lon="-0.188460">
						<ele>59</ele>
						<time>2022-07-15T05:29:44Z</time>
					</trkpt>
					<trkpt lat="47.162490" lon="-0.188450">
						<ele>58</ele>
						<time>2022-07-15T05:29:47Z</time>
					</trkpt>
					<trkpt lat="47.162450" lon="-0.188430">
						<ele>58</ele>
						<time>2022-07-15T05:29:50Z</time>
					</trkpt>
					<trkpt lat="47.162420" lon="-0.188410">
						<ele>59</ele>
						<time>2022-07-15T05:29:53Z</time>
					</trkpt>
					<trkpt lat="47.162390" lon="-0.188400">
						<ele>59</ele>
						<time>2022-07-15T05:29:56Z</time>
					</trkpt>
					<trkpt lat="47.162360" lon="-0.188400">
						<ele>60</ele>
						<time>2022-07-15T05:30:00Z</time>
					</trkpt>
					<trkpt lat="47.162330" lon="-0.188380">
						<ele>61</ele>
						<time>2022-07-15T05:30:02Z</time>
					</trkpt>
					<trkpt lat="47.162300" lon="-0.188380">
						<ele>60</ele>
						<time>2022-07-15T05:30:04Z</time>
					</trkpt>
					<trkpt lat="47.162270" lon="-0.188370">
						<ele>60</ele>
						<time>2022-07-15T05:30:06Z</time>
					</trkpt>
					<trkpt lat="47.162240" lon="-0.188370">
						<ele>60</ele>
						<time>2022-07-15T05:30:08Z</time>
					</trkpt>
					<trkpt lat="47.162210" lon="-0.188350">
						<ele>60</ele>
						<time>2022-07-15T05:30:10Z</time>
					</trkpt>
					<trkpt lat="47.162180" lon="-0.188340">
						<ele>60</ele>
						<time>2022-07-15T05:30:12Z</time>
					</trkpt>
					<trkpt lat="47.162160" lon="-0.188310">
						<ele>59</ele>
						<time>2022-07-15T05:30:17Z</time>
					</trkpt>
					<trkpt lat="47.162130" lon="-0.188300">
						<ele>58</ele>
						<time>2022-07-15T05:30:20Z</time>
					</trkpt>
					<trkpt lat="47.162110" lon="-0.188290">
						<ele>57</ele>
						<time>2022-07-15T05:30:22Z</time>
					</trkpt>
					<trkpt lat="47.162070" lon="-0.188290">
						<ele>58</ele>
						<time>2022-07-15T05:30:25Z</time>
					</trkpt>
					<trkpt lat="47.162040" lon="-0.188290">
						<ele>58</ele>
						<time>2022-07-15T05:30:28Z</time>
					</trkpt>
					<trkpt lat="47.162000" lon="-0.188290">
						<ele>58</ele>
						<time>2022-07-15T05:30:30Z</time>
					</trkpt>
					<trkpt lat="47.161960" lon="-0.188290">
						<ele>57</ele>
						<time>2022-07-15T05:30:32Z</time>
					</trkpt>
					<trkpt lat="47.161930" lon="-0.188300">
						<ele>56</ele>
						<time>2022-07-15T05:30:34Z</time>
					</trkpt>
					<trkpt lat="47.161900" lon="-0.188300">
						<ele>55</ele>
						<time>2022-07-15T05:30:36Z</time>
					</trkpt>
					<trkpt lat="47.161860" lon="-0.188310">
						<ele>55</ele>
						<time>2022-07-15T05:30:38Z</time>
					</trkpt>
					<trkpt lat="47.161830" lon="-0.188320">
						<ele>54</ele>
						<time>2022-07-15T05:30:40Z</time>
					</trkpt>
					<trkpt lat="47.161800" lon="-0.188330">
						<ele>54</ele>
						<time>2022-07-15T05:30:43Z</time>
					</trkpt>
					<trkpt lat="47.161770" lon="-0.188340">
						<ele>54</ele>
						<time>2022-07-15T05:30:45Z</time>
					</trkpt>
					<trkpt lat="47.161730" lon="-0.188350">
						<ele>54</ele>
						<time>2022-07-15T05:30:47Z</time>
					</trkpt>
					<trkpt lat="47.161690" lon="-0.188360">
						<ele>55</ele>
						<time>2022-07-15T05:30:49Z</time>
					</trkpt>
					<trkpt lat="47.161650" lon="-0.188370">
						<ele>55</ele>
						<time>2022-07-15T05:30:51Z</time>
					</trkpt>
					<trkpt lat="47.161620" lon="-0.188370">
						<ele>56</ele>
						<time>2022-07-15T05:30:53Z</time>
					</trkpt>
					<trkpt lat="47.161580" lon="-0.188380">
						<ele>57</ele>
						<time>2022-07-15T05:30:56Z</time>
					</trkpt>
					<trkpt lat="47.161550" lon="-0.188390">
						<ele>57</ele>
						<time>2022-07-15T05:30:59Z</time>
					</trkpt>
					<trkpt lat="47.161510" lon="-0.188400">
						<ele>56</ele>
						<time>2022-07-15T05:31:02Z</time>
					</trkpt>
					<trkpt lat="47.161480" lon="-0.188410">
						<ele>56</ele>
						<time>2022-07-15T05:31:04Z</time>
					</trkpt>
					<trkpt lat="47.161450" lon="-0.188420">
						<ele>56</ele>
						<time>2022-07-15T05:31:07Z</time>
					</trkpt>
					<trkpt lat="47.161420" lon="-0.188430">
						<ele>55</ele>
						<time>2022-07-15T05:31:09Z</time>
					</trkpt>
					<trkpt lat="47.161380" lon="-0.188430">
						<ele>55</ele>
						<time>2022-07-15T05:31:11Z</time>
					</trkpt>
					<trkpt lat="47.161350" lon="-0.188430">
						<ele>54</ele>
						<time>2022-07-15T05:31:13Z</time>
					</trkpt>
					<trkpt lat="47.161320" lon="-0.188440">
						<ele>53</ele>
						<time>2022-07-15T05:31:16Z</time>
					</trkpt>
					<trkpt lat="47.161290" lon="-0.188430">
						<ele>53</ele>
						<time>2022-07-15T05:31:18Z</time>
					</trkpt>
					<trkpt lat="47.161250" lon="-0.188430">
						<ele>53</ele>
						<time>2022-07-15T05:31:20Z</time>
					</trkpt>
					<trkpt lat="47.161220" lon="-0.188420">
						<ele>54</ele>
						<time>2022-07-15T05:31:22Z</time>
					</trkpt>
					<trkpt lat="47.161190" lon="-0.188420">
						<ele>55</ele>
						<time>2022-07-15T05:31:25Z</time>
					</trkpt>
					<trkpt lat="47.161160" lon="-0.188430">
						<ele>57</ele>
						<time>2022-07-15T05:31:27Z</time>
					</trkpt>
					<trkpt lat="47.161130" lon="-0.188430">
						<ele>58</ele>
						<time>2022-07-15T05:31:29Z</time>
					</trkpt>
					<trkpt lat="47.161100" lon="-0.188450">
						<ele>58</ele>
						<time>2022-07-15T05:31:32Z</time>
					</trkpt>
					<trkpt lat="47.161070" lon="-0.188460">
						<ele>58</ele>
						<time>2022-07-15T05:31:34Z</time>
					</trkpt>
					<trkpt lat="47.161050" lon="-0.188470">
						<ele>58</ele>
						<time>2022-07-15T05:31:36Z</time>
					</trkpt>
					<trkpt lat="47.161020" lon="-0.188470">
						<ele>57</ele>
						<time>2022-07-15T05:31:38Z</time>
					</trkpt>
					<trkpt lat="47.160990" lon="-0.188470">
						<ele>57</ele>
						<time>2022-07-15T05:31:40Z</time>
					</trkpt>
					<trkpt lat="47.160960" lon="-0.188470">
						<ele>57</ele>
						<time>2022-07-15T05:31:42Z</time>
					</trkpt>
					<trkpt lat="47.160930" lon="-0.188470">
						<ele>56</ele>
						<time>2022-07-15T05:31:44Z</time>
					</trkpt>
					<trkpt lat="47.160900" lon="-0.188470">
						<ele>57</ele>
						<time>2022-07-15T05:31:47Z</time>
					</trkpt>
					<trkpt lat="47.160860" lon="-0.188470">
						<ele>57</ele>
						<time>2022-07-15T05:31:49Z</time>
					</trkpt>
					<trkpt lat="47.160830" lon="-0.188470">
						<ele>57</ele>
						<time>2022-07-15T05:31:51Z</time>
					</trkpt>
					<trkpt lat="47.160800" lon="-0.188470">
						<ele>57</ele>
						<time>2022-07-15T05:31:53Z</time>
					</trkpt>
					<trkpt lat="47.160770" lon="-0.188480">
						<ele>56</ele>
						<time>2022-07-15T05:31:55Z</time>
					</trkpt>
					<trkpt lat="47.160740" lon="-0.188490">
						<ele>56</ele>
						<time>2022-07-15T05:31:58Z</time>
					</trkpt>
					<trkpt lat="47.160710" lon="-0.188500">
						<ele>56</ele>
						<time>2022-07-15T05:32:00Z</time>
					</trkpt>
					<trkpt lat="47.160680" lon="-0.188500">
						<ele>56</ele>
						<time>2022-07-15T05:32:02Z</time>
					</trkpt>
					<trkpt lat="47.160650" lon="-0.188510">
						<ele>57</ele>
						<time>2022-07-15T05:32:04Z</time>
					</trkpt>
					<trkpt lat="47.160620" lon="-0.188510">
						<ele>57</ele>
						<time>2022-07-15T05:32:06Z</time>
					</trkpt>
					<trkpt lat="47.160590" lon="-0.188500">
						<ele>57</ele>
						<time>2022-07-15T05:32:08Z</time>
					</trkpt>
					<trkpt lat="47.160560" lon="-0.188510">
						<ele>57</ele>
						<time>2022-07-15T05:32:10Z</time>
					</trkpt>
					<trkpt lat="47.160530" lon="-0.188500">
						<ele>57</ele>
						<time>2022-07-15T05:32:12Z</time>
					</trkpt>
					<trkpt lat="47.160500" lon="-0.188500">
						<ele>57</ele>
						<time>2022-07-15T05:32:14Z</time>
					</trkpt>
					<trkpt lat="47.160470" lon="-0.188500">
						<ele>56</ele>
						<time>2022-07-15T05:32:16Z</time>
					</trkpt>
					<trkpt lat="47.160440" lon="-0.188510">
						<ele>56</ele>
						<time>2022-07-15T05:32:18Z</time>
					</trkpt>
					<trkpt lat="47.160410" lon="-0.188510">
						<ele>56</ele>
						<time>2022-07-15T05:32:20Z</time>
					</trkpt>
					<trkpt lat="47.160380" lon="-0.188510">
						<ele>56</ele>
						<time>2022-07-15T05:32:22Z</time>
					</trkpt>
					<trkpt lat="47.160350" lon="-0.188520">
						<ele>56</ele>
						<time>2022-07-15T05:32:24Z</time>
					</trkpt>
					<trkpt lat="47.160320" lon="-0.188520">
						<ele>55</ele>
						<time>2022-07-15T05:32:27Z</time>
					</trkpt>
					<trkpt lat="47.160290" lon="-0.188520">
						<ele>55</ele>
						<time>2022-07-15T05:32:29Z</time>
					</trkpt>
					<trkpt lat="47.160260" lon="-0.188530">
						<ele>54</ele>
						<time>2022-07-15T05:32:31Z</time>
					</trkpt>
					<trkpt lat="47.160230" lon="-0.188530">
						<ele>54</ele>
						<time>2022-07-15T05:32:33Z</time>
					</trkpt>
					<trkpt lat="47.160200" lon="-0.188530">
						<ele>54</ele>
						<time>2022-07-15T05:32:35Z</time>
					</trkpt>
					<trkpt lat="47.160170" lon="-0.188530">
						<ele>54</ele>
						<time>2022-07-15T05:32:37Z</time>
					</trkpt>
					<trkpt lat="47.160140" lon="-0.188540">
						<ele>55</ele>
						<time>2022-07-15T05:32:39Z</time>
					</trkpt>
					<trkpt lat="47.160110" lon="-0.188540">
						<ele>55</ele>
						<time>2022-07-15T05:32:42Z</time>
					</trkpt>
					<trkpt lat="47.160070" lon="-0.188550">
						<ele>56</ele>
						<time>2022-07-15T05:32:45Z</time>
					</trkpt>
					<trkpt lat="47.160040" lon="-0.188550">
						<ele>56</ele>
						<time>2022-07-15T05:32:47Z</time>
					</trkpt>
					<trkpt lat="47.160000" lon="-0.188560">
						<ele>56</ele>
						<time>2022-07-15T05:32:50Z</time>
					</trkpt>
					<trkpt lat="47.159960" lon="-0.188560">
						<ele>56</ele>
						<time>2022-07-15T05:32:53Z</time>
					</trkpt>
					<trkpt lat="47.159920" lon="-0.188560">
						<ele>56</ele>
						<time>2022-07-15T05:32:55Z</time>
					</trkpt>
					<trkpt lat="47.159880" lon="-0.188560">
						<ele>56</ele>
						<time>2022-07-15T05:32:57Z</time>
					</trkpt>
					<trkpt lat="47.159840" lon="-0.188560">
						<ele>56</ele>
						<time>2022-07-15T05:32:59Z</time>
					</trkpt>
					<trkpt lat="47.159790" lon="-0.188570">
						<ele>55</ele>
						<time>2022-07-15T05:33:01Z</time>
					</trkpt>
					<trkpt lat="47.159750" lon="-0.188580">
						<ele>55</ele>
						<time>2022-07-15T05:33:03Z</time>
					</trkpt>
					<trkpt lat="47.159710" lon="-0.188580">
						<ele>55</ele>
						<time>2022-07-15T05:33:05Z</time>
					</trkpt>
					<trkpt lat="47.159670" lon="-0.188580">
						<ele>55</ele>
						<time>2022-07-15T05:33:07Z</time>
					</trkpt>
					<trkpt lat="47.159620" lon="-0.188580">
						<ele>54</ele>
						<time>2022-07-15T05:33:09Z</time>
					</trkpt>
					<trkpt lat="47.159580" lon="-0.188600">
						<ele>55</ele>
						<time>2022-07-15T05:33:11Z</time>
					</trkpt>
					<trkpt lat="47.159540" lon="-0.188610">
						<ele>54</ele>
						<time>2022-07-15T05:33:13Z</time>
					</trkpt>
					<trkpt lat="47.159490" lon="-0.188620">
						<ele>54</ele>
						<time>2022-07-15T05:33:15Z</time>
					</trkpt>
					<trkpt lat="47.159450" lon="-0.188620">
						<ele>54</ele>
						<time>2022-07-15T05:33:17Z</time>
					</trkpt>
					<trkpt lat="47.159400" lon="-0.188620">
						<ele>54</ele>
						<time>2022-07-15T05:33:19Z</time>
					</trkpt>
					<trkpt lat="47.159360" lon="-0.188630">
						<ele>54</ele>
						<time>2022-07-15T05:33:21Z</time>
					</trkpt>
					<trkpt lat="47.159310" lon="-0.188630">
						<ele>54</ele>
						<time>2022-07-15T05:33:23Z</time>
					</trkpt>
					<trkpt lat="47.159270" lon="-0.188630">
						<ele>54</ele>
						<time>2022-07-15T05:33:25Z</time>
					</trkpt>
					<trkpt lat="47.159220" lon="-0.188620">
						<ele>54</ele>
						<time>2022-07-15T05:33:27Z</time>
					</trkpt>
					<trkpt lat="47.159180" lon="-0.188630">
						<ele>53</ele>
						<time>2022-07-15T05:33:29Z</time>
					</trkpt>
					<trkpt lat="47.159140" lon="-0.188640">
						<ele>54</ele>
						<time>2022-07-15T05:33:31Z</time>
					</trkpt>
					<trkpt lat="47.159100" lon="-0.188650">
						<ele>54</ele>
						<time>2022-07-15T05:33:32Z</time>
					</trkpt>
					<trkpt lat="47.159060" lon="-0.188650">
						<ele>55</ele>
						<time>2022-07-15T05:33:34Z</time>
					</trkpt>
					<trkpt lat="47.159030" lon="-0.188660">
						<ele>55</ele>
						<time>2022-07-15T05:33:35Z</time>
					</trkpt>
					<trkpt lat="47.158990" lon="-0.188670">
						<ele>54</ele>
						<time>2022-07-15T05:33:37Z</time>
					</trkpt>
					<trkpt lat="47.158950" lon="-0.188680">
						<ele>53</ele>
						<time>2022-07-15T05:33:39Z</time>
					</trkpt>
					<trkpt lat="47.158910" lon="-0.188680">
						<ele>53</ele>
						<time>2022-07-15T05:33:40Z</time>
					</trkpt>
					<trkpt lat="47.158870" lon="-0.188690">
						<ele>53</ele>
						<time>2022-07-15T05:33:42Z</time>
					</trkpt>
					<trkpt lat="47.158830" lon="-0.188700">
						<ele>53</ele>
						<time>2022-07-15T05:33:44Z</time>
					</trkpt>
					<trkpt lat="47.158790" lon="-0.188710">
						<ele>53</ele>
						<time>2022-07-15T05:33:46Z</time>
					</trkpt>
					<trkpt lat="47.158750" lon="-0.188720">
						<ele>54</ele>
						<time>2022-07-15T05:33:48Z</time>
					</trkpt>
					<trkpt lat="47.158710" lon="-0.188720">
						<ele>54</ele>
						<time>2022-07-15T05:33:50Z</time>
					</trkpt>
					<trkpt lat="47.158660" lon="-0.188730">
						<ele>54</ele>
						<time>2022-07-15T05:33:52Z</time>
					</trkpt>
					<trkpt lat="47.158600" lon="-0.188740">
						<ele>54</ele>
						<time>2022-07-15T05:33:55Z</time>
					</trkpt>
					<trkpt lat="47.158550" lon="-0.188750">
						<ele>54</ele>
						<time>2022-07-15T05:33:57Z</time>
					</trkpt>
					<trkpt lat="47.158510" lon="-0.188760">
						<ele>53</ele>
						<time>2022-07-15T05:33:59Z</time>
					</trkpt>
					<trkpt lat="47.158460" lon="-0.188780">
						<ele>53</ele>
						<time>2022-07-15T05:34:01Z</time>
					</trkpt>
					<trkpt lat="47.158420" lon="-0.188800">
						<ele>53</ele>
						<time>2022-07-15T05:34:03Z</time>
					</trkpt>
					<trkpt lat="47.158380" lon="-0.188810">
						<ele>53</ele>
						<time>2022-07-15T05:34:05Z</time>
					</trkpt>
					<trkpt lat="47.158340" lon="-0.188820">
						<ele>54</ele>
						<time>2022-07-15T05:34:07Z</time>
					</trkpt>
					<trkpt lat="47.158300" lon="-0.188830">
						<ele>54</ele>
						<time>2022-07-15T05:34:09Z</time>
					</trkpt>
					<trkpt lat="47.158260" lon="-0.188830">
						<ele>54</ele>
						<time>2022-07-15T05:34:11Z</time>
					</trkpt>
					<trkpt lat="47.158220" lon="-0.188850">
						<ele>54</ele>
						<time>2022-07-15T05:34:13Z</time>
					</trkpt>
					<trkpt lat="47.158190" lon="-0.188850">
						<ele>54</ele>
						<time>2022-07-15T05:34:15Z</time>
					</trkpt>
					<trkpt lat="47.158150" lon="-0.188870">
						<ele>54</ele>
						<time>2022-07-15T05:34:17Z</time>
					</trkpt>
					<trkpt lat="47.158110" lon="-0.188880">
						<ele>53</ele>
						<time>2022-07-15T05:34:19Z</time>
					</trkpt>
					<trkpt lat="47.158070" lon="-0.188880">
						<ele>52</ele>
						<time>2022-07-15T05:34:21Z</time>
					</trkpt>
					<trkpt lat="47.158030" lon="-0.188890">
						<ele>52</ele>
						<time>2022-07-15T05:34:23Z</time>
					</trkpt>
					<trkpt lat="47.158000" lon="-0.188890">
						<ele>52</ele>
						<time>2022-07-15T05:34:25Z</time>
					</trkpt>
					<trkpt lat="47.157960" lon="-0.188900">
						<ele>52</ele>
						<time>2022-07-15T05:34:27Z</time>
					</trkpt>
					<trkpt lat="47.157930" lon="-0.188900">
						<ele>51</ele>
						<time>2022-07-15T05:34:29Z</time>
					</trkpt>
					<trkpt lat="47.157900" lon="-0.188910">
						<ele>51</ele>
						<time>2022-07-15T05:34:31Z</time>
					</trkpt>
					<trkpt lat="47.157860" lon="-0.188920">
						<ele>51</ele>
						<time>2022-07-15T05:34:33Z</time>
					</trkpt>
					<trkpt lat="47.157830" lon="-0.188940">
						<ele>51</ele>
						<time>2022-07-15T05:34:35Z</time>
					</trkpt>
					<trkpt lat="47.157780" lon="-0.188950">
						<ele>51</ele>
						<time>2022-07-15T05:34:37Z</time>
					</trkpt>
					<trkpt lat="47.157740" lon="-0.188980">
						<ele>51</ele>
						<time>2022-07-15T05:34:39Z</time>
					</trkpt>
					<trkpt lat="47.157720" lon="-0.189020">
						<ele>50</ele>
						<time>2022-07-15T05:34:42Z</time>
					</trkpt>
					<trkpt lat="47.157710" lon="-0.189070">
						<ele>50</ele>
						<time>2022-07-15T05:34:44Z</time>
					</trkpt>
					<trkpt lat="47.157720" lon="-0.189120">
						<ele>49</ele>
						<time>2022-07-15T05:34:46Z</time>
					</trkpt>
					<trkpt lat="47.157720" lon="-0.189170">
						<ele>50</ele>
						<time>2022-07-15T05:34:48Z</time>
					</trkpt>
					<trkpt lat="47.157740" lon="-0.189230">
						<ele>50</ele>
						<time>2022-07-15T05:34:50Z</time>
					</trkpt>
					<trkpt lat="47.157750" lon="-0.189280">
						<ele>50</ele>
						<time>2022-07-15T05:34:52Z</time>
					</trkpt>
					<trkpt lat="47.157760" lon="-0.189320">
						<ele>50</ele>
						<time>2022-07-15T05:34:54Z</time>
					</trkpt>
					<trkpt lat="47.157770" lon="-0.189360">
						<ele>50</ele>
						<time>2022-07-15T05:34:56Z</time>
					</trkpt>
					<trkpt lat="47.157780" lon="-0.189400">
						<ele>51</ele>
						<time>2022-07-15T05:34:58Z</time>
					</trkpt>
					<trkpt lat="47.157790" lon="-0.189450">
						<ele>51</ele>
						<time>2022-07-15T05:35:00Z</time>
					</trkpt>
					<trkpt lat="47.157800" lon="-0.189490">
						<ele>51</ele>
						<time>2022-07-15T05:35:02Z</time>
					</trkpt>
					<trkpt lat="47.157820" lon="-0.189530">
						<ele>51</ele>
						<time>2022-07-15T05:35:04Z</time>
					</trkpt>
					<trkpt lat="47.157830" lon="-0.189570">
						<ele>51</ele>
						<time>2022-07-15T05:35:06Z</time>
					</trkpt>
					<trkpt lat="47.157850" lon="-0.189610">
						<ele>52</ele>
						<time>2022-07-15T05:35:08Z</time>
					</trkpt>
					<trkpt lat="47.157860" lon="-0.189650">
						<ele>52</ele>
						<time>2022-07-15T05:35:10Z</time>
					</trkpt>
					<trkpt lat="47.157880" lon="-0.189690">
						<ele>52</ele>
						<time>2022-07-15T05:35:13Z</time>
					</trkpt>
					<trkpt lat="47.157900" lon="-0.189730">
						<ele>53</ele>
						<time>2022-07-15T05:35:15Z</time>
					</trkpt>
					<trkpt lat="47.157920" lon="-0.189770">
						<ele>53</ele>
						<time>2022-07-15T05:35:18Z</time>
					</trkpt>
					<trkpt lat="47.157940" lon="-0.189810">
						<ele>53</ele>
						<time>2022-07-15T05:35:20Z</time>
					</trkpt>
					<trkpt lat="47.157960" lon="-0.189850">
						<ele>54</ele>
						<time>2022-07-15T05:35:22Z</time>
					</trkpt>
					<trkpt lat="47.157990" lon="-0.189890">
						<ele>54</ele>
						<time>2022-07-15T05:35:24Z</time>
					</trkpt>
					<trkpt lat="47.158020" lon="-0.189940">
						<ele>54</ele>
						<time>2022-07-15T05:35:26Z</time>
					</trkpt>
					<trkpt lat="47.158040" lon="-0.189980">
						<ele>55</ele>
						<time>2022-07-15T05:35:28Z</time>
					</trkpt>
					<trkpt lat="47.158060" lon="-0.190030">
						<ele>55</ele>
						<time>2022-07-15T05:35:30Z</time>
					</trkpt>
					<trkpt lat="47.158090" lon="-0.190060">
						<ele>55</ele>
						<time>2022-07-15T05:35:32Z</time>
					</trkpt>
					<trkpt lat="47.158120" lon="-0.190110">
						<ele>56</ele>
						<time>2022-07-15T05:35:34Z</time>
					</trkpt>
					<trkpt lat="47.158150" lon="-0.190160">
						<ele>56</ele>
						<time>2022-07-15T05:35:36Z</time>
					</trkpt>
					<trkpt lat="47.158180" lon="-0.190210">
						<ele>56</ele>
						<time>2022-07-15T05:35:38Z</time>
					</trkpt>
					<trkpt lat="47.158200" lon="-0.190270">
						<ele>57</ele>
						<time>2022-07-15T05:35:40Z</time>
					</trkpt>
					<trkpt lat="47.158240" lon="-0.190320">
						<ele>57</ele>
						<time>2022-07-15T05:35:42Z</time>
					</trkpt>
					<trkpt lat="47.158270" lon="-0.190380">
						<ele>57</ele>
						<time>2022-07-15T05:35:44Z</time>
					</trkpt>
					<trkpt lat="47.158290" lon="-0.190430">
						<ele>56</ele>
						<time>2022-07-15T05:35:46Z</time>
					</trkpt>
					<trkpt lat="47.158320" lon="-0.190480">
						<ele>56</ele>
						<time>2022-07-15T05:35:48Z</time>
					</trkpt>
					<trkpt lat="47.158350" lon="-0.190530">
						<ele>56</ele>
						<time>2022-07-15T05:35:50Z</time>
					</trkpt>
					<trkpt lat="47.158380" lon="-0.190580">
						<ele>57</ele>
						<time>2022-07-15T05:35:52Z</time>
					</trkpt>
					<trkpt lat="47.158400" lon="-0.190630">
						<ele>57</ele>
						<time>2022-07-15T05:35:54Z</time>
					</trkpt>
					<trkpt lat="47.158430" lon="-0.190680">
						<ele>58</ele>
						<time>2022-07-15T05:35:56Z</time>
					</trkpt>
					<trkpt lat="47.158460" lon="-0.190730">
						<ele>58</ele>
						<time>2022-07-15T05:35:58Z</time>
					</trkpt>
					<trkpt lat="47.158490" lon="-0.190780">
						<ele>59</ele>
						<time>2022-07-15T05:36:00Z</time>
					</trkpt>
					<trkpt lat="47.158520" lon="-0.190830">
						<ele>59</ele>
						<time>2022-07-15T05:36:02Z</time>
					</trkpt>
					<trkpt lat="47.158550" lon="-0.190890">
						<ele>60</ele>
						<time>2022-07-15T05:36:04Z</time>
					</trkpt>
					<trkpt lat="47.158580" lon="-0.190940">
						<ele>60</ele>
						<time>2022-07-15T05:36:06Z</time>
					</trkpt>
					<trkpt lat="47.158600" lon="-0.190990">
						<ele>60</ele>
						<time>2022-07-15T05:36:08Z</time>
					</trkpt>
					<trkpt lat="47.158620" lon="-0.191030">
						<ele>60</ele>
						<time>2022-07-15T05:36:10Z</time>
					</trkpt>
					<trkpt lat="47.158660" lon="-0.191080">
						<ele>60</ele>
						<time>2022-07-15T05:36:12Z</time>
					</trkpt>
					<trkpt lat="47.158690" lon="-0.191130">
						<ele>61</ele>
						<time>2022-07-15T05:36:14Z</time>
					</trkpt>
					<trkpt lat="47.158720" lon="-0.191190">
						<ele>61</ele>
						<time>2022-07-15T05:36:16Z</time>
					</trkpt>
					<trkpt lat="47.158740" lon="-0.191240">
						<ele>60</ele>
						<time>2022-07-15T05:36:18Z</time>
					</trkpt>
					<trkpt lat="47.158760" lon="-0.191290">
						<ele>59</ele>
						<time>2022-07-15T05:36:21Z</time>
					</trkpt>
					<trkpt lat="47.158770" lon="-0.191330">
						<ele>59</ele>
						<time>2022-07-15T05:36:23Z</time>
					</trkpt>
					<trkpt lat="47.158780" lon="-0.191370">
						<ele>59</ele>
						<time>2022-07-15T05:36:25Z</time>
					</trkpt>
					<trkpt lat="47.158790" lon="-0.191420">
						<ele>59</ele>
						<time>2022-07-15T05:36:27Z</time>
					</trkpt>
					<trkpt lat="47.158800" lon="-0.191460">
						<ele>59</ele>
						<time>2022-07-15T05:36:29Z</time>
					</trkpt>
					<trkpt lat="47.158810" lon="-0.191500">
						<ele>59</ele>
						<time>2022-07-15T05:36:31Z</time>
					</trkpt>
					<trkpt lat="47.158830" lon="-0.191550">
						<ele>57</ele>
						<time>2022-07-15T05:36:34Z</time>
					</trkpt>
					<trkpt lat="47.158830" lon="-0.191600">
						<ele>57</ele>
						<time>2022-07-15T05:36:36Z</time>
					</trkpt>
					<trkpt lat="47.158830" lon="-0.191640">
						<ele>57</ele>
						<time>2022-07-15T05:36:38Z</time>
					</trkpt>
					<trkpt lat="47.158830" lon="-0.191690">
						<ele>57</ele>
						<time>2022-07-15T05:36:41Z</time>
					</trkpt>
					<trkpt lat="47.158820" lon="-0.191730">
						<ele>57</ele>
						<time>2022-07-15T05:36:43Z</time>
					</trkpt>
					<trkpt lat="47.158810" lon="-0.191770">
						<ele>57</ele>
						<time>2022-07-15T05:36:45Z</time>
					</trkpt>
					<trkpt lat="47.158790" lon="-0.191810">
						<ele>56</ele>
						<time>2022-07-15T05:36:48Z</time>
					</trkpt>
					<trkpt lat="47.158780" lon="-0.191850">
						<ele>56</ele>
						<time>2022-07-15T05:36:51Z</time>
					</trkpt>
					<trkpt lat="47.158760" lon="-0.191890">
						<ele>56</ele>
						<time>2022-07-15T05:36:54Z</time>
					</trkpt>
					<trkpt lat="47.158740" lon="-0.191920">
						<ele>57</ele>
						<time>2022-07-15T05:36:57Z</time>
					</trkpt>
					<trkpt lat="47.158720" lon="-0.191950">
						<ele>57</ele>
						<time>2022-07-15T05:36:59Z</time>
					</trkpt>
					<trkpt lat="47.158700" lon="-0.191990">
						<ele>57</ele>
						<time>2022-07-15T05:37:02Z</time>
					</trkpt>
					<trkpt lat="47.158670" lon="-0.192020">
						<ele>57</ele>
						<time>2022-07-15T05:37:04Z</time>
					</trkpt>
					<trkpt lat="47.158650" lon="-0.192050">
						<ele>57</ele>
						<time>2022-07-15T05:37:06Z</time>
					</trkpt>
					<trkpt lat="47.158620" lon="-0.192080">
						<ele>58</ele>
						<time>2022-07-15T05:37:08Z</time>
					</trkpt>
					<trkpt lat="47.158590" lon="-0.192110">
						<ele>58</ele>
						<time>2022-07-15T05:37:10Z</time>
					</trkpt>
					<trkpt lat="47.158570" lon="-0.192130">
						<ele>58</ele>
						<time>2022-07-15T05:37:12Z</time>
					</trkpt>
					<trkpt lat="47.158550" lon="-0.192160">
						<ele>59</ele>
						<time>2022-07-15T05:37:14Z</time>
					</trkpt>
					<trkpt lat="47.158520" lon="-0.192190">
						<ele>59</ele>
						<time>2022-07-15T05:37:16Z</time>
					</trkpt>
					<trkpt lat="47.158500" lon="-0.192220">
						<ele>59</ele>
						<time>2022-07-15T05:37:18Z</time>
					</trkpt>
					<trkpt lat="47.158480" lon="-0.192260">
						<ele>59</ele>
						<time>2022-07-15T05:37:21Z</time>
					</trkpt>
					<trkpt lat="47.158460" lon="-0.192290">
						<ele>59</ele>
						<time>2022-07-15T05:37:23Z</time>
					</trkpt>
					<trkpt lat="47.158430" lon="-0.192320">
						<ele>59</ele>
						<time>2022-07-15T05:37:25Z</time>
					</trkpt>
					<trkpt lat="47.158410" lon="-0.192350">
						<ele>59</ele>
						<time>2022-07-15T05:37:27Z</time>
					</trkpt>
					<trkpt lat="47.158380" lon="-0.192380">
						<ele>58</ele>
						<time>2022-07-15T05:37:30Z</time>
					</trkpt>
					<trkpt lat="47.158350" lon="-0.192410">
						<ele>57</ele>
						<time>2022-07-15T05:37:33Z</time>
					</trkpt>
					<trkpt lat="47.158320" lon="-0.192430">
						<ele>57</ele>
						<time>2022-07-15T05:37:36Z</time>
					</trkpt>
					<trkpt lat="47.158290" lon="-0.192460">
						<ele>57</ele>
						<time>2022-07-15T05:37:39Z</time>
					</trkpt>
					<trkpt lat="47.158260" lon="-0.192500">
						<ele>56</ele>
						<time>2022-07-15T05:37:42Z</time>
					</trkpt>
					<trkpt lat="47.158240" lon="-0.192530">
						<ele>56</ele>
						<time>2022-07-15T05:37:44Z</time>
					</trkpt>
					<trkpt lat="47.158210" lon="-0.192560">
						<ele>56</ele>
						<time>2022-07-15T05:37:47Z</time>
					</trkpt>
					<trkpt lat="47.158180" lon="-0.192580">
						<ele>56</ele>
						<time>2022-07-15T05:37:49Z</time>
					</trkpt>
					<trkpt lat="47.158150" lon="-0.192600">
						<ele>56</ele>
						<time>2022-07-15T05:37:51Z</time>
					</trkpt>
					<trkpt lat="47.158120" lon="-0.192610">
						<ele>56</ele>
						<time>2022-07-15T05:37:53Z</time>
					</trkpt>
					<trkpt lat="47.158090" lon="-0.192620">
						<ele>56</ele>
						<time>2022-07-15T05:37:56Z</time>
					</trkpt>
					<trkpt lat="47.158060" lon="-0.192640">
						<ele>56</ele>
						<time>2022-07-15T05:37:59Z</time>
					</trkpt>
					<trkpt lat="47.158030" lon="-0.192660">
						<ele>56</ele>
						<time>2022-07-15T05:38:02Z</time>
					</trkpt>
					<trkpt lat="47.158000" lon="-0.192680">
						<ele>56</ele>
						<time>2022-07-15T05:38:04Z</time>
					</trkpt>
					<trkpt lat="47.157970" lon="-0.192710">
						<ele>56</ele>
						<time>2022-07-15T05:38:06Z</time>
					</trkpt>
					<trkpt lat="47.157940" lon="-0.192720">
						<ele>57</ele>
						<time>2022-07-15T05:38:08Z</time>
					</trkpt>
					<trkpt lat="47.157910" lon="-0.192740">
						<ele>57</ele>
						<time>2022-07-15T05:38:10Z</time>
					</trkpt>
					<trkpt lat="47.157870" lon="-0.192750">
						<ele>56</ele>
						<time>2022-07-15T05:38:12Z</time>
					</trkpt>
					<trkpt lat="47.157840" lon="-0.192760">
						<ele>56</ele>
						<time>2022-07-15T05:38:14Z</time>
					</trkpt>
					<trkpt lat="47.157810" lon="-0.192780">
						<ele>56</ele>
						<time>2022-07-15T05:38:16Z</time>
					</trkpt>
					<trkpt lat="47.157780" lon="-0.192790">
						<ele>56</ele>
						<time>2022-07-15T05:38:18Z</time>
					</trkpt>
					<trkpt lat="47.157750" lon="-0.192810">
						<ele>56</ele>
						<time>2022-07-15T05:38:20Z</time>
					</trkpt>
					<trkpt lat="47.157720" lon="-0.192830">
						<ele>56</ele>
						<time>2022-07-15T05:38:22Z</time>
					</trkpt>
					<trkpt lat="47.157690" lon="-0.192840">
						<ele>56</ele>
						<time>2022-07-15T05:38:24Z</time>
					</trkpt>
					<trkpt lat="47.157660" lon="-0.192860">
						<ele>56</ele>
						<time>2022-07-15T05:38:26Z</time>
					</trkpt>
					<trkpt lat="47.157620" lon="-0.192880">
						<ele>55</ele>
						<time>2022-07-15T05:38:29Z</time>
					</trkpt>
					<trkpt lat="47.157590" lon="-0.192910">
						<ele>55</ele>
						<time>2022-07-15T05:38:32Z</time>
					</trkpt>
					<trkpt lat="47.157560" lon="-0.192930">
						<ele>55</ele>
						<time>2022-07-15T05:38:34Z</time>
					</trkpt>
					<trkpt lat="47.157540" lon="-0.192960">
						<ele>55</ele>
						<time>2022-07-15T05:38:37Z</time>
					</trkpt>
					<trkpt lat="47.157520" lon="-0.193000">
						<ele>54</ele>
						<time>2022-07-15T05:38:40Z</time>
					</trkpt>
					<trkpt lat="47.157520" lon="-0.193040">
						<ele>54</ele>
						<time>2022-07-15T05:38:43Z</time>
					</trkpt>
					<trkpt lat="47.157510" lon="-0.193080">
						<ele>53</ele>
						<time>2022-07-15T05:38:46Z</time>
					</trkpt>
					<trkpt lat="47.157490" lon="-0.193080">
						<ele>54</ele>
						<time>2022-07-15T05:38:53Z</time>
					</trkpt>
					<trkpt lat="47.157470" lon="-0.193050">
						<ele>54</ele>
						<time>2022-07-15T05:38:55Z</time>
					</trkpt>
					<trkpt lat="47.157460" lon="-0.193020">
						<ele>55</ele>
						<time>2022-07-15T05:38:57Z</time>
					</trkpt>
					<trkpt lat="47.157450" lon="-0.192990">
						<ele>55</ele>
						<time>2022-07-15T05:38:59Z</time>
					</trkpt>
					<trkpt lat="47.157430" lon="-0.192940">
						<ele>55</ele>
						<time>2022-07-15T05:39:02Z</time>
					</trkpt>
					<trkpt lat="47.157410" lon="-0.192900">
						<ele>55</ele>
						<time>2022-07-15T05:39:04Z</time>
					</trkpt>
					<trkpt lat="47.157390" lon="-0.192860">
						<ele>54</ele>
						<time>2022-07-15T05:39:06Z</time>
					</trkpt>
					<trkpt lat="47.157370" lon="-0.192820">
						<ele>54</ele>
						<time>2022-07-15T05:39:09Z</time>
					</trkpt>
					<trkpt lat="47.157350" lon="-0.192770">
						<ele>55</ele>
						<time>2022-07-15T05:39:12Z</time>
					</trkpt>
					<trkpt lat="47.157330" lon="-0.192720">
						<ele>55</ele>
						<time>2022-07-15T05:39:14Z</time>
					</trkpt>
					<trkpt lat="47.157310" lon="-0.192680">
						<ele>55</ele>
						<time>2022-07-15T05:39:16Z</time>
					</trkpt>
					<trkpt lat="47.157290" lon="-0.192640">
						<ele>55</ele>
						<time>2022-07-15T05:39:19Z</time>
					</trkpt>
					<trkpt lat="47.157280" lon="-0.192610">
						<ele>55</ele>
						<time>2022-07-15T05:39:22Z</time>
					</trkpt>
					<trkpt lat="47.157260" lon="-0.192560">
						<ele>55</ele>
						<time>2022-07-15T05:39:25Z</time>
					</trkpt>
					<trkpt lat="47.157240" lon="-0.192520">
						<ele>56</ele>
						<time>2022-07-15T05:39:27Z</time>
					</trkpt>
					<trkpt lat="47.157230" lon="-0.192480">
						<ele>56</ele>
						<time>2022-07-15T05:39:29Z</time>
					</trkpt>
					<trkpt lat="47.157210" lon="-0.192440">
						<ele>57</ele>
						<time>2022-07-15T05:39:32Z</time>
					</trkpt>
					<trkpt lat="47.157190" lon="-0.192400">
						<ele>56</ele>
						<time>2022-07-15T05:39:34Z</time>
					</trkpt>
					<trkpt lat="47.157180" lon="-0.192350">
						<ele>56</ele>
						<time>2022-07-15T05:39:36Z</time>
					</trkpt>
					<trkpt lat="47.157160" lon="-0.192310">
						<ele>56</ele>
						<time>2022-07-15T05:39:38Z</time>
					</trkpt>
					<trkpt lat="47.157150" lon="-0.192270">
						<ele>55</ele>
						<time>2022-07-15T05:39:41Z</time>
					</trkpt>
					<trkpt lat="47.157120" lon="-0.192220">
						<ele>55</ele>
						<time>2022-07-15T05:39:43Z</time>
					</trkpt>
					<trkpt lat="47.157100" lon="-0.192180">
						<ele>55</ele>
						<time>2022-07-15T05:39:45Z</time>
					</trkpt>
					<trkpt lat="47.157080" lon="-0.192140">
						<ele>54</ele>
						<time>2022-07-15T05:39:47Z</time>
					</trkpt>
					<trkpt lat="47.157060" lon="-0.192100">
						<ele>54</ele>
						<time>2022-07-15T05:39:50Z</time>
					</trkpt>
					<trkpt lat="47.157040" lon="-0.192070">
						<ele>53</ele>
						<time>2022-07-15T05:39:52Z</time>
					</trkpt>
					<trkpt lat="47.157010" lon="-0.192040">
						<ele>53</ele>
						<time>2022-07-15T05:39:54Z</time>
					</trkpt>
					<trkpt lat="47.156990" lon="-0.192000">
						<ele>53</ele>
						<time>2022-07-15T05:39:56Z</time>
					</trkpt>
					<trkpt lat="47.156960" lon="-0.191970">
						<ele>53</ele>
						<time>2022-07-15T05:39:58Z</time>
					</trkpt>
					<trkpt lat="47.156940" lon="-0.191930">
						<ele>54</ele>
						<time>2022-07-15T05:40:00Z</time>
					</trkpt>
					<trkpt lat="47.156930" lon="-0.191890">
						<ele>54</ele>
						<time>2022-07-15T05:40:03Z</time>
					</trkpt>
					<trkpt lat="47.156900" lon="-0.191860">
						<ele>53</ele>
						<time>2022-07-15T05:40:06Z</time>
					</trkpt>
					<trkpt lat="47.156880" lon="-0.191820">
						<ele>52</ele>
						<time>2022-07-15T05:40:08Z</time>
					</trkpt>
					<trkpt lat="47.156850" lon="-0.191790">
						<ele>51</ele>
						<time>2022-07-15T05:40:10Z</time>
					</trkpt>
					<trkpt lat="47.156840" lon="-0.191750">
						<ele>50</ele>
						<time>2022-07-15T05:40:12Z</time>
					</trkpt>
					<trkpt lat="47.156830" lon="-0.191710">
						<ele>50</ele>
						<time>2022-07-15T05:40:14Z</time>
					</trkpt>
					<trkpt lat="47.156820" lon="-0.191660">
						<ele>49</ele>
						<time>2022-07-15T05:40:16Z</time>
					</trkpt>
					<trkpt lat="47.156800" lon="-0.191620">
						<ele>49</ele>
						<time>2022-07-15T05:40:18Z</time>
					</trkpt>
					<trkpt lat="47.156790" lon="-0.191580">
						<ele>50</ele>
						<time>2022-07-15T05:40:21Z</time>
					</trkpt>
					<trkpt lat="47.156780" lon="-0.191540">
						<ele>51</ele>
						<time>2022-07-15T05:40:23Z</time>
					</trkpt>
					<trkpt lat="47.156760" lon="-0.191500">
						<ele>51</ele>
						<time>2022-07-15T05:40:25Z</time>
					</trkpt>
					<trkpt lat="47.156750" lon="-0.191460">
						<ele>52</ele>
						<time>2022-07-15T05:40:27Z</time>
					</trkpt>
					<trkpt lat="47.156730" lon="-0.191420">
						<ele>52</ele>
						<time>2022-07-15T05:40:29Z</time>
					</trkpt>
					<trkpt lat="47.156710" lon="-0.191380">
						<ele>52</ele>
						<time>2022-07-15T05:40:31Z</time>
					</trkpt>
					<trkpt lat="47.156680" lon="-0.191340">
						<ele>52</ele>
						<time>2022-07-15T05:40:35Z</time>
					</trkpt>
					<trkpt lat="47.156660" lon="-0.191300">
						<ele>52</ele>
						<time>2022-07-15T05:40:38Z</time>
					</trkpt>
					<trkpt lat="47.156640" lon="-0.191260">
						<ele>52</ele>
						<time>2022-07-15T05:40:41Z</time>
					</trkpt>
					<trkpt lat="47.156610" lon="-0.191220">
						<ele>51</ele>
						<time>2022-07-15T05:40:44Z</time>
					</trkpt>
					<trkpt lat="47.156580" lon="-0.191190">
						<ele>50</ele>
						<time>2022-07-15T05:40:46Z</time>
					</trkpt>
					<trkpt lat="47.156560" lon="-0.191160">
						<ele>49</ele>
						<time>2022-07-15T05:40:48Z</time>
					</trkpt>
					<trkpt lat="47.156530" lon="-0.191120">
						<ele>48</ele>
						<time>2022-07-15T05:40:51Z</time>
					</trkpt>
					<trkpt lat="47.156510" lon="-0.191080">
						<ele>47</ele>
						<time>2022-07-15T05:40:53Z</time>
					</trkpt>
					<trkpt lat="47.156500" lon="-0.191050">
						<ele>47</ele>
						<time>2022-07-15T05:40:55Z</time>
					</trkpt>
					<trkpt lat="47.156480" lon="-0.191000">
						<ele>47</ele>
						<time>2022-07-15T05:40:58Z</time>
					</trkpt>
					<trkpt lat="47.156450" lon="-0.190950">
						<ele>47</ele>
						<time>2022-07-15T05:41:03Z</time>
					</trkpt>
					<trkpt lat="47.156430" lon="-0.190900">
						<ele>47</ele>
						<time>2022-07-15T05:41:06Z</time>
					</trkpt>
					<trkpt lat="47.156410" lon="-0.190870">
						<ele>47</ele>
						<time>2022-07-15T05:41:08Z</time>
					</trkpt>
					<trkpt lat="47.156390" lon="-0.190830">
						<ele>46</ele>
						<time>2022-07-15T05:41:10Z</time>
					</trkpt>
					<trkpt lat="47.156370" lon="-0.190790">
						<ele>46</ele>
						<time>2022-07-15T05:41:12Z</time>
					</trkpt>
					<trkpt lat="47.156350" lon="-0.190750">
						<ele>47</ele>
						<time>2022-07-15T05:41:14Z</time>
					</trkpt>
					<trkpt lat="47.156340" lon="-0.190700">
						<ele>47</ele>
						<time>2022-07-15T05:41:17Z</time>
					</trkpt>
					<trkpt lat="47.156320" lon="-0.190660">
						<ele>47</ele>
						<time>2022-07-15T05:41:19Z</time>
					</trkpt>
					<trkpt lat="47.156310" lon="-0.190620">
						<ele>47</ele>
						<time>2022-07-15T05:41:21Z</time>
					</trkpt>
					<trkpt lat="47.156290" lon="-0.190580">
						<ele>47</ele>
						<time>2022-07-15T05:41:23Z</time>
					</trkpt>
					<trkpt lat="47.156270" lon="-0.190540">
						<ele>47</ele>
						<time>2022-07-15T05:41:25Z</time>
					</trkpt>
					<trkpt lat="47.156250" lon="-0.190500">
						<ele>47</ele>
						<time>2022-07-15T05:41:27Z</time>
					</trkpt>
					<trkpt lat="47.156230" lon="-0.190460">
						<ele>47</ele>
						<time>2022-07-15T05:41:29Z</time>
					</trkpt>
					<trkpt lat="47.156210" lon="-0.190430">
						<ele>47</ele>
						<time>2022-07-15T05:41:31Z</time>
					</trkpt>
					<trkpt lat="47.156190" lon="-0.190390">
						<ele>46</ele>
						<time>2022-07-15T05:41:33Z</time>
					</trkpt>
					<trkpt lat="47.156170" lon="-0.190350">
						<ele>45</ele>
						<time>2022-07-15T05:41:37Z</time>
					</trkpt>
					<trkpt lat="47.156150" lon="-0.190310">
						<ele>45</ele>
						<time>2022-07-15T05:41:39Z</time>
					</trkpt>
					<trkpt lat="47.156130" lon="-0.190280">
						<ele>44</ele>
						<time>2022-07-15T05:41:41Z</time>
					</trkpt>
					<trkpt lat="47.156120" lon="-0.190230">
						<ele>44</ele>
						<time>2022-07-15T05:41:43Z</time>
					</trkpt>
					<trkpt lat="47.156100" lon="-0.190190">
						<ele>44</ele>
						<time>2022-07-15T05:41:45Z</time>
					</trkpt>
					<trkpt lat="47.156090" lon="-0.190150">
						<ele>44</ele>
						<time>2022-07-15T05:41:47Z</time>
					</trkpt>
					<trkpt lat="47.156080" lon="-0.190110">
						<ele>44</ele>
						<time>2022-07-15T05:41:49Z</time>
					</trkpt>
					<trkpt lat="47.156060" lon="-0.190060">
						<ele>44</ele>
						<time>2022-07-15T05:41:52Z</time>
					</trkpt>
					<trkpt lat="47.156050" lon="-0.190010">
						<ele>44</ele>
						<time>2022-07-15T05:41:54Z</time>
					</trkpt>
					<trkpt lat="47.156040" lon="-0.189960">
						<ele>45</ele>
						<time>2022-07-15T05:41:56Z</time>
					</trkpt>
					<trkpt lat="47.156020" lon="-0.189910">
						<ele>45</ele>
						<time>2022-07-15T05:41:58Z</time>
					</trkpt>
					<trkpt lat="47.156000" lon="-0.189850">
						<ele>45</ele>
						<time>2022-07-15T05:42:00Z</time>
					</trkpt>
					<trkpt lat="47.155990" lon="-0.189800">
						<ele>46</ele>
						<time>2022-07-15T05:42:02Z</time>
					</trkpt>
					<trkpt lat="47.155970" lon="-0.189760">
						<ele>46</ele>
						<time>2022-07-15T05:42:04Z</time>
					</trkpt>
					<trkpt lat="47.155950" lon="-0.189710">
						<ele>46</ele>
						<time>2022-07-15T05:42:06Z</time>
					</trkpt>
					<trkpt lat="47.155930" lon="-0.189660">
						<ele>45</ele>
						<time>2022-07-15T05:42:08Z</time>
					</trkpt>
					<trkpt lat="47.155900" lon="-0.189620">
						<ele>45</ele>
						<time>2022-07-15T05:42:10Z</time>
					</trkpt>
					<trkpt lat="47.155880" lon="-0.189580">
						<ele>44</ele>
						<time>2022-07-15T05:42:12Z</time>
					</trkpt>
					<trkpt lat="47.155860" lon="-0.189530">
						<ele>43</ele>
						<time>2022-07-15T05:42:14Z</time>
					</trkpt>
					<trkpt lat="47.155840" lon="-0.189480">
						<ele>44</ele>
						<time>2022-07-15T05:42:16Z</time>
					</trkpt>
					<trkpt lat="47.155810" lon="-0.189430">
						<ele>44</ele>
						<time>2022-07-15T05:42:18Z</time>
					</trkpt>
					<trkpt lat="47.155780" lon="-0.189380">
						<ele>44</ele>
						<time>2022-07-15T05:42:20Z</time>
					</trkpt>
					<trkpt lat="47.155750" lon="-0.189330">
						<ele>44</ele>
						<time>2022-07-15T05:42:22Z</time>
					</trkpt>
					<trkpt lat="47.155720" lon="-0.189280">
						<ele>44</ele>
						<time>2022-07-15T05:42:24Z</time>
					</trkpt>
					<trkpt lat="47.155690" lon="-0.189220">
						<ele>44</ele>
						<time>2022-07-15T05:42:26Z</time>
					</trkpt>
					<trkpt lat="47.155660" lon="-0.189160">
						<ele>45</ele>
						<time>2022-07-15T05:42:28Z</time>
					</trkpt>
					<trkpt lat="47.155630" lon="-0.189090">
						<ele>46</ele>
						<time>2022-07-15T05:42:30Z</time>
					</trkpt>
					<trkpt lat="47.155610" lon="-0.189030">
						<ele>48</ele>
						<time>2022-07-15T05:42:32Z</time>
					</trkpt>
					<trkpt lat="47.155590" lon="-0.188980">
						<ele>49</ele>
						<time>2022-07-15T05:42:34Z</time>
					</trkpt>
					<trkpt lat="47.155570" lon="-0.188920">
						<ele>50</ele>
						<time>2022-07-15T05:42:36Z</time>
					</trkpt>
					<trkpt lat="47.155550" lon="-0.188870">
						<ele>51</ele>
						<time>2022-07-15T05:42:38Z</time>
					</trkpt>
					<trkpt lat="47.155530" lon="-0.188820">
						<ele>52</ele>
						<time>2022-07-15T05:42:40Z</time>
					</trkpt>
					<trkpt lat="47.155510" lon="-0.188770">
						<ele>53</ele>
						<time>2022-07-15T05:42:42Z</time>
					</trkpt>
					<trkpt lat="47.155500" lon="-0.188720">
						<ele>54</ele>
						<time>2022-07-15T05:42:44Z</time>
					</trkpt>
					<trkpt lat="47.155470" lon="-0.188680">
						<ele>55</ele>
						<time>2022-07-15T05:42:46Z</time>
					</trkpt>
					<trkpt lat="47.155450" lon="-0.188640">
						<ele>56</ele>
						<time>2022-07-15T05:42:48Z</time>
					</trkpt>
					<trkpt lat="47.155430" lon="-0.188600">
						<ele>56</ele>
						<time>2022-07-15T05:42:50Z</time>
					</trkpt>
					<trkpt lat="47.155400" lon="-0.188560">
						<ele>57</ele>
						<time>2022-07-15T05:42:52Z</time>
					</trkpt>
					<trkpt lat="47.155380" lon="-0.188520">
						<ele>57</ele>
						<time>2022-07-15T05:42:54Z</time>
					</trkpt>
					<trkpt lat="47.155360" lon="-0.188480">
						<ele>57</ele>
						<time>2022-07-15T05:42:56Z</time>
					</trkpt>
					<trkpt lat="47.155340" lon="-0.188440">
						<ele>58</ele>
						<time>2022-07-15T05:42:58Z</time>
					</trkpt>
					<trkpt lat="47.155320" lon="-0.188400">
						<ele>58</ele>
						<time>2022-07-15T05:43:00Z</time>
					</trkpt>
					<trkpt lat="47.155300" lon="-0.188360">
						<ele>58</ele>
						<time>2022-07-15T05:43:02Z</time>
					</trkpt>
					<trkpt lat="47.155280" lon="-0.188320">
						<ele>58</ele>
						<time>2022-07-15T05:43:04Z</time>
					</trkpt>
					<trkpt lat="47.155270" lon="-0.188280">
						<ele>58</ele>
						<time>2022-07-15T05:43:06Z</time>
					</trkpt>
					<trkpt lat="47.155250" lon="-0.188240">
						<ele>59</ele>
						<time>2022-07-15T05:43:08Z</time>
					</trkpt>
					<trkpt lat="47.155230" lon="-0.188190">
						<ele>59</ele>
						<time>2022-07-15T05:43:10Z</time>
					</trkpt>
					<trkpt lat="47.155220" lon="-0.188160">
						<ele>60</ele>
						<time>2022-07-15T05:43:12Z</time>
					</trkpt>
					<trkpt lat="47.155200" lon="-0.188110">
						<ele>60</ele>
						<time>2022-07-15T05:43:14Z</time>
					</trkpt>
					<trkpt lat="47.155190" lon="-0.188060">
						<ele>60</ele>
						<time>2022-07-15T05:43:17Z</time>
					</trkpt>
					<trkpt lat="47.155170" lon="-0.188020">
						<ele>60</ele>
						<time>2022-07-15T05:43:19Z</time>
					</trkpt>
					<trkpt lat="47.155150" lon="-0.187980">
						<ele>60</ele>
						<time>2022-07-15T05:43:21Z</time>
					</trkpt>
					<trkpt lat="47.155130" lon="-0.187930">
						<ele>60</ele>
						<time>2022-07-15T05:43:24Z</time>
					</trkpt>
					<trkpt lat="47.155110" lon="-0.187890">
						<ele>60</ele>
						<time>2022-07-15T05:43:26Z</time>
					</trkpt>
					<trkpt lat="47.155090" lon="-0.187840">
						<ele>60</ele>
						<time>2022-07-15T05:43:29Z</time>
					</trkpt>
					<trkpt lat="47.155070" lon="-0.187800">
						<ele>60</ele>
						<time>2022-07-15T05:43:31Z</time>
					</trkpt>
					<trkpt lat="47.155050" lon="-0.187770">
						<ele>60</ele>
						<time>2022-07-15T05:43:33Z</time>
					</trkpt>
					<trkpt lat="47.155030" lon="-0.187730">
						<ele>60</ele>
						<time>2022-07-15T05:43:35Z</time>
					</trkpt>
					<trkpt lat="47.155020" lon="-0.187690">
						<ele>60</ele>
						<time>2022-07-15T05:43:38Z</time>
					</trkpt>
					<trkpt lat="47.155000" lon="-0.187640">
						<ele>60</ele>
						<time>2022-07-15T05:43:40Z</time>
					</trkpt>
					<trkpt lat="47.154980" lon="-0.187610">
						<ele>60</ele>
						<time>2022-07-15T05:43:42Z</time>
					</trkpt>
					<trkpt lat="47.154960" lon="-0.187570">
						<ele>59</ele>
						<time>2022-07-15T05:43:44Z</time>
					</trkpt>
					<trkpt lat="47.154940" lon="-0.187530">
						<ele>59</ele>
						<time>2022-07-15T05:43:47Z</time>
					</trkpt>
					<trkpt lat="47.154930" lon="-0.187490">
						<ele>59</ele>
						<time>2022-07-15T05:43:50Z</time>
					</trkpt>
					<trkpt lat="47.154920" lon="-0.187440">
						<ele>59</ele>
						<time>2022-07-15T05:43:53Z</time>
					</trkpt>
					<trkpt lat="47.154910" lon="-0.187400">
						<ele>59</ele>
						<time>2022-07-15T05:43:55Z</time>
					</trkpt>
					<trkpt lat="47.154900" lon="-0.187360">
						<ele>59</ele>
						<time>2022-07-15T05:44:03Z</time>
					</trkpt>
					<trkpt lat="47.154890" lon="-0.187310">
						<ele>59</ele>
						<time>2022-07-15T05:44:06Z</time>
					</trkpt>
					<trkpt lat="47.154880" lon="-0.187270">
						<ele>60</ele>
						<time>2022-07-15T05:44:08Z</time>
					</trkpt>
					<trkpt lat="47.154860" lon="-0.187230">
						<ele>60</ele>
						<time>2022-07-15T05:44:10Z</time>
					</trkpt>
					<trkpt lat="47.154840" lon="-0.187200">
						<ele>60</ele>
						<time>2022-07-15T05:44:12Z</time>
					</trkpt>
					<trkpt lat="47.154810" lon="-0.187160">
						<ele>61</ele>
						<time>2022-07-15T05:44:15Z</time>
					</trkpt>
					<trkpt lat="47.154790" lon="-0.187120">
						<ele>63</ele>
						<time>2022-07-15T05:44:17Z</time>
					</trkpt>
					<trkpt lat="47.154800" lon="-0.187130">
						<ele>62</ele>
						<time>2022-07-15T05:44:24Z</time>
					</trkpt>
					<trkpt lat="47.154820" lon="-0.187140">
						<ele>62</ele>
						<time>2022-07-15T05:44:26Z</time>
					</trkpt>
					<trkpt lat="47.154850" lon="-0.187150">
						<ele>62</ele>
						<time>2022-07-15T05:44:28Z</time>
					</trkpt>
					<trkpt lat="47.154870" lon="-0.187160">
						<ele>63</ele>
						<time>2022-07-15T05:44:30Z</time>
					</trkpt>
					<trkpt lat="47.154900" lon="-0.187180">
						<ele>63</ele>
						<time>2022-07-15T05:44:32Z</time>
					</trkpt>
					<trkpt lat="47.154930" lon="-0.187200">
						<ele>65</ele>
						<time>2022-07-15T05:44:35Z</time>
					</trkpt>
					<trkpt lat="47.154920" lon="-0.187190">
						<ele>63</ele>
						<time>2022-07-15T05:45:14Z</time>
					</trkpt>
					<trkpt lat="47.154900" lon="-0.187170">
						<ele>62</ele>
						<time>2022-07-15T05:45:16Z</time>
					</trkpt>
					<trkpt lat="47.154900" lon="-0.187170">
						<ele>61</ele>
						<time>2022-07-15T05:45:19Z</time>
					</trkpt>
					<trkpt lat="47.154890" lon="-0.187160">
						<ele>59</ele>
						<time>2022-07-15T05:45:33Z</time>
					</trkpt>
					<trkpt lat="47.154860" lon="-0.187140">
						<ele>59</ele>
						<time>2022-07-15T05:45:36Z</time>
					</trkpt>
					<trkpt lat="47.154830" lon="-0.187110">
						<ele>59</ele>
						<time>2022-07-15T05:45:39Z</time>
					</trkpt>
					<trkpt lat="47.154800" lon="-0.187080">
						<ele>60</ele>
						<time>2022-07-15T05:45:41Z</time>
					</trkpt>
					<trkpt lat="47.154770" lon="-0.187060">
						<ele>61</ele>
						<time>2022-07-15T05:45:43Z</time>
					</trkpt>
					<trkpt lat="47.154740" lon="-0.187030">
						<ele>61</ele>
						<time>2022-07-15T05:45:45Z</time>
					</trkpt>
					<trkpt lat="47.154710" lon="-0.187010">
						<ele>61</ele>
						<time>2022-07-15T05:45:48Z</time>
					</trkpt>
					<trkpt lat="47.154690" lon="-0.186970">
						<ele>61</ele>
						<time>2022-07-15T05:45:51Z</time>
					</trkpt>
					<trkpt lat="47.154670" lon="-0.186940">
						<ele>61</ele>
						<time>2022-07-15T05:45:54Z</time>
					</trkpt>
					<trkpt lat="47.154640" lon="-0.186910">
						<ele>61</ele>
						<time>2022-07-15T05:46:18Z</time>
					</trkpt>
					<trkpt lat="47.154610" lon="-0.186880">
						<ele>60</ele>
						<time>2022-07-15T05:46:20Z</time>
					</trkpt>
					<trkpt lat="47.154580" lon="-0.186850">
						<ele>61</ele>
						<time>2022-07-15T05:46:22Z</time>
					</trkpt>
					<trkpt lat="47.154550" lon="-0.186820">
						<ele>61</ele>
						<time>2022-07-15T05:46:25Z</time>
					</trkpt>
					<trkpt lat="47.154520" lon="-0.186790">
						<ele>62</ele>
						<time>2022-07-15T05:46:27Z</time>
					</trkpt>
					<trkpt lat="47.154500" lon="-0.186750">
						<ele>62</ele>
						<time>2022-07-15T05:46:30Z</time>
					</trkpt>
					<trkpt lat="47.154480" lon="-0.186720">
						<ele>62</ele>
						<time>2022-07-15T05:46:32Z</time>
					</trkpt>
					<trkpt lat="47.154460" lon="-0.186680">
						<ele>62</ele>
						<time>2022-07-15T05:46:35Z</time>
					</trkpt>
					<trkpt lat="47.154450" lon="-0.186640">
						<ele>62</ele>
						<time>2022-07-15T05:46:38Z</time>
					</trkpt>
					<trkpt lat="47.154470" lon="-0.186600">
						<ele>63</ele>
						<time>2022-07-15T05:46:41Z</time>
					</trkpt>
					<trkpt lat="47.154480" lon="-0.186560">
						<ele>63</ele>
						<time>2022-07-15T05:46:43Z</time>
					</trkpt>
					<trkpt lat="47.154500" lon="-0.186520">
						<ele>63</ele>
						<time>2022-07-15T05:46:46Z</time>
					</trkpt>
					<trkpt lat="47.154530" lon="-0.186490">
						<ele>63</ele>
						<time>2022-07-15T05:46:48Z</time>
					</trkpt>
					<trkpt lat="47.154560" lon="-0.186460">
						<ele>64</ele>
						<time>2022-07-15T05:46:50Z</time>
					</trkpt>
					<trkpt lat="47.154550" lon="-0.186480">
						<ele>65</ele>
						<time>2022-07-15T05:47:07Z</time>
					</trkpt>
					<trkpt lat="47.154540" lon="-0.186500">
						<ele>65</ele>
						<time>2022-07-15T05:47:09Z</time>
					</trkpt>
					<trkpt lat="47.154510" lon="-0.186520">
						<ele>65</ele>
						<time>2022-07-15T05:47:11Z</time>
					</trkpt>
					<trkpt lat="47.154480" lon="-0.186530">
						<ele>64</ele>
						<time>2022-07-15T05:47:13Z</time>
					</trkpt>
					<trkpt lat="47.154460" lon="-0.186550">
						<ele>63</ele>
						<time>2022-07-15T05:47:15Z</time>
					</trkpt>
					<trkpt lat="47.154430" lon="-0.186570">
						<ele>61</ele>
						<time>2022-07-15T05:47:17Z</time>
					</trkpt>
					<trkpt lat="47.154400" lon="-0.186590">
						<ele>60</ele>
						<time>2022-07-15T05:47:19Z</time>
					</trkpt>
					<trkpt lat="47.154370" lon="-0.186590">
						<ele>60</ele>
						<time>2022-07-15T05:47:21Z</time>
					</trkpt>
					<trkpt lat="47.154330" lon="-0.186590">
						<ele>59</ele>
						<time>2022-07-15T05:47:23Z</time>
					</trkpt>
					<trkpt lat="47.154300" lon="-0.186580">
						<ele>59</ele>
						<time>2022-07-15T05:47:25Z</time>
					</trkpt>
					<trkpt lat="47.154270" lon="-0.186570">
						<ele>59</ele>
						<time>2022-07-15T05:47:27Z</time>
					</trkpt>
					<trkpt lat="47.154230" lon="-0.186570">
						<ele>60</ele>
						<time>2022-07-15T05:47:29Z</time>
					</trkpt>
					<trkpt lat="47.154200" lon="-0.186550">
						<ele>60</ele>
						<time>2022-07-15T05:47:31Z</time>
					</trkpt>
					<trkpt lat="47.154170" lon="-0.186530">
						<ele>60</ele>
						<time>2022-07-15T05:47:33Z</time>
					</trkpt>
					<trkpt lat="47.154140" lon="-0.186520">
						<ele>60</ele>
						<time>2022-07-15T05:47:35Z</time>
					</trkpt>
					<trkpt lat="47.154110" lon="-0.186500">
						<ele>60</ele>
						<time>2022-07-15T05:47:37Z</time>
					</trkpt>
					<trkpt lat="47.154080" lon="-0.186480">
						<ele>60</ele>
						<time>2022-07-15T05:47:39Z</time>
					</trkpt>
					<trkpt lat="47.154040" lon="-0.186450">
						<ele>60</ele>
						<time>2022-07-15T05:47:41Z</time>
					</trkpt>
					<trkpt lat="47.154010" lon="-0.186420">
						<ele>60</ele>
						<time>2022-07-15T05:47:43Z</time>
					</trkpt>
					<trkpt lat="47.153980" lon="-0.186400">
						<ele>61</ele>
						<time>2022-07-15T05:47:45Z</time>
					</trkpt>
					<trkpt lat="47.153960" lon="-0.186370">
						<ele>61</ele>
						<time>2022-07-15T05:47:47Z</time>
					</trkpt>
					<trkpt lat="47.153930" lon="-0.186350">
						<ele>62</ele>
						<time>2022-07-15T05:47:49Z</time>
					</trkpt>
					<trkpt lat="47.153910" lon="-0.186320">
						<ele>63</ele>
						<time>2022-07-15T05:47:51Z</time>
					</trkpt>
					<trkpt lat="47.153890" lon="-0.186290">
						<ele>63</ele>
						<time>2022-07-15T05:47:53Z</time>
					</trkpt>
					<trkpt lat="47.153870" lon="-0.186260">
						<ele>62</ele>
						<time>2022-07-15T05:47:56Z</time>
					</trkpt>
					<trkpt lat="47.153850" lon="-0.186220">
						<ele>62</ele>
						<time>2022-07-15T05:47:59Z</time>
					</trkpt>
					<trkpt lat="47.153830" lon="-0.186170">
						<ele>62</ele>
						<time>2022-07-15T05:48:01Z</time>
					</trkpt>
					<trkpt lat="47.153820" lon="-0.186130">
						<ele>61</ele>
						<time>2022-07-15T05:48:03Z</time>
					</trkpt>
					<trkpt lat="47.153810" lon="-0.186080">
						<ele>59</ele>
						<time>2022-07-15T05:48:05Z</time>
					</trkpt>
					<trkpt lat="47.153790" lon="-0.186030">
						<ele>58</ele>
						<time>2022-07-15T05:48:07Z</time>
					</trkpt>
					<trkpt lat="47.153770" lon="-0.185990">
						<ele>58</ele>
						<time>2022-07-15T05:48:10Z</time>
					</trkpt>
					<trkpt lat="47.153760" lon="-0.185940">
						<ele>58</ele>
						<time>2022-07-15T05:48:13Z</time>
					</trkpt>
					<trkpt lat="47.153750" lon="-0.185900">
						<ele>59</ele>
						<time>2022-07-15T05:48:15Z</time>
					</trkpt>
					<trkpt lat="47.153750" lon="-0.185840">
						<ele>58</ele>
						<time>2022-07-15T05:48:17Z</time>
					</trkpt>
					<trkpt lat="47.153750" lon="-0.185790">
						<ele>58</ele>
						<time>2022-07-15T05:48:19Z</time>
					</trkpt>
					<trkpt lat="47.153750" lon="-0.185740">
						<ele>58</ele>
						<time>2022-07-15T05:48:21Z</time>
					</trkpt>
					<trkpt lat="47.153740" lon="-0.185690">
						<ele>58</ele>
						<time>2022-07-15T05:48:23Z</time>
					</trkpt>
					<trkpt lat="47.153730" lon="-0.185640">
						<ele>59</ele>
						<time>2022-07-15T05:48:25Z</time>
					</trkpt>
					<trkpt lat="47.153710" lon="-0.185610">
						<ele>60</ele>
						<time>2022-07-15T05:48:27Z</time>
					</trkpt>
					<trkpt lat="47.153700" lon="-0.185560">
						<ele>60</ele>
						<time>2022-07-15T05:48:30Z</time>
					</trkpt>
					<trkpt lat="47.153690" lon="-0.185520">
						<ele>60</ele>
						<time>2022-07-15T05:48:32Z</time>
					</trkpt>
					<trkpt lat="47.153680" lon="-0.185480">
						<ele>60</ele>
						<time>2022-07-15T05:48:34Z</time>
					</trkpt>
					<trkpt lat="47.153670" lon="-0.185430">
						<ele>60</ele>
						<time>2022-07-15T05:48:36Z</time>
					</trkpt>
					<trkpt lat="47.153660" lon="-0.185380">
						<ele>59</ele>
						<time>2022-07-15T05:48:38Z</time>
					</trkpt>
					<trkpt lat="47.153650" lon="-0.185340">
						<ele>59</ele>
						<time>2022-07-15T05:48:40Z</time>
					</trkpt>
					<trkpt lat="47.153630" lon="-0.185300">
						<ele>59</ele>
						<time>2022-07-15T05:48:42Z</time>
					</trkpt>
					<trkpt lat="47.153620" lon="-0.185260">
						<ele>60</ele>
						<time>2022-07-15T05:48:44Z</time>
					</trkpt>
					<trkpt lat="47.153600" lon="-0.185210">
						<ele>61</ele>
						<time>2022-07-15T05:48:46Z</time>
					</trkpt>
					<trkpt lat="47.153590" lon="-0.185170">
						<ele>60</ele>
						<time>2022-07-15T05:48:48Z</time>
					</trkpt>
					<trkpt lat="47.153570" lon="-0.185130">
						<ele>60</ele>
						<time>2022-07-15T05:48:50Z</time>
					</trkpt>
					<trkpt lat="47.153550" lon="-0.185090">
						<ele>59</ele>
						<time>2022-07-15T05:48:53Z</time>
					</trkpt>
					<trkpt lat="47.153530" lon="-0.185040">
						<ele>59</ele>
						<time>2022-07-15T05:48:55Z</time>
					</trkpt>
					<trkpt lat="47.153510" lon="-0.185000">
						<ele>59</ele>
						<time>2022-07-15T05:48:57Z</time>
					</trkpt>
					<trkpt lat="47.153480" lon="-0.184950">
						<ele>59</ele>
						<time>2022-07-15T05:49:00Z</time>
					</trkpt>
					<trkpt lat="47.153460" lon="-0.184910">
						<ele>59</ele>
						<time>2022-07-15T05:49:02Z</time>
					</trkpt>
					<trkpt lat="47.153450" lon="-0.184870">
						<ele>59</ele>
						<time>2022-07-15T05:49:04Z</time>
					</trkpt>
					<trkpt lat="47.153430" lon="-0.184820">
						<ele>60</ele>
						<time>2022-07-15T05:49:06Z</time>
					</trkpt>
					<trkpt lat="47.153420" lon="-0.184780">
						<ele>60</ele>
						<time>2022-07-15T05:49:08Z</time>
					</trkpt>
					<trkpt lat="47.153410" lon="-0.184740">
						<ele>60</ele>
						<time>2022-07-15T05:49:10Z</time>
					</trkpt>
					<trkpt lat="47.153400" lon="-0.184700">
						<ele>60</ele>
						<time>2022-07-15T05:49:12Z</time>
					</trkpt>
					<trkpt lat="47.153390" lon="-0.184660">
						<ele>60</ele>
						<time>2022-07-15T05:49:14Z</time>
					</trkpt>
					<trkpt lat="47.153380" lon="-0.184620">
						<ele>60</ele>
						<time>2022-07-15T05:49:16Z</time>
					</trkpt>
					<trkpt lat="47.153360" lon="-0.184580">
						<ele>60</ele>
						<time>2022-07-15T05:49:19Z</time>
					</trkpt>
					<trkpt lat="47.153340" lon="-0.184530">
						<ele>60</ele>
						<time>2022-07-15T05:49:21Z</time>
					</trkpt>
					<trkpt lat="47.153320" lon="-0.184490">
						<ele>58</ele>
						<time>2022-07-15T05:49:23Z</time>
					</trkpt>
					<trkpt lat="47.153300" lon="-0.184450">
						<ele>58</ele>
						<time>2022-07-15T05:49:25Z</time>
					</trkpt>
					<trkpt lat="47.153280" lon="-0.184410">
						<ele>58</ele>
						<time>2022-07-15T05:49:27Z</time>
					</trkpt>
					<trkpt lat="47.153260" lon="-0.184370">
						<ele>58</ele>
						<time>2022-07-15T05:49:29Z</time>
					</trkpt>
					<trkpt lat="47.153240" lon="-0.184330">
						<ele>59</ele>
						<time>2022-07-15T05:49:31Z</time>
					</trkpt>
					<trkpt lat="47.153220" lon="-0.184290">
						<ele>59</ele>
						<time>2022-07-15T05:49:33Z</time>
					</trkpt>
					<trkpt lat="47.153200" lon="-0.184250">
						<ele>59</ele>
						<time>2022-07-15T05:49:35Z</time>
					</trkpt>
					<trkpt lat="47.153180" lon="-0.184210">
						<ele>60</ele>
						<time>2022-07-15T05:49:37Z</time>
					</trkpt>
					<trkpt lat="47.153160" lon="-0.184170">
						<ele>59</ele>
						<time>2022-07-15T05:49:40Z</time>
					</trkpt>
					<trkpt lat="47.153140" lon="-0.184130">
						<ele>60</ele>
						<time>2022-07-15T05:49:43Z</time>
					</trkpt>
					<trkpt lat="47.153120" lon="-0.184090">
						<ele>61</ele>
						<time>2022-07-15T05:49:46Z</time>
					</trkpt>
					<trkpt lat="47.153090" lon="-0.184050">
						<ele>61</ele>
						<time>2022-07-15T05:49:49Z</time>
					</trkpt>
					<trkpt lat="47.153070" lon="-0.184000">
						<ele>61</ele>
						<time>2022-07-15T05:49:51Z</time>
					</trkpt>
					<trkpt lat="47.153050" lon="-0.183960">
						<ele>60</ele>
						<time>2022-07-15T05:49:53Z</time>
					</trkpt>
					<trkpt lat="47.153020" lon="-0.183910">
						<ele>60</ele>
						<time>2022-07-15T05:49:55Z</time>
					</trkpt>
					<trkpt lat="47.153000" lon="-0.183870">
						<ele>60</ele>
						<time>2022-07-15T05:49:57Z</time>
					</trkpt>
					<trkpt lat="47.152980" lon="-0.183820">
						<ele>60</ele>
						<time>2022-07-15T05:50:00Z</time>
					</trkpt>
					<trkpt lat="47.152960" lon="-0.183780">
						<ele>60</ele>
						<time>2022-07-15T05:50:02Z</time>
					</trkpt>
					<trkpt lat="47.152940" lon="-0.183750">
						<ele>61</ele>
						<time>2022-07-15T05:50:04Z</time>
					</trkpt>
					<trkpt lat="47.152920" lon="-0.183710">
						<ele>62</ele>
						<time>2022-07-15T05:50:06Z</time>
					</trkpt>
					<trkpt lat="47.152900" lon="-0.183660">
						<ele>62</ele>
						<time>2022-07-15T05:50:08Z</time>
					</trkpt>
					<trkpt lat="47.152880" lon="-0.183620">
						<ele>62</ele>
						<time>2022-07-15T05:50:10Z</time>
					</trkpt>
					<trkpt lat="47.152850" lon="-0.183580">
						<ele>61</ele>
						<time>2022-07-15T05:50:12Z</time>
					</trkpt>
					<trkpt lat="47.152830" lon="-0.183540">
						<ele>61</ele>
						<time>2022-07-15T05:50:14Z</time>
					</trkpt>
					<trkpt lat="47.152820" lon="-0.183510">
						<ele>61</ele>
						<time>2022-07-15T05:50:16Z</time>
					</trkpt>
					<trkpt lat="47.152790" lon="-0.183460">
						<ele>60</ele>
						<time>2022-07-15T05:50:18Z</time>
					</trkpt>
					<trkpt lat="47.152770" lon="-0.183420">
						<ele>60</ele>
						<time>2022-07-15T05:50:20Z</time>
					</trkpt>
					<trkpt lat="47.152760" lon="-0.183380">
						<ele>61</ele>
						<time>2022-07-15T05:50:22Z</time>
					</trkpt>
					<trkpt lat="47.152750" lon="-0.183330">
						<ele>62</ele>
						<time>2022-07-15T05:50:24Z</time>
					</trkpt>
					<trkpt lat="47.152740" lon="-0.183290">
						<ele>64</ele>
						<time>2022-07-15T05:50:26Z</time>
					</trkpt>
					<trkpt lat="47.152710" lon="-0.183250">
						<ele>65</ele>
						<time>2022-07-15T05:50:28Z</time>
					</trkpt>
					<trkpt lat="47.152690" lon="-0.183210">
						<ele>65</ele>
						<time>2022-07-15T05:50:30Z</time>
					</trkpt>
					<trkpt lat="47.152670" lon="-0.183180">
						<ele>65</ele>
						<time>2022-07-15T05:50:32Z</time>
					</trkpt>
					<trkpt lat="47.152640" lon="-0.183130">
						<ele>64</ele>
						<time>2022-07-15T05:50:34Z</time>
					</trkpt>
					<trkpt lat="47.152630" lon="-0.183090">
						<ele>64</ele>
						<time>2022-07-15T05:50:36Z</time>
					</trkpt>
					<trkpt lat="47.152600" lon="-0.183050">
						<ele>62</ele>
						<time>2022-07-15T05:50:38Z</time>
					</trkpt>
					<trkpt lat="47.152580" lon="-0.183010">
						<ele>61</ele>
						<time>2022-07-15T05:50:40Z</time>
					</trkpt>
					<trkpt lat="47.152560" lon="-0.182960">
						<ele>62</ele>
						<time>2022-07-15T05:50:42Z</time>
					</trkpt>
					<trkpt lat="47.152540" lon="-0.182920">
						<ele>63</ele>
						<time>2022-07-15T05:50:44Z</time>
					</trkpt>
					<trkpt lat="47.152520" lon="-0.182870">
						<ele>64</ele>
						<time>2022-07-15T05:50:46Z</time>
					</trkpt>
					<trkpt lat="47.152510" lon="-0.182820">
						<ele>63</ele>
						<time>2022-07-15T05:50:48Z</time>
					</trkpt>
					<trkpt lat="47.152490" lon="-0.182770">
						<ele>62</ele>
						<time>2022-07-15T05:50:50Z</time>
					</trkpt>
					<trkpt lat="47.152470" lon="-0.182730">
						<ele>61</ele>
						<time>2022-07-15T05:50:52Z</time>
					</trkpt>
					<trkpt lat="47.152450" lon="-0.182690">
						<ele>62</ele>
						<time>2022-07-15T05:50:54Z</time>
					</trkpt>
					<trkpt lat="47.152420" lon="-0.182650">
						<ele>62</ele>
						<time>2022-07-15T05:50:56Z</time>
					</trkpt>
					<trkpt lat="47.152400" lon="-0.182610">
						<ele>61</ele>
						<time>2022-07-15T05:50:58Z</time>
					</trkpt>
					<trkpt lat="47.152380" lon="-0.182580">
						<ele>62</ele>
						<time>2022-07-15T05:51:01Z</time>
					</trkpt>
					<trkpt lat="47.152360" lon="-0.182540">
						<ele>62</ele>
						<time>2022-07-15T05:51:03Z</time>
					</trkpt>
					<trkpt lat="47.152340" lon="-0.182500">
						<ele>61</ele>
						<time>2022-07-15T05:51:05Z</time>
					</trkpt>
					<trkpt lat="47.152320" lon="-0.182460">
						<ele>60</ele>
						<time>2022-07-15T05:51:07Z</time>
					</trkpt>
					<trkpt lat="47.152300" lon="-0.182430">
						<ele>59</ele>
						<time>2022-07-15T05:51:09Z</time>
					</trkpt>
					<trkpt lat="47.152280" lon="-0.182390">
						<ele>59</ele>
						<time>2022-07-15T05:51:11Z</time>
					</trkpt>
					<trkpt lat="47.152270" lon="-0.182350">
						<ele>59</ele>
						<time>2022-07-15T05:51:13Z</time>
					</trkpt>
					<trkpt lat="47.152250" lon="-0.182320">
						<ele>59</ele>
						<time>2022-07-15T05:51:15Z</time>
					</trkpt>
					<trkpt lat="47.152220" lon="-0.182290">
						<ele>59</ele>
						<time>2022-07-15T05:51:17Z</time>
					</trkpt>
					<trkpt lat="47.152210" lon="-0.182260">
						<ele>59</ele>
						<time>2022-07-15T05:51:19Z</time>
					</trkpt>
					<trkpt lat="47.152180" lon="-0.182210">
						<ele>59</ele>
						<time>2022-07-15T05:51:22Z</time>
					</trkpt>
					<trkpt lat="47.152160" lon="-0.182180">
						<ele>59</ele>
						<time>2022-07-15T05:51:24Z</time>
					</trkpt>
					<trkpt lat="47.152140" lon="-0.182140">
						<ele>58</ele>
						<time>2022-07-15T05:51:26Z</time>
					</trkpt>
					<trkpt lat="47.152120" lon="-0.182090">
						<ele>58</ele>
						<time>2022-07-15T05:51:28Z</time>
					</trkpt>
					<trkpt lat="47.152100" lon="-0.182050">
						<ele>59</ele>
						<time>2022-07-15T05:51:31Z</time>
					</trkpt>
					<trkpt lat="47.152080" lon="-0.182010">
						<ele>59</ele>
						<time>2022-07-15T05:51:33Z</time>
					</trkpt>
					<trkpt lat="47.152050" lon="-0.181970">
						<ele>59</ele>
						<time>2022-07-15T05:51:35Z</time>
					</trkpt>
					<trkpt lat="47.152030" lon="-0.181940">
						<ele>59</ele>
						<time>2022-07-15T05:51:37Z</time>
					</trkpt>
					<trkpt lat="47.152010" lon="-0.181900">
						<ele>59</ele>
						<time>2022-07-15T05:51:39Z</time>
					</trkpt>
					<trkpt lat="47.151980" lon="-0.181870">
						<ele>59</ele>
						<time>2022-07-15T05:51:41Z</time>
					</trkpt>
					<trkpt lat="47.151960" lon="-0.181840">
						<ele>59</ele>
						<time>2022-07-15T05:51:43Z</time>
					</trkpt>
					<trkpt lat="47.151950" lon="-0.181800">
						<ele>59</ele>
						<time>2022-07-15T05:51:45Z</time>
					</trkpt>
					<trkpt lat="47.151920" lon="-0.181760">
						<ele>59</ele>
						<time>2022-07-15T05:51:47Z</time>
					</trkpt>
					<trkpt lat="47.151900" lon="-0.181720">
						<ele>59</ele>
						<time>2022-07-15T05:51:49Z</time>
					</trkpt>
					<trkpt lat="47.151880" lon="-0.181690">
						<ele>59</ele>
						<time>2022-07-15T05:51:51Z</time>
					</trkpt>
					<trkpt lat="47.151860" lon="-0.181660">
						<ele>59</ele>
						<time>2022-07-15T05:51:53Z</time>
					</trkpt>
					<trkpt lat="47.151840" lon="-0.181630">
						<ele>59</ele>
						<time>2022-07-15T05:51:55Z</time>
					</trkpt>
					<trkpt lat="47.151830" lon="-0.181590">
						<ele>59</ele>
						<time>2022-07-15T05:51:57Z</time>
					</trkpt>
					<trkpt lat="47.151810" lon="-0.181560">
						<ele>59</ele>
						<time>2022-07-15T05:51:59Z</time>
					</trkpt>
					<trkpt lat="47.151790" lon="-0.181520">
						<ele>59</ele>
						<time>2022-07-15T05:52:01Z</time>
					</trkpt>
					<trkpt lat="47.151770" lon="-0.181490">
						<ele>59</ele>
						<time>2022-07-15T05:52:03Z</time>
					</trkpt>
					<trkpt lat="47.151740" lon="-0.181460">
						<ele>58</ele>
						<time>2022-07-15T05:52:05Z</time>
					</trkpt>
					<trkpt lat="47.151720" lon="-0.181430">
						<ele>58</ele>
						<time>2022-07-15T05:52:07Z</time>
					</trkpt>
					<trkpt lat="47.151690" lon="-0.181400">
						<ele>58</ele>
						<time>2022-07-15T05:52:09Z</time>
					</trkpt>
					<trkpt lat="47.151670" lon="-0.181370">
						<ele>59</ele>
						<time>2022-07-15T05:52:11Z</time>
					</trkpt>
					<trkpt lat="47.151640" lon="-0.181350">
						<ele>59</ele>
						<time>2022-07-15T05:52:13Z</time>
					</trkpt>
					<trkpt lat="47.151620" lon="-0.181320">
						<ele>59</ele>
						<time>2022-07-15T05:52:15Z</time>
					</trkpt>
					<trkpt lat="47.151600" lon="-0.181280">
						<ele>59</ele>
						<time>2022-07-15T05:52:17Z</time>
					</trkpt>
					<trkpt lat="47.151580" lon="-0.181250">
						<ele>60</ele>
						<time>2022-07-15T05:52:19Z</time>
					</trkpt>
					<trkpt lat="47.151560" lon="-0.181220">
						<ele>60</ele>
						<time>2022-07-15T05:52:21Z</time>
					</trkpt>
					<trkpt lat="47.151530" lon="-0.181190">
						<ele>60</ele>
						<time>2022-07-15T05:52:23Z</time>
					</trkpt>
					<trkpt lat="47.151500" lon="-0.181170">
						<ele>60</ele>
						<time>2022-07-15T05:52:25Z</time>
					</trkpt>
					<trkpt lat="47.151480" lon="-0.181140">
						<ele>61</ele>
						<time>2022-07-15T05:52:27Z</time>
					</trkpt>
					<trkpt lat="47.151450" lon="-0.181110">
						<ele>62</ele>
						<time>2022-07-15T05:52:29Z</time>
					</trkpt>
					<trkpt lat="47.151420" lon="-0.181090">
						<ele>62</ele>
						<time>2022-07-15T05:52:31Z</time>
					</trkpt>
					<trkpt lat="47.151400" lon="-0.181060">
						<ele>63</ele>
						<time>2022-07-15T05:52:33Z</time>
					</trkpt>
					<trkpt lat="47.151370" lon="-0.181030">
						<ele>63</ele>
						<time>2022-07-15T05:52:35Z</time>
					</trkpt>
					<trkpt lat="47.151350" lon="-0.181000">
						<ele>62</ele>
						<time>2022-07-15T05:52:37Z</time>
					</trkpt>
					<trkpt lat="47.151320" lon="-0.180970">
						<ele>62</ele>
						<time>2022-07-15T05:52:39Z</time>
					</trkpt>
					<trkpt lat="47.151290" lon="-0.180940">
						<ele>62</ele>
						<time>2022-07-15T05:52:41Z</time>
					</trkpt>
					<trkpt lat="47.151270" lon="-0.180900">
						<ele>63</ele>
						<time>2022-07-15T05:52:43Z</time>
					</trkpt>
					<trkpt lat="47.151250" lon="-0.180850">
						<ele>63</ele>
						<time>2022-07-15T05:52:45Z</time>
					</trkpt>
					<trkpt lat="47.151230" lon="-0.180800">
						<ele>63</ele>
						<time>2022-07-15T05:52:47Z</time>
					</trkpt>
					<trkpt lat="47.151210" lon="-0.180760">
						<ele>62</ele>
						<time>2022-07-15T05:52:49Z</time>
					</trkpt>
					<trkpt lat="47.151190" lon="-0.180710">
						<ele>62</ele>
						<time>2022-07-15T05:52:51Z</time>
					</trkpt>
					<trkpt lat="47.151170" lon="-0.180670">
						<ele>61</ele>
						<time>2022-07-15T05:52:53Z</time>
					</trkpt>
					<trkpt lat="47.151140" lon="-0.180620">
						<ele>61</ele>
						<time>2022-07-15T05:52:55Z</time>
					</trkpt>
					<trkpt lat="47.151110" lon="-0.180580">
						<ele>61</ele>
						<time>2022-07-15T05:52:57Z</time>
					</trkpt>
					<trkpt lat="47.151080" lon="-0.180540">
						<ele>61</ele>
						<time>2022-07-15T05:52:59Z</time>
					</trkpt>
					<trkpt lat="47.151050" lon="-0.180500">
						<ele>61</ele>
						<time>2022-07-15T05:53:01Z</time>
					</trkpt>
					<trkpt lat="47.151020" lon="-0.180460">
						<ele>61</ele>
						<time>2022-07-15T05:53:03Z</time>
					</trkpt>
					<trkpt lat="47.151000" lon="-0.180430">
						<ele>61</ele>
						<time>2022-07-15T05:53:05Z</time>
					</trkpt>
					<trkpt lat="47.150970" lon="-0.180390">
						<ele>61</ele>
						<time>2022-07-15T05:53:07Z</time>
					</trkpt>
					<trkpt lat="47.150940" lon="-0.180340">
						<ele>61</ele>
						<time>2022-07-15T05:53:10Z</time>
					</trkpt>
					<trkpt lat="47.150920" lon="-0.180300">
						<ele>60</ele>
						<time>2022-07-15T05:53:12Z</time>
					</trkpt>
					<trkpt lat="47.150890" lon="-0.180270">
						<ele>60</ele>
						<time>2022-07-15T05:53:14Z</time>
					</trkpt>
					<trkpt lat="47.150860" lon="-0.180230">
						<ele>60</ele>
						<time>2022-07-15T05:53:16Z</time>
					</trkpt>
					<trkpt lat="47.150840" lon="-0.180200">
						<ele>60</ele>
						<time>2022-07-15T05:53:18Z</time>
					</trkpt>
					<trkpt lat="47.150810" lon="-0.180170">
						<ele>60</ele>
						<time>2022-07-15T05:53:20Z</time>
					</trkpt>
					<trkpt lat="47.150790" lon="-0.180130">
						<ele>61</ele>
						<time>2022-07-15T05:53:22Z</time>
					</trkpt>
					<trkpt lat="47.150770" lon="-0.180100">
						<ele>61</ele>
						<time>2022-07-15T05:53:25Z</time>
					</trkpt>
					<trkpt lat="47.150750" lon="-0.180060">
						<ele>61</ele>
						<time>2022-07-15T05:53:27Z</time>
					</trkpt>
					<trkpt lat="47.150730" lon="-0.180030">
						<ele>61</ele>
						<time>2022-07-15T05:53:29Z</time>
					</trkpt>
					<trkpt lat="47.150710" lon="-0.179990">
						<ele>62</ele>
						<time>2022-07-15T05:53:31Z</time>
					</trkpt>
					<trkpt lat="47.150680" lon="-0.179960">
						<ele>61</ele>
						<time>2022-07-15T05:53:34Z</time>
					</trkpt>
					<trkpt lat="47.150660" lon="-0.179920">
						<ele>61</ele>
						<time>2022-07-15T05:53:36Z</time>
					</trkpt>
					<trkpt lat="47.150640" lon="-0.179890">
						<ele>61</ele>
						<time>2022-07-15T05:53:38Z</time>
					</trkpt>
					<trkpt lat="47.150620" lon="-0.179850">
						<ele>61</ele>
						<time>2022-07-15T05:53:40Z</time>
					</trkpt>
					<trkpt lat="47.150600" lon="-0.179820">
						<ele>60</ele>
						<time>2022-07-15T05:53:42Z</time>
					</trkpt>
					<trkpt lat="47.150570" lon="-0.179780">
						<ele>60</ele>
						<time>2022-07-15T05:53:45Z</time>
					</trkpt>
					<trkpt lat="47.150560" lon="-0.179740">
						<ele>60</ele>
						<time>2022-07-15T05:53:47Z</time>
					</trkpt>
					<trkpt lat="47.150540" lon="-0.179700">
						<ele>60</ele>
						<time>2022-07-15T05:53:50Z</time>
					</trkpt>
					<trkpt lat="47.150530" lon="-0.179660">
						<ele>60</ele>
						<time>2022-07-15T05:53:52Z</time>
					</trkpt>
					<trkpt lat="47.150510" lon="-0.179620">
						<ele>60</ele>
						<time>2022-07-15T05:53:55Z</time>
					</trkpt>
					<trkpt lat="47.150500" lon="-0.179570">
						<ele>60</ele>
						<time>2022-07-15T05:53:58Z</time>
					</trkpt>
					<trkpt lat="47.150480" lon="-0.179530">
						<ele>61</ele>
						<time>2022-07-15T05:54:01Z</time>
					</trkpt>
					<trkpt lat="47.150460" lon="-0.179490">
						<ele>61</ele>
						<time>2022-07-15T05:54:03Z</time>
					</trkpt>
					<trkpt lat="47.150430" lon="-0.179450">
						<ele>61</ele>
						<time>2022-07-15T05:54:05Z</time>
					</trkpt>
					<trkpt lat="47.150410" lon="-0.179410">
						<ele>60</ele>
						<time>2022-07-15T05:54:07Z</time>
					</trkpt>
					<trkpt lat="47.150380" lon="-0.179370">
						<ele>61</ele>
						<time>2022-07-15T05:54:09Z</time>
					</trkpt>
					<trkpt lat="47.150350" lon="-0.179330">
						<ele>60</ele>
						<time>2022-07-15T05:54:11Z</time>
					</trkpt>
					<trkpt lat="47.150330" lon="-0.179290">
						<ele>60</ele>
						<time>2022-07-15T05:54:14Z</time>
					</trkpt>
					<trkpt lat="47.150310" lon="-0.179260">
						<ele>60</ele>
						<time>2022-07-15T05:54:16Z</time>
					</trkpt>
					<trkpt lat="47.150280" lon="-0.179230">
						<ele>60</ele>
						<time>2022-07-15T05:54:18Z</time>
					</trkpt>
					<trkpt lat="47.150270" lon="-0.179190">
						<ele>61</ele>
						<time>2022-07-15T05:54:20Z</time>
					</trkpt>
					<trkpt lat="47.150240" lon="-0.179160">
						<ele>61</ele>
						<time>2022-07-15T05:54:22Z</time>
					</trkpt>
					<trkpt lat="47.150220" lon="-0.179130">
						<ele>60</ele>
						<time>2022-07-15T05:54:24Z</time>
					</trkpt>
					<trkpt lat="47.150200" lon="-0.179090">
						<ele>60</ele>
						<time>2022-07-15T05:54:26Z</time>
					</trkpt>
					<trkpt lat="47.150180" lon="-0.179050">
						<ele>60</ele>
						<time>2022-07-15T05:54:28Z</time>
					</trkpt>
					<trkpt lat="47.150170" lon="-0.179010">
						<ele>60</ele>
						<time>2022-07-15T05:54:30Z</time>
					</trkpt>
					<trkpt lat="47.150140" lon="-0.178980">
						<ele>61</ele>
						<time>2022-07-15T05:54:32Z</time>
					</trkpt>
					<trkpt lat="47.150120" lon="-0.178940">
						<ele>61</ele>
						<time>2022-07-15T05:54:34Z</time>
					</trkpt>
					<trkpt lat="47.150100" lon="-0.178910">
						<ele>60</ele>
						<time>2022-07-15T05:54:36Z</time>
					</trkpt>
					<trkpt lat="47.150070" lon="-0.178870">
						<ele>60</ele>
						<time>2022-07-15T05:54:38Z</time>
					</trkpt>
					<trkpt lat="47.150040" lon="-0.178840">
						<ele>60</ele>
						<time>2022-07-15T05:54:42Z</time>
					</trkpt>
					<trkpt lat="47.150010" lon="-0.178810">
						<ele>59</ele>
						<time>2022-07-15T05:54:45Z</time>
					</trkpt>
					<trkpt lat="47.150000" lon="-0.178770">
						<ele>58</ele>
						<time>2022-07-15T05:54:47Z</time>
					</trkpt>
					<trkpt lat="47.149990" lon="-0.178730">
						<ele>58</ele>
						<time>2022-07-15T05:54:49Z</time>
					</trkpt>
					<trkpt lat="47.149970" lon="-0.178690">
						<ele>58</ele>
						<time>2022-07-15T05:54:51Z</time>
					</trkpt>
					<trkpt lat="47.149950" lon="-0.178640">
						<ele>58</ele>
						<time>2022-07-15T05:54:53Z</time>
					</trkpt>
					<trkpt lat="47.149930" lon="-0.178600">
						<ele>58</ele>
						<time>2022-07-15T05:54:55Z</time>
					</trkpt>
					<trkpt lat="47.149900" lon="-0.178560">
						<ele>58</ele>
						<time>2022-07-15T05:54:57Z</time>
					</trkpt>
					<trkpt lat="47.149870" lon="-0.178520">
						<ele>58</ele>
						<time>2022-07-15T05:54:59Z</time>
					</trkpt>
					<trkpt lat="47.149840" lon="-0.178470">
						<ele>58</ele>
						<time>2022-07-15T05:55:01Z</time>
					</trkpt>
					<trkpt lat="47.149820" lon="-0.178430">
						<ele>58</ele>
						<time>2022-07-15T05:55:03Z</time>
					</trkpt>
					<trkpt lat="47.149790" lon="-0.178380">
						<ele>58</ele>
						<time>2022-07-15T05:55:05Z</time>
					</trkpt>
					<trkpt lat="47.149770" lon="-0.178340">
						<ele>59</ele>
						<time>2022-07-15T05:55:07Z</time>
					</trkpt>
					<trkpt lat="47.149740" lon="-0.178290">
						<ele>59</ele>
						<time>2022-07-15T05:55:09Z</time>
					</trkpt>
					<trkpt lat="47.149710" lon="-0.178260">
						<ele>60</ele>
						<time>2022-07-15T05:55:10Z</time>
					</trkpt>
					<trkpt lat="47.149680" lon="-0.178210">
						<ele>60</ele>
						<time>2022-07-15T05:55:12Z</time>
					</trkpt>
					<trkpt lat="47.149650" lon="-0.178170">
						<ele>61</ele>
						<time>2022-07-15T05:55:14Z</time>
					</trkpt>
					<trkpt lat="47.149610" lon="-0.178120">
						<ele>61</ele>
						<time>2022-07-15T05:55:16Z</time>
					</trkpt>
					<trkpt lat="47.149580" lon="-0.178060">
						<ele>62</ele>
						<time>2022-07-15T05:55:18Z</time>
					</trkpt>
					<trkpt lat="47.149540" lon="-0.178020">
						<ele>62</ele>
						<time>2022-07-15T05:55:20Z</time>
					</trkpt>
					<trkpt lat="47.149510" lon="-0.177980">
						<ele>62</ele>
						<time>2022-07-15T05:55:22Z</time>
					</trkpt>
					<trkpt lat="47.149470" lon="-0.177960">
						<ele>62</ele>
						<time>2022-07-15T05:55:24Z</time>
					</trkpt>
					<trkpt lat="47.149440" lon="-0.177930">
						<ele>62</ele>
						<time>2022-07-15T05:55:26Z</time>
					</trkpt>
					<trkpt lat="47.149410" lon="-0.177880">
						<ele>62</ele>
						<time>2022-07-15T05:55:28Z</time>
					</trkpt>
					<trkpt lat="47.149380" lon="-0.177830">
						<ele>62</ele>
						<time>2022-07-15T05:55:30Z</time>
					</trkpt>
					<trkpt lat="47.149350" lon="-0.177780">
						<ele>63</ele>
						<time>2022-07-15T05:55:32Z</time>
					</trkpt>
					<trkpt lat="47.149330" lon="-0.177740">
						<ele>63</ele>
						<time>2022-07-15T05:55:34Z</time>
					</trkpt>
					<trkpt lat="47.149310" lon="-0.177710">
						<ele>64</ele>
						<time>2022-07-15T05:55:36Z</time>
					</trkpt>
					<trkpt lat="47.149280" lon="-0.177670">
						<ele>63</ele>
						<time>2022-07-15T05:55:38Z</time>
					</trkpt>
					<trkpt lat="47.149260" lon="-0.177630">
						<ele>63</ele>
						<time>2022-07-15T05:55:40Z</time>
					</trkpt>
					<trkpt lat="47.149230" lon="-0.177600">
						<ele>63</ele>
						<time>2022-07-15T05:55:42Z</time>
					</trkpt>
					<trkpt lat="47.149200" lon="-0.177570">
						<ele>63</ele>
						<time>2022-07-15T05:55:44Z</time>
					</trkpt>
					<trkpt lat="47.149170" lon="-0.177530">
						<ele>63</ele>
						<time>2022-07-15T05:55:46Z</time>
					</trkpt>
					<trkpt lat="47.149150" lon="-0.177490">
						<ele>63</ele>
						<time>2022-07-15T05:55:48Z</time>
					</trkpt>
					<trkpt lat="47.149110" lon="-0.177440">
						<ele>63</ele>
						<time>2022-07-15T05:55:50Z</time>
					</trkpt>
					<trkpt lat="47.149080" lon="-0.177400">
						<ele>63</ele>
						<time>2022-07-15T05:55:52Z</time>
					</trkpt>
					<trkpt lat="47.149040" lon="-0.177370">
						<ele>63</ele>
						<time>2022-07-15T05:55:54Z</time>
					</trkpt>
					<trkpt lat="47.149010" lon="-0.177330">
						<ele>64</ele>
						<time>2022-07-15T05:55:56Z</time>
					</trkpt>
					<trkpt lat="47.148980" lon="-0.177290">
						<ele>64</ele>
						<time>2022-07-15T05:55:58Z</time>
					</trkpt>
					<trkpt lat="47.148940" lon="-0.177250">
						<ele>64</ele>
						<time>2022-07-15T05:56:00Z</time>
					</trkpt>
					<trkpt lat="47.148910" lon="-0.177210">
						<ele>64</ele>
						<time>2022-07-15T05:56:02Z</time>
					</trkpt>
					<trkpt lat="47.148880" lon="-0.177160">
						<ele>64</ele>
						<time>2022-07-15T05:56:04Z</time>
					</trkpt>
					<trkpt lat="47.148860" lon="-0.177120">
						<ele>64</ele>
						<time>2022-07-15T05:56:06Z</time>
					</trkpt>
					<trkpt lat="47.148820" lon="-0.177080">
						<ele>64</ele>
						<time>2022-07-15T05:56:08Z</time>
					</trkpt>
					<trkpt lat="47.148790" lon="-0.177040">
						<ele>63</ele>
						<time>2022-07-15T05:56:10Z</time>
					</trkpt>
					<trkpt lat="47.148750" lon="-0.177010">
						<ele>63</ele>
						<time>2022-07-15T05:56:12Z</time>
					</trkpt>
					<trkpt lat="47.148720" lon="-0.176960">
						<ele>63</ele>
						<time>2022-07-15T05:56:14Z</time>
					</trkpt>
					<trkpt lat="47.148690" lon="-0.176920">
						<ele>63</ele>
						<time>2022-07-15T05:56:16Z</time>
					</trkpt>
					<trkpt lat="47.148660" lon="-0.176880">
						<ele>63</ele>
						<time>2022-07-15T05:56:18Z</time>
					</trkpt>
					<trkpt lat="47.148630" lon="-0.176830">
						<ele>63</ele>
						<time>2022-07-15T05:56:20Z</time>
					</trkpt>
					<trkpt lat="47.148600" lon="-0.176790">
						<ele>63</ele>
						<time>2022-07-15T05:56:22Z</time>
					</trkpt>
					<trkpt lat="47.148580" lon="-0.176750">
						<ele>63</ele>
						<time>2022-07-15T05:56:24Z</time>
					</trkpt>
					<trkpt lat="47.148540" lon="-0.176700">
						<ele>62</ele>
						<time>2022-07-15T05:56:26Z</time>
					</trkpt>
					<trkpt lat="47.148510" lon="-0.176660">
						<ele>62</ele>
						<time>2022-07-15T05:56:28Z</time>
					</trkpt>
					<trkpt lat="47.148470" lon="-0.176620">
						<ele>62</ele>
						<time>2022-07-15T05:56:30Z</time>
					</trkpt>
					<trkpt lat="47.148440" lon="-0.176580">
						<ele>62</ele>
						<time>2022-07-15T05:56:32Z</time>
					</trkpt>
					<trkpt lat="47.148410" lon="-0.176540">
						<ele>62</ele>
						<time>2022-07-15T05:56:34Z</time>
					</trkpt>
					<trkpt lat="47.148380" lon="-0.176500">
						<ele>62</ele>
						<time>2022-07-15T05:56:36Z</time>
					</trkpt>
					<trkpt lat="47.148350" lon="-0.176460">
						<ele>62</ele>
						<time>2022-07-15T05:56:38Z</time>
					</trkpt>
					<trkpt lat="47.148310" lon="-0.176410">
						<ele>63</ele>
						<time>2022-07-15T05:56:40Z</time>
					</trkpt>
					<trkpt lat="47.148280" lon="-0.176370">
						<ele>63</ele>
						<time>2022-07-15T05:56:42Z</time>
					</trkpt>
					<trkpt lat="47.148250" lon="-0.176330">
						<ele>63</ele>
						<time>2022-07-15T05:56:44Z</time>
					</trkpt>
					<trkpt lat="47.148230" lon="-0.176290">
						<ele>63</ele>
						<time>2022-07-15T05:56:46Z</time>
					</trkpt>
					<trkpt lat="47.148200" lon="-0.176260">
						<ele>62</ele>
						<time>2022-07-15T05:56:48Z</time>
					</trkpt>
					<trkpt lat="47.148180" lon="-0.176220">
						<ele>62</ele>
						<time>2022-07-15T05:56:50Z</time>
					</trkpt>
					<trkpt lat="47.148150" lon="-0.176180">
						<ele>62</ele>
						<time>2022-07-15T05:56:52Z</time>
					</trkpt>
					<trkpt lat="47.148120" lon="-0.176140">
						<ele>62</ele>
						<time>2022-07-15T05:56:54Z</time>
					</trkpt>
					<trkpt lat="47.148100" lon="-0.176110">
						<ele>62</ele>
						<time>2022-07-15T05:56:56Z</time>
					</trkpt>
					<trkpt lat="47.148070" lon="-0.176090">
						<ele>62</ele>
						<time>2022-07-15T05:56:58Z</time>
					</trkpt>
					<trkpt lat="47.148050" lon="-0.176060">
						<ele>61</ele>
						<time>2022-07-15T05:57:01Z</time>
					</trkpt>
					<trkpt lat="47.148020" lon="-0.176030">
						<ele>61</ele>
						<time>2022-07-15T05:57:03Z</time>
					</trkpt>
					<trkpt lat="47.148000" lon="-0.175990">
						<ele>62</ele>
						<time>2022-07-15T05:57:30Z</time>
					</trkpt>
					<trkpt lat="47.147980" lon="-0.175940">
						<ele>62</ele>
						<time>2022-07-15T05:57:34Z</time>
					</trkpt>
					<trkpt lat="47.147960" lon="-0.175900">
						<ele>63</ele>
						<time>2022-07-15T05:57:36Z</time>
					</trkpt>
					<trkpt lat="47.147950" lon="-0.175860">
						<ele>63</ele>
						<time>2022-07-15T05:57:38Z</time>
					</trkpt>
					<trkpt lat="47.147920" lon="-0.175840">
						<ele>63</ele>
						<time>2022-07-15T05:57:40Z</time>
					</trkpt>
					<trkpt lat="47.147890" lon="-0.175800">
						<ele>61</ele>
						<time>2022-07-15T05:57:43Z</time>
					</trkpt>
					<trkpt lat="47.147870" lon="-0.175760">
						<ele>60</ele>
						<time>2022-07-15T05:57:45Z</time>
					</trkpt>
					<trkpt lat="47.147850" lon="-0.175720">
						<ele>58</ele>
						<time>2022-07-15T05:57:48Z</time>
					</trkpt>
					<trkpt lat="47.147830" lon="-0.175680">
						<ele>58</ele>
						<time>2022-07-15T05:57:51Z</time>
					</trkpt>
					<trkpt lat="47.147800" lon="-0.175630">
						<ele>59</ele>
						<time>2022-07-15T05:57:54Z</time>
					</trkpt>
					<trkpt lat="47.147780" lon="-0.175590">
						<ele>60</ele>
						<time>2022-07-15T05:57:57Z</time>
					</trkpt>
					<trkpt lat="47.147760" lon="-0.175540">
						<ele>60</ele>
						<time>2022-07-15T05:58:00Z</time>
					</trkpt>
					<trkpt lat="47.147740" lon="-0.175510">
						<ele>60</ele>
						<time>2022-07-15T05:58:02Z</time>
					</trkpt>
					<trkpt lat="47.147720" lon="-0.175470">
						<ele>61</ele>
						<time>2022-07-15T05:58:05Z</time>
					</trkpt>
					<trkpt lat="47.147690" lon="-0.175440">
						<ele>61</ele>
						<time>2022-07-15T05:58:07Z</time>
					</trkpt>
					<trkpt lat="47.147660" lon="-0.175410">
						<ele>60</ele>
						<time>2022-07-15T05:58:09Z</time>
					</trkpt>
					<trkpt lat="47.147640" lon="-0.175380">
						<ele>60</ele>
						<time>2022-07-15T05:58:11Z</time>
					</trkpt>
					<trkpt lat="47.147620" lon="-0.175350">
						<ele>59</ele>
						<time>2022-07-15T05:58:13Z</time>
					</trkpt>
					<trkpt lat="47.147590" lon="-0.175320">
						<ele>60</ele>
						<time>2022-07-15T05:58:16Z</time>
					</trkpt>
					<trkpt lat="47.147560" lon="-0.175280">
						<ele>59</ele>
						<time>2022-07-15T05:58:18Z</time>
					</trkpt>
					<trkpt lat="47.147540" lon="-0.175250">
						<ele>59</ele>
						<time>2022-07-15T05:58:20Z</time>
					</trkpt>
					<trkpt lat="47.147510" lon="-0.175210">
						<ele>59</ele>
						<time>2022-07-15T05:58:23Z</time>
					</trkpt>
					<trkpt lat="47.147480" lon="-0.175190">
						<ele>59</ele>
						<time>2022-07-15T05:58:25Z</time>
					</trkpt>
					<trkpt lat="47.147450" lon="-0.175160">
						<ele>59</ele>
						<time>2022-07-15T05:58:27Z</time>
					</trkpt>
					<trkpt lat="47.147430" lon="-0.175120">
						<ele>60</ele>
						<time>2022-07-15T05:58:29Z</time>
					</trkpt>
					<trkpt lat="47.147410" lon="-0.175090">
						<ele>61</ele>
						<time>2022-07-15T05:58:31Z</time>
					</trkpt>
					<trkpt lat="47.147390" lon="-0.175050">
						<ele>61</ele>
						<time>2022-07-15T05:58:34Z</time>
					</trkpt>
					<trkpt lat="47.147360" lon="-0.175010">
						<ele>62</ele>
						<time>2022-07-15T05:58:37Z</time>
					</trkpt>
					<trkpt lat="47.147330" lon="-0.174980">
						<ele>63</ele>
						<time>2022-07-15T05:58:39Z</time>
					</trkpt>
					<trkpt lat="47.147300" lon="-0.174950">
						<ele>63</ele>
						<time>2022-07-15T05:58:41Z</time>
					</trkpt>
					<trkpt lat="47.147270" lon="-0.174920">
						<ele>64</ele>
						<time>2022-07-15T05:58:43Z</time>
					</trkpt>
					<trkpt lat="47.147250" lon="-0.174890">
						<ele>64</ele>
						<time>2022-07-15T05:58:45Z</time>
					</trkpt>
					<trkpt lat="47.147220" lon="-0.174860">
						<ele>64</ele>
						<time>2022-07-15T05:58:47Z</time>
					</trkpt>
					<trkpt lat="47.147200" lon="-0.174830">
						<ele>64</ele>
						<time>2022-07-15T05:58:49Z</time>
					</trkpt>
					<trkpt lat="47.147170" lon="-0.174800">
						<ele>65</ele>
						<time>2022-07-15T05:58:51Z</time>
					</trkpt>
					<trkpt lat="47.147140" lon="-0.174770">
						<ele>65</ele>
						<time>2022-07-15T05:58:53Z</time>
					</trkpt>
					<trkpt lat="47.147110" lon="-0.174730">
						<ele>65</ele>
						<time>2022-07-15T05:58:55Z</time>
					</trkpt>
					<trkpt lat="47.147090" lon="-0.174700">
						<ele>65</ele>
						<time>2022-07-15T05:58:57Z</time>
					</trkpt>
					<trkpt lat="47.147070" lon="-0.174680">
						<ele>65</ele>
						<time>2022-07-15T05:58:59Z</time>
					</trkpt>
					<trkpt lat="47.147040" lon="-0.174650">
						<ele>66</ele>
						<time>2022-07-15T05:59:01Z</time>
					</trkpt>
					<trkpt lat="47.147020" lon="-0.174620">
						<ele>67</ele>
						<time>2022-07-15T05:59:04Z</time>
					</trkpt>
					<trkpt lat="47.146990" lon="-0.174590">
						<ele>68</ele>
						<time>2022-07-15T05:59:07Z</time>
					</trkpt>
					<trkpt lat="47.146970" lon="-0.174550">
						<ele>68</ele>
						<time>2022-07-15T05:59:09Z</time>
					</trkpt>
					<trkpt lat="47.146940" lon="-0.174530">
						<ele>69</ele>
						<time>2022-07-15T05:59:12Z</time>
					</trkpt>
					<trkpt lat="47.146910" lon="-0.174500">
						<ele>70</ele>
						<time>2022-07-15T05:59:15Z</time>
					</trkpt>
					<trkpt lat="47.146880" lon="-0.174450">
						<ele>69</ele>
						<time>2022-07-15T05:59:17Z</time>
					</trkpt>
					<trkpt lat="47.146860" lon="-0.174400">
						<ele>69</ele>
						<time>2022-07-15T05:59:19Z</time>
					</trkpt>
					<trkpt lat="47.146830" lon="-0.174370">
						<ele>68</ele>
						<time>2022-07-15T05:59:21Z</time>
					</trkpt>
					<trkpt lat="47.146810" lon="-0.174330">
						<ele>68</ele>
						<time>2022-07-15T05:59:23Z</time>
					</trkpt>
					<trkpt lat="47.146780" lon="-0.174300">
						<ele>68</ele>
						<time>2022-07-15T05:59:25Z</time>
					</trkpt>
					<trkpt lat="47.146750" lon="-0.174260">
						<ele>68</ele>
						<time>2022-07-15T05:59:27Z</time>
					</trkpt>
					<trkpt lat="47.146730" lon="-0.174220">
						<ele>68</ele>
						<time>2022-07-15T05:59:29Z</time>
					</trkpt>
					<trkpt lat="47.146700" lon="-0.174180">
						<ele>68</ele>
						<time>2022-07-15T05:59:31Z</time>
					</trkpt>
					<trkpt lat="47.146680" lon="-0.174150">
						<ele>68</ele>
						<time>2022-07-15T05:59:33Z</time>
					</trkpt>
					<trkpt lat="47.146650" lon="-0.174110">
						<ele>69</ele>
						<time>2022-07-15T05:59:35Z</time>
					</trkpt>
					<trkpt lat="47.146630" lon="-0.174080">
						<ele>69</ele>
						<time>2022-07-15T05:59:37Z</time>
					</trkpt>
					<trkpt lat="47.146610" lon="-0.174050">
						<ele>70</ele>
						<time>2022-07-15T05:59:39Z</time>
					</trkpt>
					<trkpt lat="47.146590" lon="-0.174010">
						<ele>71</ele>
						<time>2022-07-15T05:59:41Z</time>
					</trkpt>
					<trkpt lat="47.146570" lon="-0.173980">
						<ele>71</ele>
						<time>2022-07-15T05:59:43Z</time>
					</trkpt>
					<trkpt lat="47.146540" lon="-0.173940">
						<ele>71</ele>
						<time>2022-07-15T05:59:46Z</time>
					</trkpt>
					<trkpt lat="47.146510" lon="-0.173910">
						<ele>71</ele>
						<time>2022-07-15T05:59:48Z</time>
					</trkpt>
					<trkpt lat="47.146490" lon="-0.173880">
						<ele>72</ele>
						<time>2022-07-15T05:59:50Z</time>
					</trkpt>
					<trkpt lat="47.146460" lon="-0.173850">
						<ele>72</ele>
						<time>2022-07-15T05:59:52Z</time>
					</trkpt>
					<trkpt lat="47.146440" lon="-0.173810">
						<ele>72</ele>
						<time>2022-07-15T05:59:54Z</time>
					</trkpt>
					<trkpt lat="47.146410" lon="-0.173790">
						<ele>72</ele>
						<time>2022-07-15T05:59:56Z</time>
					</trkpt>
					<trkpt lat="47.146380" lon="-0.173770">
						<ele>72</ele>
						<time>2022-07-15T05:59:58Z</time>
					</trkpt>
					<trkpt lat="47.146350" lon="-0.173750">
						<ele>72</ele>
						<time>2022-07-15T06:00:00Z</time>
					</trkpt>
					<trkpt lat="47.146320" lon="-0.173710">
						<ele>71</ele>
						<time>2022-07-15T06:00:02Z</time>
					</trkpt>
					<trkpt lat="47.146290" lon="-0.173680">
						<ele>71</ele>
						<time>2022-07-15T06:00:05Z</time>
					</trkpt>
					<trkpt lat="47.146260" lon="-0.173660">
						<ele>71</ele>
						<time>2022-07-15T06:00:07Z</time>
					</trkpt>
					<trkpt lat="47.146230" lon="-0.173640">
						<ele>70</ele>
						<time>2022-07-15T06:00:09Z</time>
					</trkpt>
					<trkpt lat="47.146210" lon="-0.173610">
						<ele>70</ele>
						<time>2022-07-15T06:00:11Z</time>
					</trkpt>
					<trkpt lat="47.146170" lon="-0.173590">
						<ele>70</ele>
						<time>2022-07-15T06:00:14Z</time>
					</trkpt>
					<trkpt lat="47.146150" lon="-0.173550">
						<ele>70</ele>
						<time>2022-07-15T06:00:16Z</time>
					</trkpt>
					<trkpt lat="47.146120" lon="-0.173520">
						<ele>70</ele>
						<time>2022-07-15T06:00:18Z</time>
					</trkpt>
					<trkpt lat="47.146090" lon="-0.173490">
						<ele>70</ele>
						<time>2022-07-15T06:00:20Z</time>
					</trkpt>
					<trkpt lat="47.146070" lon="-0.173450">
						<ele>70</ele>
						<time>2022-07-15T06:00:22Z</time>
					</trkpt>
					<trkpt lat="47.146040" lon="-0.173410">
						<ele>70</ele>
						<time>2022-07-15T06:00:24Z</time>
					</trkpt>
					<trkpt lat="47.146030" lon="-0.173370">
						<ele>70</ele>
						<time>2022-07-15T06:00:26Z</time>
					</trkpt>
					<trkpt lat="47.146000" lon="-0.173330">
						<ele>70</ele>
						<time>2022-07-15T06:00:28Z</time>
					</trkpt>
					<trkpt lat="47.145980" lon="-0.173280">
						<ele>69</ele>
						<time>2022-07-15T06:00:30Z</time>
					</trkpt>
					<trkpt lat="47.145960" lon="-0.173240">
						<ele>68</ele>
						<time>2022-07-15T06:00:32Z</time>
					</trkpt>
					<trkpt lat="47.145930" lon="-0.173210">
						<ele>67</ele>
						<time>2022-07-15T06:00:34Z</time>
					</trkpt>
					<trkpt lat="47.145910" lon="-0.173180">
						<ele>67</ele>
						<time>2022-07-15T06:00:36Z</time>
					</trkpt>
					<trkpt lat="47.145880" lon="-0.173140">
						<ele>67</ele>
						<time>2022-07-15T06:00:38Z</time>
					</trkpt>
					<trkpt lat="47.145850" lon="-0.173110">
						<ele>68</ele>
						<time>2022-07-15T06:00:40Z</time>
					</trkpt>
					<trkpt lat="47.145830" lon="-0.173070">
						<ele>69</ele>
						<time>2022-07-15T06:00:42Z</time>
					</trkpt>
					<trkpt lat="47.145800" lon="-0.173040">
						<ele>69</ele>
						<time>2022-07-15T06:00:44Z</time>
					</trkpt>
					<trkpt lat="47.145770" lon="-0.173010">
						<ele>70</ele>
						<time>2022-07-15T06:00:46Z</time>
					</trkpt>
					<trkpt lat="47.145750" lon="-0.172980">
						<ele>70</ele>
						<time>2022-07-15T06:00:48Z</time>
					</trkpt>
					<trkpt lat="47.145720" lon="-0.172950">
						<ele>69</ele>
						<time>2022-07-15T06:00:50Z</time>
					</trkpt>
					<trkpt lat="47.145680" lon="-0.172910">
						<ele>69</ele>
						<time>2022-07-15T06:00:52Z</time>
					</trkpt>
					<trkpt lat="47.145650" lon="-0.172890">
						<ele>69</ele>
						<time>2022-07-15T06:00:54Z</time>
					</trkpt>
					<trkpt lat="47.145630" lon="-0.172860">
						<ele>69</ele>
						<time>2022-07-15T06:00:56Z</time>
					</trkpt>
					<trkpt lat="47.145600" lon="-0.172830">
						<ele>69</ele>
						<time>2022-07-15T06:00:58Z</time>
					</trkpt>
					<trkpt lat="47.145570" lon="-0.172810">
						<ele>70</ele>
						<time>2022-07-15T06:01:00Z</time>
					</trkpt>
					<trkpt lat="47.145540" lon="-0.172790">
						<ele>70</ele>
						<time>2022-07-15T06:01:02Z</time>
					</trkpt>
					<trkpt lat="47.145510" lon="-0.172770">
						<ele>70</ele>
						<time>2022-07-15T06:01:04Z</time>
					</trkpt>
					<trkpt lat="47.145480" lon="-0.172740">
						<ele>70</ele>
						<time>2022-07-15T06:01:06Z</time>
					</trkpt>
					<trkpt lat="47.145450" lon="-0.172710">
						<ele>70</ele>
						<time>2022-07-15T06:01:08Z</time>
					</trkpt>
					<trkpt lat="47.145420" lon="-0.172680">
						<ele>71</ele>
						<time>2022-07-15T06:01:10Z</time>
					</trkpt>
					<trkpt lat="47.145400" lon="-0.172640">
						<ele>71</ele>
						<time>2022-07-15T06:01:12Z</time>
					</trkpt>
					<trkpt lat="47.145370" lon="-0.172610">
						<ele>72</ele>
						<time>2022-07-15T06:01:14Z</time>
					</trkpt>
					<trkpt lat="47.145340" lon="-0.172580">
						<ele>71</ele>
						<time>2022-07-15T06:01:16Z</time>
					</trkpt>
					<trkpt lat="47.145310" lon="-0.172550">
						<ele>71</ele>
						<time>2022-07-15T06:01:18Z</time>
					</trkpt>
					<trkpt lat="47.145280" lon="-0.172530">
						<ele>71</ele>
						<time>2022-07-15T06:01:20Z</time>
					</trkpt>
					<trkpt lat="47.145250" lon="-0.172500">
						<ele>70</ele>
						<time>2022-07-15T06:01:22Z</time>
					</trkpt>
					<trkpt lat="47.145230" lon="-0.172470">
						<ele>70</ele>
						<time>2022-07-15T06:01:24Z</time>
					</trkpt>
					<trkpt lat="47.145210" lon="-0.172440">
						<ele>69</ele>
						<time>2022-07-15T06:01:26Z</time>
					</trkpt>
					<trkpt lat="47.145180" lon="-0.172420">
						<ele>69</ele>
						<time>2022-07-15T06:01:28Z</time>
					</trkpt>
					<trkpt lat="47.145160" lon="-0.172390">
						<ele>70</ele>
						<time>2022-07-15T06:01:30Z</time>
					</trkpt>
					<trkpt lat="47.145130" lon="-0.172370">
						<ele>70</ele>
						<time>2022-07-15T06:01:32Z</time>
					</trkpt>
					<trkpt lat="47.145100" lon="-0.172350">
						<ele>70</ele>
						<time>2022-07-15T06:01:34Z</time>
					</trkpt>
					<trkpt lat="47.145080" lon="-0.172330">
						<ele>70</ele>
						<time>2022-07-15T06:01:36Z</time>
					</trkpt>
					<trkpt lat="47.145050" lon="-0.172300">
						<ele>70</ele>
						<time>2022-07-15T06:01:38Z</time>
					</trkpt>
					<trkpt lat="47.145030" lon="-0.172270">
						<ele>70</ele>
						<time>2022-07-15T06:01:40Z</time>
					</trkpt>
					<trkpt lat="47.145000" lon="-0.172240">
						<ele>70</ele>
						<time>2022-07-15T06:01:42Z</time>
					</trkpt>
					<trkpt lat="47.144970" lon="-0.172210">
						<ele>70</ele>
						<time>2022-07-15T06:01:44Z</time>
					</trkpt>
					<trkpt lat="47.144940" lon="-0.172190">
						<ele>70</ele>
						<time>2022-07-15T06:01:46Z</time>
					</trkpt>
					<trkpt lat="47.144910" lon="-0.172160">
						<ele>70</ele>
						<time>2022-07-15T06:01:48Z</time>
					</trkpt>
					<trkpt lat="47.144870" lon="-0.172140">
						<ele>70</ele>
						<time>2022-07-15T06:01:50Z</time>
					</trkpt>
					<trkpt lat="47.144850" lon="-0.172100">
						<ele>69</ele>
						<time>2022-07-15T06:01:52Z</time>
					</trkpt>
					<trkpt lat="47.144820" lon="-0.172070">
						<ele>69</ele>
						<time>2022-07-15T06:01:54Z</time>
					</trkpt>
					<trkpt lat="47.144790" lon="-0.172040">
						<ele>69</ele>
						<time>2022-07-15T06:01:56Z</time>
					</trkpt>
					<trkpt lat="47.144760" lon="-0.172020">
						<ele>69</ele>
						<time>2022-07-15T06:01:58Z</time>
					</trkpt>
					<trkpt lat="47.144730" lon="-0.171990">
						<ele>68</ele>
						<time>2022-07-15T06:02:00Z</time>
					</trkpt>
					<trkpt lat="47.144700" lon="-0.171960">
						<ele>68</ele>
						<time>2022-07-15T06:02:02Z</time>
					</trkpt>
					<trkpt lat="47.144670" lon="-0.171930">
						<ele>68</ele>
						<time>2022-07-15T06:02:04Z</time>
					</trkpt>
					<trkpt lat="47.144650" lon="-0.171900">
						<ele>68</ele>
						<time>2022-07-15T06:02:06Z</time>
					</trkpt>
					<trkpt lat="47.144620" lon="-0.171860">
						<ele>68</ele>
						<time>2022-07-15T06:02:08Z</time>
					</trkpt>
					<trkpt lat="47.144600" lon="-0.171830">
						<ele>68</ele>
						<time>2022-07-15T06:02:10Z</time>
					</trkpt>
					<trkpt lat="47.144570" lon="-0.171810">
						<ele>68</ele>
						<time>2022-07-15T06:02:12Z</time>
					</trkpt>
					<trkpt lat="47.144560" lon="-0.171830">
						<ele>69</ele>
						<time>2022-07-15T06:02:14Z</time>
					</trkpt>
					<trkpt lat="47.144560" lon="-0.171800">
						<ele>70</ele>
						<time>2022-07-15T06:02:19Z</time>
					</trkpt>
					<trkpt lat="47.144540" lon="-0.171770">
						<ele>71</ele>
						<time>2022-07-15T06:02:21Z</time>
					</trkpt>
					<trkpt lat="47.144510" lon="-0.171740">
						<ele>72</ele>
						<time>2022-07-15T06:02:23Z</time>
					</trkpt>
					<trkpt lat="47.144490" lon="-0.171710">
						<ele>71</ele>
						<time>2022-07-15T06:02:25Z</time>
					</trkpt>
					<trkpt lat="47.144460" lon="-0.171680">
						<ele>71</ele>
						<time>2022-07-15T06:02:27Z</time>
					</trkpt>
					<trkpt lat="47.144440" lon="-0.171650">
						<ele>71</ele>
						<time>2022-07-15T06:02:29Z</time>
					</trkpt>
					<trkpt lat="47.144420" lon="-0.171610">
						<ele>71</ele>
						<time>2022-07-15T06:02:31Z</time>
					</trkpt>
					<trkpt lat="47.144390" lon="-0.171580">
						<ele>71</ele>
						<time>2022-07-15T06:02:33Z</time>
					</trkpt>
					<trkpt lat="47.144370" lon="-0.171540">
						<ele>71</ele>
						<time>2022-07-15T06:02:35Z</time>
					</trkpt>
					<trkpt lat="47.144350" lon="-0.171500">
						<ele>71</ele>
						<time>2022-07-15T06:02:37Z</time>
					</trkpt>
					<trkpt lat="47.144330" lon="-0.171470">
						<ele>71</ele>
						<time>2022-07-15T06:02:39Z</time>
					</trkpt>
					<trkpt lat="47.144310" lon="-0.171440">
						<ele>71</ele>
						<time>2022-07-15T06:02:41Z</time>
					</trkpt>
					<trkpt lat="47.144280" lon="-0.171420">
						<ele>71</ele>
						<time>2022-07-15T06:02:43Z</time>
					</trkpt>
					<trkpt lat="47.144260" lon="-0.171390">
						<ele>71</ele>
						<time>2022-07-15T06:02:45Z</time>
					</trkpt>
					<trkpt lat="47.144230" lon="-0.171350">
						<ele>70</ele>
						<time>2022-07-15T06:02:47Z</time>
					</trkpt>
					<trkpt lat="47.144210" lon="-0.171320">
						<ele>69</ele>
						<time>2022-07-15T06:02:49Z</time>
					</trkpt>
					<trkpt lat="47.144190" lon="-0.171290">
						<ele>69</ele>
						<time>2022-07-15T06:02:52Z</time>
					</trkpt>
					<trkpt lat="47.144170" lon="-0.171260">
						<ele>69</ele>
						<time>2022-07-15T06:02:54Z</time>
					</trkpt>
					<trkpt lat="47.144140" lon="-0.171230">
						<ele>70</ele>
						<time>2022-07-15T06:02:56Z</time>
					</trkpt>
					<trkpt lat="47.144120" lon="-0.171190">
						<ele>69</ele>
						<time>2022-07-15T06:02:59Z</time>
					</trkpt>
					<trkpt lat="47.144110" lon="-0.171150">
						<ele>70</ele>
						<time>2022-07-15T06:03:16Z</time>
					</trkpt>
					<trkpt lat="47.144080" lon="-0.171120">
						<ele>70</ele>
						<time>2022-07-15T06:03:18Z</time>
					</trkpt>
					<trkpt lat="47.144070" lon="-0.171080">
						<ele>70</ele>
						<time>2022-07-15T06:03:20Z</time>
					</trkpt>
					<trkpt lat="47.144040" lon="-0.171050">
						<ele>70</ele>
						<time>2022-07-15T06:03:22Z</time>
					</trkpt>
					<trkpt lat="47.144020" lon="-0.171020">
						<ele>68</ele>
						<time>2022-07-15T06:03:24Z</time>
					</trkpt>
					<trkpt lat="47.144000" lon="-0.170980">
						<ele>68</ele>
						<time>2022-07-15T06:03:27Z</time>
					</trkpt>
					<trkpt lat="47.143970" lon="-0.170950">
						<ele>68</ele>
						<time>2022-07-15T06:03:30Z</time>
					</trkpt>
					<trkpt lat="47.143940" lon="-0.170910">
						<ele>68</ele>
						<time>2022-07-15T06:03:33Z</time>
					</trkpt>
					<trkpt lat="47.143910" lon="-0.170880">
						<ele>68</ele>
						<time>2022-07-15T06:03:35Z</time>
					</trkpt>
					<trkpt lat="47.143890" lon="-0.170850">
						<ele>67</ele>
						<time>2022-07-15T06:03:37Z</time>
					</trkpt>
					<trkpt lat="47.143860" lon="-0.170820">
						<ele>66</ele>
						<time>2022-07-15T06:03:39Z</time>
					</trkpt>
					<trkpt lat="47.143830" lon="-0.170790">
						<ele>66</ele>
						<time>2022-07-15T06:03:41Z</time>
					</trkpt>
					<trkpt lat="47.143810" lon="-0.170760">
						<ele>65</ele>
						<time>2022-07-15T06:03:43Z</time>
					</trkpt>
					<trkpt lat="47.143780" lon="-0.170730">
						<ele>66</ele>
						<time>2022-07-15T06:03:45Z</time>
					</trkpt>
					<trkpt lat="47.143760" lon="-0.170700">
						<ele>66</ele>
						<time>2022-07-15T06:03:48Z</time>
					</trkpt>
					<trkpt lat="47.143730" lon="-0.170670">
						<ele>66</ele>
						<time>2022-07-15T06:03:50Z</time>
					</trkpt>
					<trkpt lat="47.143700" lon="-0.170650">
						<ele>66</ele>
						<time>2022-07-15T06:03:52Z</time>
					</trkpt>
					<trkpt lat="47.143670" lon="-0.170620">
						<ele>66</ele>
						<time>2022-07-15T06:03:54Z</time>
					</trkpt>
					<trkpt lat="47.143640" lon="-0.170590">
						<ele>65</ele>
						<time>2022-07-15T06:03:56Z</time>
					</trkpt>
					<trkpt lat="47.143620" lon="-0.170560">
						<ele>65</ele>
						<time>2022-07-15T06:03:58Z</time>
					</trkpt>
					<trkpt lat="47.143600" lon="-0.170530">
						<ele>65</ele>
						<time>2022-07-15T06:04:00Z</time>
					</trkpt>
					<trkpt lat="47.143570" lon="-0.170500">
						<ele>65</ele>
						<time>2022-07-15T06:04:02Z</time>
					</trkpt>
					<trkpt lat="47.143540" lon="-0.170480">
						<ele>65</ele>
						<time>2022-07-15T06:04:04Z</time>
					</trkpt>
					<trkpt lat="47.143520" lon="-0.170450">
						<ele>65</ele>
						<time>2022-07-15T06:04:06Z</time>
					</trkpt>
					<trkpt lat="47.143500" lon="-0.170420">
						<ele>65</ele>
						<time>2022-07-15T06:04:08Z</time>
					</trkpt>
					<trkpt lat="47.143480" lon="-0.170390">
						<ele>65</ele>
						<time>2022-07-15T06:04:10Z</time>
					</trkpt>
					<trkpt lat="47.143460" lon="-0.170360">
						<ele>65</ele>
						<time>2022-07-15T06:04:12Z</time>
					</trkpt>
					<trkpt lat="47.143430" lon="-0.170330">
						<ele>65</ele>
						<time>2022-07-15T06:04:14Z</time>
					</trkpt>
					<trkpt lat="47.143410" lon="-0.170310">
						<ele>65</ele>
						<time>2022-07-15T06:04:16Z</time>
					</trkpt>
					<trkpt lat="47.143380" lon="-0.170280">
						<ele>66</ele>
						<time>2022-07-15T06:04:18Z</time>
					</trkpt>
					<trkpt lat="47.143350" lon="-0.170250">
						<ele>65</ele>
						<time>2022-07-15T06:04:20Z</time>
					</trkpt>
					<trkpt lat="47.143320" lon="-0.170220">
						<ele>65</ele>
						<time>2022-07-15T06:04:22Z</time>
					</trkpt>
					<trkpt lat="47.143300" lon="-0.170190">
						<ele>65</ele>
						<time>2022-07-15T06:04:24Z</time>
					</trkpt>
					<trkpt lat="47.143270" lon="-0.170160">
						<ele>65</ele>
						<time>2022-07-15T06:04:26Z</time>
					</trkpt>
					<trkpt lat="47.143240" lon="-0.170130">
						<ele>65</ele>
						<time>2022-07-15T06:04:28Z</time>
					</trkpt>
					<trkpt lat="47.143210" lon="-0.170090">
						<ele>65</ele>
						<time>2022-07-15T06:04:30Z</time>
					</trkpt>
					<trkpt lat="47.143170" lon="-0.170060">
						<ele>65</ele>
						<time>2022-07-15T06:04:32Z</time>
					</trkpt>
					<trkpt lat="47.143140" lon="-0.170030">
						<ele>65</ele>
						<time>2022-07-15T06:04:34Z</time>
					</trkpt>
					<trkpt lat="47.143100" lon="-0.169990">
						<ele>65</ele>
						<time>2022-07-15T06:04:36Z</time>
					</trkpt>
					<trkpt lat="47.143070" lon="-0.169950">
						<ele>65</ele>
						<time>2022-07-15T06:04:38Z</time>
					</trkpt>
					<trkpt lat="47.143040" lon="-0.169910">
						<ele>65</ele>
						<time>2022-07-15T06:04:40Z</time>
					</trkpt>
					<trkpt lat="47.143000" lon="-0.169880">
						<ele>65</ele>
						<time>2022-07-15T06:04:42Z</time>
					</trkpt>
					<trkpt lat="47.142970" lon="-0.169850">
						<ele>65</ele>
						<time>2022-07-15T06:04:44Z</time>
					</trkpt>
					<trkpt lat="47.142940" lon="-0.169810">
						<ele>66</ele>
						<time>2022-07-15T06:04:46Z</time>
					</trkpt>
					<trkpt lat="47.142900" lon="-0.169780">
						<ele>66</ele>
						<time>2022-07-15T06:04:48Z</time>
					</trkpt>
					<trkpt lat="47.142870" lon="-0.169740">
						<ele>66</ele>
						<time>2022-07-15T06:04:50Z</time>
					</trkpt>
					<trkpt lat="47.142830" lon="-0.169700">
						<ele>66</ele>
						<time>2022-07-15T06:04:52Z</time>
					</trkpt>
					<trkpt lat="47.142800" lon="-0.169670">
						<ele>66</ele>
						<time>2022-07-15T06:04:54Z</time>
					</trkpt>
					<trkpt lat="47.142760" lon="-0.169640">
						<ele>66</ele>
						<time>2022-07-15T06:04:56Z</time>
					</trkpt>
					<trkpt lat="47.142730" lon="-0.169600">
						<ele>65</ele>
						<time>2022-07-15T06:04:58Z</time>
					</trkpt>
					<trkpt lat="47.142700" lon="-0.169570">
						<ele>65</ele>
						<time>2022-07-15T06:05:00Z</time>
					</trkpt>
					<trkpt lat="47.142670" lon="-0.169530">
						<ele>65</ele>
						<time>2022-07-15T06:05:02Z</time>
					</trkpt>
					<trkpt lat="47.142630" lon="-0.169500">
						<ele>65</ele>
						<time>2022-07-15T06:05:04Z</time>
					</trkpt>
					<trkpt lat="47.142600" lon="-0.169460">
						<ele>65</ele>
						<time>2022-07-15T06:05:06Z</time>
					</trkpt>
					<trkpt lat="47.142570" lon="-0.169430">
						<ele>65</ele>
						<time>2022-07-15T06:05:08Z</time>
					</trkpt>
					<trkpt lat="47.142530" lon="-0.169390">
						<ele>65</ele>
						<time>2022-07-15T06:05:10Z</time>
					</trkpt>
					<trkpt lat="47.142500" lon="-0.169340">
						<ele>65</ele>
						<time>2022-07-15T06:05:12Z</time>
					</trkpt>
					<trkpt lat="47.142470" lon="-0.169290">
						<ele>65</ele>
						<time>2022-07-15T06:05:14Z</time>
					</trkpt>
					<trkpt lat="47.142440" lon="-0.169240">
						<ele>65</ele>
						<time>2022-07-15T06:05:16Z</time>
					</trkpt>
					<trkpt lat="47.142410" lon="-0.169200">
						<ele>65</ele>
						<time>2022-07-15T06:05:18Z</time>
					</trkpt>
					<trkpt lat="47.142370" lon="-0.169160">
						<ele>65</ele>
						<time>2022-07-15T06:05:20Z</time>
					</trkpt>
					<trkpt lat="47.142340" lon="-0.169120">
						<ele>64</ele>
						<time>2022-07-15T06:05:22Z</time>
					</trkpt>
					<trkpt lat="47.142300" lon="-0.169090">
						<ele>64</ele>
						<time>2022-07-15T06:05:24Z</time>
					</trkpt>
					<trkpt lat="47.142270" lon="-0.169060">
						<ele>64</ele>
						<time>2022-07-15T06:05:26Z</time>
					</trkpt>
					<trkpt lat="47.142230" lon="-0.169030">
						<ele>64</ele>
						<time>2022-07-15T06:05:28Z</time>
					</trkpt>
					<trkpt lat="47.142200" lon="-0.169000">
						<ele>64</ele>
						<time>2022-07-15T06:05:30Z</time>
					</trkpt>
					<trkpt lat="47.142170" lon="-0.168960">
						<ele>64</ele>
						<time>2022-07-15T06:05:32Z</time>
					</trkpt>
					<trkpt lat="47.142140" lon="-0.168920">
						<ele>64</ele>
						<time>2022-07-15T06:05:34Z</time>
					</trkpt>
					<trkpt lat="47.142100" lon="-0.168890">
						<ele>63</ele>
						<time>2022-07-15T06:05:36Z</time>
					</trkpt>
					<trkpt lat="47.142070" lon="-0.168840">
						<ele>63</ele>
						<time>2022-07-15T06:05:38Z</time>
					</trkpt>
					<trkpt lat="47.142040" lon="-0.168810">
						<ele>63</ele>
						<time>2022-07-15T06:05:40Z</time>
					</trkpt>
					<trkpt lat="47.142010" lon="-0.168770">
						<ele>63</ele>
						<time>2022-07-15T06:05:42Z</time>
					</trkpt>
					<trkpt lat="47.141970" lon="-0.168720">
						<ele>62</ele>
						<time>2022-07-15T06:05:44Z</time>
					</trkpt>
					<trkpt lat="47.141940" lon="-0.168680">
						<ele>62</ele>
						<time>2022-07-15T06:05:46Z</time>
					</trkpt>
					<trkpt lat="47.141900" lon="-0.168630">
						<ele>62</ele>
						<time>2022-07-15T06:05:48Z</time>
					</trkpt>
					<trkpt lat="47.141860" lon="-0.168600">
						<ele>61</ele>
						<time>2022-07-15T06:05:50Z</time>
					</trkpt>
					<trkpt lat="47.141830" lon="-0.168560">
						<ele>62</ele>
						<time>2022-07-15T06:05:52Z</time>
					</trkpt>
					<trkpt lat="47.141790" lon="-0.168530">
						<ele>62</ele>
						<time>2022-07-15T06:05:54Z</time>
					</trkpt>
					<trkpt lat="47.141760" lon="-0.168490">
						<ele>62</ele>
						<time>2022-07-15T06:05:56Z</time>
					</trkpt>
					<trkpt lat="47.141730" lon="-0.168450">
						<ele>62</ele>
						<time>2022-07-15T06:05:58Z</time>
					</trkpt>
					<trkpt lat="47.141700" lon="-0.168410">
						<ele>61</ele>
						<time>2022-07-15T06:06:00Z</time>
					</trkpt>
					<trkpt lat="47.141660" lon="-0.168370">
						<ele>62</ele>
						<time>2022-07-15T06:06:02Z</time>
					</trkpt>
					<trkpt lat="47.141620" lon="-0.168330">
						<ele>62</ele>
						<time>2022-07-15T06:06:04Z</time>
					</trkpt>
					<trkpt lat="47.141590" lon="-0.168290">
						<ele>62</ele>
						<time>2022-07-15T06:06:06Z</time>
					</trkpt>
					<trkpt lat="47.141560" lon="-0.168250">
						<ele>62</ele>
						<time>2022-07-15T06:06:08Z</time>
					</trkpt>
					<trkpt lat="47.141520" lon="-0.168220">
						<ele>61</ele>
						<time>2022-07-15T06:06:10Z</time>
					</trkpt>
					<trkpt lat="47.141490" lon="-0.168180">
						<ele>62</ele>
						<time>2022-07-15T06:06:12Z</time>
					</trkpt>
					<trkpt lat="47.141450" lon="-0.168140">
						<ele>61</ele>
						<time>2022-07-15T06:06:14Z</time>
					</trkpt>
					<trkpt lat="47.141420" lon="-0.168110">
						<ele>61</ele>
						<time>2022-07-15T06:06:16Z</time>
					</trkpt>
					<trkpt lat="47.141390" lon="-0.168070">
						<ele>61</ele>
						<time>2022-07-15T06:06:18Z</time>
					</trkpt>
					<trkpt lat="47.141350" lon="-0.168040">
						<ele>61</ele>
						<time>2022-07-15T06:06:20Z</time>
					</trkpt>
					<trkpt lat="47.141320" lon="-0.168000">
						<ele>61</ele>
						<time>2022-07-15T06:06:22Z</time>
					</trkpt>
					<trkpt lat="47.141290" lon="-0.167960">
						<ele>61</ele>
						<time>2022-07-15T06:06:24Z</time>
					</trkpt>
					<trkpt lat="47.141250" lon="-0.167930">
						<ele>62</ele>
						<time>2022-07-15T06:06:26Z</time>
					</trkpt>
					<trkpt lat="47.141220" lon="-0.167890">
						<ele>61</ele>
						<time>2022-07-15T06:06:28Z</time>
					</trkpt>
					<trkpt lat="47.141190" lon="-0.167850">
						<ele>61</ele>
						<time>2022-07-15T06:06:30Z</time>
					</trkpt>
					<trkpt lat="47.141160" lon="-0.167820">
						<ele>61</ele>
						<time>2022-07-15T06:06:32Z</time>
					</trkpt>
					<trkpt lat="47.141120" lon="-0.167780">
						<ele>61</ele>
						<time>2022-07-15T06:06:34Z</time>
					</trkpt>
					<trkpt lat="47.141090" lon="-0.167740">
						<ele>60</ele>
						<time>2022-07-15T06:06:36Z</time>
					</trkpt>
					<trkpt lat="47.141050" lon="-0.167710">
						<ele>60</ele>
						<time>2022-07-15T06:06:38Z</time>
					</trkpt>
					<trkpt lat="47.141020" lon="-0.167670">
						<ele>60</ele>
						<time>2022-07-15T06:06:40Z</time>
					</trkpt>
					<trkpt lat="47.140980" lon="-0.167640">
						<ele>60</ele>
						<time>2022-07-15T06:06:42Z</time>
					</trkpt>
					<trkpt lat="47.140940" lon="-0.167600">
						<ele>59</ele>
						<time>2022-07-15T06:06:44Z</time>
					</trkpt>
					<trkpt lat="47.140910" lon="-0.167570">
						<ele>59</ele>
						<time>2022-07-15T06:06:46Z</time>
					</trkpt>
					<trkpt lat="47.140880" lon="-0.167540">
						<ele>58</ele>
						<time>2022-07-15T06:06:48Z</time>
					</trkpt>
					<trkpt lat="47.140840" lon="-0.167500">
						<ele>58</ele>
						<time>2022-07-15T06:06:50Z</time>
					</trkpt>
					<trkpt lat="47.140810" lon="-0.167460">
						<ele>58</ele>
						<time>2022-07-15T06:06:52Z</time>
					</trkpt>
					<trkpt lat="47.140770" lon="-0.167420">
						<ele>58</ele>
						<time>2022-07-15T06:06:54Z</time>
					</trkpt>
					<trkpt lat="47.140740" lon="-0.167380">
						<ele>57</ele>
						<time>2022-07-15T06:06:56Z</time>
					</trkpt>
					<trkpt lat="47.140700" lon="-0.167340">
						<ele>58</ele>
						<time>2022-07-15T06:06:58Z</time>
					</trkpt>
					<trkpt lat="47.140670" lon="-0.167310">
						<ele>58</ele>
						<time>2022-07-15T06:07:00Z</time>
					</trkpt>
					<trkpt lat="47.140640" lon="-0.167270">
						<ele>57</ele>
						<time>2022-07-15T06:07:02Z</time>
					</trkpt>
					<trkpt lat="47.140600" lon="-0.167230">
						<ele>57</ele>
						<time>2022-07-15T06:07:04Z</time>
					</trkpt>
					<trkpt lat="47.140570" lon="-0.167200">
						<ele>57</ele>
						<time>2022-07-15T06:07:06Z</time>
					</trkpt>
					<trkpt lat="47.140540" lon="-0.167160">
						<ele>57</ele>
						<time>2022-07-15T06:07:08Z</time>
					</trkpt>
					<trkpt lat="47.140500" lon="-0.167130">
						<ele>57</ele>
						<time>2022-07-15T06:07:10Z</time>
					</trkpt>
					<trkpt lat="47.140470" lon="-0.167100">
						<ele>57</ele>
						<time>2022-07-15T06:07:12Z</time>
					</trkpt>
					<trkpt lat="47.140430" lon="-0.167070">
						<ele>57</ele>
						<time>2022-07-15T06:07:14Z</time>
					</trkpt>
					<trkpt lat="47.140390" lon="-0.167030">
						<ele>57</ele>
						<time>2022-07-15T06:07:16Z</time>
					</trkpt>
					<trkpt lat="47.140350" lon="-0.166990">
						<ele>56</ele>
						<time>2022-07-15T06:07:18Z</time>
					</trkpt>
					<trkpt lat="47.140320" lon="-0.166950">
						<ele>56</ele>
						<time>2022-07-15T06:07:20Z</time>
					</trkpt>
					<trkpt lat="47.140280" lon="-0.166910">
						<ele>56</ele>
						<time>2022-07-15T06:07:22Z</time>
					</trkpt>
					<trkpt lat="47.140250" lon="-0.166880">
						<ele>56</ele>
						<time>2022-07-15T06:07:24Z</time>
					</trkpt>
					<trkpt lat="47.140220" lon="-0.166840">
						<ele>57</ele>
						<time>2022-07-15T06:07:26Z</time>
					</trkpt>
					<trkpt lat="47.140200" lon="-0.166800">
						<ele>57</ele>
						<time>2022-07-15T06:07:28Z</time>
					</trkpt>
					<trkpt lat="47.140160" lon="-0.166760">
						<ele>57</ele>
						<time>2022-07-15T06:07:30Z</time>
					</trkpt>
					<trkpt lat="47.140130" lon="-0.166720">
						<ele>57</ele>
						<time>2022-07-15T06:07:32Z</time>
					</trkpt>
					<trkpt lat="47.140100" lon="-0.166680">
						<ele>57</ele>
						<time>2022-07-15T06:07:34Z</time>
					</trkpt>
					<trkpt lat="47.140060" lon="-0.166640">
						<ele>57</ele>
						<time>2022-07-15T06:07:36Z</time>
					</trkpt>
					<trkpt lat="47.140030" lon="-0.166600">
						<ele>57</ele>
						<time>2022-07-15T06:07:38Z</time>
					</trkpt>
					<trkpt lat="47.139990" lon="-0.166570">
						<ele>57</ele>
						<time>2022-07-15T06:07:40Z</time>
					</trkpt>
					<trkpt lat="47.139960" lon="-0.166530">
						<ele>57</ele>
						<time>2022-07-15T06:07:42Z</time>
					</trkpt>
					<trkpt lat="47.139920" lon="-0.166500">
						<ele>57</ele>
						<time>2022-07-15T06:07:44Z</time>
					</trkpt>
					<trkpt lat="47.139890" lon="-0.166460">
						<ele>57</ele>
						<time>2022-07-15T06:07:46Z</time>
					</trkpt>
					<trkpt lat="47.139850" lon="-0.166420">
						<ele>57</ele>
						<time>2022-07-15T06:07:48Z</time>
					</trkpt>
					<trkpt lat="47.139820" lon="-0.166380">
						<ele>57</ele>
						<time>2022-07-15T06:07:50Z</time>
					</trkpt>
					<trkpt lat="47.139790" lon="-0.166340">
						<ele>57</ele>
						<time>2022-07-15T06:07:52Z</time>
					</trkpt>
					<trkpt lat="47.139760" lon="-0.166300">
						<ele>57</ele>
						<time>2022-07-15T06:07:54Z</time>
					</trkpt>
					<trkpt lat="47.139720" lon="-0.166260">
						<ele>57</ele>
						<time>2022-07-15T06:07:56Z</time>
					</trkpt>
					<trkpt lat="47.139690" lon="-0.166230">
						<ele>57</ele>
						<time>2022-07-15T06:07:58Z</time>
					</trkpt>
					<trkpt lat="47.139660" lon="-0.166200">
						<ele>57</ele>
						<time>2022-07-15T06:08:00Z</time>
					</trkpt>
					<trkpt lat="47.139620" lon="-0.166160">
						<ele>57</ele>
						<time>2022-07-15T06:08:02Z</time>
					</trkpt>
					<trkpt lat="47.139590" lon="-0.166120">
						<ele>56</ele>
						<time>2022-07-15T06:08:04Z</time>
					</trkpt>
					<trkpt lat="47.139560" lon="-0.166090">
						<ele>56</ele>
						<time>2022-07-15T06:08:06Z</time>
					</trkpt>
					<trkpt lat="47.139530" lon="-0.166060">
						<ele>56</ele>
						<time>2022-07-15T06:08:08Z</time>
					</trkpt>
					<trkpt lat="47.139510" lon="-0.166030">
						<ele>56</ele>
						<time>2022-07-15T06:08:10Z</time>
					</trkpt>
					<trkpt lat="47.139480" lon="-0.165990">
						<ele>55</ele>
						<time>2022-07-15T06:08:12Z</time>
					</trkpt>
					<trkpt lat="47.139450" lon="-0.165960">
						<ele>55</ele>
						<time>2022-07-15T06:08:14Z</time>
					</trkpt>
					<trkpt lat="47.139430" lon="-0.165920">
						<ele>55</ele>
						<time>2022-07-15T06:08:16Z</time>
					</trkpt>
					<trkpt lat="47.139400" lon="-0.165880">
						<ele>55</ele>
						<time>2022-07-15T06:08:18Z</time>
					</trkpt>
					<trkpt lat="47.139370" lon="-0.165840">
						<ele>55</ele>
						<time>2022-07-15T06:08:20Z</time>
					</trkpt>
					<trkpt lat="47.139340" lon="-0.165810">
						<ele>55</ele>
						<time>2022-07-15T06:08:22Z</time>
					</trkpt>
					<trkpt lat="47.139310" lon="-0.165790">
						<ele>55</ele>
						<time>2022-07-15T06:08:24Z</time>
					</trkpt>
					<trkpt lat="47.139280" lon="-0.165760">
						<ele>55</ele>
						<time>2022-07-15T06:08:26Z</time>
					</trkpt>
					<trkpt lat="47.139260" lon="-0.165730">
						<ele>55</ele>
						<time>2022-07-15T06:08:28Z</time>
					</trkpt>
					<trkpt lat="47.139230" lon="-0.165700">
						<ele>55</ele>
						<time>2022-07-15T06:08:30Z</time>
					</trkpt>
					<trkpt lat="47.139210" lon="-0.165670">
						<ele>56</ele>
						<time>2022-07-15T06:08:32Z</time>
					</trkpt>
					<trkpt lat="47.139190" lon="-0.165640">
						<ele>56</ele>
						<time>2022-07-15T06:08:34Z</time>
					</trkpt>
					<trkpt lat="47.139160" lon="-0.165610">
						<ele>55</ele>
						<time>2022-07-15T06:08:37Z</time>
					</trkpt>
					<trkpt lat="47.139130" lon="-0.165580">
						<ele>55</ele>
						<time>2022-07-15T06:08:39Z</time>
					</trkpt>
					<trkpt lat="47.139110" lon="-0.165550">
						<ele>55</ele>
						<time>2022-07-15T06:08:41Z</time>
					</trkpt>
					<trkpt lat="47.139080" lon="-0.165520">
						<ele>55</ele>
						<time>2022-07-15T06:08:43Z</time>
					</trkpt>
					<trkpt lat="47.139050" lon="-0.165500">
						<ele>55</ele>
						<time>2022-07-15T06:08:45Z</time>
					</trkpt>
					<trkpt lat="47.139030" lon="-0.165470">
						<ele>55</ele>
						<time>2022-07-15T06:08:47Z</time>
					</trkpt>
					<trkpt lat="47.139000" lon="-0.165440">
						<ele>55</ele>
						<time>2022-07-15T06:08:49Z</time>
					</trkpt>
					<trkpt lat="47.138970" lon="-0.165410">
						<ele>56</ele>
						<time>2022-07-15T06:08:51Z</time>
					</trkpt>
					<trkpt lat="47.138940" lon="-0.165380">
						<ele>56</ele>
						<time>2022-07-15T06:08:53Z</time>
					</trkpt>
					<trkpt lat="47.138920" lon="-0.165350">
						<ele>57</ele>
						<time>2022-07-15T06:08:55Z</time>
					</trkpt>
					<trkpt lat="47.138890" lon="-0.165320">
						<ele>57</ele>
						<time>2022-07-15T06:08:57Z</time>
					</trkpt>
					<trkpt lat="47.138870" lon="-0.165290">
						<ele>57</ele>
						<time>2022-07-15T06:08:59Z</time>
					</trkpt>
					<trkpt lat="47.138840" lon="-0.165260">
						<ele>58</ele>
						<time>2022-07-15T06:09:01Z</time>
					</trkpt>
					<trkpt lat="47.138810" lon="-0.165230">
						<ele>58</ele>
						<time>2022-07-15T06:09:03Z</time>
					</trkpt>
					<trkpt lat="47.138790" lon="-0.165200">
						<ele>59</ele>
						<time>2022-07-15T06:09:05Z</time>
					</trkpt>
					<trkpt lat="47.138760" lon="-0.165180">
						<ele>59</ele>
						<time>2022-07-15T06:09:07Z</time>
					</trkpt>
					<trkpt lat="47.138730" lon="-0.165150">
						<ele>59</ele>
						<time>2022-07-15T06:09:09Z</time>
					</trkpt>
					<trkpt lat="47.138710" lon="-0.165120">
						<ele>60</ele>
						<time>2022-07-15T06:09:11Z</time>
					</trkpt>
					<trkpt lat="47.138690" lon="-0.165090">
						<ele>60</ele>
						<time>2022-07-15T06:09:13Z</time>
					</trkpt>
					<trkpt lat="47.138670" lon="-0.165060">
						<ele>60</ele>
						<time>2022-07-15T06:09:15Z</time>
					</trkpt>
					<trkpt lat="47.138640" lon="-0.165020">
						<ele>60</ele>
						<time>2022-07-15T06:09:17Z</time>
					</trkpt>
					<trkpt lat="47.138620" lon="-0.164990">
						<ele>60</ele>
						<time>2022-07-15T06:09:19Z</time>
					</trkpt>
					<trkpt lat="47.138600" lon="-0.164960">
						<ele>60</ele>
						<time>2022-07-15T06:09:21Z</time>
					</trkpt>
					<trkpt lat="47.138570" lon="-0.164930">
						<ele>60</ele>
						<time>2022-07-15T06:09:23Z</time>
					</trkpt>
					<trkpt lat="47.138550" lon="-0.164900">
						<ele>61</ele>
						<time>2022-07-15T06:09:25Z</time>
					</trkpt>
					<trkpt lat="47.138520" lon="-0.164870">
						<ele>61</ele>
						<time>2022-07-15T06:09:27Z</time>
					</trkpt>
					<trkpt lat="47.138500" lon="-0.164840">
						<ele>61</ele>
						<time>2022-07-15T06:09:29Z</time>
					</trkpt>
					<trkpt lat="47.138470" lon="-0.164810">
						<ele>60</ele>
						<time>2022-07-15T06:09:31Z</time>
					</trkpt>
					<trkpt lat="47.138450" lon="-0.164770">
						<ele>61</ele>
						<time>2022-07-15T06:09:33Z</time>
					</trkpt>
					<trkpt lat="47.138420" lon="-0.164740">
						<ele>60</ele>
						<time>2022-07-15T06:09:35Z</time>
					</trkpt>
					<trkpt lat="47.138390" lon="-0.164710">
						<ele>60</ele>
						<time>2022-07-15T06:09:37Z</time>
					</trkpt>
					<trkpt lat="47.138370" lon="-0.164680">
						<ele>59</ele>
						<time>2022-07-15T06:09:39Z</time>
					</trkpt>
					<trkpt lat="47.138350" lon="-0.164650">
						<ele>59</ele>
						<time>2022-07-15T06:09:41Z</time>
					</trkpt>
					<trkpt lat="47.138330" lon="-0.164620">
						<ele>58</ele>
						<time>2022-07-15T06:09:43Z</time>
					</trkpt>
					<trkpt lat="47.138310" lon="-0.164590">
						<ele>58</ele>
						<time>2022-07-15T06:09:45Z</time>
					</trkpt>
					<trkpt lat="47.138280" lon="-0.164570">
						<ele>58</ele>
						<time>2022-07-15T06:09:47Z</time>
					</trkpt>
					<trkpt lat="47.138250" lon="-0.164550">
						<ele>58</ele>
						<time>2022-07-15T06:09:50Z</time>
					</trkpt>
					<trkpt lat="47.138230" lon="-0.164520">
						<ele>57</ele>
						<time>2022-07-15T06:09:52Z</time>
					</trkpt>
					<trkpt lat="47.138200" lon="-0.164490">
						<ele>57</ele>
						<time>2022-07-15T06:09:54Z</time>
					</trkpt>
					<trkpt lat="47.138170" lon="-0.164460">
						<ele>56</ele>
						<time>2022-07-15T06:09:56Z</time>
					</trkpt>
					<trkpt lat="47.138140" lon="-0.164430">
						<ele>56</ele>
						<time>2022-07-15T06:09:59Z</time>
					</trkpt>
					<trkpt lat="47.138110" lon="-0.164400">
						<ele>55</ele>
						<time>2022-07-15T06:10:02Z</time>
					</trkpt>
					<trkpt lat="47.138080" lon="-0.164360">
						<ele>55</ele>
						<time>2022-07-15T06:10:04Z</time>
					</trkpt>
					<trkpt lat="47.138050" lon="-0.164330">
						<ele>54</ele>
						<time>2022-07-15T06:10:06Z</time>
					</trkpt>
					<trkpt lat="47.138030" lon="-0.164310">
						<ele>53</ele>
						<time>2022-07-15T06:10:08Z</time>
					</trkpt>
					<trkpt lat="47.138000" lon="-0.164290">
						<ele>52</ele>
						<time>2022-07-15T06:10:10Z</time>
					</trkpt>
					<trkpt lat="47.137970" lon="-0.164260">
						<ele>52</ele>
						<time>2022-07-15T06:10:12Z</time>
					</trkpt>
					<trkpt lat="47.137940" lon="-0.164240">
						<ele>51</ele>
						<time>2022-07-15T06:10:14Z</time>
					</trkpt>
					<trkpt lat="47.137910" lon="-0.164210">
						<ele>51</ele>
						<time>2022-07-15T06:10:16Z</time>
					</trkpt>
					<trkpt lat="47.137890" lon="-0.164180">
						<ele>51</ele>
						<time>2022-07-15T06:10:18Z</time>
					</trkpt>
					<trkpt lat="47.137870" lon="-0.164160">
						<ele>51</ele>
						<time>2022-07-15T06:10:20Z</time>
					</trkpt>
					<trkpt lat="47.137840" lon="-0.164140">
						<ele>51</ele>
						<time>2022-07-15T06:10:23Z</time>
					</trkpt>
					<trkpt lat="47.137810" lon="-0.164110">
						<ele>52</ele>
						<time>2022-07-15T06:10:25Z</time>
					</trkpt>
					<trkpt lat="47.137790" lon="-0.164090">
						<ele>52</ele>
						<time>2022-07-15T06:10:27Z</time>
					</trkpt>
					<trkpt lat="47.137760" lon="-0.164060">
						<ele>52</ele>
						<time>2022-07-15T06:10:29Z</time>
					</trkpt>
					<trkpt lat="47.137730" lon="-0.164030">
						<ele>52</ele>
						<time>2022-07-15T06:10:31Z</time>
					</trkpt>
					<trkpt lat="47.137700" lon="-0.164010">
						<ele>52</ele>
						<time>2022-07-15T06:10:33Z</time>
					</trkpt>
					<trkpt lat="47.137670" lon="-0.163980">
						<ele>51</ele>
						<time>2022-07-15T06:10:35Z</time>
					</trkpt>
					<trkpt lat="47.137640" lon="-0.163970">
						<ele>51</ele>
						<time>2022-07-15T06:10:37Z</time>
					</trkpt>
					<trkpt lat="47.137620" lon="-0.163950">
						<ele>51</ele>
						<time>2022-07-15T06:10:39Z</time>
					</trkpt>
					<trkpt lat="47.137590" lon="-0.163920">
						<ele>52</ele>
						<time>2022-07-15T06:10:41Z</time>
					</trkpt>
					<trkpt lat="47.137560" lon="-0.163890">
						<ele>52</ele>
						<time>2022-07-15T06:10:43Z</time>
					</trkpt>
					<trkpt lat="47.137530" lon="-0.163870">
						<ele>52</ele>
						<time>2022-07-15T06:10:45Z</time>
					</trkpt>
					<trkpt lat="47.137500" lon="-0.163840">
						<ele>53</ele>
						<time>2022-07-15T06:10:47Z</time>
					</trkpt>
					<trkpt lat="47.137470" lon="-0.163820">
						<ele>54</ele>
						<time>2022-07-15T06:10:49Z</time>
					</trkpt>
					<trkpt lat="47.137440" lon="-0.163800">
						<ele>54</ele>
						<time>2022-07-15T06:10:51Z</time>
					</trkpt>
					<trkpt lat="47.137410" lon="-0.163780">
						<ele>54</ele>
						<time>2022-07-15T06:10:53Z</time>
					</trkpt>
					<trkpt lat="47.137380" lon="-0.163760">
						<ele>55</ele>
						<time>2022-07-15T06:10:55Z</time>
					</trkpt>
					<trkpt lat="47.137350" lon="-0.163740">
						<ele>56</ele>
						<time>2022-07-15T06:10:57Z</time>
					</trkpt>
					<trkpt lat="47.137320" lon="-0.163730">
						<ele>56</ele>
						<time>2022-07-15T06:10:59Z</time>
					</trkpt>
					<trkpt lat="47.137290" lon="-0.163710">
						<ele>56</ele>
						<time>2022-07-15T06:11:01Z</time>
					</trkpt>
					<trkpt lat="47.137260" lon="-0.163680">
						<ele>56</ele>
						<time>2022-07-15T06:11:05Z</time>
					</trkpt>
					<trkpt lat="47.137240" lon="-0.163650">
						<ele>55</ele>
						<time>2022-07-15T06:11:09Z</time>
					</trkpt>
					<trkpt lat="47.137210" lon="-0.163620">
						<ele>54</ele>
						<time>2022-07-15T06:11:11Z</time>
					</trkpt>
					<trkpt lat="47.137170" lon="-0.163600">
						<ele>54</ele>
						<time>2022-07-15T06:11:13Z</time>
					</trkpt>
					<trkpt lat="47.137140" lon="-0.163580">
						<ele>53</ele>
						<time>2022-07-15T06:11:15Z</time>
					</trkpt>
					<trkpt lat="47.137110" lon="-0.163570">
						<ele>53</ele>
						<time>2022-07-15T06:11:17Z</time>
					</trkpt>
					<trkpt lat="47.137090" lon="-0.163560">
						<ele>53</ele>
						<time>2022-07-15T06:11:18Z</time>
					</trkpt>
					<trkpt lat="47.137050" lon="-0.163540">
						<ele>54</ele>
						<time>2022-07-15T06:11:20Z</time>
					</trkpt>
					<trkpt lat="47.137010" lon="-0.163530">
						<ele>55</ele>
						<time>2022-07-15T06:11:22Z</time>
					</trkpt>
					<trkpt lat="47.136990" lon="-0.163500">
						<ele>55</ele>
						<time>2022-07-15T06:11:24Z</time>
					</trkpt>
					<trkpt lat="47.136950" lon="-0.163470">
						<ele>56</ele>
						<time>2022-07-15T06:11:26Z</time>
					</trkpt>
					<trkpt lat="47.136920" lon="-0.163450">
						<ele>55</ele>
						<time>2022-07-15T06:11:28Z</time>
					</trkpt>
					<trkpt lat="47.136880" lon="-0.163420">
						<ele>55</ele>
						<time>2022-07-15T06:11:30Z</time>
					</trkpt>
					<trkpt lat="47.136850" lon="-0.163390">
						<ele>55</ele>
						<time>2022-07-15T06:11:32Z</time>
					</trkpt>
					<trkpt lat="47.136810" lon="-0.163360">
						<ele>54</ele>
						<time>2022-07-15T06:11:34Z</time>
					</trkpt>
					<trkpt lat="47.136780" lon="-0.163330">
						<ele>53</ele>
						<time>2022-07-15T06:11:37Z</time>
					</trkpt>
					<trkpt lat="47.136760" lon="-0.163300">
						<ele>53</ele>
						<time>2022-07-15T06:11:39Z</time>
					</trkpt>
					<trkpt lat="47.136730" lon="-0.163260">
						<ele>51</ele>
						<time>2022-07-15T06:11:41Z</time>
					</trkpt>
					<trkpt lat="47.136710" lon="-0.163230">
						<ele>51</ele>
						<time>2022-07-15T06:11:44Z</time>
					</trkpt>
					<trkpt lat="47.136690" lon="-0.163200">
						<ele>51</ele>
						<time>2022-07-15T06:11:46Z</time>
					</trkpt>
					<trkpt lat="47.136660" lon="-0.163150">
						<ele>51</ele>
						<time>2022-07-15T06:11:48Z</time>
					</trkpt>
					<trkpt lat="47.136640" lon="-0.163110">
						<ele>50</ele>
						<time>2022-07-15T06:11:50Z</time>
					</trkpt>
					<trkpt lat="47.136620" lon="-0.163060">
						<ele>50</ele>
						<time>2022-07-15T06:11:52Z</time>
					</trkpt>
					<trkpt lat="47.136600" lon="-0.163000">
						<ele>48</ele>
						<time>2022-07-15T06:11:55Z</time>
					</trkpt>
					<trkpt lat="47.136590" lon="-0.162950">
						<ele>46</ele>
						<time>2022-07-15T06:11:57Z</time>
					</trkpt>
					<trkpt lat="47.136570" lon="-0.162890">
						<ele>45</ele>
						<time>2022-07-15T06:11:59Z</time>
					</trkpt>
					<trkpt lat="47.136560" lon="-0.162840">
						<ele>44</ele>
						<time>2022-07-15T06:12:01Z</time>
					</trkpt>
					<trkpt lat="47.136550" lon="-0.162800">
						<ele>44</ele>
						<time>2022-07-15T06:12:03Z</time>
					</trkpt>
					<trkpt lat="47.136540" lon="-0.162750">
						<ele>43</ele>
						<time>2022-07-15T06:12:05Z</time>
					</trkpt>
					<trkpt lat="47.136540" lon="-0.162700">
						<ele>43</ele>
						<time>2022-07-15T06:12:08Z</time>
					</trkpt>
					<trkpt lat="47.136540" lon="-0.162650">
						<ele>43</ele>
						<time>2022-07-15T06:12:10Z</time>
					</trkpt>
					<trkpt lat="47.136530" lon="-0.162600">
						<ele>42</ele>
						<time>2022-07-15T06:12:12Z</time>
					</trkpt>
					<trkpt lat="47.136520" lon="-0.162550">
						<ele>42</ele>
						<time>2022-07-15T06:12:14Z</time>
					</trkpt>
					<trkpt lat="47.136510" lon="-0.162500">
						<ele>42</ele>
						<time>2022-07-15T06:12:16Z</time>
					</trkpt>
					<trkpt lat="47.136500" lon="-0.162440">
						<ele>42</ele>
						<time>2022-07-15T06:12:18Z</time>
					</trkpt>
					<trkpt lat="47.136490" lon="-0.162400">
						<ele>42</ele>
						<time>2022-07-15T06:12:20Z</time>
					</trkpt>
					<trkpt lat="47.136490" lon="-0.162350">
						<ele>43</ele>
						<time>2022-07-15T06:12:22Z</time>
					</trkpt>
					<trkpt lat="47.136480" lon="-0.162310">
						<ele>43</ele>
						<time>2022-07-15T06:12:24Z</time>
					</trkpt>
					<trkpt lat="47.136470" lon="-0.162260">
						<ele>43</ele>
						<time>2022-07-15T06:12:26Z</time>
					</trkpt>
					<trkpt lat="47.136450" lon="-0.162210">
						<ele>44</ele>
						<time>2022-07-15T06:12:29Z</time>
					</trkpt>
					<trkpt lat="47.136430" lon="-0.162170">
						<ele>45</ele>
						<time>2022-07-15T06:12:31Z</time>
					</trkpt>
					<trkpt lat="47.136410" lon="-0.162130">
						<ele>47</ele>
						<time>2022-07-15T06:12:33Z</time>
					</trkpt>
					<trkpt lat="47.136390" lon="-0.162090">
						<ele>47</ele>
						<time>2022-07-15T06:12:35Z</time>
					</trkpt>
					<trkpt lat="47.136380" lon="-0.162050">
						<ele>47</ele>
						<time>2022-07-15T06:12:37Z</time>
					</trkpt>
					<trkpt lat="47.136360" lon="-0.162010">
						<ele>47</ele>
						<time>2022-07-15T06:12:39Z</time>
					</trkpt>
					<trkpt lat="47.136330" lon="-0.161970">
						<ele>47</ele>
						<time>2022-07-15T06:12:41Z</time>
					</trkpt>
					<trkpt lat="47.136320" lon="-0.161930">
						<ele>47</ele>
						<time>2022-07-15T06:12:43Z</time>
					</trkpt>
					<trkpt lat="47.136310" lon="-0.161890">
						<ele>47</ele>
						<time>2022-07-15T06:12:53Z</time>
					</trkpt>
					<trkpt lat="47.136290" lon="-0.161850">
						<ele>46</ele>
						<time>2022-07-15T06:12:56Z</time>
					</trkpt>
					<trkpt lat="47.136260" lon="-0.161800">
						<ele>45</ele>
						<time>2022-07-15T06:12:59Z</time>
					</trkpt>
					<trkpt lat="47.136240" lon="-0.161760">
						<ele>45</ele>
						<time>2022-07-15T06:13:01Z</time>
					</trkpt>
					<trkpt lat="47.136220" lon="-0.161720">
						<ele>45</ele>
						<time>2022-07-15T06:13:03Z</time>
					</trkpt>
					<trkpt lat="47.136190" lon="-0.161680">
						<ele>45</ele>
						<time>2022-07-15T06:13:06Z</time>
					</trkpt>
					<trkpt lat="47.136170" lon="-0.161640">
						<ele>45</ele>
						<time>2022-07-15T06:13:09Z</time>
					</trkpt>
					<trkpt lat="47.136150" lon="-0.161600">
						<ele>45</ele>
						<time>2022-07-15T06:13:11Z</time>
					</trkpt>
					<trkpt lat="47.136130" lon="-0.161570">
						<ele>45</ele>
						<time>2022-07-15T06:13:13Z</time>
					</trkpt>
					<trkpt lat="47.136110" lon="-0.161530">
						<ele>46</ele>
						<time>2022-07-15T06:13:15Z</time>
					</trkpt>
					<trkpt lat="47.136080" lon="-0.161500">
						<ele>46</ele>
						<time>2022-07-15T06:13:17Z</time>
					</trkpt>
					<trkpt lat="47.136060" lon="-0.161460">
						<ele>47</ele>
						<time>2022-07-15T06:13:19Z</time>
					</trkpt>
					<trkpt lat="47.136030" lon="-0.161430">
						<ele>47</ele>
						<time>2022-07-15T06:13:21Z</time>
					</trkpt>
					<trkpt lat="47.136010" lon="-0.161390">
						<ele>47</ele>
						<time>2022-07-15T06:13:23Z</time>
					</trkpt>
					<trkpt lat="47.135980" lon="-0.161360">
						<ele>47</ele>
						<time>2022-07-15T06:13:25Z</time>
					</trkpt>
					<trkpt lat="47.135960" lon="-0.161320">
						<ele>47</ele>
						<time>2022-07-15T06:13:28Z</time>
					</trkpt>
					<trkpt lat="47.135930" lon="-0.161280">
						<ele>47</ele>
						<time>2022-07-15T06:13:30Z</time>
					</trkpt>
					<trkpt lat="47.135910" lon="-0.161250">
						<ele>47</ele>
						<time>2022-07-15T06:13:32Z</time>
					</trkpt>
					<trkpt lat="47.135890" lon="-0.161210">
						<ele>46</ele>
						<time>2022-07-15T06:13:34Z</time>
					</trkpt>
					<trkpt lat="47.135870" lon="-0.161170">
						<ele>47</ele>
						<time>2022-07-15T06:13:36Z</time>
					</trkpt>
					<trkpt lat="47.135860" lon="-0.161130">
						<ele>47</ele>
						<time>2022-07-15T06:13:38Z</time>
					</trkpt>
					<trkpt lat="47.135840" lon="-0.161100">
						<ele>47</ele>
						<time>2022-07-15T06:13:40Z</time>
					</trkpt>
					<trkpt lat="47.135820" lon="-0.161060">
						<ele>46</ele>
						<time>2022-07-15T06:13:42Z</time>
					</trkpt>
					<trkpt lat="47.135800" lon="-0.161030">
						<ele>45</ele>
						<time>2022-07-15T06:13:44Z</time>
					</trkpt>
					<trkpt lat="47.135780" lon="-0.160980">
						<ele>44</ele>
						<time>2022-07-15T06:13:46Z</time>
					</trkpt>
					<trkpt lat="47.135760" lon="-0.160940">
						<ele>44</ele>
						<time>2022-07-15T06:13:48Z</time>
					</trkpt>
					<trkpt lat="47.135740" lon="-0.160890">
						<ele>44</ele>
						<time>2022-07-15T06:13:51Z</time>
					</trkpt>
					<trkpt lat="47.135710" lon="-0.160840">
						<ele>42</ele>
						<time>2022-07-15T06:13:53Z</time>
					</trkpt>
					<trkpt lat="47.135680" lon="-0.160810">
						<ele>42</ele>
						<time>2022-07-15T06:13:55Z</time>
					</trkpt>
					<trkpt lat="47.135660" lon="-0.160770">
						<ele>41</ele>
						<time>2022-07-15T06:13:57Z</time>
					</trkpt>
					<trkpt lat="47.135630" lon="-0.160740">
						<ele>41</ele>
						<time>2022-07-15T06:13:59Z</time>
					</trkpt>
					<trkpt lat="47.135610" lon="-0.160710">
						<ele>41</ele>
						<time>2022-07-15T06:14:01Z</time>
					</trkpt>
					<trkpt lat="47.135580" lon="-0.160670">
						<ele>41</ele>
						<time>2022-07-15T06:14:03Z</time>
					</trkpt>
					<trkpt lat="47.135560" lon="-0.160630">
						<ele>40</ele>
						<time>2022-07-15T06:14:05Z</time>
					</trkpt>
					<trkpt lat="47.135550" lon="-0.160590">
						<ele>40</ele>
						<time>2022-07-15T06:14:07Z</time>
					</trkpt>
					<trkpt lat="47.135530" lon="-0.160560">
						<ele>40</ele>
						<time>2022-07-15T06:14:09Z</time>
					</trkpt>
					<trkpt lat="47.135510" lon="-0.160520">
						<ele>40</ele>
						<time>2022-07-15T06:14:11Z</time>
					</trkpt>
					<trkpt lat="47.135480" lon="-0.160500">
						<ele>40</ele>
						<time>2022-07-15T06:14:13Z</time>
					</trkpt>
					<trkpt lat="47.135460" lon="-0.160480">
						<ele>39</ele>
						<time>2022-07-15T06:14:15Z</time>
					</trkpt>
					<trkpt lat="47.135430" lon="-0.160450">
						<ele>39</ele>
						<time>2022-07-15T06:14:17Z</time>
					</trkpt>
					<trkpt lat="47.135410" lon="-0.160410">
						<ele>39</ele>
						<time>2022-07-15T06:14:19Z</time>
					</trkpt>
					<trkpt lat="47.135390" lon="-0.160360">
						<ele>38</ele>
						<time>2022-07-15T06:14:21Z</time>
					</trkpt>
					<trkpt lat="47.135360" lon="-0.160320">
						<ele>38</ele>
						<time>2022-07-15T06:14:23Z</time>
					</trkpt>
					<trkpt lat="47.135340" lon="-0.160280">
						<ele>38</ele>
						<time>2022-07-15T06:14:25Z</time>
					</trkpt>
					<trkpt lat="47.135320" lon="-0.160250">
						<ele>39</ele>
						<time>2022-07-15T06:14:28Z</time>
					</trkpt>
					<trkpt lat="47.135300" lon="-0.160210">
						<ele>39</ele>
						<time>2022-07-15T06:14:30Z</time>
					</trkpt>
					<trkpt lat="47.135270" lon="-0.160160">
						<ele>39</ele>
						<time>2022-07-15T06:14:32Z</time>
					</trkpt>
					<trkpt lat="47.135260" lon="-0.160120">
						<ele>39</ele>
						<time>2022-07-15T06:14:34Z</time>
					</trkpt>
					<trkpt lat="47.135240" lon="-0.160070">
						<ele>40</ele>
						<time>2022-07-15T06:14:36Z</time>
					</trkpt>
					<trkpt lat="47.135230" lon="-0.160030">
						<ele>39</ele>
						<time>2022-07-15T06:14:38Z</time>
					</trkpt>
					<trkpt lat="47.135220" lon="-0.159980">
						<ele>39</ele>
						<time>2022-07-15T06:14:40Z</time>
					</trkpt>
					<trkpt lat="47.135200" lon="-0.159940">
						<ele>39</ele>
						<time>2022-07-15T06:14:42Z</time>
					</trkpt>
					<trkpt lat="47.135190" lon="-0.159900">
						<ele>40</ele>
						<time>2022-07-15T06:14:45Z</time>
					</trkpt>
					<trkpt lat="47.135170" lon="-0.159850">
						<ele>39</ele>
						<time>2022-07-15T06:14:47Z</time>
					</trkpt>
					<trkpt lat="47.135150" lon="-0.159800">
						<ele>39</ele>
						<time>2022-07-15T06:14:49Z</time>
					</trkpt>
					<trkpt lat="47.135130" lon="-0.159760">
						<ele>38</ele>
						<time>2022-07-15T06:14:51Z</time>
					</trkpt>
					<trkpt lat="47.135100" lon="-0.159710">
						<ele>37</ele>
						<time>2022-07-15T06:14:53Z</time>
					</trkpt>
					<trkpt lat="47.135080" lon="-0.159670">
						<ele>36</ele>
						<time>2022-07-15T06:14:55Z</time>
					</trkpt>
					<trkpt lat="47.135080" lon="-0.159620">
						<ele>36</ele>
						<time>2022-07-15T06:14:57Z</time>
					</trkpt>
					<trkpt lat="47.135090" lon="-0.159570">
						<ele>36</ele>
						<time>2022-07-15T06:14:59Z</time>
					</trkpt>
					<trkpt lat="47.135110" lon="-0.159530">
						<ele>36</ele>
						<time>2022-07-15T06:15:01Z</time>
					</trkpt>
					<trkpt lat="47.135120" lon="-0.159490">
						<ele>35</ele>
						<time>2022-07-15T06:15:03Z</time>
					</trkpt>
					<trkpt lat="47.135130" lon="-0.159440">
						<ele>35</ele>
						<time>2022-07-15T06:15:05Z</time>
					</trkpt>
					<trkpt lat="47.135140" lon="-0.159390">
						<ele>34</ele>
						<time>2022-07-15T06:15:07Z</time>
					</trkpt>
					<trkpt lat="47.135160" lon="-0.159340">
						<ele>34</ele>
						<time>2022-07-15T06:15:09Z</time>
					</trkpt>
					<trkpt lat="47.135180" lon="-0.159300">
						<ele>33</ele>
						<time>2022-07-15T06:15:11Z</time>
					</trkpt>
					<trkpt lat="47.135190" lon="-0.159260">
						<ele>33</ele>
						<time>2022-07-15T06:15:13Z</time>
					</trkpt>
					<trkpt lat="47.135210" lon="-0.159220">
						<ele>33</ele>
						<time>2022-07-15T06:15:15Z</time>
					</trkpt>
					<trkpt lat="47.135230" lon="-0.159180">
						<ele>33</ele>
						<time>2022-07-15T06:15:18Z</time>
					</trkpt>
					<trkpt lat="47.135250" lon="-0.159140">
						<ele>32</ele>
						<time>2022-07-15T06:15:20Z</time>
					</trkpt>
					<trkpt lat="47.135270" lon="-0.159100">
						<ele>32</ele>
						<time>2022-07-15T06:15:22Z</time>
					</trkpt>
					<trkpt lat="47.135290" lon="-0.159060">
						<ele>31</ele>
						<time>2022-07-15T06:15:24Z</time>
					</trkpt>
					<trkpt lat="47.135310" lon="-0.159020">
						<ele>31</ele>
						<time>2022-07-15T06:15:26Z</time>
					</trkpt>
					<trkpt lat="47.135320" lon="-0.158970">
						<ele>32</ele>
						<time>2022-07-15T06:15:28Z</time>
					</trkpt>
					<trkpt lat="47.135340" lon="-0.158930">
						<ele>32</ele>
						<time>2022-07-15T06:15:30Z</time>
					</trkpt>
					<trkpt lat="47.135350" lon="-0.158880">
						<ele>31</ele>
						<time>2022-07-15T06:15:32Z</time>
					</trkpt>
					<trkpt lat="47.135370" lon="-0.158830">
						<ele>32</ele>
						<time>2022-07-15T06:15:34Z</time>
					</trkpt>
					<trkpt lat="47.135390" lon="-0.158790">
						<ele>32</ele>
						<time>2022-07-15T06:15:36Z</time>
					</trkpt>
					<trkpt lat="47.135400" lon="-0.158750">
						<ele>32</ele>
						<time>2022-07-15T06:15:38Z</time>
					</trkpt>
					<trkpt lat="47.135420" lon="-0.158720">
						<ele>31</ele>
						<time>2022-07-15T06:15:40Z</time>
					</trkpt>
					<trkpt lat="47.135440" lon="-0.158690">
						<ele>32</ele>
						<time>2022-07-15T06:15:42Z</time>
					</trkpt>
					<trkpt lat="47.135460" lon="-0.158650">
						<ele>32</ele>
						<time>2022-07-15T06:15:44Z</time>
					</trkpt>
					<trkpt lat="47.135480" lon="-0.158620">
						<ele>32</ele>
						<time>2022-07-15T06:15:46Z</time>
					</trkpt>
					<trkpt lat="47.135510" lon="-0.158580">
						<ele>32</ele>
						<time>2022-07-15T06:15:49Z</time>
					</trkpt>
					<trkpt lat="47.135530" lon="-0.158540">
						<ele>33</ele>
						<time>2022-07-15T06:15:51Z</time>
					</trkpt>
					<trkpt lat="47.135550" lon="-0.158500">
						<ele>33</ele>
						<time>2022-07-15T06:15:53Z</time>
					</trkpt>
					<trkpt lat="47.135570" lon="-0.158450">
						<ele>33</ele>
						<time>2022-07-15T06:15:55Z</time>
					</trkpt>
					<trkpt lat="47.135590" lon="-0.158420">
						<ele>32</ele>
						<time>2022-07-15T06:15:57Z</time>
					</trkpt>
					<trkpt lat="47.135620" lon="-0.158380">
						<ele>32</ele>
						<time>2022-07-15T06:15:59Z</time>
					</trkpt>
					<trkpt lat="47.135650" lon="-0.158360">
						<ele>32</ele>
						<time>2022-07-15T06:16:01Z</time>
					</trkpt>
					<trkpt lat="47.135670" lon="-0.158340">
						<ele>32</ele>
						<time>2022-07-15T06:16:03Z</time>
					</trkpt>
					<trkpt lat="47.135690" lon="-0.158300">
						<ele>31</ele>
						<time>2022-07-15T06:16:05Z</time>
					</trkpt>
					<trkpt lat="47.135700" lon="-0.158260">
						<ele>31</ele>
						<time>2022-07-15T06:16:07Z</time>
					</trkpt>
					<trkpt lat="47.135720" lon="-0.158210">
						<ele>31</ele>
						<time>2022-07-15T06:16:09Z</time>
					</trkpt>
					<trkpt lat="47.135730" lon="-0.158160">
						<ele>31</ele>
						<time>2022-07-15T06:16:11Z</time>
					</trkpt>
					<trkpt lat="47.135750" lon="-0.158120">
						<ele>31</ele>
						<time>2022-07-15T06:16:13Z</time>
					</trkpt>
					<trkpt lat="47.135760" lon="-0.158080">
						<ele>31</ele>
						<time>2022-07-15T06:16:15Z</time>
					</trkpt>
					<trkpt lat="47.135790" lon="-0.158040">
						<ele>31</ele>
						<time>2022-07-15T06:16:18Z</time>
					</trkpt>
					<trkpt lat="47.135820" lon="-0.158010">
						<ele>30</ele>
						<time>2022-07-15T06:16:20Z</time>
					</trkpt>
					<trkpt lat="47.135840" lon="-0.157990">
						<ele>29</ele>
						<time>2022-07-15T06:16:22Z</time>
					</trkpt>
					<trkpt lat="47.135870" lon="-0.157960">
						<ele>28</ele>
						<time>2022-07-15T06:16:24Z</time>
					</trkpt>
					<trkpt lat="47.135890" lon="-0.157940">
						<ele>28</ele>
						<time>2022-07-15T06:16:26Z</time>
					</trkpt>
					<trkpt lat="47.135920" lon="-0.157920">
						<ele>28</ele>
						<time>2022-07-15T06:16:28Z</time>
					</trkpt>
					<trkpt lat="47.135950" lon="-0.157890">
						<ele>28</ele>
						<time>2022-07-15T06:16:30Z</time>
					</trkpt>
					<trkpt lat="47.135980" lon="-0.157850">
						<ele>28</ele>
						<time>2022-07-15T06:16:32Z</time>
					</trkpt>
					<trkpt lat="47.136010" lon="-0.157810">
						<ele>29</ele>
						<time>2022-07-15T06:16:34Z</time>
					</trkpt>
					<trkpt lat="47.136040" lon="-0.157770">
						<ele>29</ele>
						<time>2022-07-15T06:16:37Z</time>
					</trkpt>
					<trkpt lat="47.136060" lon="-0.157720">
						<ele>28</ele>
						<time>2022-07-15T06:16:39Z</time>
					</trkpt>
					<trkpt lat="47.136070" lon="-0.157660">
						<ele>28</ele>
						<time>2022-07-15T06:16:41Z</time>
					</trkpt>
					<trkpt lat="47.136070" lon="-0.157600">
						<ele>28</ele>
						<time>2022-07-15T06:16:43Z</time>
					</trkpt>
					<trkpt lat="47.136080" lon="-0.157550">
						<ele>28</ele>
						<time>2022-07-15T06:16:45Z</time>
					</trkpt>
					<trkpt lat="47.136090" lon="-0.157500">
						<ele>29</ele>
						<time>2022-07-15T06:16:47Z</time>
					</trkpt>
					<trkpt lat="47.136110" lon="-0.157450">
						<ele>29</ele>
						<time>2022-07-15T06:16:49Z</time>
					</trkpt>
					<trkpt lat="47.136130" lon="-0.157410">
						<ele>30</ele>
						<time>2022-07-15T06:16:51Z</time>
					</trkpt>
					<trkpt lat="47.136140" lon="-0.157360">
						<ele>29</ele>
						<time>2022-07-15T06:16:53Z</time>
					</trkpt>
					<trkpt lat="47.136160" lon="-0.157320">
						<ele>28</ele>
						<time>2022-07-15T06:16:55Z</time>
					</trkpt>
					<trkpt lat="47.136180" lon="-0.157280">
						<ele>27</ele>
						<time>2022-07-15T06:16:57Z</time>
					</trkpt>
					<trkpt lat="47.136180" lon="-0.157240">
						<ele>27</ele>
						<time>2022-07-15T06:16:59Z</time>
					</trkpt>
					<trkpt lat="47.136190" lon="-0.157190">
						<ele>27</ele>
						<time>2022-07-15T06:17:01Z</time>
					</trkpt>
					<trkpt lat="47.136200" lon="-0.157150">
						<ele>26</ele>
						<time>2022-07-15T06:17:03Z</time>
					</trkpt>
					<trkpt lat="47.136220" lon="-0.157090">
						<ele>25</ele>
						<time>2022-07-15T06:17:06Z</time>
					</trkpt>
					<trkpt lat="47.136230" lon="-0.157040">
						<ele>25</ele>
						<time>2022-07-15T06:17:08Z</time>
					</trkpt>
					<trkpt lat="47.136250" lon="-0.156990">
						<ele>25</ele>
						<time>2022-07-15T06:17:10Z</time>
					</trkpt>
					<trkpt lat="47.136250" lon="-0.156950">
						<ele>26</ele>
						<time>2022-07-15T06:17:12Z</time>
					</trkpt>
					<trkpt lat="47.136240" lon="-0.156890">
						<ele>26</ele>
						<time>2022-07-15T06:17:14Z</time>
					</trkpt>
					<trkpt lat="47.136240" lon="-0.156850">
						<ele>26</ele>
						<time>2022-07-15T06:17:16Z</time>
					</trkpt>
					<trkpt lat="47.136250" lon="-0.156790">
						<ele>26</ele>
						<time>2022-07-15T06:17:18Z</time>
					</trkpt>
					<trkpt lat="47.136260" lon="-0.156730">
						<ele>26</ele>
						<time>2022-07-15T06:17:20Z</time>
					</trkpt>
					<trkpt lat="47.136270" lon="-0.156680">
						<ele>27</ele>
						<time>2022-07-15T06:17:22Z</time>
					</trkpt>
					<trkpt lat="47.136280" lon="-0.156640">
						<ele>27</ele>
						<time>2022-07-15T06:17:25Z</time>
					</trkpt>
					<trkpt lat="47.136300" lon="-0.156590">
						<ele>27</ele>
						<time>2022-07-15T06:17:27Z</time>
					</trkpt>
					<trkpt lat="47.136310" lon="-0.156550">
						<ele>27</ele>
						<time>2022-07-15T06:17:29Z</time>
					</trkpt>
					<trkpt lat="47.136320" lon="-0.156500">
						<ele>27</ele>
						<time>2022-07-15T06:17:31Z</time>
					</trkpt>
					<trkpt lat="47.136330" lon="-0.156450">
						<ele>26</ele>
						<time>2022-07-15T06:17:33Z</time>
					</trkpt>
					<trkpt lat="47.136340" lon="-0.156400">
						<ele>26</ele>
						<time>2022-07-15T06:17:35Z</time>
					</trkpt>
					<trkpt lat="47.136350" lon="-0.156360">
						<ele>26</ele>
						<time>2022-07-15T06:17:38Z</time>
					</trkpt>
					<trkpt lat="47.136370" lon="-0.156310">
						<ele>27</ele>
						<time>2022-07-15T06:17:41Z</time>
					</trkpt>
					<trkpt lat="47.136380" lon="-0.156260">
						<ele>27</ele>
						<time>2022-07-15T06:17:43Z</time>
					</trkpt>
					<trkpt lat="47.136400" lon="-0.156220">
						<ele>28</ele>
						<time>2022-07-15T06:17:46Z</time>
					</trkpt>
					<trkpt lat="47.136410" lon="-0.156170">
						<ele>28</ele>
						<time>2022-07-15T06:17:48Z</time>
					</trkpt>
					<trkpt lat="47.136420" lon="-0.156130">
						<ele>28</ele>
						<time>2022-07-15T06:17:50Z</time>
					</trkpt>
					<trkpt lat="47.136440" lon="-0.156090">
						<ele>28</ele>
						<time>2022-07-15T06:17:52Z</time>
					</trkpt>
					<trkpt lat="47.136450" lon="-0.156040">
						<ele>28</ele>
						<time>2022-07-15T06:17:54Z</time>
					</trkpt>
					<trkpt lat="47.136460" lon="-0.155990">
						<ele>28</ele>
						<time>2022-07-15T06:17:56Z</time>
					</trkpt>
					<trkpt lat="47.136480" lon="-0.155940">
						<ele>28</ele>
						<time>2022-07-15T06:17:58Z</time>
					</trkpt>
					<trkpt lat="47.136500" lon="-0.155900">
						<ele>29</ele>
						<time>2022-07-15T06:18:00Z</time>
					</trkpt>
					<trkpt lat="47.136520" lon="-0.155850">
						<ele>29</ele>
						<time>2022-07-15T06:18:02Z</time>
					</trkpt>
					<trkpt lat="47.136550" lon="-0.155810">
						<ele>29</ele>
						<time>2022-07-15T06:18:05Z</time>
					</trkpt>
					<trkpt lat="47.136570" lon="-0.155750">
						<ele>30</ele>
						<time>2022-07-15T06:18:07Z</time>
					</trkpt>
					<trkpt lat="47.136570" lon="-0.155700">
						<ele>30</ele>
						<time>2022-07-15T06:18:09Z</time>
					</trkpt>
					<trkpt lat="47.136570" lon="-0.155650">
						<ele>30</ele>
						<time>2022-07-15T06:18:11Z</time>
					</trkpt>
					<trkpt lat="47.136550" lon="-0.155610">
						<ele>30</ele>
						<time>2022-07-15T06:18:13Z</time>
					</trkpt>
					<trkpt lat="47.136530" lon="-0.155570">
						<ele>31</ele>
						<time>2022-07-15T06:18:15Z</time>
					</trkpt>
					<trkpt lat="47.136500" lon="-0.155540">
						<ele>31</ele>
						<time>2022-07-15T06:18:17Z</time>
					</trkpt>
					<trkpt lat="47.136470" lon="-0.155510">
						<ele>31</ele>
						<time>2022-07-15T06:18:19Z</time>
					</trkpt>
					<trkpt lat="47.136450" lon="-0.155490">
						<ele>31</ele>
						<time>2022-07-15T06:18:21Z</time>
					</trkpt>
					<trkpt lat="47.136420" lon="-0.155460">
						<ele>31</ele>
						<time>2022-07-15T06:18:23Z</time>
					</trkpt>
					<trkpt lat="47.136400" lon="-0.155420">
						<ele>31</ele>
						<time>2022-07-15T06:18:25Z</time>
					</trkpt>
					<trkpt lat="47.136370" lon="-0.155390">
						<ele>31</ele>
						<time>2022-07-15T06:18:27Z</time>
					</trkpt>
					<trkpt lat="47.136340" lon="-0.155360">
						<ele>31</ele>
						<time>2022-07-15T06:18:29Z</time>
					</trkpt>
					<trkpt lat="47.136310" lon="-0.155320">
						<ele>31</ele>
						<time>2022-07-15T06:18:32Z</time>
					</trkpt>
					<trkpt lat="47.136290" lon="-0.155290">
						<ele>31</ele>
						<time>2022-07-15T06:18:34Z</time>
					</trkpt>
					<trkpt lat="47.136260" lon="-0.155260">
						<ele>32</ele>
						<time>2022-07-15T06:18:36Z</time>
					</trkpt>
					<trkpt lat="47.136240" lon="-0.155230">
						<ele>32</ele>
						<time>2022-07-15T06:18:38Z</time>
					</trkpt>
					<trkpt lat="47.136210" lon="-0.155200">
						<ele>32</ele>
						<time>2022-07-15T06:18:43Z</time>
					</trkpt>
					<trkpt lat="47.136180" lon="-0.155170">
						<ele>32</ele>
						<time>2022-07-15T06:18:45Z</time>
					</trkpt>
					<trkpt lat="47.136150" lon="-0.155140">
						<ele>32</ele>
						<time>2022-07-15T06:18:47Z</time>
					</trkpt>
					<trkpt lat="47.136120" lon="-0.155120">
						<ele>32</ele>
						<time>2022-07-15T06:18:49Z</time>
					</trkpt>
					<trkpt lat="47.136100" lon="-0.155080">
						<ele>33</ele>
						<time>2022-07-15T06:18:51Z</time>
					</trkpt>
					<trkpt lat="47.136080" lon="-0.155050">
						<ele>33</ele>
						<time>2022-07-15T06:18:53Z</time>
					</trkpt>
					<trkpt lat="47.136060" lon="-0.155010">
						<ele>33</ele>
						<time>2022-07-15T06:18:55Z</time>
					</trkpt>
					<trkpt lat="47.136030" lon="-0.154970">
						<ele>34</ele>
						<time>2022-07-15T06:18:57Z</time>
					</trkpt>
					<trkpt lat="47.136010" lon="-0.154940">
						<ele>34</ele>
						<time>2022-07-15T06:18:59Z</time>
					</trkpt>
					<trkpt lat="47.135980" lon="-0.154910">
						<ele>34</ele>
						<time>2022-07-15T06:19:01Z</time>
					</trkpt>
					<trkpt lat="47.135950" lon="-0.154890">
						<ele>34</ele>
						<time>2022-07-15T06:19:03Z</time>
					</trkpt>
					<trkpt lat="47.135930" lon="-0.154860">
						<ele>34</ele>
						<time>2022-07-15T06:19:05Z</time>
					</trkpt>
					<trkpt lat="47.135900" lon="-0.154830">
						<ele>34</ele>
						<time>2022-07-15T06:19:08Z</time>
					</trkpt>
					<trkpt lat="47.135880" lon="-0.154800">
						<ele>34</ele>
						<time>2022-07-15T06:19:10Z</time>
					</trkpt>
					<trkpt lat="47.135860" lon="-0.154770">
						<ele>34</ele>
						<time>2022-07-15T06:19:12Z</time>
					</trkpt>
					<trkpt lat="47.135830" lon="-0.154740">
						<ele>35</ele>
						<time>2022-07-15T06:19:14Z</time>
					</trkpt>
					<trkpt lat="47.135810" lon="-0.154710">
						<ele>36</ele>
						<time>2022-07-15T06:19:16Z</time>
					</trkpt>
					<trkpt lat="47.135780" lon="-0.154680">
						<ele>37</ele>
						<time>2022-07-15T06:19:18Z</time>
					</trkpt>
					<trkpt lat="47.135760" lon="-0.154660">
						<ele>37</ele>
						<time>2022-07-15T06:19:20Z</time>
					</trkpt>
					<trkpt lat="47.135740" lon="-0.154630">
						<ele>37</ele>
						<time>2022-07-15T06:19:22Z</time>
					</trkpt>
					<trkpt lat="47.135710" lon="-0.154610">
						<ele>37</ele>
						<time>2022-07-15T06:19:24Z</time>
					</trkpt>
					<trkpt lat="47.135690" lon="-0.154580">
						<ele>36</ele>
						<time>2022-07-15T06:19:26Z</time>
					</trkpt>
					<trkpt lat="47.135670" lon="-0.154550">
						<ele>36</ele>
						<time>2022-07-15T06:19:28Z</time>
					</trkpt>
					<trkpt lat="47.135640" lon="-0.154520">
						<ele>36</ele>
						<time>2022-07-15T06:19:31Z</time>
					</trkpt>
					<trkpt lat="47.135610" lon="-0.154500">
						<ele>36</ele>
						<time>2022-07-15T06:19:33Z</time>
					</trkpt>
					<trkpt lat="47.135590" lon="-0.154470">
						<ele>36</ele>
						<time>2022-07-15T06:19:35Z</time>
					</trkpt>
					<trkpt lat="47.135560" lon="-0.154440">
						<ele>37</ele>
						<time>2022-07-15T06:19:37Z</time>
					</trkpt>
					<trkpt lat="47.135530" lon="-0.154420">
						<ele>37</ele>
						<time>2022-07-15T06:19:39Z</time>
					</trkpt>
					<trkpt lat="47.135510" lon="-0.154390">
						<ele>37</ele>
						<time>2022-07-15T06:19:42Z</time>
					</trkpt>
					<trkpt lat="47.135480" lon="-0.154360">
						<ele>38</ele>
						<time>2022-07-15T06:19:44Z</time>
					</trkpt>
					<trkpt lat="47.135450" lon="-0.154330">
						<ele>38</ele>
						<time>2022-07-15T06:19:46Z</time>
					</trkpt>
					<trkpt lat="47.135420" lon="-0.154290">
						<ele>38</ele>
						<time>2022-07-15T06:19:48Z</time>
					</trkpt>
					<trkpt lat="47.135400" lon="-0.154260">
						<ele>38</ele>
						<time>2022-07-15T06:19:50Z</time>
					</trkpt>
					<trkpt lat="47.135370" lon="-0.154240">
						<ele>38</ele>
						<time>2022-07-15T06:19:52Z</time>
					</trkpt>
					<trkpt lat="47.135340" lon="-0.154210">
						<ele>38</ele>
						<time>2022-07-15T06:19:55Z</time>
					</trkpt>
					<trkpt lat="47.135310" lon="-0.154180">
						<ele>38</ele>
						<time>2022-07-15T06:19:58Z</time>
					</trkpt>
					<trkpt lat="47.135280" lon="-0.154160">
						<ele>38</ele>
						<time>2022-07-15T06:20:00Z</time>
					</trkpt>
					<trkpt lat="47.135260" lon="-0.154130">
						<ele>38</ele>
						<time>2022-07-15T06:20:03Z</time>
					</trkpt>
					<trkpt lat="47.135220" lon="-0.154110">
						<ele>37</ele>
						<time>2022-07-15T06:20:06Z</time>
					</trkpt>
					<trkpt lat="47.135190" lon="-0.154090">
						<ele>37</ele>
						<time>2022-07-15T06:20:08Z</time>
					</trkpt>
					<trkpt lat="47.135150" lon="-0.154070">
						<ele>38</ele>
						<time>2022-07-15T06:20:10Z</time>
					</trkpt>
					<trkpt lat="47.135120" lon="-0.154050">
						<ele>37</ele>
						<time>2022-07-15T06:20:12Z</time>
					</trkpt>
					<trkpt lat="47.135090" lon="-0.154020">
						<ele>37</ele>
						<time>2022-07-15T06:20:14Z</time>
					</trkpt>
					<trkpt lat="47.135060" lon="-0.153990">
						<ele>37</ele>
						<time>2022-07-15T06:20:16Z</time>
					</trkpt>
					<trkpt lat="47.135030" lon="-0.153950">
						<ele>37</ele>
						<time>2022-07-15T06:20:19Z</time>
					</trkpt>
					<trkpt lat="47.135010" lon="-0.153910">
						<ele>37</ele>
						<time>2022-07-15T06:20:21Z</time>
					</trkpt>
					<trkpt lat="47.134980" lon="-0.153890">
						<ele>37</ele>
						<time>2022-07-15T06:20:23Z</time>
					</trkpt>
					<trkpt lat="47.134950" lon="-0.153870">
						<ele>37</ele>
						<time>2022-07-15T06:20:26Z</time>
					</trkpt>
					<trkpt lat="47.134920" lon="-0.153850">
						<ele>37</ele>
						<time>2022-07-15T06:20:28Z</time>
					</trkpt>
					<trkpt lat="47.134890" lon="-0.153830">
						<ele>36</ele>
						<time>2022-07-15T06:20:30Z</time>
					</trkpt>
					<trkpt lat="47.134850" lon="-0.153810">
						<ele>37</ele>
						<time>2022-07-15T06:20:32Z</time>
					</trkpt>
					<trkpt lat="47.134820" lon="-0.153800">
						<ele>37</ele>
						<time>2022-07-15T06:20:34Z</time>
					</trkpt>
					<trkpt lat="47.134790" lon="-0.153790">
						<ele>37</ele>
						<time>2022-07-15T06:20:36Z</time>
					</trkpt>
					<trkpt lat="47.134760" lon="-0.153780">
						<ele>38</ele>
						<time>2022-07-15T06:20:38Z</time>
					</trkpt>
					<trkpt lat="47.134730" lon="-0.153790">
						<ele>38</ele>
						<time>2022-07-15T06:20:40Z</time>
					</trkpt>
					<trkpt lat="47.134690" lon="-0.153790">
						<ele>39</ele>
						<time>2022-07-15T06:20:43Z</time>
					</trkpt>
					<trkpt lat="47.134650" lon="-0.153780">
						<ele>39</ele>
						<time>2022-07-15T06:20:46Z</time>
					</trkpt>
					<trkpt lat="47.134620" lon="-0.153770">
						<ele>39</ele>
						<time>2022-07-15T06:20:48Z</time>
					</trkpt>
					<trkpt lat="47.134600" lon="-0.153750">
						<ele>40</ele>
						<time>2022-07-15T06:20:52Z</time>
					</trkpt>
					<trkpt lat="47.134570" lon="-0.153740">
						<ele>41</ele>
						<time>2022-07-15T06:21:22Z</time>
					</trkpt>
					<trkpt lat="47.134540" lon="-0.153740">
						<ele>40</ele>
						<time>2022-07-15T06:21:25Z</time>
					</trkpt>
					<trkpt lat="47.134500" lon="-0.153760">
						<ele>40</ele>
						<time>2022-07-15T06:21:27Z</time>
					</trkpt>
					<trkpt lat="47.134470" lon="-0.153780">
						<ele>40</ele>
						<time>2022-07-15T06:21:29Z</time>
					</trkpt>
					<trkpt lat="47.134440" lon="-0.153800">
						<ele>41</ele>
						<time>2022-07-15T06:21:31Z</time>
					</trkpt>
					<trkpt lat="47.134410" lon="-0.153820">
						<ele>40</ele>
						<time>2022-07-15T06:21:33Z</time>
					</trkpt>
					<trkpt lat="47.134380" lon="-0.153830">
						<ele>40</ele>
						<time>2022-07-15T06:21:35Z</time>
					</trkpt>
					<trkpt lat="47.134350" lon="-0.153860">
						<ele>40</ele>
						<time>2022-07-15T06:21:38Z</time>
					</trkpt>
					<trkpt lat="47.134320" lon="-0.153890">
						<ele>39</ele>
						<time>2022-07-15T06:21:41Z</time>
					</trkpt>
					<trkpt lat="47.134290" lon="-0.153910">
						<ele>38</ele>
						<time>2022-07-15T06:21:43Z</time>
					</trkpt>
					<trkpt lat="47.134270" lon="-0.153950">
						<ele>36</ele>
						<time>2022-07-15T06:21:46Z</time>
					</trkpt>
					<trkpt lat="47.134250" lon="-0.153980">
						<ele>35</ele>
						<time>2022-07-15T06:21:49Z</time>
					</trkpt>
					<trkpt lat="47.134230" lon="-0.154020">
						<ele>35</ele>
						<time>2022-07-15T06:21:51Z</time>
					</trkpt>
					<trkpt lat="47.134210" lon="-0.154070">
						<ele>34</ele>
						<time>2022-07-15T06:21:54Z</time>
					</trkpt>
					<trkpt lat="47.134190" lon="-0.154120">
						<ele>35</ele>
						<time>2022-07-15T06:21:56Z</time>
					</trkpt>
					<trkpt lat="47.134170" lon="-0.154160">
						<ele>34</ele>
						<time>2022-07-15T06:21:59Z</time>
					</trkpt>
					<trkpt lat="47.134160" lon="-0.154200">
						<ele>33</ele>
						<time>2022-07-15T06:22:02Z</time>
					</trkpt>
					<trkpt lat="47.134150" lon="-0.154250">
						<ele>34</ele>
						<time>2022-07-15T06:22:05Z</time>
					</trkpt>
					<trkpt lat="47.134140" lon="-0.154290">
						<ele>35</ele>
						<time>2022-07-15T06:22:07Z</time>
					</trkpt>
					<trkpt lat="47.134140" lon="-0.154350">
						<ele>35</ele>
						<time>2022-07-15T06:22:09Z</time>
					</trkpt>
					<trkpt lat="47.134150" lon="-0.154400">
						<ele>35</ele>
						<time>2022-07-15T06:22:11Z</time>
					</trkpt>
					<trkpt lat="47.134160" lon="-0.154470">
						<ele>34</ele>
						<time>2022-07-15T06:22:13Z</time>
					</trkpt>
					<trkpt lat="47.134160" lon="-0.154520">
						<ele>33</ele>
						<time>2022-07-15T06:22:15Z</time>
					</trkpt>
					<trkpt lat="47.134160" lon="-0.154570">
						<ele>32</ele>
						<time>2022-07-15T06:22:17Z</time>
					</trkpt>
					<trkpt lat="47.134140" lon="-0.154600">
						<ele>32</ele>
						<time>2022-07-15T06:22:19Z</time>
					</trkpt>
					<trkpt lat="47.134120" lon="-0.154650">
						<ele>31</ele>
						<time>2022-07-15T06:22:21Z</time>
					</trkpt>
					<trkpt lat="47.134100" lon="-0.154700">
						<ele>29</ele>
						<time>2022-07-15T06:22:23Z</time>
					</trkpt>
					<trkpt lat="47.134100" lon="-0.154760">
						<ele>28</ele>
						<time>2022-07-15T06:22:25Z</time>
					</trkpt>
					<trkpt lat="47.134090" lon="-0.154820">
						<ele>27</ele>
						<time>2022-07-15T06:22:27Z</time>
					</trkpt>
					<trkpt lat="47.134090" lon="-0.154880">
						<ele>28</ele>
						<time>2022-07-15T06:22:29Z</time>
					</trkpt>
					<trkpt lat="47.134070" lon="-0.154930">
						<ele>29</ele>
						<time>2022-07-15T06:22:31Z</time>
					</trkpt>
					<trkpt lat="47.134050" lon="-0.154970">
						<ele>28</ele>
						<time>2022-07-15T06:22:33Z</time>
					</trkpt>
					<trkpt lat="47.134020" lon="-0.155010">
						<ele>29</ele>
						<time>2022-07-15T06:22:36Z</time>
					</trkpt>
					<trkpt lat="47.134010" lon="-0.155050">
						<ele>30</ele>
						<time>2022-07-15T06:22:38Z</time>
					</trkpt>
					<trkpt lat="47.133990" lon="-0.155090">
						<ele>30</ele>
						<time>2022-07-15T06:22:40Z</time>
					</trkpt>
					<trkpt lat="47.133980" lon="-0.155130">
						<ele>29</ele>
						<time>2022-07-15T06:22:42Z</time>
					</trkpt>
					<trkpt lat="47.133960" lon="-0.155170">
						<ele>29</ele>
						<time>2022-07-15T06:22:44Z</time>
					</trkpt>
					<trkpt lat="47.133940" lon="-0.155210">
						<ele>29</ele>
						<time>2022-07-15T06:22:46Z</time>
					</trkpt>
					<trkpt lat="47.133920" lon="-0.155250">
						<ele>28</ele>
						<time>2022-07-15T06:22:48Z</time>
					</trkpt>
					<trkpt lat="47.133900" lon="-0.155280">
						<ele>28</ele>
						<time>2022-07-15T06:22:50Z</time>
					</trkpt>
					<trkpt lat="47.133890" lon="-0.155330">
						<ele>27</ele>
						<time>2022-07-15T06:22:53Z</time>
					</trkpt>
					<trkpt lat="47.133870" lon="-0.155370">
						<ele>27</ele>
						<time>2022-07-15T06:22:55Z</time>
					</trkpt>
					<trkpt lat="47.133850" lon="-0.155410">
						<ele>27</ele>
						<time>2022-07-15T06:22:57Z</time>
					</trkpt>
					<trkpt lat="47.133830" lon="-0.155460">
						<ele>27</ele>
						<time>2022-07-15T06:23:00Z</time>
					</trkpt>
					<trkpt lat="47.133810" lon="-0.155500">
						<ele>28</ele>
						<time>2022-07-15T06:23:02Z</time>
					</trkpt>
					<trkpt lat="47.133780" lon="-0.155540">
						<ele>28</ele>
						<time>2022-07-15T06:23:04Z</time>
					</trkpt>
					<trkpt lat="47.133760" lon="-0.155570">
						<ele>27</ele>
						<time>2022-07-15T06:23:06Z</time>
					</trkpt>
					<trkpt lat="47.133750" lon="-0.155610">
						<ele>27</ele>
						<time>2022-07-15T06:23:08Z</time>
					</trkpt>
					<trkpt lat="47.133740" lon="-0.155660">
						<ele>27</ele>
						<time>2022-07-15T06:23:10Z</time>
					</trkpt>
					<trkpt lat="47.133730" lon="-0.155710">
						<ele>27</ele>
						<time>2022-07-15T06:23:13Z</time>
					</trkpt>
					<trkpt lat="47.133720" lon="-0.155760">
						<ele>27</ele>
						<time>2022-07-15T06:23:16Z</time>
					</trkpt>
					<trkpt lat="47.133700" lon="-0.155790">
						<ele>28</ele>
						<time>2022-07-15T06:23:20Z</time>
					</trkpt>
					<trkpt lat="47.133680" lon="-0.155830">
						<ele>27</ele>
						<time>2022-07-15T06:23:22Z</time>
					</trkpt>
					<trkpt lat="47.133670" lon="-0.155870">
						<ele>26</ele>
						<time>2022-07-15T06:23:24Z</time>
					</trkpt>
					<trkpt lat="47.133650" lon="-0.155920">
						<ele>26</ele>
						<time>2022-07-15T06:23:26Z</time>
					</trkpt>
					<trkpt lat="47.133660" lon="-0.155970">
						<ele>26</ele>
						<time>2022-07-15T06:23:29Z</time>
					</trkpt>
					<trkpt lat="47.133660" lon="-0.156020">
						<ele>26</ele>
						<time>2022-07-15T06:23:31Z</time>
					</trkpt>
					<trkpt lat="47.133650" lon="-0.156070">
						<ele>26</ele>
						<time>2022-07-15T06:23:33Z</time>
					</trkpt>
					<trkpt lat="47.133640" lon="-0.156110">
						<ele>25</ele>
						<time>2022-07-15T06:23:35Z</time>
					</trkpt>
					<trkpt lat="47.133640" lon="-0.156170">
						<ele>25</ele>
						<time>2022-07-15T06:23:37Z</time>
					</trkpt>
					<trkpt lat="47.133620" lon="-0.156220">
						<ele>26</ele>
						<time>2022-07-15T06:23:39Z</time>
					</trkpt>
					<trkpt lat="47.133610" lon="-0.156280">
						<ele>27</ele>
						<time>2022-07-15T06:23:41Z</time>
					</trkpt>
					<trkpt lat="47.133600" lon="-0.156320">
						<ele>28</ele>
						<time>2022-07-15T06:23:43Z</time>
					</trkpt>
					<trkpt lat="47.133590" lon="-0.156370">
						<ele>28</ele>
						<time>2022-07-15T06:23:45Z</time>
					</trkpt>
					<trkpt lat="47.133580" lon="-0.156430">
						<ele>28</ele>
						<time>2022-07-15T06:23:47Z</time>
					</trkpt>
					<trkpt lat="47.133570" lon="-0.156480">
						<ele>28</ele>
						<time>2022-07-15T06:23:49Z</time>
					</trkpt>
					<trkpt lat="47.133560" lon="-0.156530">
						<ele>29</ele>
						<time>2022-07-15T06:23:51Z</time>
					</trkpt>
					<trkpt lat="47.133550" lon="-0.156580">
						<ele>29</ele>
						<time>2022-07-15T06:23:53Z</time>
					</trkpt>
					<trkpt lat="47.133540" lon="-0.156620">
						<ele>29</ele>
						<time>2022-07-15T06:23:55Z</time>
					</trkpt>
					<trkpt lat="47.133520" lon="-0.156660">
						<ele>28</ele>
						<time>2022-07-15T06:23:57Z</time>
					</trkpt>
					<trkpt lat="47.133510" lon="-0.156700">
						<ele>28</ele>
						<time>2022-07-15T06:23:59Z</time>
					</trkpt>
					<trkpt lat="47.133490" lon="-0.156740">
						<ele>27</ele>
						<time>2022-07-15T06:24:01Z</time>
					</trkpt>
					<trkpt lat="47.133470" lon="-0.156770">
						<ele>27</ele>
						<time>2022-07-15T06:24:03Z</time>
					</trkpt>
					<trkpt lat="47.133450" lon="-0.156810">
						<ele>28</ele>
						<time>2022-07-15T06:24:05Z</time>
					</trkpt>
					<trkpt lat="47.133440" lon="-0.156860">
						<ele>28</ele>
						<time>2022-07-15T06:24:07Z</time>
					</trkpt>
					<trkpt lat="47.133420" lon="-0.156900">
						<ele>29</ele>
						<time>2022-07-15T06:24:10Z</time>
					</trkpt>
					<trkpt lat="47.133410" lon="-0.156930">
						<ele>29</ele>
						<time>2022-07-15T06:24:13Z</time>
					</trkpt>
					<trkpt lat="47.133390" lon="-0.156970">
						<ele>29</ele>
						<time>2022-07-15T06:24:15Z</time>
					</trkpt>
					<trkpt lat="47.133370" lon="-0.157010">
						<ele>30</ele>
						<time>2022-07-15T06:24:17Z</time>
					</trkpt>
					<trkpt lat="47.133360" lon="-0.157050">
						<ele>31</ele>
						<time>2022-07-15T06:24:19Z</time>
					</trkpt>
					<trkpt lat="47.133350" lon="-0.157090">
						<ele>32</ele>
						<time>2022-07-15T06:24:21Z</time>
					</trkpt>
					<trkpt lat="47.133330" lon="-0.157130">
						<ele>32</ele>
						<time>2022-07-15T06:24:23Z</time>
					</trkpt>
					<trkpt lat="47.133320" lon="-0.157180">
						<ele>32</ele>
						<time>2022-07-15T06:24:25Z</time>
					</trkpt>
					<trkpt lat="47.133310" lon="-0.157220">
						<ele>31</ele>
						<time>2022-07-15T06:24:27Z</time>
					</trkpt>
					<trkpt lat="47.133290" lon="-0.157270">
						<ele>30</ele>
						<time>2022-07-15T06:24:29Z</time>
					</trkpt>
					<trkpt lat="47.133280" lon="-0.157310">
						<ele>30</ele>
						<time>2022-07-15T06:24:31Z</time>
					</trkpt>
					<trkpt lat="47.133270" lon="-0.157360">
						<ele>30</ele>
						<time>2022-07-15T06:24:33Z</time>
					</trkpt>
					<trkpt lat="47.133250" lon="-0.157400">
						<ele>30</ele>
						<time>2022-07-15T06:24:35Z</time>
					</trkpt>
					<trkpt lat="47.133230" lon="-0.157450">
						<ele>30</ele>
						<time>2022-07-15T06:24:38Z</time>
					</trkpt>
					<trkpt lat="47.133220" lon="-0.157490">
						<ele>30</ele>
						<time>2022-07-15T06:24:40Z</time>
					</trkpt>
					<trkpt lat="47.133210" lon="-0.157530">
						<ele>30</ele>
						<time>2022-07-15T06:24:42Z</time>
					</trkpt>
					<trkpt lat="47.133190" lon="-0.157570">
						<ele>30</ele>
						<time>2022-07-15T06:24:46Z</time>
					</trkpt>
					<trkpt lat="47.133190" lon="-0.157610">
						<ele>29</ele>
						<time>2022-07-15T06:24:53Z</time>
					</trkpt>
					<trkpt lat="47.133180" lon="-0.157660">
						<ele>29</ele>
						<time>2022-07-15T06:24:56Z</time>
					</trkpt>
					<trkpt lat="47.133180" lon="-0.157710">
						<ele>29</ele>
						<time>2022-07-15T06:24:58Z</time>
					</trkpt>
					<trkpt lat="47.133170" lon="-0.157750">
						<ele>29</ele>
						<time>2022-07-15T06:25:00Z</time>
					</trkpt>
					<trkpt lat="47.133160" lon="-0.157790">
						<ele>30</ele>
						<time>2022-07-15T06:25:02Z</time>
					</trkpt>
					<trkpt lat="47.133150" lon="-0.157840">
						<ele>30</ele>
						<time>2022-07-15T06:25:04Z</time>
					</trkpt>
					<trkpt lat="47.133140" lon="-0.157880">
						<ele>30</ele>
						<time>2022-07-15T06:25:06Z</time>
					</trkpt>
					<trkpt lat="47.133140" lon="-0.157920">
						<ele>29</ele>
						<time>2022-07-15T06:25:08Z</time>
					</trkpt>
					<trkpt lat="47.133120" lon="-0.157960">
						<ele>30</ele>
						<time>2022-07-15T06:25:11Z</time>
					</trkpt>
					<trkpt lat="47.133090" lon="-0.158000">
						<ele>30</ele>
						<time>2022-07-15T06:25:13Z</time>
					</trkpt>
					<trkpt lat="47.133070" lon="-0.158030">
						<ele>30</ele>
						<time>2022-07-15T06:25:15Z</time>
					</trkpt>
					<trkpt lat="47.133040" lon="-0.158060">
						<ele>28</ele>
						<time>2022-07-15T06:25:17Z</time>
					</trkpt>
					<trkpt lat="47.133010" lon="-0.158090">
						<ele>28</ele>
						<time>2022-07-15T06:25:19Z</time>
					</trkpt>
					<trkpt lat="47.132980" lon="-0.158110">
						<ele>28</ele>
						<time>2022-07-15T06:25:21Z</time>
					</trkpt>
					<trkpt lat="47.132940" lon="-0.158130">
						<ele>29</ele>
						<time>2022-07-15T06:25:23Z</time>
					</trkpt>
					<trkpt lat="47.132910" lon="-0.158160">
						<ele>29</ele>
						<time>2022-07-15T06:25:26Z</time>
					</trkpt>
					<trkpt lat="47.132880" lon="-0.158180">
						<ele>28</ele>
						<time>2022-07-15T06:25:28Z</time>
					</trkpt>
					<trkpt lat="47.132860" lon="-0.158210">
						<ele>28</ele>
						<time>2022-07-15T06:25:30Z</time>
					</trkpt>
					<trkpt lat="47.132840" lon="-0.158240">
						<ele>28</ele>
						<time>2022-07-15T06:25:32Z</time>
					</trkpt>
					<trkpt lat="47.132810" lon="-0.158260">
						<ele>27</ele>
						<time>2022-07-15T06:25:34Z</time>
					</trkpt>
					<trkpt lat="47.132780" lon="-0.158290">
						<ele>27</ele>
						<time>2022-07-15T06:25:36Z</time>
					</trkpt>
					<trkpt lat="47.132760" lon="-0.158310">
						<ele>27</ele>
						<time>2022-07-15T06:25:38Z</time>
					</trkpt>		</trkseg>
	</trk>
</gpx>